<?xml version="1.0" encoding="UTF-8" standalone="no" ?>
<gpx xmlns="http://www.topografix.com/GPX/1/1" xmlns:xsi="http://www.w3.org/2001/XMLSchema-instance" xsi:schemaLocation="http://www.topografix.com/GPX/1/1 http://www.topografix.com/GPX/1/1/gpx.xsd" version="1.1" creator="VisuGPX - https://www.visugpx.com">
  <metadata>
    <name>Sainte-Tulle Cyclisme</name>
    <desc><![CDATA[très gras avec vincent,brunot ,Gérard,christian,raymond,michel,christian, maurice]]></desc>
  </metadata>
  <trk>
    <name><![CDATA[Sainte-Tulle Cyclisme]]></name>
    <trkseg>
      <trkpt lat="43.7851" lon="5.76351">
        <ele>298.79998779297</ele>
        <time>2020-12-23T09:25:13.000Z</time>
      </trkpt>
      <trkpt lat="43.7851" lon="5.7635">
        <ele>298.39999389648</ele>
        <time>2020-12-23T09:25:32.000Z</time>
      </trkpt>
      <trkpt lat="43.78509" lon="5.76351">
        <ele>298.39999389648</ele>
        <time>2020-12-23T09:25:46.000Z</time>
      </trkpt>
      <trkpt lat="43.78509" lon="5.76351">
        <ele>298.39999389648</ele>
        <time>2020-12-23T09:25:53.000Z</time>
      </trkpt>
      <trkpt lat="43.78509" lon="5.76351">
        <ele>298.20001220703</ele>
        <time>2020-12-23T09:26:02.000Z</time>
      </trkpt>
      <trkpt lat="43.78508" lon="5.76351">
        <ele>298</ele>
        <time>2020-12-23T09:26:27.000Z</time>
      </trkpt>
      <trkpt lat="43.78508" lon="5.7635">
        <ele>298.20001220703</ele>
        <time>2020-12-23T09:26:35.000Z</time>
      </trkpt>
      <trkpt lat="43.78508" lon="5.7635">
        <ele>298.20001220703</ele>
        <time>2020-12-23T09:26:41.000Z</time>
      </trkpt>
      <trkpt lat="43.78507" lon="5.76349">
        <ele>298.20001220703</ele>
        <time>2020-12-23T09:26:42.000Z</time>
      </trkpt>
      <trkpt lat="43.78504" lon="5.76353">
        <ele>298.20001220703</ele>
        <time>2020-12-23T09:26:46.000Z</time>
      </trkpt>
      <trkpt lat="43.78504" lon="5.76355">
        <ele>298.20001220703</ele>
        <time>2020-12-23T09:26:51.000Z</time>
      </trkpt>
      <trkpt lat="43.78508" lon="5.76363">
        <ele>298.20001220703</ele>
        <time>2020-12-23T09:26:58.000Z</time>
      </trkpt>
      <trkpt lat="43.78515" lon="5.7636">
        <ele>298.20001220703</ele>
        <time>2020-12-23T09:27:02.000Z</time>
      </trkpt>
      <trkpt lat="43.78515" lon="5.76347">
        <ele>298.20001220703</ele>
        <time>2020-12-23T09:27:05.000Z</time>
      </trkpt>
      <trkpt lat="43.78514" lon="5.76342">
        <ele>298.20001220703</ele>
        <time>2020-12-23T09:27:06.000Z</time>
      </trkpt>
      <trkpt lat="43.7851" lon="5.76315">
        <ele>298.20001220703</ele>
        <time>2020-12-23T09:27:11.000Z</time>
      </trkpt>
      <trkpt lat="43.78506" lon="5.76293">
        <ele>298.39999389648</ele>
        <time>2020-12-23T09:27:18.000Z</time>
      </trkpt>
      <trkpt lat="43.78503" lon="5.76273">
        <ele>298.60000610352</ele>
        <time>2020-12-23T09:27:25.000Z</time>
      </trkpt>
      <trkpt lat="43.785" lon="5.76253">
        <ele>298.79998779297</ele>
        <time>2020-12-23T09:27:32.000Z</time>
      </trkpt>
      <trkpt lat="43.78497" lon="5.76231">
        <ele>298.79998779297</ele>
        <time>2020-12-23T09:27:40.000Z</time>
      </trkpt>
      <trkpt lat="43.78495" lon="5.76214">
        <ele>299</ele>
        <time>2020-12-23T09:27:45.000Z</time>
      </trkpt>
      <trkpt lat="43.78492" lon="5.76206">
        <ele>299</ele>
        <time>2020-12-23T09:27:48.000Z</time>
      </trkpt>
      <trkpt lat="43.78485" lon="5.76202">
        <ele>299</ele>
        <time>2020-12-23T09:27:53.000Z</time>
      </trkpt>
      <trkpt lat="43.78472" lon="5.76198">
        <ele>299.39999389648</ele>
        <time>2020-12-23T09:27:59.000Z</time>
      </trkpt>
      <trkpt lat="43.7846" lon="5.76194">
        <ele>299.79998779297</ele>
        <time>2020-12-23T09:28:04.000Z</time>
      </trkpt>
      <trkpt lat="43.78456" lon="5.76193">
        <ele>299.79998779297</ele>
        <time>2020-12-23T09:28:06.000Z</time>
      </trkpt>
      <trkpt lat="43.78445" lon="5.76187">
        <ele>300.60000610352</ele>
        <time>2020-12-23T09:28:11.000Z</time>
      </trkpt>
      <trkpt lat="43.78441" lon="5.76184">
        <ele>300.60000610352</ele>
        <time>2020-12-23T09:28:13.000Z</time>
      </trkpt>
      <trkpt lat="43.78426" lon="5.76178">
        <ele>300.79998779297</ele>
        <time>2020-12-23T09:28:19.000Z</time>
      </trkpt>
      <trkpt lat="43.78421" lon="5.76174">
        <ele>300.79998779297</ele>
        <time>2020-12-23T09:28:21.000Z</time>
      </trkpt>
      <trkpt lat="43.78414" lon="5.76169">
        <ele>300.79998779297</ele>
        <time>2020-12-23T09:28:24.000Z</time>
      </trkpt>
      <trkpt lat="43.78397" lon="5.76165">
        <ele>301.20001220703</ele>
        <time>2020-12-23T09:28:31.000Z</time>
      </trkpt>
      <trkpt lat="43.78383" lon="5.7616">
        <ele>302</ele>
        <time>2020-12-23T09:28:37.000Z</time>
      </trkpt>
      <trkpt lat="43.78381" lon="5.7616">
        <ele>302</ele>
        <time>2020-12-23T09:28:38.000Z</time>
      </trkpt>
      <trkpt lat="43.78365" lon="5.76156">
        <ele>302.60000610352</ele>
        <time>2020-12-23T09:28:45.000Z</time>
      </trkpt>
      <trkpt lat="43.7836" lon="5.76159">
        <ele>303.20001220703</ele>
        <time>2020-12-23T09:28:47.000Z</time>
      </trkpt>
      <trkpt lat="43.78354" lon="5.76162">
        <ele>303.79998779297</ele>
        <time>2020-12-23T09:28:50.000Z</time>
      </trkpt>
      <trkpt lat="43.7835" lon="5.76165">
        <ele>304.39999389648</ele>
        <time>2020-12-23T09:28:52.000Z</time>
      </trkpt>
      <trkpt lat="43.78343" lon="5.7617">
        <ele>305.20001220703</ele>
        <time>2020-12-23T09:28:55.000Z</time>
      </trkpt>
      <trkpt lat="43.78339" lon="5.76173">
        <ele>305.79998779297</ele>
        <time>2020-12-23T09:28:57.000Z</time>
      </trkpt>
      <trkpt lat="43.78335" lon="5.76176">
        <ele>306.60000610352</ele>
        <time>2020-12-23T09:28:59.000Z</time>
      </trkpt>
      <trkpt lat="43.78333" lon="5.76177">
        <ele>307</ele>
        <time>2020-12-23T09:29:00.000Z</time>
      </trkpt>
      <trkpt lat="43.78327" lon="5.76182">
        <ele>307.79998779297</ele>
        <time>2020-12-23T09:29:03.000Z</time>
      </trkpt>
      <trkpt lat="43.78322" lon="5.76188">
        <ele>308.60000610352</ele>
        <time>2020-12-23T09:29:06.000Z</time>
      </trkpt>
      <trkpt lat="43.78321" lon="5.7619">
        <ele>309</ele>
        <time>2020-12-23T09:29:07.000Z</time>
      </trkpt>
      <trkpt lat="43.78311" lon="5.76196">
        <ele>309.79998779297</ele>
        <time>2020-12-23T09:29:12.000Z</time>
      </trkpt>
      <trkpt lat="43.78309" lon="5.76197">
        <ele>310.39999389648</ele>
        <time>2020-12-23T09:29:13.000Z</time>
      </trkpt>
      <trkpt lat="43.78292" lon="5.76205">
        <ele>310.79998779297</ele>
        <time>2020-12-23T09:29:20.000Z</time>
      </trkpt>
      <trkpt lat="43.78272" lon="5.76213">
        <ele>311</ele>
        <time>2020-12-23T09:29:28.000Z</time>
      </trkpt>
      <trkpt lat="43.78261" lon="5.76216">
        <ele>311</ele>
        <time>2020-12-23T09:29:32.000Z</time>
      </trkpt>
      <trkpt lat="43.78253" lon="5.7622">
        <ele>311.39999389648</ele>
        <time>2020-12-23T09:29:35.000Z</time>
      </trkpt>
      <trkpt lat="43.78233" lon="5.76228">
        <ele>311.79998779297</ele>
        <time>2020-12-23T09:29:43.000Z</time>
      </trkpt>
      <trkpt lat="43.78226" lon="5.76231">
        <ele>312.20001220703</ele>
        <time>2020-12-23T09:29:46.000Z</time>
      </trkpt>
      <trkpt lat="43.78222" lon="5.76233">
        <ele>312.39999389648</ele>
        <time>2020-12-23T09:29:48.000Z</time>
      </trkpt>
      <trkpt lat="43.78218" lon="5.76234">
        <ele>313</ele>
        <time>2020-12-23T09:29:50.000Z</time>
      </trkpt>
      <trkpt lat="43.78215" lon="5.76235">
        <ele>313.39999389648</ele>
        <time>2020-12-23T09:29:51.000Z</time>
      </trkpt>
      <trkpt lat="43.78204" lon="5.7624">
        <ele>314.20001220703</ele>
        <time>2020-12-23T09:29:56.000Z</time>
      </trkpt>
      <trkpt lat="43.78197" lon="5.76243">
        <ele>315</ele>
        <time>2020-12-23T09:29:59.000Z</time>
      </trkpt>
      <trkpt lat="43.78195" lon="5.76244">
        <ele>315.39999389648</ele>
        <time>2020-12-23T09:30:00.000Z</time>
      </trkpt>
      <trkpt lat="43.78183" lon="5.76249">
        <ele>316.60000610352</ele>
        <time>2020-12-23T09:30:05.000Z</time>
      </trkpt>
      <trkpt lat="43.78173" lon="5.76253">
        <ele>317.39999389648</ele>
        <time>2020-12-23T09:30:09.000Z</time>
      </trkpt>
      <trkpt lat="43.78161" lon="5.76257">
        <ele>318.79998779297</ele>
        <time>2020-12-23T09:30:14.000Z</time>
      </trkpt>
      <trkpt lat="43.78153" lon="5.76259">
        <ele>319.20001220703</ele>
        <time>2020-12-23T09:30:17.000Z</time>
      </trkpt>
      <trkpt lat="43.78132" lon="5.76267">
        <ele>319.79998779297</ele>
        <time>2020-12-23T09:30:25.000Z</time>
      </trkpt>
      <trkpt lat="43.78115" lon="5.76273">
        <ele>320</ele>
        <time>2020-12-23T09:30:31.000Z</time>
      </trkpt>
      <trkpt lat="43.78092" lon="5.7628">
        <ele>320</ele>
        <time>2020-12-23T09:30:38.000Z</time>
      </trkpt>
      <trkpt lat="43.78076" lon="5.76283">
        <ele>319.79998779297</ele>
        <time>2020-12-23T09:30:43.000Z</time>
      </trkpt>
      <trkpt lat="43.7807" lon="5.76284">
        <ele>319.79998779297</ele>
        <time>2020-12-23T09:30:45.000Z</time>
      </trkpt>
      <trkpt lat="43.78042" lon="5.76287">
        <ele>319.60000610352</ele>
        <time>2020-12-23T09:30:54.000Z</time>
      </trkpt>
      <trkpt lat="43.78019" lon="5.76288">
        <ele>319.39999389648</ele>
        <time>2020-12-23T09:31:02.000Z</time>
      </trkpt>
      <trkpt lat="43.77999" lon="5.76288">
        <ele>319.20001220703</ele>
        <time>2020-12-23T09:31:10.000Z</time>
      </trkpt>
      <trkpt lat="43.77978" lon="5.76286">
        <ele>319.20001220703</ele>
        <time>2020-12-23T09:31:18.000Z</time>
      </trkpt>
      <trkpt lat="43.77952" lon="5.76284">
        <ele>319.20001220703</ele>
        <time>2020-12-23T09:31:26.000Z</time>
      </trkpt>
      <trkpt lat="43.77925" lon="5.76278">
        <ele>318.79998779297</ele>
        <time>2020-12-23T09:31:34.000Z</time>
      </trkpt>
      <trkpt lat="43.77921" lon="5.76277">
        <ele>318.79998779297</ele>
        <time>2020-12-23T09:31:35.000Z</time>
      </trkpt>
      <trkpt lat="43.77904" lon="5.76271">
        <ele>318.39999389648</ele>
        <time>2020-12-23T09:31:40.000Z</time>
      </trkpt>
      <trkpt lat="43.77873" lon="5.76252">
        <ele>318.20001220703</ele>
        <time>2020-12-23T09:31:49.000Z</time>
      </trkpt>
      <trkpt lat="43.77851" lon="5.7624">
        <ele>318</ele>
        <time>2020-12-23T09:31:55.000Z</time>
      </trkpt>
      <trkpt lat="43.77844" lon="5.76237">
        <ele>318</ele>
        <time>2020-12-23T09:31:57.000Z</time>
      </trkpt>
      <trkpt lat="43.77817" lon="5.76225">
        <ele>318</ele>
        <time>2020-12-23T09:32:04.000Z</time>
      </trkpt>
      <trkpt lat="43.77789" lon="5.76208">
        <ele>318.20001220703</ele>
        <time>2020-12-23T09:32:12.000Z</time>
      </trkpt>
      <trkpt lat="43.77763" lon="5.76183">
        <ele>319.60000610352</ele>
        <time>2020-12-23T09:32:21.000Z</time>
      </trkpt>
      <trkpt lat="43.7776" lon="5.76179">
        <ele>319.79998779297</ele>
        <time>2020-12-23T09:32:22.000Z</time>
      </trkpt>
      <trkpt lat="43.77742" lon="5.76161">
        <ele>320.79998779297</ele>
        <time>2020-12-23T09:32:28.000Z</time>
      </trkpt>
      <trkpt lat="43.77737" lon="5.76155">
        <ele>321</ele>
        <time>2020-12-23T09:32:30.000Z</time>
      </trkpt>
      <trkpt lat="43.77723" lon="5.76142">
        <ele>321.79998779297</ele>
        <time>2020-12-23T09:32:35.000Z</time>
      </trkpt>
      <trkpt lat="43.7772" lon="5.76139">
        <ele>321.79998779297</ele>
        <time>2020-12-23T09:32:36.000Z</time>
      </trkpt>
      <trkpt lat="43.77704" lon="5.76129">
        <ele>322.60000610352</ele>
        <time>2020-12-23T09:32:41.000Z</time>
      </trkpt>
      <trkpt lat="43.77698" lon="5.76124">
        <ele>323</ele>
        <time>2020-12-23T09:32:43.000Z</time>
      </trkpt>
      <trkpt lat="43.77678" lon="5.76105">
        <ele>324.20001220703</ele>
        <time>2020-12-23T09:32:50.000Z</time>
      </trkpt>
      <trkpt lat="43.77676" lon="5.76102">
        <ele>324.20001220703</ele>
        <time>2020-12-23T09:32:51.000Z</time>
      </trkpt>
      <trkpt lat="43.77656" lon="5.76079">
        <ele>325.20001220703</ele>
        <time>2020-12-23T09:32:58.000Z</time>
      </trkpt>
      <trkpt lat="43.77653" lon="5.76076">
        <ele>325.39999389648</ele>
        <time>2020-12-23T09:32:59.000Z</time>
      </trkpt>
      <trkpt lat="43.77637" lon="5.76057">
        <ele>325.79998779297</ele>
        <time>2020-12-23T09:33:05.000Z</time>
      </trkpt>
      <trkpt lat="43.77632" lon="5.7605">
        <ele>326.20001220703</ele>
        <time>2020-12-23T09:33:07.000Z</time>
      </trkpt>
      <trkpt lat="43.77629" lon="5.76046">
        <ele>326.39999389648</ele>
        <time>2020-12-23T09:33:08.000Z</time>
      </trkpt>
      <trkpt lat="43.77611" lon="5.7602">
        <ele>326.79998779297</ele>
        <time>2020-12-23T09:33:15.000Z</time>
      </trkpt>
      <trkpt lat="43.7759" lon="5.75984">
        <ele>327.20001220703</ele>
        <time>2020-12-23T09:33:23.000Z</time>
      </trkpt>
      <trkpt lat="43.77565" lon="5.75957">
        <ele>326.79998779297</ele>
        <time>2020-12-23T09:33:31.000Z</time>
      </trkpt>
      <trkpt lat="43.77535" lon="5.75931">
        <ele>326.79998779297</ele>
        <time>2020-12-23T09:33:40.000Z</time>
      </trkpt>
      <trkpt lat="43.77528" lon="5.75925">
        <ele>326.79998779297</ele>
        <time>2020-12-23T09:33:42.000Z</time>
      </trkpt>
      <trkpt lat="43.77512" lon="5.75912">
        <ele>326.79998779297</ele>
        <time>2020-12-23T09:33:47.000Z</time>
      </trkpt>
      <trkpt lat="43.77488" lon="5.7589">
        <ele>326.60000610352</ele>
        <time>2020-12-23T09:33:55.000Z</time>
      </trkpt>
      <trkpt lat="43.77471" lon="5.75874">
        <ele>326.39999389648</ele>
        <time>2020-12-23T09:34:00.000Z</time>
      </trkpt>
      <trkpt lat="43.77457" lon="5.75862">
        <ele>326</ele>
        <time>2020-12-23T09:34:04.000Z</time>
      </trkpt>
      <trkpt lat="43.77432" lon="5.75839">
        <ele>325.20001220703</ele>
        <time>2020-12-23T09:34:11.000Z</time>
      </trkpt>
      <trkpt lat="43.77429" lon="5.75835">
        <ele>325.20001220703</ele>
        <time>2020-12-23T09:34:12.000Z</time>
      </trkpt>
      <trkpt lat="43.77405" lon="5.75805">
        <ele>325</ele>
        <time>2020-12-23T09:34:20.000Z</time>
      </trkpt>
      <trkpt lat="43.77388" lon="5.75776">
        <ele>325</ele>
        <time>2020-12-23T09:34:27.000Z</time>
      </trkpt>
      <trkpt lat="43.77365" lon="5.7574">
        <ele>325</ele>
        <time>2020-12-23T09:34:34.000Z</time>
      </trkpt>
      <trkpt lat="43.7735" lon="5.75718">
        <ele>324</ele>
        <time>2020-12-23T09:34:39.000Z</time>
      </trkpt>
      <trkpt lat="43.77344" lon="5.7571">
        <ele>323.79998779297</ele>
        <time>2020-12-23T09:34:41.000Z</time>
      </trkpt>
      <trkpt lat="43.77318" lon="5.75673">
        <ele>323.39999389648</ele>
        <time>2020-12-23T09:34:50.000Z</time>
      </trkpt>
      <trkpt lat="43.77315" lon="5.75669">
        <ele>323.39999389648</ele>
        <time>2020-12-23T09:34:51.000Z</time>
      </trkpt>
      <trkpt lat="43.773" lon="5.75652">
        <ele>323.20001220703</ele>
        <time>2020-12-23T09:34:56.000Z</time>
      </trkpt>
      <trkpt lat="43.7728" lon="5.75632">
        <ele>323.20001220703</ele>
        <time>2020-12-23T09:35:03.000Z</time>
      </trkpt>
      <trkpt lat="43.77258" lon="5.75615">
        <ele>323.60000610352</ele>
        <time>2020-12-23T09:35:10.000Z</time>
      </trkpt>
      <trkpt lat="43.77241" lon="5.756">
        <ele>323.79998779297</ele>
        <time>2020-12-23T09:35:16.000Z</time>
      </trkpt>
      <trkpt lat="43.77231" lon="5.75591">
        <ele>324.79998779297</ele>
        <time>2020-12-23T09:35:23.000Z</time>
      </trkpt>
      <trkpt lat="43.77229" lon="5.75586">
        <ele>325.20001220703</ele>
        <time>2020-12-23T09:35:25.000Z</time>
      </trkpt>
      <trkpt lat="43.77222" lon="5.7557">
        <ele>326.20001220703</ele>
        <time>2020-12-23T09:35:30.000Z</time>
      </trkpt>
      <trkpt lat="43.77222" lon="5.75566">
        <ele>326.39999389648</ele>
        <time>2020-12-23T09:35:31.000Z</time>
      </trkpt>
      <trkpt lat="43.77225" lon="5.75544">
        <ele>326.79998779297</ele>
        <time>2020-12-23T09:35:36.000Z</time>
      </trkpt>
      <trkpt lat="43.77229" lon="5.75525">
        <ele>327.20001220703</ele>
        <time>2020-12-23T09:35:42.000Z</time>
      </trkpt>
      <trkpt lat="43.7723" lon="5.75522">
        <ele>327.60000610352</ele>
        <time>2020-12-23T09:35:43.000Z</time>
      </trkpt>
      <trkpt lat="43.7723" lon="5.7551">
        <ele>328.79998779297</ele>
        <time>2020-12-23T09:35:47.000Z</time>
      </trkpt>
      <trkpt lat="43.77231" lon="5.75501">
        <ele>329.39999389648</ele>
        <time>2020-12-23T09:35:50.000Z</time>
      </trkpt>
      <trkpt lat="43.7723" lon="5.75495">
        <ele>330</ele>
        <time>2020-12-23T09:35:52.000Z</time>
      </trkpt>
      <trkpt lat="43.7723" lon="5.75483">
        <ele>331</ele>
        <time>2020-12-23T09:35:57.000Z</time>
      </trkpt>
      <trkpt lat="43.7723" lon="5.75471">
        <ele>332</ele>
        <time>2020-12-23T09:36:03.000Z</time>
      </trkpt>
      <trkpt lat="43.77231" lon="5.7547">
        <ele>332</ele>
        <time>2020-12-23T09:36:04.000Z</time>
      </trkpt>
      <trkpt lat="43.77231" lon="5.75469">
        <ele>332.60000610352</ele>
        <time>2020-12-23T09:36:09.000Z</time>
      </trkpt>
      <trkpt lat="43.77231" lon="5.75469">
        <ele>333</ele>
        <time>2020-12-23T09:36:15.000Z</time>
      </trkpt>
      <trkpt lat="43.77231" lon="5.75463">
        <ele>333.20001220703</ele>
        <time>2020-12-23T09:36:19.000Z</time>
      </trkpt>
      <trkpt lat="43.77233" lon="5.75447">
        <ele>333.20001220703</ele>
        <time>2020-12-23T09:36:27.000Z</time>
      </trkpt>
      <trkpt lat="43.77235" lon="5.75435">
        <ele>334.20001220703</ele>
        <time>2020-12-23T09:36:33.000Z</time>
      </trkpt>
      <trkpt lat="43.77235" lon="5.75432">
        <ele>334.39999389648</ele>
        <time>2020-12-23T09:36:34.000Z</time>
      </trkpt>
      <trkpt lat="43.77239" lon="5.75414">
        <ele>335.39999389648</ele>
        <time>2020-12-23T09:36:41.000Z</time>
      </trkpt>
      <trkpt lat="43.7724" lon="5.75409">
        <ele>335.79998779297</ele>
        <time>2020-12-23T09:36:43.000Z</time>
      </trkpt>
      <trkpt lat="43.77242" lon="5.75402">
        <ele>336.39999389648</ele>
        <time>2020-12-23T09:36:45.000Z</time>
      </trkpt>
      <trkpt lat="43.77246" lon="5.7539">
        <ele>337.39999389648</ele>
        <time>2020-12-23T09:36:49.000Z</time>
      </trkpt>
      <trkpt lat="43.77247" lon="5.75387">
        <ele>337.60000610352</ele>
        <time>2020-12-23T09:36:50.000Z</time>
      </trkpt>
      <trkpt lat="43.77254" lon="5.75375">
        <ele>338.79998779297</ele>
        <time>2020-12-23T09:36:54.000Z</time>
      </trkpt>
      <trkpt lat="43.7726" lon="5.75368">
        <ele>339.60000610352</ele>
        <time>2020-12-23T09:36:57.000Z</time>
      </trkpt>
      <trkpt lat="43.77262" lon="5.75366">
        <ele>340</ele>
        <time>2020-12-23T09:36:58.000Z</time>
      </trkpt>
      <trkpt lat="43.77274" lon="5.75359">
        <ele>341.20001220703</ele>
        <time>2020-12-23T09:37:02.000Z</time>
      </trkpt>
      <trkpt lat="43.77287" lon="5.75354">
        <ele>342.20001220703</ele>
        <time>2020-12-23T09:37:06.000Z</time>
      </trkpt>
      <trkpt lat="43.77299" lon="5.7535">
        <ele>343</ele>
        <time>2020-12-23T09:37:10.000Z</time>
      </trkpt>
      <trkpt lat="43.77302" lon="5.75348">
        <ele>343.20001220703</ele>
        <time>2020-12-23T09:37:11.000Z</time>
      </trkpt>
      <trkpt lat="43.77304" lon="5.75345">
        <ele>343.39999389648</ele>
        <time>2020-12-23T09:37:12.000Z</time>
      </trkpt>
      <trkpt lat="43.77305" lon="5.75342">
        <ele>343.60000610352</ele>
        <time>2020-12-23T09:37:13.000Z</time>
      </trkpt>
      <trkpt lat="43.77306" lon="5.75326">
        <ele>343.79998779297</ele>
        <time>2020-12-23T09:37:17.000Z</time>
      </trkpt>
      <trkpt lat="43.77304" lon="5.7532">
        <ele>344.20001220703</ele>
        <time>2020-12-23T09:37:20.000Z</time>
      </trkpt>
      <trkpt lat="43.77302" lon="5.75319">
        <ele>344.39999389648</ele>
        <time>2020-12-23T09:37:21.000Z</time>
      </trkpt>
      <trkpt lat="43.77297" lon="5.75318">
        <ele>345.39999389648</ele>
        <time>2020-12-23T09:37:23.000Z</time>
      </trkpt>
      <trkpt lat="43.77291" lon="5.75316">
        <ele>346.60000610352</ele>
        <time>2020-12-23T09:37:25.000Z</time>
      </trkpt>
      <trkpt lat="43.77285" lon="5.75315">
        <ele>348.20001220703</ele>
        <time>2020-12-23T09:37:27.000Z</time>
      </trkpt>
      <trkpt lat="43.77279" lon="5.75313">
        <ele>349.39999389648</ele>
        <time>2020-12-23T09:37:29.000Z</time>
      </trkpt>
      <trkpt lat="43.77265" lon="5.75314">
        <ele>350</ele>
        <time>2020-12-23T09:37:34.000Z</time>
      </trkpt>
      <trkpt lat="43.77249" lon="5.7532">
        <ele>350.20001220703</ele>
        <time>2020-12-23T09:37:40.000Z</time>
      </trkpt>
      <trkpt lat="43.77239" lon="5.75322">
        <ele>351</ele>
        <time>2020-12-23T09:37:44.000Z</time>
      </trkpt>
      <trkpt lat="43.77236" lon="5.75321">
        <ele>351.20001220703</ele>
        <time>2020-12-23T09:37:45.000Z</time>
      </trkpt>
      <trkpt lat="43.77224" lon="5.75316">
        <ele>352.60000610352</ele>
        <time>2020-12-23T09:37:50.000Z</time>
      </trkpt>
      <trkpt lat="43.77214" lon="5.75305">
        <ele>353.60000610352</ele>
        <time>2020-12-23T09:37:55.000Z</time>
      </trkpt>
      <trkpt lat="43.77212" lon="5.75303">
        <ele>353.79998779297</ele>
        <time>2020-12-23T09:37:56.000Z</time>
      </trkpt>
      <trkpt lat="43.77203" lon="5.7529">
        <ele>354.79998779297</ele>
        <time>2020-12-23T09:38:01.000Z</time>
      </trkpt>
      <trkpt lat="43.77195" lon="5.75281">
        <ele>355.60000610352</ele>
        <time>2020-12-23T09:38:05.000Z</time>
      </trkpt>
      <trkpt lat="43.77193" lon="5.7528">
        <ele>355.79998779297</ele>
        <time>2020-12-23T09:38:06.000Z</time>
      </trkpt>
      <trkpt lat="43.77182" lon="5.7527">
        <ele>356.79998779297</ele>
        <time>2020-12-23T09:38:11.000Z</time>
      </trkpt>
      <trkpt lat="43.77175" lon="5.75265">
        <ele>357.39999389648</ele>
        <time>2020-12-23T09:38:14.000Z</time>
      </trkpt>
      <trkpt lat="43.77168" lon="5.7526">
        <ele>358</ele>
        <time>2020-12-23T09:38:17.000Z</time>
      </trkpt>
      <trkpt lat="43.77154" lon="5.75249">
        <ele>359</ele>
        <time>2020-12-23T09:38:23.000Z</time>
      </trkpt>
      <trkpt lat="43.77152" lon="5.75247">
        <ele>359.20001220703</ele>
        <time>2020-12-23T09:38:24.000Z</time>
      </trkpt>
      <trkpt lat="43.7714" lon="5.75238">
        <ele>360.20001220703</ele>
        <time>2020-12-23T09:38:30.000Z</time>
      </trkpt>
      <trkpt lat="43.77138" lon="5.75237">
        <ele>360.39999389648</ele>
        <time>2020-12-23T09:38:31.000Z</time>
      </trkpt>
      <trkpt lat="43.77125" lon="5.7523">
        <ele>361.39999389648</ele>
        <time>2020-12-23T09:38:37.000Z</time>
      </trkpt>
      <trkpt lat="43.77119" lon="5.75227">
        <ele>361.60000610352</ele>
        <time>2020-12-23T09:38:40.000Z</time>
      </trkpt>
      <trkpt lat="43.77102" lon="5.75221">
        <ele>362.60000610352</ele>
        <time>2020-12-23T09:38:47.000Z</time>
      </trkpt>
      <trkpt lat="43.771" lon="5.75221">
        <ele>362.60000610352</ele>
        <time>2020-12-23T09:38:48.000Z</time>
      </trkpt>
      <trkpt lat="43.77084" lon="5.75217">
        <ele>363.60000610352</ele>
        <time>2020-12-23T09:38:55.000Z</time>
      </trkpt>
      <trkpt lat="43.77081" lon="5.75216">
        <ele>363.79998779297</ele>
        <time>2020-12-23T09:38:56.000Z</time>
      </trkpt>
      <trkpt lat="43.77068" lon="5.75211">
        <ele>364.60000610352</ele>
        <time>2020-12-23T09:39:02.000Z</time>
      </trkpt>
      <trkpt lat="43.77064" lon="5.75206">
        <ele>365</ele>
        <time>2020-12-23T09:39:04.000Z</time>
      </trkpt>
      <trkpt lat="43.77063" lon="5.75199">
        <ele>365.60000610352</ele>
        <time>2020-12-23T09:39:06.000Z</time>
      </trkpt>
      <trkpt lat="43.77064" lon="5.75196">
        <ele>365.79998779297</ele>
        <time>2020-12-23T09:39:07.000Z</time>
      </trkpt>
      <trkpt lat="43.77066" lon="5.75193">
        <ele>365.79998779297</ele>
        <time>2020-12-23T09:39:08.000Z</time>
      </trkpt>
      <trkpt lat="43.77074" lon="5.75188">
        <ele>366.79998779297</ele>
        <time>2020-12-23T09:39:12.000Z</time>
      </trkpt>
      <trkpt lat="43.77076" lon="5.75188">
        <ele>367.20001220703</ele>
        <time>2020-12-23T09:39:13.000Z</time>
      </trkpt>
      <trkpt lat="43.77084" lon="5.75189">
        <ele>367.60000610352</ele>
        <time>2020-12-23T09:39:16.000Z</time>
      </trkpt>
      <trkpt lat="43.77091" lon="5.75189">
        <ele>368.20001220703</ele>
        <time>2020-12-23T09:39:19.000Z</time>
      </trkpt>
      <trkpt lat="43.77093" lon="5.75188">
        <ele>368.39999389648</ele>
        <time>2020-12-23T09:39:20.000Z</time>
      </trkpt>
      <trkpt lat="43.77105" lon="5.75187">
        <ele>369.39999389648</ele>
        <time>2020-12-23T09:39:25.000Z</time>
      </trkpt>
      <trkpt lat="43.77112" lon="5.75186">
        <ele>370</ele>
        <time>2020-12-23T09:39:28.000Z</time>
      </trkpt>
      <trkpt lat="43.77119" lon="5.75185">
        <ele>370.60000610352</ele>
        <time>2020-12-23T09:39:31.000Z</time>
      </trkpt>
      <trkpt lat="43.7713" lon="5.75182">
        <ele>371.60000610352</ele>
        <time>2020-12-23T09:39:36.000Z</time>
      </trkpt>
      <trkpt lat="43.77137" lon="5.75181">
        <ele>372.39999389648</ele>
        <time>2020-12-23T09:39:39.000Z</time>
      </trkpt>
      <trkpt lat="43.77142" lon="5.7518">
        <ele>373</ele>
        <time>2020-12-23T09:39:41.000Z</time>
      </trkpt>
      <trkpt lat="43.77156" lon="5.75177">
        <ele>374</ele>
        <time>2020-12-23T09:39:47.000Z</time>
      </trkpt>
      <trkpt lat="43.7716" lon="5.75176">
        <ele>374.39999389648</ele>
        <time>2020-12-23T09:39:49.000Z</time>
      </trkpt>
      <trkpt lat="43.77169" lon="5.75174">
        <ele>375.20001220703</ele>
        <time>2020-12-23T09:39:53.000Z</time>
      </trkpt>
      <trkpt lat="43.77181" lon="5.75172">
        <ele>376.20001220703</ele>
        <time>2020-12-23T09:39:58.000Z</time>
      </trkpt>
      <trkpt lat="43.77185" lon="5.75171">
        <ele>376.60000610352</ele>
        <time>2020-12-23T09:40:00.000Z</time>
      </trkpt>
      <trkpt lat="43.77192" lon="5.7517">
        <ele>377.39999389648</ele>
        <time>2020-12-23T09:40:03.000Z</time>
      </trkpt>
      <trkpt lat="43.77202" lon="5.75169">
        <ele>378.60000610352</ele>
        <time>2020-12-23T09:40:08.000Z</time>
      </trkpt>
      <trkpt lat="43.77211" lon="5.75167">
        <ele>379.60000610352</ele>
        <time>2020-12-23T09:40:12.000Z</time>
      </trkpt>
      <trkpt lat="43.77213" lon="5.75167">
        <ele>379.79998779297</ele>
        <time>2020-12-23T09:40:13.000Z</time>
      </trkpt>
      <trkpt lat="43.77225" lon="5.75164">
        <ele>380.79998779297</ele>
        <time>2020-12-23T09:40:19.000Z</time>
      </trkpt>
      <trkpt lat="43.77234" lon="5.75162">
        <ele>381.60000610352</ele>
        <time>2020-12-23T09:40:23.000Z</time>
      </trkpt>
      <trkpt lat="43.77238" lon="5.7516">
        <ele>382</ele>
        <time>2020-12-23T09:40:25.000Z</time>
      </trkpt>
      <trkpt lat="43.77253" lon="5.75155">
        <ele>383</ele>
        <time>2020-12-23T09:40:32.000Z</time>
      </trkpt>
      <trkpt lat="43.77257" lon="5.75154">
        <ele>383.39999389648</ele>
        <time>2020-12-23T09:40:34.000Z</time>
      </trkpt>
      <trkpt lat="43.77263" lon="5.75152">
        <ele>384.39999389648</ele>
        <time>2020-12-23T09:40:37.000Z</time>
      </trkpt>
      <trkpt lat="43.77274" lon="5.7515">
        <ele>385.39999389648</ele>
        <time>2020-12-23T09:40:42.000Z</time>
      </trkpt>
      <trkpt lat="43.77276" lon="5.75149">
        <ele>385.60000610352</ele>
        <time>2020-12-23T09:40:43.000Z</time>
      </trkpt>
      <trkpt lat="43.7729" lon="5.75149">
        <ele>386.79998779297</ele>
        <time>2020-12-23T09:40:49.000Z</time>
      </trkpt>
      <trkpt lat="43.77292" lon="5.7515">
        <ele>387</ele>
        <time>2020-12-23T09:40:50.000Z</time>
      </trkpt>
      <trkpt lat="43.773" lon="5.7515">
        <ele>387.79998779297</ele>
        <time>2020-12-23T09:40:53.000Z</time>
      </trkpt>
      <trkpt lat="43.77314" lon="5.75151">
        <ele>388.79998779297</ele>
        <time>2020-12-23T09:40:59.000Z</time>
      </trkpt>
      <trkpt lat="43.77317" lon="5.75151">
        <ele>389.20001220703</ele>
        <time>2020-12-23T09:41:00.000Z</time>
      </trkpt>
      <trkpt lat="43.77327" lon="5.75151">
        <ele>390.20001220703</ele>
        <time>2020-12-23T09:41:04.000Z</time>
      </trkpt>
      <trkpt lat="43.77339" lon="5.75149">
        <ele>391.39999389648</ele>
        <time>2020-12-23T09:41:09.000Z</time>
      </trkpt>
      <trkpt lat="43.77351" lon="5.75144">
        <ele>392.39999389648</ele>
        <time>2020-12-23T09:41:14.000Z</time>
      </trkpt>
      <trkpt lat="43.77357" lon="5.75139">
        <ele>393</ele>
        <time>2020-12-23T09:41:17.000Z</time>
      </trkpt>
      <trkpt lat="43.77363" lon="5.75133">
        <ele>393.60000610352</ele>
        <time>2020-12-23T09:41:20.000Z</time>
      </trkpt>
      <trkpt lat="43.77367" lon="5.75121">
        <ele>394.60000610352</ele>
        <time>2020-12-23T09:41:24.000Z</time>
      </trkpt>
      <trkpt lat="43.77368" lon="5.75106">
        <ele>395.79998779297</ele>
        <time>2020-12-23T09:41:29.000Z</time>
      </trkpt>
      <trkpt lat="43.77368" lon="5.75103">
        <ele>396</ele>
        <time>2020-12-23T09:41:30.000Z</time>
      </trkpt>
      <trkpt lat="43.77367" lon="5.75089">
        <ele>397</ele>
        <time>2020-12-23T09:41:34.000Z</time>
      </trkpt>
      <trkpt lat="43.77365" lon="5.75073">
        <ele>398</ele>
        <time>2020-12-23T09:41:39.000Z</time>
      </trkpt>
      <trkpt lat="43.77365" lon="5.75053">
        <ele>399.20001220703</ele>
        <time>2020-12-23T09:41:45.000Z</time>
      </trkpt>
      <trkpt lat="43.77365" lon="5.75047">
        <ele>399.39999389648</ele>
        <time>2020-12-23T09:41:47.000Z</time>
      </trkpt>
      <trkpt lat="43.77366" lon="5.75033">
        <ele>400.20001220703</ele>
        <time>2020-12-23T09:41:51.000Z</time>
      </trkpt>
      <trkpt lat="43.77365" lon="5.75023">
        <ele>400.79998779297</ele>
        <time>2020-12-23T09:41:54.000Z</time>
      </trkpt>
      <trkpt lat="43.77363" lon="5.75014">
        <ele>401.20001220703</ele>
        <time>2020-12-23T09:41:57.000Z</time>
      </trkpt>
      <trkpt lat="43.7736" lon="5.75004">
        <ele>401.60000610352</ele>
        <time>2020-12-23T09:42:00.000Z</time>
      </trkpt>
      <trkpt lat="43.77357" lon="5.74994">
        <ele>402.39999389648</ele>
        <time>2020-12-23T09:42:03.000Z</time>
      </trkpt>
      <trkpt lat="43.77353" lon="5.74982">
        <ele>403</ele>
        <time>2020-12-23T09:42:08.000Z</time>
      </trkpt>
      <trkpt lat="43.7735" lon="5.74978">
        <ele>403.39999389648</ele>
        <time>2020-12-23T09:42:11.000Z</time>
      </trkpt>
      <trkpt lat="43.77346" lon="5.74978">
        <ele>403.39999389648</ele>
        <time>2020-12-23T09:42:14.000Z</time>
      </trkpt>
      <trkpt lat="43.77345" lon="5.74978">
        <ele>403.60000610352</ele>
        <time>2020-12-23T09:42:16.000Z</time>
      </trkpt>
      <trkpt lat="43.77343" lon="5.74979">
        <ele>403.79998779297</ele>
        <time>2020-12-23T09:42:19.000Z</time>
      </trkpt>
      <trkpt lat="43.7734" lon="5.74977">
        <ele>403.79998779297</ele>
        <time>2020-12-23T09:42:21.000Z</time>
      </trkpt>
      <trkpt lat="43.77324" lon="5.74969">
        <ele>404</ele>
        <time>2020-12-23T09:42:28.000Z</time>
      </trkpt>
      <trkpt lat="43.77307" lon="5.74958">
        <ele>403.60000610352</ele>
        <time>2020-12-23T09:42:34.000Z</time>
      </trkpt>
      <trkpt lat="43.77277" lon="5.74943">
        <ele>403</ele>
        <time>2020-12-23T09:42:44.000Z</time>
      </trkpt>
      <trkpt lat="43.77259" lon="5.74938">
        <ele>403</ele>
        <time>2020-12-23T09:42:49.000Z</time>
      </trkpt>
      <trkpt lat="43.77239" lon="5.74933">
        <ele>403.60000610352</ele>
        <time>2020-12-23T09:42:54.000Z</time>
      </trkpt>
      <trkpt lat="43.77225" lon="5.7493">
        <ele>403.60000610352</ele>
        <time>2020-12-23T09:42:57.000Z</time>
      </trkpt>
      <trkpt lat="43.77218" lon="5.74928">
        <ele>403.60000610352</ele>
        <time>2020-12-23T09:42:59.000Z</time>
      </trkpt>
      <trkpt lat="43.77205" lon="5.74924">
        <ele>402.79998779297</ele>
        <time>2020-12-23T09:43:04.000Z</time>
      </trkpt>
      <trkpt lat="43.77201" lon="5.74923">
        <ele>402.39999389648</ele>
        <time>2020-12-23T09:43:05.000Z</time>
      </trkpt>
      <trkpt lat="43.77185" lon="5.74919">
        <ele>401.20001220703</ele>
        <time>2020-12-23T09:43:10.000Z</time>
      </trkpt>
      <trkpt lat="43.77175" lon="5.74918">
        <ele>400.20001220703</ele>
        <time>2020-12-23T09:43:13.000Z</time>
      </trkpt>
      <trkpt lat="43.77162" lon="5.74917">
        <ele>399.39999389648</ele>
        <time>2020-12-23T09:43:17.000Z</time>
      </trkpt>
      <trkpt lat="43.77143" lon="5.7491">
        <ele>399.39999389648</ele>
        <time>2020-12-23T09:43:23.000Z</time>
      </trkpt>
      <trkpt lat="43.77123" lon="5.749">
        <ele>400</ele>
        <time>2020-12-23T09:43:30.000Z</time>
      </trkpt>
      <trkpt lat="43.77118" lon="5.74898">
        <ele>400</ele>
        <time>2020-12-23T09:43:33.000Z</time>
      </trkpt>
      <trkpt lat="43.77118" lon="5.74896">
        <ele>399.79998779297</ele>
        <time>2020-12-23T09:43:42.000Z</time>
      </trkpt>
      <trkpt lat="43.77118" lon="5.74896">
        <ele>399.79998779297</ele>
        <time>2020-12-23T09:43:58.000Z</time>
      </trkpt>
      <trkpt lat="43.77118" lon="5.74896">
        <ele>400</ele>
        <time>2020-12-23T09:44:16.000Z</time>
      </trkpt>
      <trkpt lat="43.77118" lon="5.74896">
        <ele>400</ele>
        <time>2020-12-23T09:44:45.000Z</time>
      </trkpt>
      <trkpt lat="43.77118" lon="5.74896">
        <ele>400</ele>
        <time>2020-12-23T09:45:02.000Z</time>
      </trkpt>
      <trkpt lat="43.77119" lon="5.74897">
        <ele>399.79998779297</ele>
        <time>2020-12-23T09:45:15.000Z</time>
      </trkpt>
      <trkpt lat="43.77122" lon="5.74899">
        <ele>399.79998779297</ele>
        <time>2020-12-23T09:45:20.000Z</time>
      </trkpt>
      <trkpt lat="43.77127" lon="5.74901">
        <ele>399.79998779297</ele>
        <time>2020-12-23T09:45:22.000Z</time>
      </trkpt>
      <trkpt lat="43.77152" lon="5.74913">
        <ele>399.79998779297</ele>
        <time>2020-12-23T09:45:29.000Z</time>
      </trkpt>
      <trkpt lat="43.77179" lon="5.74918">
        <ele>399.79998779297</ele>
        <time>2020-12-23T09:45:35.000Z</time>
      </trkpt>
      <trkpt lat="43.77198" lon="5.74922">
        <ele>399.60000610352</ele>
        <time>2020-12-23T09:45:40.000Z</time>
      </trkpt>
      <trkpt lat="43.77217" lon="5.74927">
        <ele>399.60000610352</ele>
        <time>2020-12-23T09:45:46.000Z</time>
      </trkpt>
      <trkpt lat="43.77241" lon="5.74931">
        <ele>400.39999389648</ele>
        <time>2020-12-23T09:45:53.000Z</time>
      </trkpt>
      <trkpt lat="43.77261" lon="5.74936">
        <ele>401.79998779297</ele>
        <time>2020-12-23T09:45:59.000Z</time>
      </trkpt>
      <trkpt lat="43.77271" lon="5.7494">
        <ele>402.39999389648</ele>
        <time>2020-12-23T09:46:02.000Z</time>
      </trkpt>
      <trkpt lat="43.77278" lon="5.74943">
        <ele>403</ele>
        <time>2020-12-23T09:46:04.000Z</time>
      </trkpt>
      <trkpt lat="43.7729" lon="5.74948">
        <ele>403.39999389648</ele>
        <time>2020-12-23T09:46:07.000Z</time>
      </trkpt>
      <trkpt lat="43.77295" lon="5.7495">
        <ele>403.39999389648</ele>
        <time>2020-12-23T09:46:08.000Z</time>
      </trkpt>
      <trkpt lat="43.77316" lon="5.74963">
        <ele>403.39999389648</ele>
        <time>2020-12-23T09:46:13.000Z</time>
      </trkpt>
      <trkpt lat="43.77337" lon="5.74978">
        <ele>403.20001220703</ele>
        <time>2020-12-23T09:46:20.000Z</time>
      </trkpt>
      <trkpt lat="43.77337" lon="5.74979">
        <ele>403.20001220703</ele>
        <time>2020-12-23T09:46:21.000Z</time>
      </trkpt>
      <trkpt lat="43.77338" lon="5.74981">
        <ele>403.39999389648</ele>
        <time>2020-12-23T09:46:24.000Z</time>
      </trkpt>
      <trkpt lat="43.77338" lon="5.74981">
        <ele>404</ele>
        <time>2020-12-23T09:46:29.000Z</time>
      </trkpt>
      <trkpt lat="43.7734" lon="5.74982">
        <ele>404.79998779297</ele>
        <time>2020-12-23T09:46:33.000Z</time>
      </trkpt>
      <trkpt lat="43.77341" lon="5.74982">
        <ele>404.79998779297</ele>
        <time>2020-12-23T09:46:34.000Z</time>
      </trkpt>
      <trkpt lat="43.7735" lon="5.74974">
        <ele>404.79998779297</ele>
        <time>2020-12-23T09:46:39.000Z</time>
      </trkpt>
      <trkpt lat="43.77353" lon="5.74964">
        <ele>404.79998779297</ele>
        <time>2020-12-23T09:46:43.000Z</time>
      </trkpt>
      <trkpt lat="43.77344" lon="5.74961">
        <ele>404.39999389648</ele>
        <time>2020-12-23T09:46:47.000Z</time>
      </trkpt>
      <trkpt lat="43.77335" lon="5.74963">
        <ele>404.20001220703</ele>
        <time>2020-12-23T09:46:49.000Z</time>
      </trkpt>
      <trkpt lat="43.77327" lon="5.74961">
        <ele>404.20001220703</ele>
        <time>2020-12-23T09:46:51.000Z</time>
      </trkpt>
      <trkpt lat="43.77318" lon="5.74956">
        <ele>404.20001220703</ele>
        <time>2020-12-23T09:46:53.000Z</time>
      </trkpt>
      <trkpt lat="43.77307" lon="5.74949">
        <ele>403.39999389648</ele>
        <time>2020-12-23T09:46:56.000Z</time>
      </trkpt>
      <trkpt lat="43.77304" lon="5.74947">
        <ele>402.79998779297</ele>
        <time>2020-12-23T09:46:57.000Z</time>
      </trkpt>
      <trkpt lat="43.77296" lon="5.74944">
        <ele>401.79998779297</ele>
        <time>2020-12-23T09:47:00.000Z</time>
      </trkpt>
      <trkpt lat="43.77295" lon="5.74942">
        <ele>401.60000610352</ele>
        <time>2020-12-23T09:47:01.000Z</time>
      </trkpt>
      <trkpt lat="43.77298" lon="5.74938">
        <ele>401.39999389648</ele>
        <time>2020-12-23T09:47:03.000Z</time>
      </trkpt>
      <trkpt lat="43.77304" lon="5.74939">
        <ele>401.20001220703</ele>
        <time>2020-12-23T09:47:05.000Z</time>
      </trkpt>
      <trkpt lat="43.77315" lon="5.7494">
        <ele>401</ele>
        <time>2020-12-23T09:47:08.000Z</time>
      </trkpt>
      <trkpt lat="43.77323" lon="5.74939">
        <ele>400.79998779297</ele>
        <time>2020-12-23T09:47:10.000Z</time>
      </trkpt>
      <trkpt lat="43.77328" lon="5.74936">
        <ele>400</ele>
        <time>2020-12-23T09:47:12.000Z</time>
      </trkpt>
      <trkpt lat="43.77327" lon="5.74933">
        <ele>399.39999389648</ele>
        <time>2020-12-23T09:47:13.000Z</time>
      </trkpt>
      <trkpt lat="43.77322" lon="5.74932">
        <ele>398.79998779297</ele>
        <time>2020-12-23T09:47:15.000Z</time>
      </trkpt>
      <trkpt lat="43.7732" lon="5.74932">
        <ele>398.60000610352</ele>
        <time>2020-12-23T09:47:16.000Z</time>
      </trkpt>
      <trkpt lat="43.77317" lon="5.74931">
        <ele>398</ele>
        <time>2020-12-23T09:47:17.000Z</time>
      </trkpt>
      <trkpt lat="43.77316" lon="5.7493">
        <ele>397.39999389648</ele>
        <time>2020-12-23T09:47:18.000Z</time>
      </trkpt>
      <trkpt lat="43.77315" lon="5.74927">
        <ele>397.20001220703</ele>
        <time>2020-12-23T09:47:19.000Z</time>
      </trkpt>
      <trkpt lat="43.77316" lon="5.74924">
        <ele>397</ele>
        <time>2020-12-23T09:47:20.000Z</time>
      </trkpt>
      <trkpt lat="43.77317" lon="5.74919">
        <ele>396.20001220703</ele>
        <time>2020-12-23T09:47:22.000Z</time>
      </trkpt>
      <trkpt lat="43.77315" lon="5.74918">
        <ele>395.79998779297</ele>
        <time>2020-12-23T09:47:23.000Z</time>
      </trkpt>
      <trkpt lat="43.77308" lon="5.74916">
        <ele>395.39999389648</ele>
        <time>2020-12-23T09:47:25.000Z</time>
      </trkpt>
      <trkpt lat="43.77296" lon="5.74915">
        <ele>394.39999389648</ele>
        <time>2020-12-23T09:47:28.000Z</time>
      </trkpt>
      <trkpt lat="43.77294" lon="5.74914">
        <ele>394</ele>
        <time>2020-12-23T09:47:29.000Z</time>
      </trkpt>
      <trkpt lat="43.77292" lon="5.74912">
        <ele>393.39999389648</ele>
        <time>2020-12-23T09:47:30.000Z</time>
      </trkpt>
      <trkpt lat="43.77293" lon="5.74909">
        <ele>392</ele>
        <time>2020-12-23T09:47:32.000Z</time>
      </trkpt>
      <trkpt lat="43.77297" lon="5.74906">
        <ele>391.79998779297</ele>
        <time>2020-12-23T09:47:34.000Z</time>
      </trkpt>
      <trkpt lat="43.77296" lon="5.74903">
        <ele>391.39999389648</ele>
        <time>2020-12-23T09:47:36.000Z</time>
      </trkpt>
      <trkpt lat="43.77291" lon="5.749">
        <ele>391</ele>
        <time>2020-12-23T09:47:38.000Z</time>
      </trkpt>
      <trkpt lat="43.77285" lon="5.74896">
        <ele>390.79998779297</ele>
        <time>2020-12-23T09:47:40.000Z</time>
      </trkpt>
      <trkpt lat="43.77278" lon="5.74891">
        <ele>390.20001220703</ele>
        <time>2020-12-23T09:47:42.000Z</time>
      </trkpt>
      <trkpt lat="43.77276" lon="5.74889">
        <ele>389.60000610352</ele>
        <time>2020-12-23T09:47:43.000Z</time>
      </trkpt>
      <trkpt lat="43.77277" lon="5.74887">
        <ele>389.20001220703</ele>
        <time>2020-12-23T09:47:44.000Z</time>
      </trkpt>
      <trkpt lat="43.77284" lon="5.74885">
        <ele>388.60000610352</ele>
        <time>2020-12-23T09:47:46.000Z</time>
      </trkpt>
      <trkpt lat="43.77288" lon="5.74885">
        <ele>388.20001220703</ele>
        <time>2020-12-23T09:47:47.000Z</time>
      </trkpt>
      <trkpt lat="43.77294" lon="5.74885">
        <ele>387.20001220703</ele>
        <time>2020-12-23T09:47:49.000Z</time>
      </trkpt>
      <trkpt lat="43.77295" lon="5.74883">
        <ele>387</ele>
        <time>2020-12-23T09:47:50.000Z</time>
      </trkpt>
      <trkpt lat="43.77291" lon="5.74879">
        <ele>386.20001220703</ele>
        <time>2020-12-23T09:47:52.000Z</time>
      </trkpt>
      <trkpt lat="43.77288" lon="5.74875">
        <ele>385.60000610352</ele>
        <time>2020-12-23T09:47:53.000Z</time>
      </trkpt>
      <trkpt lat="43.77285" lon="5.74873">
        <ele>384.39999389648</ele>
        <time>2020-12-23T09:47:54.000Z</time>
      </trkpt>
      <trkpt lat="43.77276" lon="5.74869">
        <ele>383</ele>
        <time>2020-12-23T09:47:56.000Z</time>
      </trkpt>
      <trkpt lat="43.77259" lon="5.74863">
        <ele>382.20001220703</ele>
        <time>2020-12-23T09:47:59.000Z</time>
      </trkpt>
      <trkpt lat="43.77253" lon="5.74862">
        <ele>382</ele>
        <time>2020-12-23T09:48:00.000Z</time>
      </trkpt>
      <trkpt lat="43.77248" lon="5.74863">
        <ele>380.79998779297</ele>
        <time>2020-12-23T09:48:01.000Z</time>
      </trkpt>
      <trkpt lat="43.77236" lon="5.74862">
        <ele>379.60000610352</ele>
        <time>2020-12-23T09:48:03.000Z</time>
      </trkpt>
      <trkpt lat="43.77231" lon="5.74861">
        <ele>379.39999389648</ele>
        <time>2020-12-23T09:48:04.000Z</time>
      </trkpt>
      <trkpt lat="43.77225" lon="5.74861">
        <ele>378.79998779297</ele>
        <time>2020-12-23T09:48:05.000Z</time>
      </trkpt>
      <trkpt lat="43.77219" lon="5.7486">
        <ele>378</ele>
        <time>2020-12-23T09:48:06.000Z</time>
      </trkpt>
      <trkpt lat="43.77212" lon="5.74859">
        <ele>377.60000610352</ele>
        <time>2020-12-23T09:48:07.000Z</time>
      </trkpt>
      <trkpt lat="43.77206" lon="5.74857">
        <ele>377.20001220703</ele>
        <time>2020-12-23T09:48:08.000Z</time>
      </trkpt>
      <trkpt lat="43.77199" lon="5.74855">
        <ele>377</ele>
        <time>2020-12-23T09:48:09.000Z</time>
      </trkpt>
      <trkpt lat="43.77185" lon="5.74849">
        <ele>376.79998779297</ele>
        <time>2020-12-23T09:48:11.000Z</time>
      </trkpt>
      <trkpt lat="43.77172" lon="5.74842">
        <ele>376.39999389648</ele>
        <time>2020-12-23T09:48:13.000Z</time>
      </trkpt>
      <trkpt lat="43.77158" lon="5.74831">
        <ele>375.39999389648</ele>
        <time>2020-12-23T09:48:15.000Z</time>
      </trkpt>
      <trkpt lat="43.77144" lon="5.74821">
        <ele>373.79998779297</ele>
        <time>2020-12-23T09:48:17.000Z</time>
      </trkpt>
      <trkpt lat="43.7713" lon="5.7481">
        <ele>372.39999389648</ele>
        <time>2020-12-23T09:48:19.000Z</time>
      </trkpt>
      <trkpt lat="43.77123" lon="5.74805">
        <ele>371.79998779297</ele>
        <time>2020-12-23T09:48:20.000Z</time>
      </trkpt>
      <trkpt lat="43.77116" lon="5.74802">
        <ele>370.79998779297</ele>
        <time>2020-12-23T09:48:21.000Z</time>
      </trkpt>
      <trkpt lat="43.77111" lon="5.74799">
        <ele>369.79998779297</ele>
        <time>2020-12-23T09:48:22.000Z</time>
      </trkpt>
      <trkpt lat="43.77103" lon="5.74796">
        <ele>368.20001220703</ele>
        <time>2020-12-23T09:48:24.000Z</time>
      </trkpt>
      <trkpt lat="43.77098" lon="5.74794">
        <ele>366.39999389648</ele>
        <time>2020-12-23T09:48:26.000Z</time>
      </trkpt>
      <trkpt lat="43.77097" lon="5.74794">
        <ele>365.39999389648</ele>
        <time>2020-12-23T09:48:27.000Z</time>
      </trkpt>
      <trkpt lat="43.77097" lon="5.74791">
        <ele>363.20001220703</ele>
        <time>2020-12-23T09:48:29.000Z</time>
      </trkpt>
      <trkpt lat="43.77106" lon="5.74789">
        <ele>362</ele>
        <time>2020-12-23T09:48:32.000Z</time>
      </trkpt>
      <trkpt lat="43.77127" lon="5.74788">
        <ele>360.79998779297</ele>
        <time>2020-12-23T09:48:36.000Z</time>
      </trkpt>
      <trkpt lat="43.77139" lon="5.74789">
        <ele>360.20001220703</ele>
        <time>2020-12-23T09:48:38.000Z</time>
      </trkpt>
      <trkpt lat="43.77144" lon="5.74791">
        <ele>359.79998779297</ele>
        <time>2020-12-23T09:48:39.000Z</time>
      </trkpt>
      <trkpt lat="43.77155" lon="5.74795">
        <ele>358.39999389648</ele>
        <time>2020-12-23T09:48:41.000Z</time>
      </trkpt>
      <trkpt lat="43.77159" lon="5.74797">
        <ele>358.20001220703</ele>
        <time>2020-12-23T09:48:42.000Z</time>
      </trkpt>
      <trkpt lat="43.77169" lon="5.74798">
        <ele>357.20001220703</ele>
        <time>2020-12-23T09:48:44.000Z</time>
      </trkpt>
      <trkpt lat="43.77186" lon="5.74799">
        <ele>356.20001220703</ele>
        <time>2020-12-23T09:48:47.000Z</time>
      </trkpt>
      <trkpt lat="43.77191" lon="5.74799">
        <ele>356</ele>
        <time>2020-12-23T09:48:48.000Z</time>
      </trkpt>
      <trkpt lat="43.77205" lon="5.74795">
        <ele>354.60000610352</ele>
        <time>2020-12-23T09:48:51.000Z</time>
      </trkpt>
      <trkpt lat="43.77211" lon="5.74794">
        <ele>353.39999389648</ele>
        <time>2020-12-23T09:48:53.000Z</time>
      </trkpt>
      <trkpt lat="43.77215" lon="5.74792">
        <ele>351</ele>
        <time>2020-12-23T09:48:55.000Z</time>
      </trkpt>
      <trkpt lat="43.77214" lon="5.74791">
        <ele>349.60000610352</ele>
        <time>2020-12-23T09:48:56.000Z</time>
      </trkpt>
      <trkpt lat="43.77212" lon="5.74789">
        <ele>347.39999389648</ele>
        <time>2020-12-23T09:48:57.000Z</time>
      </trkpt>
      <trkpt lat="43.77209" lon="5.74788">
        <ele>346.39999389648</ele>
        <time>2020-12-23T09:48:58.000Z</time>
      </trkpt>
      <trkpt lat="43.77202" lon="5.74786">
        <ele>345</ele>
        <time>2020-12-23T09:49:00.000Z</time>
      </trkpt>
      <trkpt lat="43.77196" lon="5.74783">
        <ele>344.20001220703</ele>
        <time>2020-12-23T09:49:02.000Z</time>
      </trkpt>
      <trkpt lat="43.77193" lon="5.74781">
        <ele>343.60000610352</ele>
        <time>2020-12-23T09:49:03.000Z</time>
      </trkpt>
      <trkpt lat="43.77187" lon="5.74776">
        <ele>342.60000610352</ele>
        <time>2020-12-23T09:49:05.000Z</time>
      </trkpt>
      <trkpt lat="43.77182" lon="5.74771">
        <ele>340.60000610352</ele>
        <time>2020-12-23T09:49:07.000Z</time>
      </trkpt>
      <trkpt lat="43.77176" lon="5.74768">
        <ele>339.60000610352</ele>
        <time>2020-12-23T09:49:09.000Z</time>
      </trkpt>
      <trkpt lat="43.77172" lon="5.74763">
        <ele>338.39999389648</ele>
        <time>2020-12-23T09:49:11.000Z</time>
      </trkpt>
      <trkpt lat="43.7717" lon="5.74761">
        <ele>337.79998779297</ele>
        <time>2020-12-23T09:49:12.000Z</time>
      </trkpt>
      <trkpt lat="43.77164" lon="5.74755">
        <ele>337.20001220703</ele>
        <time>2020-12-23T09:49:14.000Z</time>
      </trkpt>
      <trkpt lat="43.77159" lon="5.74745">
        <ele>336.20001220703</ele>
        <time>2020-12-23T09:49:16.000Z</time>
      </trkpt>
      <trkpt lat="43.77156" lon="5.74742">
        <ele>335.60000610352</ele>
        <time>2020-12-23T09:49:17.000Z</time>
      </trkpt>
      <trkpt lat="43.77148" lon="5.74738">
        <ele>334.39999389648</ele>
        <time>2020-12-23T09:49:19.000Z</time>
      </trkpt>
      <trkpt lat="43.77139" lon="5.74734">
        <ele>333</ele>
        <time>2020-12-23T09:49:21.000Z</time>
      </trkpt>
      <trkpt lat="43.77136" lon="5.7473">
        <ele>332.20001220703</ele>
        <time>2020-12-23T09:49:22.000Z</time>
      </trkpt>
      <trkpt lat="43.77133" lon="5.74726">
        <ele>331.39999389648</ele>
        <time>2020-12-23T09:49:23.000Z</time>
      </trkpt>
      <trkpt lat="43.7713" lon="5.74723">
        <ele>331</ele>
        <time>2020-12-23T09:49:24.000Z</time>
      </trkpt>
      <trkpt lat="43.77119" lon="5.74715">
        <ele>330.20001220703</ele>
        <time>2020-12-23T09:49:27.000Z</time>
      </trkpt>
      <trkpt lat="43.77115" lon="5.74712">
        <ele>330</ele>
        <time>2020-12-23T09:49:28.000Z</time>
      </trkpt>
      <trkpt lat="43.7711" lon="5.74709">
        <ele>329.60000610352</ele>
        <time>2020-12-23T09:49:29.000Z</time>
      </trkpt>
      <trkpt lat="43.77104" lon="5.74706">
        <ele>329.20001220703</ele>
        <time>2020-12-23T09:49:30.000Z</time>
      </trkpt>
      <trkpt lat="43.77099" lon="5.74701">
        <ele>329</ele>
        <time>2020-12-23T09:49:31.000Z</time>
      </trkpt>
      <trkpt lat="43.77093" lon="5.74698">
        <ele>328.79998779297</ele>
        <time>2020-12-23T09:49:32.000Z</time>
      </trkpt>
      <trkpt lat="43.77088" lon="5.74694">
        <ele>328.60000610352</ele>
        <time>2020-12-23T09:49:33.000Z</time>
      </trkpt>
      <trkpt lat="43.77068" lon="5.74681">
        <ele>327.60000610352</ele>
        <time>2020-12-23T09:49:36.000Z</time>
      </trkpt>
      <trkpt lat="43.77061" lon="5.74677">
        <ele>327.20001220703</ele>
        <time>2020-12-23T09:49:37.000Z</time>
      </trkpt>
      <trkpt lat="43.77054" lon="5.74672">
        <ele>326.60000610352</ele>
        <time>2020-12-23T09:49:38.000Z</time>
      </trkpt>
      <trkpt lat="43.77044" lon="5.74665">
        <ele>325.20001220703</ele>
        <time>2020-12-23T09:49:40.000Z</time>
      </trkpt>
      <trkpt lat="43.77041" lon="5.74662">
        <ele>324.60000610352</ele>
        <time>2020-12-23T09:49:41.000Z</time>
      </trkpt>
      <trkpt lat="43.77036" lon="5.7466">
        <ele>323.79998779297</ele>
        <time>2020-12-23T09:49:42.000Z</time>
      </trkpt>
      <trkpt lat="43.77031" lon="5.74658">
        <ele>322.60000610352</ele>
        <time>2020-12-23T09:49:43.000Z</time>
      </trkpt>
      <trkpt lat="43.77025" lon="5.74658">
        <ele>321.39999389648</ele>
        <time>2020-12-23T09:49:44.000Z</time>
      </trkpt>
      <trkpt lat="43.77012" lon="5.74657">
        <ele>319.39999389648</ele>
        <time>2020-12-23T09:49:46.000Z</time>
      </trkpt>
      <trkpt lat="43.77" lon="5.74656">
        <ele>318</ele>
        <time>2020-12-23T09:49:48.000Z</time>
      </trkpt>
      <trkpt lat="43.76993" lon="5.74654">
        <ele>317.39999389648</ele>
        <time>2020-12-23T09:49:49.000Z</time>
      </trkpt>
      <trkpt lat="43.76987" lon="5.74652">
        <ele>317</ele>
        <time>2020-12-23T09:49:50.000Z</time>
      </trkpt>
      <trkpt lat="43.76983" lon="5.7465">
        <ele>316</ele>
        <time>2020-12-23T09:49:51.000Z</time>
      </trkpt>
      <trkpt lat="43.76979" lon="5.74648">
        <ele>314.79998779297</ele>
        <time>2020-12-23T09:49:52.000Z</time>
      </trkpt>
      <trkpt lat="43.76977" lon="5.74646">
        <ele>313.60000610352</ele>
        <time>2020-12-23T09:49:53.000Z</time>
      </trkpt>
      <trkpt lat="43.76974" lon="5.74643">
        <ele>311</ele>
        <time>2020-12-23T09:49:55.000Z</time>
      </trkpt>
      <trkpt lat="43.76974" lon="5.74641">
        <ele>309.79998779297</ele>
        <time>2020-12-23T09:49:57.000Z</time>
      </trkpt>
      <trkpt lat="43.76974" lon="5.74641">
        <ele>309.20001220703</ele>
        <time>2020-12-23T09:50:10.000Z</time>
      </trkpt>
      <trkpt lat="43.76972" lon="5.74638">
        <ele>309.39999389648</ele>
        <time>2020-12-23T09:50:20.000Z</time>
      </trkpt>
      <trkpt lat="43.76965" lon="5.74628">
        <ele>309.39999389648</ele>
        <time>2020-12-23T09:50:25.000Z</time>
      </trkpt>
      <trkpt lat="43.76956" lon="5.7462">
        <ele>309</ele>
        <time>2020-12-23T09:50:30.000Z</time>
      </trkpt>
      <trkpt lat="43.76953" lon="5.7462">
        <ele>308.39999389648</ele>
        <time>2020-12-23T09:50:34.000Z</time>
      </trkpt>
      <trkpt lat="43.76953" lon="5.7462">
        <ele>308</ele>
        <time>2020-12-23T09:50:35.000Z</time>
      </trkpt>
      <trkpt lat="43.76951" lon="5.74617">
        <ele>307.60000610352</ele>
        <time>2020-12-23T09:50:39.000Z</time>
      </trkpt>
      <trkpt lat="43.76948" lon="5.74614">
        <ele>307.39999389648</ele>
        <time>2020-12-23T09:50:41.000Z</time>
      </trkpt>
      <trkpt lat="43.76943" lon="5.74609">
        <ele>307.39999389648</ele>
        <time>2020-12-23T09:50:44.000Z</time>
      </trkpt>
      <trkpt lat="43.76937" lon="5.74605">
        <ele>307.39999389648</ele>
        <time>2020-12-23T09:50:46.000Z</time>
      </trkpt>
      <trkpt lat="43.76928" lon="5.74602">
        <ele>307.39999389648</ele>
        <time>2020-12-23T09:50:50.000Z</time>
      </trkpt>
      <trkpt lat="43.76918" lon="5.74593">
        <ele>307</ele>
        <time>2020-12-23T09:50:54.000Z</time>
      </trkpt>
      <trkpt lat="43.7691" lon="5.74584">
        <ele>306.39999389648</ele>
        <time>2020-12-23T09:50:58.000Z</time>
      </trkpt>
      <trkpt lat="43.76908" lon="5.74582">
        <ele>305.60000610352</ele>
        <time>2020-12-23T09:50:59.000Z</time>
      </trkpt>
      <trkpt lat="43.76897" lon="5.74575">
        <ele>304.60000610352</ele>
        <time>2020-12-23T09:51:02.000Z</time>
      </trkpt>
      <trkpt lat="43.76894" lon="5.74572">
        <ele>304.39999389648</ele>
        <time>2020-12-23T09:51:03.000Z</time>
      </trkpt>
      <trkpt lat="43.76887" lon="5.74562">
        <ele>304.20001220703</ele>
        <time>2020-12-23T09:51:06.000Z</time>
      </trkpt>
      <trkpt lat="43.76885" lon="5.7456">
        <ele>303.79998779297</ele>
        <time>2020-12-23T09:51:07.000Z</time>
      </trkpt>
      <trkpt lat="43.76879" lon="5.74558">
        <ele>303.20001220703</ele>
        <time>2020-12-23T09:51:09.000Z</time>
      </trkpt>
      <trkpt lat="43.76873" lon="5.74554">
        <ele>302.39999389648</ele>
        <time>2020-12-23T09:51:11.000Z</time>
      </trkpt>
      <trkpt lat="43.76868" lon="5.7455">
        <ele>302</ele>
        <time>2020-12-23T09:51:13.000Z</time>
      </trkpt>
      <trkpt lat="43.76864" lon="5.74548">
        <ele>302</ele>
        <time>2020-12-23T09:51:14.000Z</time>
      </trkpt>
      <trkpt lat="43.76856" lon="5.74544">
        <ele>301.79998779297</ele>
        <time>2020-12-23T09:51:16.000Z</time>
      </trkpt>
      <trkpt lat="43.76843" lon="5.74536">
        <ele>301.20001220703</ele>
        <time>2020-12-23T09:51:19.000Z</time>
      </trkpt>
      <trkpt lat="43.76838" lon="5.74533">
        <ele>300.79998779297</ele>
        <time>2020-12-23T09:51:20.000Z</time>
      </trkpt>
      <trkpt lat="43.76829" lon="5.74524">
        <ele>299.60000610352</ele>
        <time>2020-12-23T09:51:23.000Z</time>
      </trkpt>
      <trkpt lat="43.76824" lon="5.74517">
        <ele>298.60000610352</ele>
        <time>2020-12-23T09:51:27.000Z</time>
      </trkpt>
      <trkpt lat="43.76823" lon="5.74515">
        <ele>298.60000610352</ele>
        <time>2020-12-23T09:51:28.000Z</time>
      </trkpt>
      <trkpt lat="43.76823" lon="5.74513">
        <ele>298.39999389648</ele>
        <time>2020-12-23T09:51:29.000Z</time>
      </trkpt>
      <trkpt lat="43.7682" lon="5.74496">
        <ele>298.60000610352</ele>
        <time>2020-12-23T09:51:35.000Z</time>
      </trkpt>
      <trkpt lat="43.76821" lon="5.74494">
        <ele>298.39999389648</ele>
        <time>2020-12-23T09:51:36.000Z</time>
      </trkpt>
      <trkpt lat="43.76825" lon="5.74495">
        <ele>298.60000610352</ele>
        <time>2020-12-23T09:51:39.000Z</time>
      </trkpt>
      <trkpt lat="43.76834" lon="5.74496">
        <ele>299.39999389648</ele>
        <time>2020-12-23T09:51:43.000Z</time>
      </trkpt>
      <trkpt lat="43.76836" lon="5.74496">
        <ele>299.60000610352</ele>
        <time>2020-12-23T09:51:44.000Z</time>
      </trkpt>
      <trkpt lat="43.76842" lon="5.74502">
        <ele>301.20001220703</ele>
        <time>2020-12-23T09:51:47.000Z</time>
      </trkpt>
      <trkpt lat="43.76845" lon="5.7451">
        <ele>302</ele>
        <time>2020-12-23T09:51:49.000Z</time>
      </trkpt>
      <trkpt lat="43.76846" lon="5.74515">
        <ele>302.20001220703</ele>
        <time>2020-12-23T09:51:50.000Z</time>
      </trkpt>
      <trkpt lat="43.76851" lon="5.7452">
        <ele>302.79998779297</ele>
        <time>2020-12-23T09:51:52.000Z</time>
      </trkpt>
      <trkpt lat="43.76857" lon="5.74521">
        <ele>303.60000610352</ele>
        <time>2020-12-23T09:51:54.000Z</time>
      </trkpt>
      <trkpt lat="43.76866" lon="5.74519">
        <ele>304.39999389648</ele>
        <time>2020-12-23T09:51:57.000Z</time>
      </trkpt>
      <trkpt lat="43.76868" lon="5.74517">
        <ele>304.60000610352</ele>
        <time>2020-12-23T09:51:58.000Z</time>
      </trkpt>
      <trkpt lat="43.76878" lon="5.74515">
        <ele>305.39999389648</ele>
        <time>2020-12-23T09:52:02.000Z</time>
      </trkpt>
      <trkpt lat="43.76883" lon="5.74517">
        <ele>305.79998779297</ele>
        <time>2020-12-23T09:52:04.000Z</time>
      </trkpt>
      <trkpt lat="43.76884" lon="5.74517">
        <ele>306.20001220703</ele>
        <time>2020-12-23T09:52:05.000Z</time>
      </trkpt>
      <trkpt lat="43.76886" lon="5.74516">
        <ele>306.60000610352</ele>
        <time>2020-12-23T09:52:06.000Z</time>
      </trkpt>
      <trkpt lat="43.76887" lon="5.74514">
        <ele>307</ele>
        <time>2020-12-23T09:52:07.000Z</time>
      </trkpt>
      <trkpt lat="43.7689" lon="5.74511">
        <ele>308.20001220703</ele>
        <time>2020-12-23T09:52:10.000Z</time>
      </trkpt>
      <trkpt lat="43.7689" lon="5.74511">
        <ele>309.20001220703</ele>
        <time>2020-12-23T09:52:13.000Z</time>
      </trkpt>
      <trkpt lat="43.7689" lon="5.74511">
        <ele>310.39999389648</ele>
        <time>2020-12-23T09:52:16.000Z</time>
      </trkpt>
      <trkpt lat="43.76891" lon="5.74511">
        <ele>311</ele>
        <time>2020-12-23T09:52:22.000Z</time>
      </trkpt>
      <trkpt lat="43.76898" lon="5.74511">
        <ele>311.20001220703</ele>
        <time>2020-12-23T09:52:26.000Z</time>
      </trkpt>
      <trkpt lat="43.76902" lon="5.74511">
        <ele>311.39999389648</ele>
        <time>2020-12-23T09:52:29.000Z</time>
      </trkpt>
      <trkpt lat="43.76905" lon="5.74511">
        <ele>311.20001220703</ele>
        <time>2020-12-23T09:52:31.000Z</time>
      </trkpt>
      <trkpt lat="43.76906" lon="5.74513">
        <ele>311.20001220703</ele>
        <time>2020-12-23T09:52:32.000Z</time>
      </trkpt>
      <trkpt lat="43.76909" lon="5.74524">
        <ele>311.20001220703</ele>
        <time>2020-12-23T09:52:37.000Z</time>
      </trkpt>
      <trkpt lat="43.76914" lon="5.7452">
        <ele>311.39999389648</ele>
        <time>2020-12-23T09:52:40.000Z</time>
      </trkpt>
      <trkpt lat="43.76914" lon="5.74517">
        <ele>311.39999389648</ele>
        <time>2020-12-23T09:52:41.000Z</time>
      </trkpt>
      <trkpt lat="43.76913" lon="5.74504">
        <ele>312.60000610352</ele>
        <time>2020-12-23T09:52:46.000Z</time>
      </trkpt>
      <trkpt lat="43.7691" lon="5.74502">
        <ele>313.60000610352</ele>
        <time>2020-12-23T09:52:48.000Z</time>
      </trkpt>
      <trkpt lat="43.76907" lon="5.74503">
        <ele>314</ele>
        <time>2020-12-23T09:52:49.000Z</time>
      </trkpt>
      <trkpt lat="43.76899" lon="5.74502">
        <ele>314.79998779297</ele>
        <time>2020-12-23T09:52:52.000Z</time>
      </trkpt>
      <trkpt lat="43.76896" lon="5.74501">
        <ele>314.79998779297</ele>
        <time>2020-12-23T09:52:53.000Z</time>
      </trkpt>
      <trkpt lat="43.76886" lon="5.74491">
        <ele>315.60000610352</ele>
        <time>2020-12-23T09:52:58.000Z</time>
      </trkpt>
      <trkpt lat="43.76879" lon="5.74484">
        <ele>315.79998779297</ele>
        <time>2020-12-23T09:53:01.000Z</time>
      </trkpt>
      <trkpt lat="43.76877" lon="5.74481">
        <ele>315.79998779297</ele>
        <time>2020-12-23T09:53:02.000Z</time>
      </trkpt>
      <trkpt lat="43.76874" lon="5.74478">
        <ele>315.79998779297</ele>
        <time>2020-12-23T09:53:03.000Z</time>
      </trkpt>
      <trkpt lat="43.76867" lon="5.74466">
        <ele>315.79998779297</ele>
        <time>2020-12-23T09:53:06.000Z</time>
      </trkpt>
      <trkpt lat="43.76857" lon="5.74453">
        <ele>315.60000610352</ele>
        <time>2020-12-23T09:53:10.000Z</time>
      </trkpt>
      <trkpt lat="43.76848" lon="5.74441">
        <ele>315.60000610352</ele>
        <time>2020-12-23T09:53:15.000Z</time>
      </trkpt>
      <trkpt lat="43.76838" lon="5.74419">
        <ele>315.60000610352</ele>
        <time>2020-12-23T09:53:22.000Z</time>
      </trkpt>
      <trkpt lat="43.76837" lon="5.74416">
        <ele>315.60000610352</ele>
        <time>2020-12-23T09:53:23.000Z</time>
      </trkpt>
      <trkpt lat="43.76839" lon="5.74409">
        <ele>315.60000610352</ele>
        <time>2020-12-23T09:53:25.000Z</time>
      </trkpt>
      <trkpt lat="43.76844" lon="5.74395">
        <ele>315.60000610352</ele>
        <time>2020-12-23T09:53:29.000Z</time>
      </trkpt>
      <trkpt lat="43.76845" lon="5.7439">
        <ele>315.39999389648</ele>
        <time>2020-12-23T09:53:30.000Z</time>
      </trkpt>
      <trkpt lat="43.76845" lon="5.74382">
        <ele>314.20001220703</ele>
        <time>2020-12-23T09:53:32.000Z</time>
      </trkpt>
      <trkpt lat="43.76845" lon="5.74366">
        <ele>313.60000610352</ele>
        <time>2020-12-23T09:53:36.000Z</time>
      </trkpt>
      <trkpt lat="43.76843" lon="5.74343">
        <ele>313.60000610352</ele>
        <time>2020-12-23T09:53:41.000Z</time>
      </trkpt>
      <trkpt lat="43.76842" lon="5.74324">
        <ele>313.60000610352</ele>
        <time>2020-12-23T09:53:45.000Z</time>
      </trkpt>
      <trkpt lat="43.76845" lon="5.74299">
        <ele>315</ele>
        <time>2020-12-23T09:53:50.000Z</time>
      </trkpt>
      <trkpt lat="43.76848" lon="5.74288">
        <ele>315.20001220703</ele>
        <time>2020-12-23T09:53:53.000Z</time>
      </trkpt>
      <trkpt lat="43.7685" lon="5.74286">
        <ele>315.20001220703</ele>
        <time>2020-12-23T09:53:54.000Z</time>
      </trkpt>
      <trkpt lat="43.76858" lon="5.74274">
        <ele>315.39999389648</ele>
        <time>2020-12-23T09:53:58.000Z</time>
      </trkpt>
      <trkpt lat="43.76865" lon="5.74261">
        <ele>315.60000610352</ele>
        <time>2020-12-23T09:54:02.000Z</time>
      </trkpt>
      <trkpt lat="43.76877" lon="5.74248">
        <ele>315.60000610352</ele>
        <time>2020-12-23T09:54:07.000Z</time>
      </trkpt>
      <trkpt lat="43.76881" lon="5.74245">
        <ele>315.60000610352</ele>
        <time>2020-12-23T09:54:09.000Z</time>
      </trkpt>
      <trkpt lat="43.76885" lon="5.74241">
        <ele>315.60000610352</ele>
        <time>2020-12-23T09:54:11.000Z</time>
      </trkpt>
      <trkpt lat="43.76887" lon="5.74226">
        <ele>315.60000610352</ele>
        <time>2020-12-23T09:54:14.000Z</time>
      </trkpt>
      <trkpt lat="43.76893" lon="5.7421">
        <ele>315.60000610352</ele>
        <time>2020-12-23T09:54:18.000Z</time>
      </trkpt>
      <trkpt lat="43.76901" lon="5.74188">
        <ele>315.79998779297</ele>
        <time>2020-12-23T09:54:23.000Z</time>
      </trkpt>
      <trkpt lat="43.76902" lon="5.74184">
        <ele>315.79998779297</ele>
        <time>2020-12-23T09:54:24.000Z</time>
      </trkpt>
      <trkpt lat="43.76904" lon="5.74179">
        <ele>315.79998779297</ele>
        <time>2020-12-23T09:54:25.000Z</time>
      </trkpt>
      <trkpt lat="43.76908" lon="5.74162">
        <ele>315.60000610352</ele>
        <time>2020-12-23T09:54:28.000Z</time>
      </trkpt>
      <trkpt lat="43.7691" lon="5.74157">
        <ele>315.60000610352</ele>
        <time>2020-12-23T09:54:29.000Z</time>
      </trkpt>
      <trkpt lat="43.76928" lon="5.74144">
        <ele>315.39999389648</ele>
        <time>2020-12-23T09:54:34.000Z</time>
      </trkpt>
      <trkpt lat="43.76933" lon="5.74141">
        <ele>315.20001220703</ele>
        <time>2020-12-23T09:54:36.000Z</time>
      </trkpt>
      <trkpt lat="43.76936" lon="5.74135">
        <ele>315.20001220703</ele>
        <time>2020-12-23T09:54:38.000Z</time>
      </trkpt>
      <trkpt lat="43.76937" lon="5.74125">
        <ele>315.20001220703</ele>
        <time>2020-12-23T09:54:41.000Z</time>
      </trkpt>
      <trkpt lat="43.76936" lon="5.74119">
        <ele>315.20001220703</ele>
        <time>2020-12-23T09:54:42.000Z</time>
      </trkpt>
      <trkpt lat="43.76936" lon="5.74113">
        <ele>315</ele>
        <time>2020-12-23T09:54:43.000Z</time>
      </trkpt>
      <trkpt lat="43.76937" lon="5.74108">
        <ele>315</ele>
        <time>2020-12-23T09:54:44.000Z</time>
      </trkpt>
      <trkpt lat="43.76946" lon="5.74082">
        <ele>315</ele>
        <time>2020-12-23T09:54:50.000Z</time>
      </trkpt>
      <trkpt lat="43.76953" lon="5.7407">
        <ele>315</ele>
        <time>2020-12-23T09:54:54.000Z</time>
      </trkpt>
      <trkpt lat="43.76963" lon="5.74068">
        <ele>315</ele>
        <time>2020-12-23T09:54:59.000Z</time>
      </trkpt>
      <trkpt lat="43.76972" lon="5.74063">
        <ele>315.20001220703</ele>
        <time>2020-12-23T09:55:04.000Z</time>
      </trkpt>
      <trkpt lat="43.76973" lon="5.74061">
        <ele>315.39999389648</ele>
        <time>2020-12-23T09:55:05.000Z</time>
      </trkpt>
      <trkpt lat="43.76973" lon="5.74054">
        <ele>315.39999389648</ele>
        <time>2020-12-23T09:55:07.000Z</time>
      </trkpt>
      <trkpt lat="43.76971" lon="5.74033">
        <ele>315.39999389648</ele>
        <time>2020-12-23T09:55:11.000Z</time>
      </trkpt>
      <trkpt lat="43.7697" lon="5.74029">
        <ele>315.39999389648</ele>
        <time>2020-12-23T09:55:12.000Z</time>
      </trkpt>
      <trkpt lat="43.76968" lon="5.74019">
        <ele>315.39999389648</ele>
        <time>2020-12-23T09:55:14.000Z</time>
      </trkpt>
      <trkpt lat="43.7697" lon="5.74013">
        <ele>315.39999389648</ele>
        <time>2020-12-23T09:55:16.000Z</time>
      </trkpt>
      <trkpt lat="43.76973" lon="5.74003">
        <ele>315.20001220703</ele>
        <time>2020-12-23T09:55:18.000Z</time>
      </trkpt>
      <trkpt lat="43.76979" lon="5.73991">
        <ele>315.20001220703</ele>
        <time>2020-12-23T09:55:20.000Z</time>
      </trkpt>
      <trkpt lat="43.76987" lon="5.73975">
        <ele>315.20001220703</ele>
        <time>2020-12-23T09:55:23.000Z</time>
      </trkpt>
      <trkpt lat="43.76996" lon="5.73964">
        <ele>315</ele>
        <time>2020-12-23T09:55:26.000Z</time>
      </trkpt>
      <trkpt lat="43.77013" lon="5.73951">
        <ele>315</ele>
        <time>2020-12-23T09:55:31.000Z</time>
      </trkpt>
      <trkpt lat="43.77017" lon="5.73948">
        <ele>315</ele>
        <time>2020-12-23T09:55:32.000Z</time>
      </trkpt>
      <trkpt lat="43.77028" lon="5.73936">
        <ele>314.79998779297</ele>
        <time>2020-12-23T09:55:35.000Z</time>
      </trkpt>
      <trkpt lat="43.77031" lon="5.73933">
        <ele>314.79998779297</ele>
        <time>2020-12-23T09:55:36.000Z</time>
      </trkpt>
      <trkpt lat="43.77044" lon="5.73921">
        <ele>314.79998779297</ele>
        <time>2020-12-23T09:55:40.000Z</time>
      </trkpt>
      <trkpt lat="43.77052" lon="5.73918">
        <ele>315</ele>
        <time>2020-12-23T09:55:43.000Z</time>
      </trkpt>
      <trkpt lat="43.77065" lon="5.73914">
        <ele>315</ele>
        <time>2020-12-23T09:55:47.000Z</time>
      </trkpt>
      <trkpt lat="43.77065" lon="5.73903">
        <ele>315</ele>
        <time>2020-12-23T09:55:50.000Z</time>
      </trkpt>
      <trkpt lat="43.77066" lon="5.73886">
        <ele>315.20001220703</ele>
        <time>2020-12-23T09:55:54.000Z</time>
      </trkpt>
      <trkpt lat="43.77072" lon="5.73879">
        <ele>315.20001220703</ele>
        <time>2020-12-23T09:55:56.000Z</time>
      </trkpt>
      <trkpt lat="43.77076" lon="5.73874">
        <ele>315.20001220703</ele>
        <time>2020-12-23T09:55:58.000Z</time>
      </trkpt>
      <trkpt lat="43.77081" lon="5.73872">
        <ele>315.20001220703</ele>
        <time>2020-12-23T09:56:01.000Z</time>
      </trkpt>
      <trkpt lat="43.77084" lon="5.73872">
        <ele>315.20001220703</ele>
        <time>2020-12-23T09:56:02.000Z</time>
      </trkpt>
      <trkpt lat="43.77096" lon="5.73867">
        <ele>315.20001220703</ele>
        <time>2020-12-23T09:56:05.000Z</time>
      </trkpt>
      <trkpt lat="43.77109" lon="5.73862">
        <ele>315.20001220703</ele>
        <time>2020-12-23T09:56:09.000Z</time>
      </trkpt>
      <trkpt lat="43.77119" lon="5.73863">
        <ele>315.20001220703</ele>
        <time>2020-12-23T09:56:13.000Z</time>
      </trkpt>
      <trkpt lat="43.77129" lon="5.73862">
        <ele>315.20001220703</ele>
        <time>2020-12-23T09:56:17.000Z</time>
      </trkpt>
      <trkpt lat="43.7714" lon="5.73861">
        <ele>315.20001220703</ele>
        <time>2020-12-23T09:56:20.000Z</time>
      </trkpt>
      <trkpt lat="43.77146" lon="5.7386">
        <ele>315.20001220703</ele>
        <time>2020-12-23T09:56:22.000Z</time>
      </trkpt>
      <trkpt lat="43.77154" lon="5.73864">
        <ele>315.39999389648</ele>
        <time>2020-12-23T09:56:25.000Z</time>
      </trkpt>
      <trkpt lat="43.77165" lon="5.73866">
        <ele>315.39999389648</ele>
        <time>2020-12-23T09:56:28.000Z</time>
      </trkpt>
      <trkpt lat="43.7718" lon="5.73874">
        <ele>315.20001220703</ele>
        <time>2020-12-23T09:56:32.000Z</time>
      </trkpt>
      <trkpt lat="43.77198" lon="5.73876">
        <ele>315.20001220703</ele>
        <time>2020-12-23T09:56:37.000Z</time>
      </trkpt>
      <trkpt lat="43.77212" lon="5.7388">
        <ele>315.20001220703</ele>
        <time>2020-12-23T09:56:41.000Z</time>
      </trkpt>
      <trkpt lat="43.77223" lon="5.73882">
        <ele>315.39999389648</ele>
        <time>2020-12-23T09:56:45.000Z</time>
      </trkpt>
      <trkpt lat="43.77238" lon="5.73879">
        <ele>315.39999389648</ele>
        <time>2020-12-23T09:56:49.000Z</time>
      </trkpt>
      <trkpt lat="43.77251" lon="5.73879">
        <ele>315.20001220703</ele>
        <time>2020-12-23T09:56:52.000Z</time>
      </trkpt>
      <trkpt lat="43.77255" lon="5.7388">
        <ele>315.20001220703</ele>
        <time>2020-12-23T09:56:53.000Z</time>
      </trkpt>
      <trkpt lat="43.77257" lon="5.73881">
        <ele>315.20001220703</ele>
        <time>2020-12-23T09:56:54.000Z</time>
      </trkpt>
      <trkpt lat="43.77264" lon="5.73888">
        <ele>315.20001220703</ele>
        <time>2020-12-23T09:56:57.000Z</time>
      </trkpt>
      <trkpt lat="43.7727" lon="5.7389">
        <ele>315.39999389648</ele>
        <time>2020-12-23T09:56:59.000Z</time>
      </trkpt>
      <trkpt lat="43.77273" lon="5.7389">
        <ele>315.39999389648</ele>
        <time>2020-12-23T09:57:00.000Z</time>
      </trkpt>
      <trkpt lat="43.7729" lon="5.73887">
        <ele>315.60000610352</ele>
        <time>2020-12-23T09:57:05.000Z</time>
      </trkpt>
      <trkpt lat="43.77306" lon="5.73892">
        <ele>315.60000610352</ele>
        <time>2020-12-23T09:57:10.000Z</time>
      </trkpt>
      <trkpt lat="43.77313" lon="5.73883">
        <ele>316</ele>
        <time>2020-12-23T09:57:14.000Z</time>
      </trkpt>
      <trkpt lat="43.77318" lon="5.73875">
        <ele>316</ele>
        <time>2020-12-23T09:57:16.000Z</time>
      </trkpt>
      <trkpt lat="43.77322" lon="5.73873">
        <ele>316</ele>
        <time>2020-12-23T09:57:17.000Z</time>
      </trkpt>
      <trkpt lat="43.77341" lon="5.73868">
        <ele>316.20001220703</ele>
        <time>2020-12-23T09:57:22.000Z</time>
      </trkpt>
      <trkpt lat="43.77343" lon="5.73866">
        <ele>316.20001220703</ele>
        <time>2020-12-23T09:57:23.000Z</time>
      </trkpt>
      <trkpt lat="43.77342" lon="5.73859">
        <ele>316.20001220703</ele>
        <time>2020-12-23T09:57:25.000Z</time>
      </trkpt>
      <trkpt lat="43.77341" lon="5.7384">
        <ele>316.20001220703</ele>
        <time>2020-12-23T09:57:29.000Z</time>
      </trkpt>
      <trkpt lat="43.77347" lon="5.73826">
        <ele>316</ele>
        <time>2020-12-23T09:57:32.000Z</time>
      </trkpt>
      <trkpt lat="43.77349" lon="5.73822">
        <ele>316</ele>
        <time>2020-12-23T09:57:33.000Z</time>
      </trkpt>
      <trkpt lat="43.77354" lon="5.73808">
        <ele>316.20001220703</ele>
        <time>2020-12-23T09:57:36.000Z</time>
      </trkpt>
      <trkpt lat="43.77354" lon="5.73802">
        <ele>316.20001220703</ele>
        <time>2020-12-23T09:57:37.000Z</time>
      </trkpt>
      <trkpt lat="43.77355" lon="5.73792">
        <ele>316</ele>
        <time>2020-12-23T09:57:40.000Z</time>
      </trkpt>
      <trkpt lat="43.77357" lon="5.73774">
        <ele>316.20001220703</ele>
        <time>2020-12-23T09:57:44.000Z</time>
      </trkpt>
      <trkpt lat="43.7735" lon="5.73754">
        <ele>316.20001220703</ele>
        <time>2020-12-23T09:57:48.000Z</time>
      </trkpt>
      <trkpt lat="43.77345" lon="5.73738">
        <ele>316.20001220703</ele>
        <time>2020-12-23T09:57:52.000Z</time>
      </trkpt>
      <trkpt lat="43.77341" lon="5.73719">
        <ele>316.20001220703</ele>
        <time>2020-12-23T09:57:56.000Z</time>
      </trkpt>
      <trkpt lat="43.77334" lon="5.7371">
        <ele>316.39999389648</ele>
        <time>2020-12-23T09:57:59.000Z</time>
      </trkpt>
      <trkpt lat="43.77331" lon="5.73706">
        <ele>316.39999389648</ele>
        <time>2020-12-23T09:58:00.000Z</time>
      </trkpt>
      <trkpt lat="43.77328" lon="5.73704">
        <ele>316.39999389648</ele>
        <time>2020-12-23T09:58:01.000Z</time>
      </trkpt>
      <trkpt lat="43.77322" lon="5.737">
        <ele>316.39999389648</ele>
        <time>2020-12-23T09:58:04.000Z</time>
      </trkpt>
      <trkpt lat="43.77322" lon="5.73699">
        <ele>316.39999389648</ele>
        <time>2020-12-23T09:58:10.000Z</time>
      </trkpt>
      <trkpt lat="43.7732" lon="5.73696">
        <ele>316.60000610352</ele>
        <time>2020-12-23T09:58:14.000Z</time>
      </trkpt>
      <trkpt lat="43.77318" lon="5.73693">
        <ele>316.60000610352</ele>
        <time>2020-12-23T09:58:23.000Z</time>
      </trkpt>
      <trkpt lat="43.77313" lon="5.73689">
        <ele>316.79998779297</ele>
        <time>2020-12-23T09:58:30.000Z</time>
      </trkpt>
      <trkpt lat="43.77309" lon="5.73674">
        <ele>316.79998779297</ele>
        <time>2020-12-23T09:58:34.000Z</time>
      </trkpt>
      <trkpt lat="43.77316" lon="5.73658">
        <ele>316.79998779297</ele>
        <time>2020-12-23T09:58:37.000Z</time>
      </trkpt>
      <trkpt lat="43.77326" lon="5.73652">
        <ele>316.60000610352</ele>
        <time>2020-12-23T09:58:40.000Z</time>
      </trkpt>
      <trkpt lat="43.77329" lon="5.73652">
        <ele>316.60000610352</ele>
        <time>2020-12-23T09:58:41.000Z</time>
      </trkpt>
      <trkpt lat="43.77345" lon="5.73655">
        <ele>316.39999389648</ele>
        <time>2020-12-23T09:58:45.000Z</time>
      </trkpt>
      <trkpt lat="43.77358" lon="5.73649">
        <ele>316.39999389648</ele>
        <time>2020-12-23T09:58:49.000Z</time>
      </trkpt>
      <trkpt lat="43.77378" lon="5.73634">
        <ele>316.39999389648</ele>
        <time>2020-12-23T09:58:55.000Z</time>
      </trkpt>
      <trkpt lat="43.77389" lon="5.73627">
        <ele>316.39999389648</ele>
        <time>2020-12-23T09:58:59.000Z</time>
      </trkpt>
      <trkpt lat="43.77395" lon="5.7362">
        <ele>316.39999389648</ele>
        <time>2020-12-23T09:59:01.000Z</time>
      </trkpt>
      <trkpt lat="43.774" lon="5.7361">
        <ele>316.39999389648</ele>
        <time>2020-12-23T09:59:03.000Z</time>
      </trkpt>
      <trkpt lat="43.77415" lon="5.73601">
        <ele>316.20001220703</ele>
        <time>2020-12-23T09:59:07.000Z</time>
      </trkpt>
      <trkpt lat="43.77424" lon="5.736">
        <ele>316.39999389648</ele>
        <time>2020-12-23T09:59:10.000Z</time>
      </trkpt>
      <trkpt lat="43.77429" lon="5.73599">
        <ele>316.39999389648</ele>
        <time>2020-12-23T09:59:12.000Z</time>
      </trkpt>
      <trkpt lat="43.77434" lon="5.73598">
        <ele>316.60000610352</ele>
        <time>2020-12-23T09:59:16.000Z</time>
      </trkpt>
      <trkpt lat="43.77446" lon="5.73594">
        <ele>316.79998779297</ele>
        <time>2020-12-23T09:59:20.000Z</time>
      </trkpt>
      <trkpt lat="43.77453" lon="5.7359">
        <ele>317</ele>
        <time>2020-12-23T09:59:22.000Z</time>
      </trkpt>
      <trkpt lat="43.77457" lon="5.73587">
        <ele>317</ele>
        <time>2020-12-23T09:59:24.000Z</time>
      </trkpt>
      <trkpt lat="43.77463" lon="5.73574">
        <ele>317</ele>
        <time>2020-12-23T09:59:27.000Z</time>
      </trkpt>
      <trkpt lat="43.77466" lon="5.73569">
        <ele>317</ele>
        <time>2020-12-23T09:59:28.000Z</time>
      </trkpt>
      <trkpt lat="43.77475" lon="5.73551">
        <ele>317</ele>
        <time>2020-12-23T09:59:31.000Z</time>
      </trkpt>
      <trkpt lat="43.77478" lon="5.73544">
        <ele>317</ele>
        <time>2020-12-23T09:59:32.000Z</time>
      </trkpt>
      <trkpt lat="43.77487" lon="5.7353">
        <ele>317</ele>
        <time>2020-12-23T09:59:35.000Z</time>
      </trkpt>
      <trkpt lat="43.7749" lon="5.73527">
        <ele>316.60000610352</ele>
        <time>2020-12-23T09:59:36.000Z</time>
      </trkpt>
      <trkpt lat="43.775" lon="5.73525">
        <ele>316.39999389648</ele>
        <time>2020-12-23T09:59:39.000Z</time>
      </trkpt>
      <trkpt lat="43.77507" lon="5.73525">
        <ele>316.39999389648</ele>
        <time>2020-12-23T09:59:42.000Z</time>
      </trkpt>
      <trkpt lat="43.77509" lon="5.7352">
        <ele>316.39999389648</ele>
        <time>2020-12-23T09:59:44.000Z</time>
      </trkpt>
      <trkpt lat="43.77509" lon="5.73517">
        <ele>316.39999389648</ele>
        <time>2020-12-23T09:59:45.000Z</time>
      </trkpt>
      <trkpt lat="43.77507" lon="5.73513">
        <ele>316.39999389648</ele>
        <time>2020-12-23T09:59:46.000Z</time>
      </trkpt>
      <trkpt lat="43.77499" lon="5.73497">
        <ele>316.60000610352</ele>
        <time>2020-12-23T09:59:50.000Z</time>
      </trkpt>
      <trkpt lat="43.77502" lon="5.73483">
        <ele>316.79998779297</ele>
        <time>2020-12-23T09:59:53.000Z</time>
      </trkpt>
      <trkpt lat="43.77514" lon="5.73469">
        <ele>316.60000610352</ele>
        <time>2020-12-23T09:59:57.000Z</time>
      </trkpt>
      <trkpt lat="43.77521" lon="5.7346">
        <ele>316.60000610352</ele>
        <time>2020-12-23T09:59:59.000Z</time>
      </trkpt>
      <trkpt lat="43.77528" lon="5.73449">
        <ele>316.60000610352</ele>
        <time>2020-12-23T10:00:01.000Z</time>
      </trkpt>
      <trkpt lat="43.77535" lon="5.7344">
        <ele>316.39999389648</ele>
        <time>2020-12-23T10:00:03.000Z</time>
      </trkpt>
      <trkpt lat="43.77543" lon="5.73432">
        <ele>316.39999389648</ele>
        <time>2020-12-23T10:00:05.000Z</time>
      </trkpt>
      <trkpt lat="43.7755" lon="5.73425">
        <ele>316.20001220703</ele>
        <time>2020-12-23T10:00:07.000Z</time>
      </trkpt>
      <trkpt lat="43.77562" lon="5.73415">
        <ele>316.20001220703</ele>
        <time>2020-12-23T10:00:11.000Z</time>
      </trkpt>
      <trkpt lat="43.77573" lon="5.73403">
        <ele>316.20001220703</ele>
        <time>2020-12-23T10:00:15.000Z</time>
      </trkpt>
      <trkpt lat="43.7759" lon="5.73394">
        <ele>316.39999389648</ele>
        <time>2020-12-23T10:00:20.000Z</time>
      </trkpt>
      <trkpt lat="43.77594" lon="5.73392">
        <ele>316.60000610352</ele>
        <time>2020-12-23T10:00:21.000Z</time>
      </trkpt>
      <trkpt lat="43.77605" lon="5.73391">
        <ele>316.60000610352</ele>
        <time>2020-12-23T10:00:24.000Z</time>
      </trkpt>
      <trkpt lat="43.77613" lon="5.73383">
        <ele>316.60000610352</ele>
        <time>2020-12-23T10:00:28.000Z</time>
      </trkpt>
      <trkpt lat="43.77614" lon="5.73383">
        <ele>317.60000610352</ele>
        <time>2020-12-23T10:00:35.000Z</time>
      </trkpt>
      <trkpt lat="43.77614" lon="5.73383">
        <ele>318</ele>
        <time>2020-12-23T10:00:36.000Z</time>
      </trkpt>
      <trkpt lat="43.77618" lon="5.73376">
        <ele>318.60000610352</ele>
        <time>2020-12-23T10:00:42.000Z</time>
      </trkpt>
      <trkpt lat="43.77624" lon="5.73366">
        <ele>318.60000610352</ele>
        <time>2020-12-23T10:00:46.000Z</time>
      </trkpt>
      <trkpt lat="43.7763" lon="5.73357">
        <ele>318.39999389648</ele>
        <time>2020-12-23T10:00:50.000Z</time>
      </trkpt>
      <trkpt lat="43.77647" lon="5.73343">
        <ele>318</ele>
        <time>2020-12-23T10:00:55.000Z</time>
      </trkpt>
      <trkpt lat="43.77655" lon="5.73335">
        <ele>317.79998779297</ele>
        <time>2020-12-23T10:00:58.000Z</time>
      </trkpt>
      <trkpt lat="43.77661" lon="5.73324">
        <ele>317.79998779297</ele>
        <time>2020-12-23T10:01:02.000Z</time>
      </trkpt>
      <trkpt lat="43.77664" lon="5.73321">
        <ele>317.60000610352</ele>
        <time>2020-12-23T10:01:03.000Z</time>
      </trkpt>
      <trkpt lat="43.77663" lon="5.73312">
        <ele>317.60000610352</ele>
        <time>2020-12-23T10:01:05.000Z</time>
      </trkpt>
      <trkpt lat="43.7766" lon="5.73305">
        <ele>317.39999389648</ele>
        <time>2020-12-23T10:01:07.000Z</time>
      </trkpt>
      <trkpt lat="43.77656" lon="5.73296">
        <ele>316.60000610352</ele>
        <time>2020-12-23T10:01:10.000Z</time>
      </trkpt>
      <trkpt lat="43.77655" lon="5.73291">
        <ele>315.39999389648</ele>
        <time>2020-12-23T10:01:12.000Z</time>
      </trkpt>
      <trkpt lat="43.77654" lon="5.73291">
        <ele>315</ele>
        <time>2020-12-23T10:01:14.000Z</time>
      </trkpt>
      <trkpt lat="43.77654" lon="5.7329">
        <ele>315.20001220703</ele>
        <time>2020-12-23T10:01:26.000Z</time>
      </trkpt>
      <trkpt lat="43.77654" lon="5.7329">
        <ele>315.20001220703</ele>
        <time>2020-12-23T10:01:51.000Z</time>
      </trkpt>
      <trkpt lat="43.77654" lon="5.73287">
        <ele>315.20001220703</ele>
        <time>2020-12-23T10:02:31.000Z</time>
      </trkpt>
      <trkpt lat="43.77655" lon="5.7329">
        <ele>315.20001220703</ele>
        <time>2020-12-23T10:02:36.000Z</time>
      </trkpt>
      <trkpt lat="43.77653" lon="5.73288">
        <ele>315.39999389648</ele>
        <time>2020-12-23T10:02:39.000Z</time>
      </trkpt>
      <trkpt lat="43.77651" lon="5.73287">
        <ele>315.39999389648</ele>
        <time>2020-12-23T10:02:41.000Z</time>
      </trkpt>
      <trkpt lat="43.77647" lon="5.73287">
        <ele>315.39999389648</ele>
        <time>2020-12-23T10:02:48.000Z</time>
      </trkpt>
      <trkpt lat="43.77644" lon="5.73285">
        <ele>315.39999389648</ele>
        <time>2020-12-23T10:02:57.000Z</time>
      </trkpt>
      <trkpt lat="43.77644" lon="5.73283">
        <ele>316</ele>
        <time>2020-12-23T10:03:01.000Z</time>
      </trkpt>
      <trkpt lat="43.77645" lon="5.73282">
        <ele>316.79998779297</ele>
        <time>2020-12-23T10:03:05.000Z</time>
      </trkpt>
      <trkpt lat="43.77645" lon="5.73281">
        <ele>318</ele>
        <time>2020-12-23T10:03:12.000Z</time>
      </trkpt>
      <trkpt lat="43.77646" lon="5.73279">
        <ele>318.20001220703</ele>
        <time>2020-12-23T10:03:14.000Z</time>
      </trkpt>
      <trkpt lat="43.77651" lon="5.7327">
        <ele>318.79998779297</ele>
        <time>2020-12-23T10:03:20.000Z</time>
      </trkpt>
      <trkpt lat="43.77652" lon="5.73269">
        <ele>318.79998779297</ele>
        <time>2020-12-23T10:03:21.000Z</time>
      </trkpt>
      <trkpt lat="43.77652" lon="5.73268">
        <ele>318.79998779297</ele>
        <time>2020-12-23T10:03:22.000Z</time>
      </trkpt>
      <trkpt lat="43.77652" lon="5.73264">
        <ele>319.20001220703</ele>
        <time>2020-12-23T10:03:24.000Z</time>
      </trkpt>
      <trkpt lat="43.77651" lon="5.73263">
        <ele>319.60000610352</ele>
        <time>2020-12-23T10:03:25.000Z</time>
      </trkpt>
      <trkpt lat="43.77648" lon="5.73262">
        <ele>320.39999389648</ele>
        <time>2020-12-23T10:03:27.000Z</time>
      </trkpt>
      <trkpt lat="43.77646" lon="5.73262">
        <ele>320.79998779297</ele>
        <time>2020-12-23T10:03:28.000Z</time>
      </trkpt>
      <trkpt lat="43.77644" lon="5.73263">
        <ele>321.60000610352</ele>
        <time>2020-12-23T10:03:30.000Z</time>
      </trkpt>
      <trkpt lat="43.77642" lon="5.73263">
        <ele>322.60000610352</ele>
        <time>2020-12-23T10:03:31.000Z</time>
      </trkpt>
      <trkpt lat="43.77641" lon="5.73263">
        <ele>323</ele>
        <time>2020-12-23T10:03:32.000Z</time>
      </trkpt>
      <trkpt lat="43.77632" lon="5.73266">
        <ele>324.20001220703</ele>
        <time>2020-12-23T10:03:37.000Z</time>
      </trkpt>
      <trkpt lat="43.77627" lon="5.73268">
        <ele>325.20001220703</ele>
        <time>2020-12-23T10:03:41.000Z</time>
      </trkpt>
      <trkpt lat="43.77624" lon="5.73269">
        <ele>325.60000610352</ele>
        <time>2020-12-23T10:03:43.000Z</time>
      </trkpt>
      <trkpt lat="43.77621" lon="5.73271">
        <ele>326.39999389648</ele>
        <time>2020-12-23T10:03:46.000Z</time>
      </trkpt>
      <trkpt lat="43.77616" lon="5.73275">
        <ele>327</ele>
        <time>2020-12-23T10:03:50.000Z</time>
      </trkpt>
      <trkpt lat="43.77615" lon="5.73275">
        <ele>327.20001220703</ele>
        <time>2020-12-23T10:03:51.000Z</time>
      </trkpt>
      <trkpt lat="43.77613" lon="5.73276">
        <ele>327.39999389648</ele>
        <time>2020-12-23T10:03:53.000Z</time>
      </trkpt>
      <trkpt lat="43.7761" lon="5.73278">
        <ele>327.39999389648</ele>
        <time>2020-12-23T10:03:55.000Z</time>
      </trkpt>
      <trkpt lat="43.77597" lon="5.73284">
        <ele>327.79998779297</ele>
        <time>2020-12-23T10:04:01.000Z</time>
      </trkpt>
      <trkpt lat="43.7758" lon="5.73295">
        <ele>328.20001220703</ele>
        <time>2020-12-23T10:04:08.000Z</time>
      </trkpt>
      <trkpt lat="43.77575" lon="5.73299">
        <ele>328.39999389648</ele>
        <time>2020-12-23T10:04:10.000Z</time>
      </trkpt>
      <trkpt lat="43.77562" lon="5.73309">
        <ele>329.39999389648</ele>
        <time>2020-12-23T10:04:15.000Z</time>
      </trkpt>
      <trkpt lat="43.77559" lon="5.73311">
        <ele>329.60000610352</ele>
        <time>2020-12-23T10:04:16.000Z</time>
      </trkpt>
      <trkpt lat="43.77548" lon="5.73323">
        <ele>330.39999389648</ele>
        <time>2020-12-23T10:04:21.000Z</time>
      </trkpt>
      <trkpt lat="43.77542" lon="5.73331">
        <ele>331.20001220703</ele>
        <time>2020-12-23T10:04:24.000Z</time>
      </trkpt>
      <trkpt lat="43.7754" lon="5.73333">
        <ele>331.60000610352</ele>
        <time>2020-12-23T10:04:25.000Z</time>
      </trkpt>
      <trkpt lat="43.77534" lon="5.73336">
        <ele>332.20001220703</ele>
        <time>2020-12-23T10:04:28.000Z</time>
      </trkpt>
      <trkpt lat="43.77532" lon="5.73337">
        <ele>332.79998779297</ele>
        <time>2020-12-23T10:04:30.000Z</time>
      </trkpt>
      <trkpt lat="43.77533" lon="5.73337">
        <ele>333.20001220703</ele>
        <time>2020-12-23T10:04:33.000Z</time>
      </trkpt>
      <trkpt lat="43.77533" lon="5.73337">
        <ele>334</ele>
        <time>2020-12-23T10:04:36.000Z</time>
      </trkpt>
      <trkpt lat="43.77533" lon="5.73337">
        <ele>334.79998779297</ele>
        <time>2020-12-23T10:04:41.000Z</time>
      </trkpt>
      <trkpt lat="43.77533" lon="5.73337">
        <ele>335</ele>
        <time>2020-12-23T10:04:56.000Z</time>
      </trkpt>
      <trkpt lat="43.77533" lon="5.73337">
        <ele>335</ele>
        <time>2020-12-23T10:05:02.000Z</time>
      </trkpt>
      <trkpt lat="43.77533" lon="5.73337">
        <ele>335.20001220703</ele>
        <time>2020-12-23T10:05:06.000Z</time>
      </trkpt>
      <trkpt lat="43.77527" lon="5.7334">
        <ele>335.20001220703</ele>
        <time>2020-12-23T10:05:18.000Z</time>
      </trkpt>
      <trkpt lat="43.77516" lon="5.73349">
        <ele>335.20001220703</ele>
        <time>2020-12-23T10:05:24.000Z</time>
      </trkpt>
      <trkpt lat="43.77508" lon="5.73356">
        <ele>336.39999389648</ele>
        <time>2020-12-23T10:05:28.000Z</time>
      </trkpt>
      <trkpt lat="43.77505" lon="5.73359">
        <ele>337</ele>
        <time>2020-12-23T10:05:30.000Z</time>
      </trkpt>
      <trkpt lat="43.77501" lon="5.73361">
        <ele>337.39999389648</ele>
        <time>2020-12-23T10:05:32.000Z</time>
      </trkpt>
      <trkpt lat="43.77496" lon="5.73366">
        <ele>338.60000610352</ele>
        <time>2020-12-23T10:05:36.000Z</time>
      </trkpt>
      <trkpt lat="43.7749" lon="5.73372">
        <ele>339.79998779297</ele>
        <time>2020-12-23T10:05:40.000Z</time>
      </trkpt>
      <trkpt lat="43.77489" lon="5.73374">
        <ele>340</ele>
        <time>2020-12-23T10:05:41.000Z</time>
      </trkpt>
      <trkpt lat="43.77486" lon="5.73376">
        <ele>340.39999389648</ele>
        <time>2020-12-23T10:05:43.000Z</time>
      </trkpt>
      <trkpt lat="43.77484" lon="5.73376">
        <ele>340.79998779297</ele>
        <time>2020-12-23T10:05:44.000Z</time>
      </trkpt>
      <trkpt lat="43.77481" lon="5.73376">
        <ele>341.39999389648</ele>
        <time>2020-12-23T10:05:46.000Z</time>
      </trkpt>
      <trkpt lat="43.77477" lon="5.73377">
        <ele>342.20001220703</ele>
        <time>2020-12-23T10:05:48.000Z</time>
      </trkpt>
      <trkpt lat="43.77469" lon="5.73381">
        <ele>343.39999389648</ele>
        <time>2020-12-23T10:05:51.000Z</time>
      </trkpt>
      <trkpt lat="43.77462" lon="5.73385">
        <ele>344.60000610352</ele>
        <time>2020-12-23T10:05:54.000Z</time>
      </trkpt>
      <trkpt lat="43.77457" lon="5.73388">
        <ele>346</ele>
        <time>2020-12-23T10:05:56.000Z</time>
      </trkpt>
      <trkpt lat="43.77449" lon="5.73389">
        <ele>347</ele>
        <time>2020-12-23T10:05:59.000Z</time>
      </trkpt>
      <trkpt lat="43.77447" lon="5.73388">
        <ele>347.20001220703</ele>
        <time>2020-12-23T10:06:00.000Z</time>
      </trkpt>
      <trkpt lat="43.77446" lon="5.73387">
        <ele>347.60000610352</ele>
        <time>2020-12-23T10:06:01.000Z</time>
      </trkpt>
      <trkpt lat="43.77447" lon="5.73383">
        <ele>348</ele>
        <time>2020-12-23T10:06:03.000Z</time>
      </trkpt>
      <trkpt lat="43.77449" lon="5.73382">
        <ele>348.20001220703</ele>
        <time>2020-12-23T10:06:04.000Z</time>
      </trkpt>
      <trkpt lat="43.7745" lon="5.73381">
        <ele>348.20001220703</ele>
        <time>2020-12-23T10:06:05.000Z</time>
      </trkpt>
      <trkpt lat="43.77451" lon="5.7338">
        <ele>348.39999389648</ele>
        <time>2020-12-23T10:06:06.000Z</time>
      </trkpt>
      <trkpt lat="43.77454" lon="5.73376">
        <ele>348.79998779297</ele>
        <time>2020-12-23T10:06:09.000Z</time>
      </trkpt>
      <trkpt lat="43.77455" lon="5.73374">
        <ele>349</ele>
        <time>2020-12-23T10:06:10.000Z</time>
      </trkpt>
      <trkpt lat="43.77457" lon="5.73367">
        <ele>350</ele>
        <time>2020-12-23T10:06:13.000Z</time>
      </trkpt>
      <trkpt lat="43.77457" lon="5.73366">
        <ele>350.20001220703</ele>
        <time>2020-12-23T10:06:14.000Z</time>
      </trkpt>
      <trkpt lat="43.77454" lon="5.73363">
        <ele>350.79998779297</ele>
        <time>2020-12-23T10:06:17.000Z</time>
      </trkpt>
      <trkpt lat="43.77453" lon="5.73363">
        <ele>351</ele>
        <time>2020-12-23T10:06:18.000Z</time>
      </trkpt>
      <trkpt lat="43.77449" lon="5.73362">
        <ele>351.60000610352</ele>
        <time>2020-12-23T10:06:21.000Z</time>
      </trkpt>
      <trkpt lat="43.77444" lon="5.73361">
        <ele>352</ele>
        <time>2020-12-23T10:06:23.000Z</time>
      </trkpt>
      <trkpt lat="43.77437" lon="5.73361">
        <ele>353</ele>
        <time>2020-12-23T10:06:26.000Z</time>
      </trkpt>
      <trkpt lat="43.77429" lon="5.73361">
        <ele>353</ele>
        <time>2020-12-23T10:06:28.000Z</time>
      </trkpt>
      <trkpt lat="43.77425" lon="5.7336">
        <ele>353.20001220703</ele>
        <time>2020-12-23T10:06:29.000Z</time>
      </trkpt>
      <trkpt lat="43.77411" lon="5.73352">
        <ele>353.20001220703</ele>
        <time>2020-12-23T10:06:32.000Z</time>
      </trkpt>
      <trkpt lat="43.774" lon="5.73358">
        <ele>353.20001220703</ele>
        <time>2020-12-23T10:06:35.000Z</time>
      </trkpt>
      <trkpt lat="43.77399" lon="5.7337">
        <ele>351.79998779297</ele>
        <time>2020-12-23T10:06:38.000Z</time>
      </trkpt>
      <trkpt lat="43.77399" lon="5.73377">
        <ele>350.60000610352</ele>
        <time>2020-12-23T10:06:40.000Z</time>
      </trkpt>
      <trkpt lat="43.77396" lon="5.73386">
        <ele>349.79998779297</ele>
        <time>2020-12-23T10:06:43.000Z</time>
      </trkpt>
      <trkpt lat="43.77386" lon="5.73396">
        <ele>349.60000610352</ele>
        <time>2020-12-23T10:06:48.000Z</time>
      </trkpt>
      <trkpt lat="43.77376" lon="5.73395">
        <ele>350.60000610352</ele>
        <time>2020-12-23T10:06:53.000Z</time>
      </trkpt>
      <trkpt lat="43.77369" lon="5.73396">
        <ele>352</ele>
        <time>2020-12-23T10:06:56.000Z</time>
      </trkpt>
      <trkpt lat="43.77364" lon="5.73396">
        <ele>352.79998779297</ele>
        <time>2020-12-23T10:06:58.000Z</time>
      </trkpt>
      <trkpt lat="43.77362" lon="5.73396">
        <ele>353.20001220703</ele>
        <time>2020-12-23T10:06:59.000Z</time>
      </trkpt>
      <trkpt lat="43.77356" lon="5.73396">
        <ele>354.20001220703</ele>
        <time>2020-12-23T10:07:01.000Z</time>
      </trkpt>
      <trkpt lat="43.77348" lon="5.73397">
        <ele>355.79998779297</ele>
        <time>2020-12-23T10:07:04.000Z</time>
      </trkpt>
      <trkpt lat="43.77342" lon="5.73397">
        <ele>356.20001220703</ele>
        <time>2020-12-23T10:07:06.000Z</time>
      </trkpt>
      <trkpt lat="43.77336" lon="5.73398">
        <ele>357</ele>
        <time>2020-12-23T10:07:08.000Z</time>
      </trkpt>
      <trkpt lat="43.77328" lon="5.73398">
        <ele>358</ele>
        <time>2020-12-23T10:07:11.000Z</time>
      </trkpt>
      <trkpt lat="43.77322" lon="5.73397">
        <ele>358.79998779297</ele>
        <time>2020-12-23T10:07:13.000Z</time>
      </trkpt>
      <trkpt lat="43.77319" lon="5.73397">
        <ele>359</ele>
        <time>2020-12-23T10:07:14.000Z</time>
      </trkpt>
      <trkpt lat="43.77306" lon="5.73395">
        <ele>360.39999389648</ele>
        <time>2020-12-23T10:07:19.000Z</time>
      </trkpt>
      <trkpt lat="43.77301" lon="5.73394">
        <ele>361</ele>
        <time>2020-12-23T10:07:21.000Z</time>
      </trkpt>
      <trkpt lat="43.77297" lon="5.73394">
        <ele>361.79998779297</ele>
        <time>2020-12-23T10:07:23.000Z</time>
      </trkpt>
      <trkpt lat="43.77289" lon="5.73394">
        <ele>362.60000610352</ele>
        <time>2020-12-23T10:07:26.000Z</time>
      </trkpt>
      <trkpt lat="43.77285" lon="5.73396">
        <ele>363.20001220703</ele>
        <time>2020-12-23T10:07:28.000Z</time>
      </trkpt>
      <trkpt lat="43.7728" lon="5.73399">
        <ele>363.79998779297</ele>
        <time>2020-12-23T10:07:30.000Z</time>
      </trkpt>
      <trkpt lat="43.77274" lon="5.73404">
        <ele>365</ele>
        <time>2020-12-23T10:07:33.000Z</time>
      </trkpt>
      <trkpt lat="43.77269" lon="5.73406">
        <ele>365.60000610352</ele>
        <time>2020-12-23T10:07:35.000Z</time>
      </trkpt>
      <trkpt lat="43.77265" lon="5.73409">
        <ele>366</ele>
        <time>2020-12-23T10:07:37.000Z</time>
      </trkpt>
      <trkpt lat="43.77259" lon="5.73414">
        <ele>367.20001220703</ele>
        <time>2020-12-23T10:07:40.000Z</time>
      </trkpt>
      <trkpt lat="43.77255" lon="5.73419">
        <ele>367.79998779297</ele>
        <time>2020-12-23T10:07:42.000Z</time>
      </trkpt>
      <trkpt lat="43.77254" lon="5.73421">
        <ele>368.20001220703</ele>
        <time>2020-12-23T10:07:43.000Z</time>
      </trkpt>
      <trkpt lat="43.77248" lon="5.73427">
        <ele>369.60000610352</ele>
        <time>2020-12-23T10:07:46.000Z</time>
      </trkpt>
      <trkpt lat="43.77242" lon="5.73433">
        <ele>370.79998779297</ele>
        <time>2020-12-23T10:07:49.000Z</time>
      </trkpt>
      <trkpt lat="43.77233" lon="5.73438">
        <ele>372</ele>
        <time>2020-12-23T10:07:53.000Z</time>
      </trkpt>
      <trkpt lat="43.77232" lon="5.73439">
        <ele>372.20001220703</ele>
        <time>2020-12-23T10:07:54.000Z</time>
      </trkpt>
      <trkpt lat="43.77227" lon="5.73439">
        <ele>373</ele>
        <time>2020-12-23T10:07:56.000Z</time>
      </trkpt>
      <trkpt lat="43.77223" lon="5.7344">
        <ele>374</ele>
        <time>2020-12-23T10:07:59.000Z</time>
      </trkpt>
      <trkpt lat="43.77221" lon="5.73439">
        <ele>374.39999389648</ele>
        <time>2020-12-23T10:08:00.000Z</time>
      </trkpt>
      <trkpt lat="43.77215" lon="5.73438">
        <ele>375.20001220703</ele>
        <time>2020-12-23T10:08:03.000Z</time>
      </trkpt>
      <trkpt lat="43.77208" lon="5.73433">
        <ele>376.60000610352</ele>
        <time>2020-12-23T10:08:06.000Z</time>
      </trkpt>
      <trkpt lat="43.77203" lon="5.7343">
        <ele>377.79998779297</ele>
        <time>2020-12-23T10:08:08.000Z</time>
      </trkpt>
      <trkpt lat="43.77193" lon="5.73428">
        <ele>378.79998779297</ele>
        <time>2020-12-23T10:08:11.000Z</time>
      </trkpt>
      <trkpt lat="43.77177" lon="5.73427">
        <ele>380</ele>
        <time>2020-12-23T10:08:15.000Z</time>
      </trkpt>
      <trkpt lat="43.77168" lon="5.73437">
        <ele>380</ele>
        <time>2020-12-23T10:08:18.000Z</time>
      </trkpt>
      <trkpt lat="43.77162" lon="5.7345">
        <ele>380.20001220703</ele>
        <time>2020-12-23T10:08:21.000Z</time>
      </trkpt>
      <trkpt lat="43.77157" lon="5.7346">
        <ele>380.20001220703</ele>
        <time>2020-12-23T10:08:23.000Z</time>
      </trkpt>
      <trkpt lat="43.77144" lon="5.73486">
        <ele>380</ele>
        <time>2020-12-23T10:08:28.000Z</time>
      </trkpt>
      <trkpt lat="43.77131" lon="5.73501">
        <ele>379.79998779297</ele>
        <time>2020-12-23T10:08:33.000Z</time>
      </trkpt>
      <trkpt lat="43.77118" lon="5.73515">
        <ele>380.39999389648</ele>
        <time>2020-12-23T10:08:38.000Z</time>
      </trkpt>
      <trkpt lat="43.77112" lon="5.73518">
        <ele>381</ele>
        <time>2020-12-23T10:08:40.000Z</time>
      </trkpt>
      <trkpt lat="43.77103" lon="5.73522">
        <ele>382.20001220703</ele>
        <time>2020-12-23T10:08:43.000Z</time>
      </trkpt>
      <trkpt lat="43.77093" lon="5.73527">
        <ele>383.39999389648</ele>
        <time>2020-12-23T10:08:46.000Z</time>
      </trkpt>
      <trkpt lat="43.77083" lon="5.73531">
        <ele>384.79998779297</ele>
        <time>2020-12-23T10:08:49.000Z</time>
      </trkpt>
      <trkpt lat="43.7708" lon="5.73533">
        <ele>385.20001220703</ele>
        <time>2020-12-23T10:08:50.000Z</time>
      </trkpt>
      <trkpt lat="43.77078" lon="5.73535">
        <ele>385.60000610352</ele>
        <time>2020-12-23T10:08:51.000Z</time>
      </trkpt>
      <trkpt lat="43.77075" lon="5.73536">
        <ele>386.20001220703</ele>
        <time>2020-12-23T10:08:52.000Z</time>
      </trkpt>
      <trkpt lat="43.77068" lon="5.7354">
        <ele>387.20001220703</ele>
        <time>2020-12-23T10:08:55.000Z</time>
      </trkpt>
      <trkpt lat="43.77065" lon="5.73541">
        <ele>387.60000610352</ele>
        <time>2020-12-23T10:08:56.000Z</time>
      </trkpt>
      <trkpt lat="43.77058" lon="5.73542">
        <ele>388.79998779297</ele>
        <time>2020-12-23T10:08:59.000Z</time>
      </trkpt>
      <trkpt lat="43.77053" lon="5.73541">
        <ele>389.39999389648</ele>
        <time>2020-12-23T10:09:01.000Z</time>
      </trkpt>
      <trkpt lat="43.7705" lon="5.73541">
        <ele>389.79998779297</ele>
        <time>2020-12-23T10:09:02.000Z</time>
      </trkpt>
      <trkpt lat="43.77039" lon="5.73548">
        <ele>391</ele>
        <time>2020-12-23T10:09:05.000Z</time>
      </trkpt>
      <trkpt lat="43.77034" lon="5.73559">
        <ele>392.39999389648</ele>
        <time>2020-12-23T10:09:08.000Z</time>
      </trkpt>
      <trkpt lat="43.77024" lon="5.73576">
        <ele>393.20001220703</ele>
        <time>2020-12-23T10:09:13.000Z</time>
      </trkpt>
      <trkpt lat="43.77017" lon="5.73584">
        <ele>393.39999389648</ele>
        <time>2020-12-23T10:09:16.000Z</time>
      </trkpt>
      <trkpt lat="43.77011" lon="5.7359">
        <ele>393.60000610352</ele>
        <time>2020-12-23T10:09:18.000Z</time>
      </trkpt>
      <trkpt lat="43.76997" lon="5.73599">
        <ele>394.60000610352</ele>
        <time>2020-12-23T10:09:22.000Z</time>
      </trkpt>
      <trkpt lat="43.76994" lon="5.73603">
        <ele>395</ele>
        <time>2020-12-23T10:09:23.000Z</time>
      </trkpt>
      <trkpt lat="43.76989" lon="5.73607">
        <ele>395.39999389648</ele>
        <time>2020-12-23T10:09:24.000Z</time>
      </trkpt>
      <trkpt lat="43.76985" lon="5.7361">
        <ele>395.79998779297</ele>
        <time>2020-12-23T10:09:25.000Z</time>
      </trkpt>
      <trkpt lat="43.76976" lon="5.73616">
        <ele>396.60000610352</ele>
        <time>2020-12-23T10:09:27.000Z</time>
      </trkpt>
      <trkpt lat="43.76967" lon="5.73623">
        <ele>397</ele>
        <time>2020-12-23T10:09:29.000Z</time>
      </trkpt>
      <trkpt lat="43.76959" lon="5.73627">
        <ele>397</ele>
        <time>2020-12-23T10:09:31.000Z</time>
      </trkpt>
      <trkpt lat="43.76956" lon="5.7363">
        <ele>397</ele>
        <time>2020-12-23T10:09:32.000Z</time>
      </trkpt>
      <trkpt lat="43.76946" lon="5.73636">
        <ele>397.39999389648</ele>
        <time>2020-12-23T10:09:36.000Z</time>
      </trkpt>
      <trkpt lat="43.76944" lon="5.7363">
        <ele>398</ele>
        <time>2020-12-23T10:09:39.000Z</time>
      </trkpt>
      <trkpt lat="43.76947" lon="5.73624">
        <ele>399</ele>
        <time>2020-12-23T10:09:41.000Z</time>
      </trkpt>
      <trkpt lat="43.76952" lon="5.73614">
        <ele>400.60000610352</ele>
        <time>2020-12-23T10:09:44.000Z</time>
      </trkpt>
      <trkpt lat="43.76954" lon="5.73609">
        <ele>401.79998779297</ele>
        <time>2020-12-23T10:09:46.000Z</time>
      </trkpt>
      <trkpt lat="43.76959" lon="5.73601">
        <ele>402.39999389648</ele>
        <time>2020-12-23T10:09:50.000Z</time>
      </trkpt>
      <trkpt lat="43.76963" lon="5.73593">
        <ele>402.79998779297</ele>
        <time>2020-12-23T10:09:54.000Z</time>
      </trkpt>
      <trkpt lat="43.76966" lon="5.73587">
        <ele>403.39999389648</ele>
        <time>2020-12-23T10:09:57.000Z</time>
      </trkpt>
      <trkpt lat="43.76969" lon="5.73581">
        <ele>404</ele>
        <time>2020-12-23T10:10:00.000Z</time>
      </trkpt>
      <trkpt lat="43.76974" lon="5.73568">
        <ele>404.39999389648</ele>
        <time>2020-12-23T10:10:06.000Z</time>
      </trkpt>
      <trkpt lat="43.76979" lon="5.73557">
        <ele>405</ele>
        <time>2020-12-23T10:10:12.000Z</time>
      </trkpt>
      <trkpt lat="43.76984" lon="5.73543">
        <ele>405.60000610352</ele>
        <time>2020-12-23T10:10:18.000Z</time>
      </trkpt>
      <trkpt lat="43.76988" lon="5.73527">
        <ele>406</ele>
        <time>2020-12-23T10:10:23.000Z</time>
      </trkpt>
      <trkpt lat="43.76988" lon="5.73524">
        <ele>406</ele>
        <time>2020-12-23T10:10:24.000Z</time>
      </trkpt>
      <trkpt lat="43.76994" lon="5.73492">
        <ele>406.60000610352</ele>
        <time>2020-12-23T10:10:33.000Z</time>
      </trkpt>
      <trkpt lat="43.77001" lon="5.7348">
        <ele>407.20001220703</ele>
        <time>2020-12-23T10:10:38.000Z</time>
      </trkpt>
      <trkpt lat="43.77006" lon="5.73475">
        <ele>407.39999389648</ele>
        <time>2020-12-23T10:10:40.000Z</time>
      </trkpt>
      <trkpt lat="43.7702" lon="5.73458">
        <ele>408.20001220703</ele>
        <time>2020-12-23T10:10:47.000Z</time>
      </trkpt>
      <trkpt lat="43.77032" lon="5.73435">
        <ele>409.39999389648</ele>
        <time>2020-12-23T10:10:55.000Z</time>
      </trkpt>
      <trkpt lat="43.77042" lon="5.7342">
        <ele>410.60000610352</ele>
        <time>2020-12-23T10:11:01.000Z</time>
      </trkpt>
      <trkpt lat="43.77049" lon="5.73413">
        <ele>411.79998779297</ele>
        <time>2020-12-23T10:11:05.000Z</time>
      </trkpt>
      <trkpt lat="43.77053" lon="5.73408">
        <ele>412.39999389648</ele>
        <time>2020-12-23T10:11:07.000Z</time>
      </trkpt>
      <trkpt lat="43.77059" lon="5.73398">
        <ele>413</ele>
        <time>2020-12-23T10:11:10.000Z</time>
      </trkpt>
      <trkpt lat="43.77066" lon="5.73388">
        <ele>413.79998779297</ele>
        <time>2020-12-23T10:11:13.000Z</time>
      </trkpt>
      <trkpt lat="43.77068" lon="5.73385">
        <ele>414.20001220703</ele>
        <time>2020-12-23T10:11:14.000Z</time>
      </trkpt>
      <trkpt lat="43.77074" lon="5.73373">
        <ele>415.39999389648</ele>
        <time>2020-12-23T10:11:18.000Z</time>
      </trkpt>
      <trkpt lat="43.77077" lon="5.73366">
        <ele>416</ele>
        <time>2020-12-23T10:11:20.000Z</time>
      </trkpt>
      <trkpt lat="43.7708" lon="5.7336">
        <ele>416.79998779297</ele>
        <time>2020-12-23T10:11:22.000Z</time>
      </trkpt>
      <trkpt lat="43.77085" lon="5.73348">
        <ele>417.60000610352</ele>
        <time>2020-12-23T10:11:26.000Z</time>
      </trkpt>
      <trkpt lat="43.77091" lon="5.73335">
        <ele>417.79998779297</ele>
        <time>2020-12-23T10:11:30.000Z</time>
      </trkpt>
      <trkpt lat="43.77094" lon="5.73324">
        <ele>418.20001220703</ele>
        <time>2020-12-23T10:11:33.000Z</time>
      </trkpt>
      <trkpt lat="43.771" lon="5.73307">
        <ele>419</ele>
        <time>2020-12-23T10:11:38.000Z</time>
      </trkpt>
      <trkpt lat="43.77102" lon="5.733">
        <ele>419.20001220703</ele>
        <time>2020-12-23T10:11:40.000Z</time>
      </trkpt>
      <trkpt lat="43.77112" lon="5.73286">
        <ele>420</ele>
        <time>2020-12-23T10:11:45.000Z</time>
      </trkpt>
      <trkpt lat="43.77115" lon="5.73284">
        <ele>420.20001220703</ele>
        <time>2020-12-23T10:11:46.000Z</time>
      </trkpt>
      <trkpt lat="43.77125" lon="5.73279">
        <ele>421</ele>
        <time>2020-12-23T10:11:50.000Z</time>
      </trkpt>
      <trkpt lat="43.7713" lon="5.73278">
        <ele>421.39999389648</ele>
        <time>2020-12-23T10:11:52.000Z</time>
      </trkpt>
      <trkpt lat="43.77141" lon="5.73275">
        <ele>422.20001220703</ele>
        <time>2020-12-23T10:11:57.000Z</time>
      </trkpt>
      <trkpt lat="43.77148" lon="5.73273">
        <ele>422.79998779297</ele>
        <time>2020-12-23T10:12:00.000Z</time>
      </trkpt>
      <trkpt lat="43.77157" lon="5.7327">
        <ele>423.20001220703</ele>
        <time>2020-12-23T10:12:04.000Z</time>
      </trkpt>
      <trkpt lat="43.77165" lon="5.73266">
        <ele>423.60000610352</ele>
        <time>2020-12-23T10:12:08.000Z</time>
      </trkpt>
      <trkpt lat="43.77175" lon="5.73259">
        <ele>424.39999389648</ele>
        <time>2020-12-23T10:12:12.000Z</time>
      </trkpt>
      <trkpt lat="43.77184" lon="5.7325">
        <ele>425.20001220703</ele>
        <time>2020-12-23T10:12:16.000Z</time>
      </trkpt>
      <trkpt lat="43.77187" lon="5.73245">
        <ele>425.60000610352</ele>
        <time>2020-12-23T10:12:18.000Z</time>
      </trkpt>
      <trkpt lat="43.77191" lon="5.73236">
        <ele>426.20001220703</ele>
        <time>2020-12-23T10:12:21.000Z</time>
      </trkpt>
      <trkpt lat="43.77196" lon="5.73225">
        <ele>426.79998779297</ele>
        <time>2020-12-23T10:12:24.000Z</time>
      </trkpt>
      <trkpt lat="43.772" lon="5.73214">
        <ele>427.39999389648</ele>
        <time>2020-12-23T10:12:28.000Z</time>
      </trkpt>
      <trkpt lat="43.77204" lon="5.732">
        <ele>427.79998779297</ele>
        <time>2020-12-23T10:12:33.000Z</time>
      </trkpt>
      <trkpt lat="43.77206" lon="5.73195">
        <ele>428</ele>
        <time>2020-12-23T10:12:35.000Z</time>
      </trkpt>
      <trkpt lat="43.77214" lon="5.7318">
        <ele>428.20001220703</ele>
        <time>2020-12-23T10:12:41.000Z</time>
      </trkpt>
      <trkpt lat="43.77227" lon="5.73159">
        <ele>428.79998779297</ele>
        <time>2020-12-23T10:12:50.000Z</time>
      </trkpt>
      <trkpt lat="43.77228" lon="5.73156">
        <ele>429</ele>
        <time>2020-12-23T10:12:51.000Z</time>
      </trkpt>
      <trkpt lat="43.77235" lon="5.7314">
        <ele>429.79998779297</ele>
        <time>2020-12-23T10:12:57.000Z</time>
      </trkpt>
      <trkpt lat="43.77237" lon="5.73138">
        <ele>430</ele>
        <time>2020-12-23T10:12:58.000Z</time>
      </trkpt>
      <trkpt lat="43.77244" lon="5.73125">
        <ele>430.79998779297</ele>
        <time>2020-12-23T10:13:03.000Z</time>
      </trkpt>
      <trkpt lat="43.77248" lon="5.7312">
        <ele>431.20001220703</ele>
        <time>2020-12-23T10:13:05.000Z</time>
      </trkpt>
      <trkpt lat="43.77253" lon="5.7311">
        <ele>432</ele>
        <time>2020-12-23T10:13:09.000Z</time>
      </trkpt>
      <trkpt lat="43.77256" lon="5.73106">
        <ele>432.39999389648</ele>
        <time>2020-12-23T10:13:11.000Z</time>
      </trkpt>
      <trkpt lat="43.77261" lon="5.73096">
        <ele>433.79998779297</ele>
        <time>2020-12-23T10:13:15.000Z</time>
      </trkpt>
      <trkpt lat="43.77262" lon="5.73093">
        <ele>434</ele>
        <time>2020-12-23T10:13:16.000Z</time>
      </trkpt>
      <trkpt lat="43.77267" lon="5.73082">
        <ele>434.79998779297</ele>
        <time>2020-12-23T10:13:20.000Z</time>
      </trkpt>
      <trkpt lat="43.77272" lon="5.73076">
        <ele>435.79998779297</ele>
        <time>2020-12-23T10:13:23.000Z</time>
      </trkpt>
      <trkpt lat="43.77274" lon="5.73073">
        <ele>436</ele>
        <time>2020-12-23T10:13:24.000Z</time>
      </trkpt>
      <trkpt lat="43.77282" lon="5.73061">
        <ele>437.20001220703</ele>
        <time>2020-12-23T10:13:29.000Z</time>
      </trkpt>
      <trkpt lat="43.77283" lon="5.73058">
        <ele>437.39999389648</ele>
        <time>2020-12-23T10:13:30.000Z</time>
      </trkpt>
      <trkpt lat="43.77288" lon="5.73052">
        <ele>438.39999389648</ele>
        <time>2020-12-23T10:13:33.000Z</time>
      </trkpt>
      <trkpt lat="43.77292" lon="5.73045">
        <ele>439.60000610352</ele>
        <time>2020-12-23T10:13:36.000Z</time>
      </trkpt>
      <trkpt lat="43.77297" lon="5.73038">
        <ele>440.79998779297</ele>
        <time>2020-12-23T10:13:39.000Z</time>
      </trkpt>
      <trkpt lat="43.77301" lon="5.7303">
        <ele>442</ele>
        <time>2020-12-23T10:13:42.000Z</time>
      </trkpt>
      <trkpt lat="43.7731" lon="5.73017">
        <ele>443.20001220703</ele>
        <time>2020-12-23T10:13:47.000Z</time>
      </trkpt>
      <trkpt lat="43.77316" lon="5.7301">
        <ele>444.60000610352</ele>
        <time>2020-12-23T10:13:51.000Z</time>
      </trkpt>
      <trkpt lat="43.77319" lon="5.73006">
        <ele>445.39999389648</ele>
        <time>2020-12-23T10:13:53.000Z</time>
      </trkpt>
      <trkpt lat="43.7732" lon="5.73004">
        <ele>445.79998779297</ele>
        <time>2020-12-23T10:13:54.000Z</time>
      </trkpt>
      <trkpt lat="43.77326" lon="5.72993">
        <ele>447</ele>
        <time>2020-12-23T10:13:58.000Z</time>
      </trkpt>
      <trkpt lat="43.77329" lon="5.72987">
        <ele>447.20001220703</ele>
        <time>2020-12-23T10:14:00.000Z</time>
      </trkpt>
      <trkpt lat="43.77333" lon="5.72971">
        <ele>448.20001220703</ele>
        <time>2020-12-23T10:14:05.000Z</time>
      </trkpt>
      <trkpt lat="43.77334" lon="5.72968">
        <ele>449.20001220703</ele>
        <time>2020-12-23T10:14:10.000Z</time>
      </trkpt>
      <trkpt lat="43.77334" lon="5.72967">
        <ele>449.60000610352</ele>
        <time>2020-12-23T10:14:12.000Z</time>
      </trkpt>
      <trkpt lat="43.77334" lon="5.72967">
        <ele>450</ele>
        <time>2020-12-23T10:14:28.000Z</time>
      </trkpt>
      <trkpt lat="43.77335" lon="5.72959">
        <ele>450.20001220703</ele>
        <time>2020-12-23T10:14:36.000Z</time>
      </trkpt>
      <trkpt lat="43.77335" lon="5.72937">
        <ele>450.20001220703</ele>
        <time>2020-12-23T10:14:42.000Z</time>
      </trkpt>
      <trkpt lat="43.77332" lon="5.72916">
        <ele>450.60000610352</ele>
        <time>2020-12-23T10:14:48.000Z</time>
      </trkpt>
      <trkpt lat="43.77331" lon="5.72912">
        <ele>450.79998779297</ele>
        <time>2020-12-23T10:14:50.000Z</time>
      </trkpt>
      <trkpt lat="43.77329" lon="5.72911">
        <ele>451.20001220703</ele>
        <time>2020-12-23T10:14:52.000Z</time>
      </trkpt>
      <trkpt lat="43.77324" lon="5.7291">
        <ele>451.79998779297</ele>
        <time>2020-12-23T10:14:55.000Z</time>
      </trkpt>
      <trkpt lat="43.77322" lon="5.7291">
        <ele>451.79998779297</ele>
        <time>2020-12-23T10:14:56.000Z</time>
      </trkpt>
      <trkpt lat="43.77319" lon="5.7291">
        <ele>452</ele>
        <time>2020-12-23T10:14:58.000Z</time>
      </trkpt>
      <trkpt lat="43.77315" lon="5.72911">
        <ele>452.20001220703</ele>
        <time>2020-12-23T10:15:00.000Z</time>
      </trkpt>
      <trkpt lat="43.77312" lon="5.72912">
        <ele>452.39999389648</ele>
        <time>2020-12-23T10:15:01.000Z</time>
      </trkpt>
      <trkpt lat="43.77303" lon="5.72918">
        <ele>453.39999389648</ele>
        <time>2020-12-23T10:15:05.000Z</time>
      </trkpt>
      <trkpt lat="43.77302" lon="5.72919">
        <ele>453.60000610352</ele>
        <time>2020-12-23T10:15:06.000Z</time>
      </trkpt>
      <trkpt lat="43.77301" lon="5.72921">
        <ele>453.60000610352</ele>
        <time>2020-12-23T10:15:07.000Z</time>
      </trkpt>
      <trkpt lat="43.77301" lon="5.72926">
        <ele>454</ele>
        <time>2020-12-23T10:15:10.000Z</time>
      </trkpt>
      <trkpt lat="43.77306" lon="5.7293">
        <ele>454.60000610352</ele>
        <time>2020-12-23T10:15:14.000Z</time>
      </trkpt>
      <trkpt lat="43.77308" lon="5.72929">
        <ele>454.79998779297</ele>
        <time>2020-12-23T10:15:15.000Z</time>
      </trkpt>
      <trkpt lat="43.77313" lon="5.72929">
        <ele>456</ele>
        <time>2020-12-23T10:15:18.000Z</time>
      </trkpt>
      <trkpt lat="43.77314" lon="5.72931">
        <ele>456.39999389648</ele>
        <time>2020-12-23T10:15:19.000Z</time>
      </trkpt>
      <trkpt lat="43.77311" lon="5.72939">
        <ele>456.60000610352</ele>
        <time>2020-12-23T10:15:22.000Z</time>
      </trkpt>
      <trkpt lat="43.77307" lon="5.72946">
        <ele>456.60000610352</ele>
        <time>2020-12-23T10:15:24.000Z</time>
      </trkpt>
      <trkpt lat="43.77302" lon="5.72954">
        <ele>456.60000610352</ele>
        <time>2020-12-23T10:15:26.000Z</time>
      </trkpt>
      <trkpt lat="43.77299" lon="5.72957">
        <ele>456.60000610352</ele>
        <time>2020-12-23T10:15:27.000Z</time>
      </trkpt>
      <trkpt lat="43.77292" lon="5.72958">
        <ele>456.39999389648</ele>
        <time>2020-12-23T10:15:29.000Z</time>
      </trkpt>
      <trkpt lat="43.77287" lon="5.72954">
        <ele>455.79998779297</ele>
        <time>2020-12-23T10:15:31.000Z</time>
      </trkpt>
      <trkpt lat="43.77282" lon="5.72948">
        <ele>455.60000610352</ele>
        <time>2020-12-23T10:15:33.000Z</time>
      </trkpt>
      <trkpt lat="43.77278" lon="5.72946">
        <ele>455.60000610352</ele>
        <time>2020-12-23T10:15:35.000Z</time>
      </trkpt>
      <trkpt lat="43.77276" lon="5.72948">
        <ele>455.60000610352</ele>
        <time>2020-12-23T10:15:36.000Z</time>
      </trkpt>
      <trkpt lat="43.7727" lon="5.72961">
        <ele>455.79998779297</ele>
        <time>2020-12-23T10:15:40.000Z</time>
      </trkpt>
      <trkpt lat="43.77269" lon="5.72963">
        <ele>456</ele>
        <time>2020-12-23T10:15:41.000Z</time>
      </trkpt>
      <trkpt lat="43.77258" lon="5.72975">
        <ele>457.39999389648</ele>
        <time>2020-12-23T10:15:46.000Z</time>
      </trkpt>
      <trkpt lat="43.77252" lon="5.72977">
        <ele>458.79998779297</ele>
        <time>2020-12-23T10:15:49.000Z</time>
      </trkpt>
      <trkpt lat="43.77247" lon="5.72977">
        <ele>459.39999389648</ele>
        <time>2020-12-23T10:15:52.000Z</time>
      </trkpt>
      <trkpt lat="43.77245" lon="5.72975">
        <ele>460</ele>
        <time>2020-12-23T10:15:54.000Z</time>
      </trkpt>
      <trkpt lat="43.77241" lon="5.72975">
        <ele>461</ele>
        <time>2020-12-23T10:15:56.000Z</time>
      </trkpt>
      <trkpt lat="43.77239" lon="5.72977">
        <ele>461.39999389648</ele>
        <time>2020-12-23T10:15:57.000Z</time>
      </trkpt>
      <trkpt lat="43.77229" lon="5.72984">
        <ele>462.20001220703</ele>
        <time>2020-12-23T10:16:02.000Z</time>
      </trkpt>
      <trkpt lat="43.77224" lon="5.72983">
        <ele>462</ele>
        <time>2020-12-23T10:16:05.000Z</time>
      </trkpt>
      <trkpt lat="43.77222" lon="5.72983">
        <ele>462</ele>
        <time>2020-12-23T10:16:06.000Z</time>
      </trkpt>
      <trkpt lat="43.77216" lon="5.7298">
        <ele>462.20001220703</ele>
        <time>2020-12-23T10:16:09.000Z</time>
      </trkpt>
      <trkpt lat="43.77214" lon="5.72976">
        <ele>462.20001220703</ele>
        <time>2020-12-23T10:16:11.000Z</time>
      </trkpt>
      <trkpt lat="43.77213" lon="5.72972">
        <ele>462.39999389648</ele>
        <time>2020-12-23T10:16:13.000Z</time>
      </trkpt>
      <trkpt lat="43.77211" lon="5.7297">
        <ele>462.60000610352</ele>
        <time>2020-12-23T10:16:17.000Z</time>
      </trkpt>
      <trkpt lat="43.77208" lon="5.72967">
        <ele>462.60000610352</ele>
        <time>2020-12-23T10:16:30.000Z</time>
      </trkpt>
      <trkpt lat="43.77207" lon="5.72965">
        <ele>462.60000610352</ele>
        <time>2020-12-23T10:16:31.000Z</time>
      </trkpt>
      <trkpt lat="43.772" lon="5.72957">
        <ele>462.60000610352</ele>
        <time>2020-12-23T10:16:35.000Z</time>
      </trkpt>
      <trkpt lat="43.77192" lon="5.72958">
        <ele>462.60000610352</ele>
        <time>2020-12-23T10:16:38.000Z</time>
      </trkpt>
      <trkpt lat="43.77189" lon="5.72958">
        <ele>462.60000610352</ele>
        <time>2020-12-23T10:16:39.000Z</time>
      </trkpt>
      <trkpt lat="43.77186" lon="5.72956">
        <ele>462.60000610352</ele>
        <time>2020-12-23T10:16:40.000Z</time>
      </trkpt>
      <trkpt lat="43.77183" lon="5.72945">
        <ele>462.60000610352</ele>
        <time>2020-12-23T10:16:43.000Z</time>
      </trkpt>
      <trkpt lat="43.77177" lon="5.72935">
        <ele>463</ele>
        <time>2020-12-23T10:16:47.000Z</time>
      </trkpt>
      <trkpt lat="43.77176" lon="5.72934">
        <ele>463</ele>
        <time>2020-12-23T10:16:48.000Z</time>
      </trkpt>
      <trkpt lat="43.77168" lon="5.72929">
        <ele>463.20001220703</ele>
        <time>2020-12-23T10:16:54.000Z</time>
      </trkpt>
      <trkpt lat="43.77167" lon="5.72928">
        <ele>463.60000610352</ele>
        <time>2020-12-23T10:16:56.000Z</time>
      </trkpt>
      <trkpt lat="43.77165" lon="5.72926">
        <ele>464</ele>
        <time>2020-12-23T10:17:01.000Z</time>
      </trkpt>
      <trkpt lat="43.77163" lon="5.72923">
        <ele>464.39999389648</ele>
        <time>2020-12-23T10:17:15.000Z</time>
      </trkpt>
      <trkpt lat="43.77162" lon="5.7292">
        <ele>464.39999389648</ele>
        <time>2020-12-23T10:17:22.000Z</time>
      </trkpt>
      <trkpt lat="43.77155" lon="5.72916">
        <ele>464.39999389648</ele>
        <time>2020-12-23T10:17:32.000Z</time>
      </trkpt>
      <trkpt lat="43.77154" lon="5.72916">
        <ele>464.60000610352</ele>
        <time>2020-12-23T10:17:34.000Z</time>
      </trkpt>
      <trkpt lat="43.77151" lon="5.72914">
        <ele>465.79998779297</ele>
        <time>2020-12-23T10:17:39.000Z</time>
      </trkpt>
      <trkpt lat="43.7715" lon="5.72913">
        <ele>467</ele>
        <time>2020-12-23T10:17:43.000Z</time>
      </trkpt>
      <trkpt lat="43.77148" lon="5.72909">
        <ele>468.20001220703</ele>
        <time>2020-12-23T10:17:47.000Z</time>
      </trkpt>
      <trkpt lat="43.77147" lon="5.72906">
        <ele>468.39999389648</ele>
        <time>2020-12-23T10:17:48.000Z</time>
      </trkpt>
      <trkpt lat="43.77147" lon="5.72892">
        <ele>468.60000610352</ele>
        <time>2020-12-23T10:17:53.000Z</time>
      </trkpt>
      <trkpt lat="43.7715" lon="5.72872">
        <ele>468.60000610352</ele>
        <time>2020-12-23T10:17:58.000Z</time>
      </trkpt>
      <trkpt lat="43.77148" lon="5.72855">
        <ele>468.60000610352</ele>
        <time>2020-12-23T10:18:03.000Z</time>
      </trkpt>
      <trkpt lat="43.77144" lon="5.7284">
        <ele>468.79998779297</ele>
        <time>2020-12-23T10:18:09.000Z</time>
      </trkpt>
      <trkpt lat="43.77141" lon="5.72827">
        <ele>469.39999389648</ele>
        <time>2020-12-23T10:18:14.000Z</time>
      </trkpt>
      <trkpt lat="43.7714" lon="5.72825">
        <ele>469.60000610352</ele>
        <time>2020-12-23T10:18:15.000Z</time>
      </trkpt>
      <trkpt lat="43.77137" lon="5.72823">
        <ele>469.79998779297</ele>
        <time>2020-12-23T10:18:18.000Z</time>
      </trkpt>
      <trkpt lat="43.77134" lon="5.72821">
        <ele>470.60000610352</ele>
        <time>2020-12-23T10:18:22.000Z</time>
      </trkpt>
      <trkpt lat="43.77134" lon="5.7282">
        <ele>471</ele>
        <time>2020-12-23T10:18:24.000Z</time>
      </trkpt>
      <trkpt lat="43.77131" lon="5.7282">
        <ele>471.60000610352</ele>
        <time>2020-12-23T10:18:27.000Z</time>
      </trkpt>
      <trkpt lat="43.7713" lon="5.7282">
        <ele>471.79998779297</ele>
        <time>2020-12-23T10:18:28.000Z</time>
      </trkpt>
      <trkpt lat="43.77127" lon="5.72821">
        <ele>472.20001220703</ele>
        <time>2020-12-23T10:18:30.000Z</time>
      </trkpt>
      <trkpt lat="43.7712" lon="5.72819">
        <ele>472.39999389648</ele>
        <time>2020-12-23T10:18:35.000Z</time>
      </trkpt>
      <trkpt lat="43.77119" lon="5.72817">
        <ele>472.60000610352</ele>
        <time>2020-12-23T10:18:36.000Z</time>
      </trkpt>
      <trkpt lat="43.77119" lon="5.72814">
        <ele>472.60000610352</ele>
        <time>2020-12-23T10:18:37.000Z</time>
      </trkpt>
      <trkpt lat="43.77118" lon="5.72808">
        <ele>473.39999389648</ele>
        <time>2020-12-23T10:18:39.000Z</time>
      </trkpt>
      <trkpt lat="43.77117" lon="5.72805">
        <ele>473.79998779297</ele>
        <time>2020-12-23T10:18:40.000Z</time>
      </trkpt>
      <trkpt lat="43.77116" lon="5.72796">
        <ele>475.20001220703</ele>
        <time>2020-12-23T10:18:43.000Z</time>
      </trkpt>
      <trkpt lat="43.77113" lon="5.72789">
        <ele>475.39999389648</ele>
        <time>2020-12-23T10:18:45.000Z</time>
      </trkpt>
      <trkpt lat="43.77108" lon="5.72775">
        <ele>476.20001220703</ele>
        <time>2020-12-23T10:18:49.000Z</time>
      </trkpt>
      <trkpt lat="43.77107" lon="5.72773">
        <ele>476.39999389648</ele>
        <time>2020-12-23T10:18:50.000Z</time>
      </trkpt>
      <trkpt lat="43.77106" lon="5.72773">
        <ele>476.79998779297</ele>
        <time>2020-12-23T10:18:51.000Z</time>
      </trkpt>
      <trkpt lat="43.77105" lon="5.72772">
        <ele>477.39999389648</ele>
        <time>2020-12-23T10:18:59.000Z</time>
      </trkpt>
      <trkpt lat="43.77105" lon="5.72772">
        <ele>477.60000610352</ele>
        <time>2020-12-23T10:19:02.000Z</time>
      </trkpt>
      <trkpt lat="43.77104" lon="5.72771">
        <ele>477.60000610352</ele>
        <time>2020-12-23T10:19:40.000Z</time>
      </trkpt>
      <trkpt lat="43.77104" lon="5.72771">
        <ele>477.60000610352</ele>
        <time>2020-12-23T10:20:07.000Z</time>
      </trkpt>
      <trkpt lat="43.77106" lon="5.72773">
        <ele>477.39999389648</ele>
        <time>2020-12-23T10:20:11.000Z</time>
      </trkpt>
      <trkpt lat="43.77106" lon="5.72776">
        <ele>477.60000610352</ele>
        <time>2020-12-23T10:20:13.000Z</time>
      </trkpt>
      <trkpt lat="43.771" lon="5.72781">
        <ele>477.60000610352</ele>
        <time>2020-12-23T10:20:19.000Z</time>
      </trkpt>
      <trkpt lat="43.77097" lon="5.72781">
        <ele>477.60000610352</ele>
        <time>2020-12-23T10:20:21.000Z</time>
      </trkpt>
      <trkpt lat="43.77096" lon="5.7278">
        <ele>477.60000610352</ele>
        <time>2020-12-23T10:20:22.000Z</time>
      </trkpt>
      <trkpt lat="43.77091" lon="5.72785">
        <ele>478.20001220703</ele>
        <time>2020-12-23T10:20:26.000Z</time>
      </trkpt>
      <trkpt lat="43.77086" lon="5.72787">
        <ele>479</ele>
        <time>2020-12-23T10:20:29.000Z</time>
      </trkpt>
      <trkpt lat="43.77084" lon="5.72788">
        <ele>479.39999389648</ele>
        <time>2020-12-23T10:20:31.000Z</time>
      </trkpt>
      <trkpt lat="43.77084" lon="5.72789">
        <ele>479.60000610352</ele>
        <time>2020-12-23T10:20:32.000Z</time>
      </trkpt>
      <trkpt lat="43.77084" lon="5.72789">
        <ele>480.20001220703</ele>
        <time>2020-12-23T10:20:34.000Z</time>
      </trkpt>
      <trkpt lat="43.77084" lon="5.72789">
        <ele>481.39999389648</ele>
        <time>2020-12-23T10:20:38.000Z</time>
      </trkpt>
      <trkpt lat="43.77084" lon="5.72789">
        <ele>482.39999389648</ele>
        <time>2020-12-23T10:20:43.000Z</time>
      </trkpt>
      <trkpt lat="43.77083" lon="5.72788">
        <ele>482.39999389648</ele>
        <time>2020-12-23T10:20:48.000Z</time>
      </trkpt>
      <trkpt lat="43.77082" lon="5.7279">
        <ele>482.39999389648</ele>
        <time>2020-12-23T10:21:02.000Z</time>
      </trkpt>
      <trkpt lat="43.7708" lon="5.72788">
        <ele>482.39999389648</ele>
        <time>2020-12-23T10:21:03.000Z</time>
      </trkpt>
      <trkpt lat="43.77076" lon="5.72783">
        <ele>482.39999389648</ele>
        <time>2020-12-23T10:21:06.000Z</time>
      </trkpt>
      <trkpt lat="43.7707" lon="5.7277">
        <ele>483.39999389648</ele>
        <time>2020-12-23T10:21:11.000Z</time>
      </trkpt>
      <trkpt lat="43.77063" lon="5.72767">
        <ele>483.60000610352</ele>
        <time>2020-12-23T10:21:16.000Z</time>
      </trkpt>
      <trkpt lat="43.77056" lon="5.72761">
        <ele>484</ele>
        <time>2020-12-23T10:21:21.000Z</time>
      </trkpt>
      <trkpt lat="43.77048" lon="5.72754">
        <ele>484.60000610352</ele>
        <time>2020-12-23T10:21:27.000Z</time>
      </trkpt>
      <trkpt lat="43.77048" lon="5.72753">
        <ele>484.79998779297</ele>
        <time>2020-12-23T10:21:28.000Z</time>
      </trkpt>
      <trkpt lat="43.77045" lon="5.72743">
        <ele>485.20001220703</ele>
        <time>2020-12-23T10:21:33.000Z</time>
      </trkpt>
      <trkpt lat="43.77044" lon="5.72736">
        <ele>485.20001220703</ele>
        <time>2020-12-23T10:21:37.000Z</time>
      </trkpt>
      <trkpt lat="43.77044" lon="5.72733">
        <ele>485.20001220703</ele>
        <time>2020-12-23T10:21:38.000Z</time>
      </trkpt>
      <trkpt lat="43.77044" lon="5.72728">
        <ele>485.20001220703</ele>
        <time>2020-12-23T10:21:42.000Z</time>
      </trkpt>
      <trkpt lat="43.77041" lon="5.72723">
        <ele>484.39999389648</ele>
        <time>2020-12-23T10:21:46.000Z</time>
      </trkpt>
      <trkpt lat="43.77039" lon="5.72718">
        <ele>483.60000610352</ele>
        <time>2020-12-23T10:21:48.000Z</time>
      </trkpt>
      <trkpt lat="43.77039" lon="5.72716">
        <ele>483.60000610352</ele>
        <time>2020-12-23T10:21:49.000Z</time>
      </trkpt>
      <trkpt lat="43.7704" lon="5.72709">
        <ele>483.20001220703</ele>
        <time>2020-12-23T10:21:52.000Z</time>
      </trkpt>
      <trkpt lat="43.77038" lon="5.72706">
        <ele>483.39999389648</ele>
        <time>2020-12-23T10:21:55.000Z</time>
      </trkpt>
      <trkpt lat="43.77037" lon="5.72704">
        <ele>482.60000610352</ele>
        <time>2020-12-23T10:22:00.000Z</time>
      </trkpt>
      <trkpt lat="43.77037" lon="5.72704">
        <ele>482</ele>
        <time>2020-12-23T10:22:10.000Z</time>
      </trkpt>
      <trkpt lat="43.77037" lon="5.72704">
        <ele>482</ele>
        <time>2020-12-23T10:22:26.000Z</time>
      </trkpt>
      <trkpt lat="43.77037" lon="5.72704">
        <ele>481.79998779297</ele>
        <time>2020-12-23T10:22:49.000Z</time>
      </trkpt>
      <trkpt lat="43.77036" lon="5.72703">
        <ele>481.79998779297</ele>
        <time>2020-12-23T10:22:50.000Z</time>
      </trkpt>
      <trkpt lat="43.77025" lon="5.72696">
        <ele>481.79998779297</ele>
        <time>2020-12-23T10:22:58.000Z</time>
      </trkpt>
      <trkpt lat="43.77016" lon="5.7269">
        <ele>482.60000610352</ele>
        <time>2020-12-23T10:23:05.000Z</time>
      </trkpt>
      <trkpt lat="43.77014" lon="5.72689">
        <ele>483.60000610352</ele>
        <time>2020-12-23T10:23:10.000Z</time>
      </trkpt>
      <trkpt lat="43.77014" lon="5.72689">
        <ele>484</ele>
        <time>2020-12-23T10:23:12.000Z</time>
      </trkpt>
      <trkpt lat="43.7701" lon="5.72687">
        <ele>484.79998779297</ele>
        <time>2020-12-23T10:23:18.000Z</time>
      </trkpt>
      <trkpt lat="43.76999" lon="5.7268">
        <ele>484.79998779297</ele>
        <time>2020-12-23T10:23:24.000Z</time>
      </trkpt>
      <trkpt lat="43.76996" lon="5.72676">
        <ele>485</ele>
        <time>2020-12-23T10:23:26.000Z</time>
      </trkpt>
      <trkpt lat="43.76987" lon="5.72667">
        <ele>485.60000610352</ele>
        <time>2020-12-23T10:23:30.000Z</time>
      </trkpt>
      <trkpt lat="43.76977" lon="5.72664">
        <ele>485.79998779297</ele>
        <time>2020-12-23T10:23:34.000Z</time>
      </trkpt>
      <trkpt lat="43.76974" lon="5.72662">
        <ele>486</ele>
        <time>2020-12-23T10:23:35.000Z</time>
      </trkpt>
      <trkpt lat="43.76966" lon="5.72657">
        <ele>486.20001220703</ele>
        <time>2020-12-23T10:23:39.000Z</time>
      </trkpt>
      <trkpt lat="43.76954" lon="5.7265">
        <ele>486.60000610352</ele>
        <time>2020-12-23T10:23:44.000Z</time>
      </trkpt>
      <trkpt lat="43.76935" lon="5.7264">
        <ele>487</ele>
        <time>2020-12-23T10:23:53.000Z</time>
      </trkpt>
      <trkpt lat="43.76922" lon="5.7263">
        <ele>487.79998779297</ele>
        <time>2020-12-23T10:23:59.000Z</time>
      </trkpt>
      <trkpt lat="43.76916" lon="5.72621">
        <ele>488</ele>
        <time>2020-12-23T10:24:04.000Z</time>
      </trkpt>
      <trkpt lat="43.76916" lon="5.7262">
        <ele>488</ele>
        <time>2020-12-23T10:24:05.000Z</time>
      </trkpt>
      <trkpt lat="43.76916" lon="5.72619">
        <ele>488.39999389648</ele>
        <time>2020-12-23T10:24:10.000Z</time>
      </trkpt>
      <trkpt lat="43.76916" lon="5.72619">
        <ele>489</ele>
        <time>2020-12-23T10:24:24.000Z</time>
      </trkpt>
      <trkpt lat="43.76917" lon="5.72616">
        <ele>489.20001220703</ele>
        <time>2020-12-23T10:24:33.000Z</time>
      </trkpt>
      <trkpt lat="43.76917" lon="5.72614">
        <ele>489.20001220703</ele>
        <time>2020-12-23T10:24:34.000Z</time>
      </trkpt>
      <trkpt lat="43.76919" lon="5.72594">
        <ele>489.20001220703</ele>
        <time>2020-12-23T10:24:40.000Z</time>
      </trkpt>
      <trkpt lat="43.76919" lon="5.7257">
        <ele>489.39999389648</ele>
        <time>2020-12-23T10:24:45.000Z</time>
      </trkpt>
      <trkpt lat="43.76919" lon="5.72565">
        <ele>489.39999389648</ele>
        <time>2020-12-23T10:24:46.000Z</time>
      </trkpt>
      <trkpt lat="43.7692" lon="5.72541">
        <ele>490.20001220703</ele>
        <time>2020-12-23T10:24:52.000Z</time>
      </trkpt>
      <trkpt lat="43.76928" lon="5.7252">
        <ele>490.20001220703</ele>
        <time>2020-12-23T10:24:57.000Z</time>
      </trkpt>
      <trkpt lat="43.76944" lon="5.72501">
        <ele>490.20001220703</ele>
        <time>2020-12-23T10:25:02.000Z</time>
      </trkpt>
      <trkpt lat="43.7696" lon="5.72482">
        <ele>489.60000610352</ele>
        <time>2020-12-23T10:25:06.000Z</time>
      </trkpt>
      <trkpt lat="43.76969" lon="5.72465">
        <ele>488.39999389648</ele>
        <time>2020-12-23T10:25:09.000Z</time>
      </trkpt>
      <trkpt lat="43.76977" lon="5.7245">
        <ele>487.20001220703</ele>
        <time>2020-12-23T10:25:12.000Z</time>
      </trkpt>
      <trkpt lat="43.76982" lon="5.7244">
        <ele>486.20001220703</ele>
        <time>2020-12-23T10:25:14.000Z</time>
      </trkpt>
      <trkpt lat="43.76989" lon="5.72428">
        <ele>485.60000610352</ele>
        <time>2020-12-23T10:25:17.000Z</time>
      </trkpt>
      <trkpt lat="43.76996" lon="5.72423">
        <ele>485.39999389648</ele>
        <time>2020-12-23T10:25:20.000Z</time>
      </trkpt>
      <trkpt lat="43.77" lon="5.72419">
        <ele>485.39999389648</ele>
        <time>2020-12-23T10:25:21.000Z</time>
      </trkpt>
      <trkpt lat="43.77004" lon="5.72414">
        <ele>485.20001220703</ele>
        <time>2020-12-23T10:25:22.000Z</time>
      </trkpt>
      <trkpt lat="43.77009" lon="5.72404">
        <ele>485.20001220703</ele>
        <time>2020-12-23T10:25:24.000Z</time>
      </trkpt>
      <trkpt lat="43.77011" lon="5.72401">
        <ele>485.20001220703</ele>
        <time>2020-12-23T10:25:25.000Z</time>
      </trkpt>
      <trkpt lat="43.77017" lon="5.72391">
        <ele>485</ele>
        <time>2020-12-23T10:25:28.000Z</time>
      </trkpt>
      <trkpt lat="43.77023" lon="5.72371">
        <ele>485</ele>
        <time>2020-12-23T10:25:32.000Z</time>
      </trkpt>
      <trkpt lat="43.77025" lon="5.72366">
        <ele>485</ele>
        <time>2020-12-23T10:25:33.000Z</time>
      </trkpt>
      <trkpt lat="43.77035" lon="5.72353">
        <ele>485</ele>
        <time>2020-12-23T10:25:36.000Z</time>
      </trkpt>
      <trkpt lat="43.77042" lon="5.72347">
        <ele>485.20001220703</ele>
        <time>2020-12-23T10:25:38.000Z</time>
      </trkpt>
      <trkpt lat="43.77049" lon="5.72337">
        <ele>485.39999389648</ele>
        <time>2020-12-23T10:25:40.000Z</time>
      </trkpt>
      <trkpt lat="43.77067" lon="5.72327">
        <ele>485.39999389648</ele>
        <time>2020-12-23T10:25:44.000Z</time>
      </trkpt>
      <trkpt lat="43.77082" lon="5.72318">
        <ele>485.20001220703</ele>
        <time>2020-12-23T10:25:47.000Z</time>
      </trkpt>
      <trkpt lat="43.77093" lon="5.72315">
        <ele>484.79998779297</ele>
        <time>2020-12-23T10:25:49.000Z</time>
      </trkpt>
      <trkpt lat="43.77103" lon="5.72309">
        <ele>484.39999389648</ele>
        <time>2020-12-23T10:25:51.000Z</time>
      </trkpt>
      <trkpt lat="43.77106" lon="5.72304">
        <ele>484.20001220703</ele>
        <time>2020-12-23T10:25:52.000Z</time>
      </trkpt>
      <trkpt lat="43.77112" lon="5.72293">
        <ele>483</ele>
        <time>2020-12-23T10:25:54.000Z</time>
      </trkpt>
      <trkpt lat="43.77116" lon="5.72287">
        <ele>482.39999389648</ele>
        <time>2020-12-23T10:25:55.000Z</time>
      </trkpt>
      <trkpt lat="43.7712" lon="5.72283">
        <ele>481.79998779297</ele>
        <time>2020-12-23T10:25:56.000Z</time>
      </trkpt>
      <trkpt lat="43.77138" lon="5.72276">
        <ele>481</ele>
        <time>2020-12-23T10:25:59.000Z</time>
      </trkpt>
      <trkpt lat="43.7715" lon="5.7227">
        <ele>480.60000610352</ele>
        <time>2020-12-23T10:26:01.000Z</time>
      </trkpt>
      <trkpt lat="43.77161" lon="5.72265">
        <ele>479.39999389648</ele>
        <time>2020-12-23T10:26:03.000Z</time>
      </trkpt>
      <trkpt lat="43.77166" lon="5.72263">
        <ele>478.79998779297</ele>
        <time>2020-12-23T10:26:04.000Z</time>
      </trkpt>
      <trkpt lat="43.77174" lon="5.72262">
        <ele>478</ele>
        <time>2020-12-23T10:26:06.000Z</time>
      </trkpt>
      <trkpt lat="43.77177" lon="5.72262">
        <ele>477.60000610352</ele>
        <time>2020-12-23T10:26:07.000Z</time>
      </trkpt>
      <trkpt lat="43.77179" lon="5.7226">
        <ele>477</ele>
        <time>2020-12-23T10:26:08.000Z</time>
      </trkpt>
      <trkpt lat="43.7718" lon="5.72257">
        <ele>476.39999389648</ele>
        <time>2020-12-23T10:26:09.000Z</time>
      </trkpt>
      <trkpt lat="43.77181" lon="5.72254">
        <ele>476</ele>
        <time>2020-12-23T10:26:10.000Z</time>
      </trkpt>
      <trkpt lat="43.77184" lon="5.72252">
        <ele>475.60000610352</ele>
        <time>2020-12-23T10:26:11.000Z</time>
      </trkpt>
      <trkpt lat="43.77192" lon="5.7225">
        <ele>475.20001220703</ele>
        <time>2020-12-23T10:26:13.000Z</time>
      </trkpt>
      <trkpt lat="43.77203" lon="5.72248">
        <ele>474.39999389648</ele>
        <time>2020-12-23T10:26:15.000Z</time>
      </trkpt>
      <trkpt lat="43.77212" lon="5.72249">
        <ele>474</ele>
        <time>2020-12-23T10:26:17.000Z</time>
      </trkpt>
      <trkpt lat="43.77219" lon="5.7225">
        <ele>473.39999389648</ele>
        <time>2020-12-23T10:26:19.000Z</time>
      </trkpt>
      <trkpt lat="43.77223" lon="5.72248">
        <ele>472.60000610352</ele>
        <time>2020-12-23T10:26:20.000Z</time>
      </trkpt>
      <trkpt lat="43.77226" lon="5.72244">
        <ele>472</ele>
        <time>2020-12-23T10:26:21.000Z</time>
      </trkpt>
      <trkpt lat="43.7723" lon="5.72235">
        <ele>470.60000610352</ele>
        <time>2020-12-23T10:26:23.000Z</time>
      </trkpt>
      <trkpt lat="43.77232" lon="5.72228">
        <ele>469</ele>
        <time>2020-12-23T10:26:25.000Z</time>
      </trkpt>
      <trkpt lat="43.77236" lon="5.72224">
        <ele>468.20001220703</ele>
        <time>2020-12-23T10:26:27.000Z</time>
      </trkpt>
      <trkpt lat="43.77238" lon="5.72223">
        <ele>467.60000610352</ele>
        <time>2020-12-23T10:26:28.000Z</time>
      </trkpt>
      <trkpt lat="43.7724" lon="5.72221">
        <ele>466.60000610352</ele>
        <time>2020-12-23T10:26:30.000Z</time>
      </trkpt>
      <trkpt lat="43.7724" lon="5.72218">
        <ele>465.20001220703</ele>
        <time>2020-12-23T10:26:32.000Z</time>
      </trkpt>
      <trkpt lat="43.77238" lon="5.72212">
        <ele>464</ele>
        <time>2020-12-23T10:26:34.000Z</time>
      </trkpt>
      <trkpt lat="43.77233" lon="5.72204">
        <ele>463.20001220703</ele>
        <time>2020-12-23T10:26:36.000Z</time>
      </trkpt>
      <trkpt lat="43.7723" lon="5.72201">
        <ele>462.60000610352</ele>
        <time>2020-12-23T10:26:37.000Z</time>
      </trkpt>
      <trkpt lat="43.77224" lon="5.72194">
        <ele>461.60000610352</ele>
        <time>2020-12-23T10:26:39.000Z</time>
      </trkpt>
      <trkpt lat="43.77223" lon="5.72189">
        <ele>461.39999389648</ele>
        <time>2020-12-23T10:26:40.000Z</time>
      </trkpt>
      <trkpt lat="43.77214" lon="5.72174">
        <ele>460</ele>
        <time>2020-12-23T10:26:43.000Z</time>
      </trkpt>
      <trkpt lat="43.77211" lon="5.7217">
        <ele>459.60000610352</ele>
        <time>2020-12-23T10:26:44.000Z</time>
      </trkpt>
      <trkpt lat="43.77202" lon="5.72167">
        <ele>459.39999389648</ele>
        <time>2020-12-23T10:26:47.000Z</time>
      </trkpt>
      <trkpt lat="43.772" lon="5.72166">
        <ele>459</ele>
        <time>2020-12-23T10:26:48.000Z</time>
      </trkpt>
      <trkpt lat="43.77197" lon="5.72165">
        <ele>458.20001220703</ele>
        <time>2020-12-23T10:26:49.000Z</time>
      </trkpt>
      <trkpt lat="43.77195" lon="5.72164">
        <ele>457.20001220703</ele>
        <time>2020-12-23T10:26:50.000Z</time>
      </trkpt>
      <trkpt lat="43.77193" lon="5.72163">
        <ele>456.39999389648</ele>
        <time>2020-12-23T10:26:51.000Z</time>
      </trkpt>
      <trkpt lat="43.77191" lon="5.72161">
        <ele>455.79998779297</ele>
        <time>2020-12-23T10:26:52.000Z</time>
      </trkpt>
      <trkpt lat="43.77182" lon="5.72158">
        <ele>455.20001220703</ele>
        <time>2020-12-23T10:26:55.000Z</time>
      </trkpt>
      <trkpt lat="43.77168" lon="5.72153">
        <ele>454.79998779297</ele>
        <time>2020-12-23T10:26:59.000Z</time>
      </trkpt>
      <trkpt lat="43.77165" lon="5.72152">
        <ele>454.60000610352</ele>
        <time>2020-12-23T10:27:00.000Z</time>
      </trkpt>
      <trkpt lat="43.77151" lon="5.72147">
        <ele>454.39999389648</ele>
        <time>2020-12-23T10:27:05.000Z</time>
      </trkpt>
      <trkpt lat="43.77147" lon="5.72146">
        <ele>454.39999389648</ele>
        <time>2020-12-23T10:27:06.000Z</time>
      </trkpt>
      <trkpt lat="43.77137" lon="5.72147">
        <ele>454</ele>
        <time>2020-12-23T10:27:09.000Z</time>
      </trkpt>
      <trkpt lat="43.77131" lon="5.72147">
        <ele>453.79998779297</ele>
        <time>2020-12-23T10:27:11.000Z</time>
      </trkpt>
      <trkpt lat="43.77123" lon="5.72153">
        <ele>453.39999389648</ele>
        <time>2020-12-23T10:27:14.000Z</time>
      </trkpt>
      <trkpt lat="43.77113" lon="5.72156">
        <ele>452.60000610352</ele>
        <time>2020-12-23T10:27:17.000Z</time>
      </trkpt>
      <trkpt lat="43.77098" lon="5.72159">
        <ele>452.39999389648</ele>
        <time>2020-12-23T10:27:21.000Z</time>
      </trkpt>
      <trkpt lat="43.77093" lon="5.7216">
        <ele>452.20001220703</ele>
        <time>2020-12-23T10:27:22.000Z</time>
      </trkpt>
      <trkpt lat="43.77083" lon="5.72163">
        <ele>452.20001220703</ele>
        <time>2020-12-23T10:27:25.000Z</time>
      </trkpt>
      <trkpt lat="43.77081" lon="5.72165">
        <ele>452</ele>
        <time>2020-12-23T10:27:26.000Z</time>
      </trkpt>
      <trkpt lat="43.77073" lon="5.7217">
        <ele>451.79998779297</ele>
        <time>2020-12-23T10:27:29.000Z</time>
      </trkpt>
      <trkpt lat="43.77071" lon="5.72171">
        <ele>451.60000610352</ele>
        <time>2020-12-23T10:27:30.000Z</time>
      </trkpt>
      <trkpt lat="43.77059" lon="5.7218">
        <ele>451.20001220703</ele>
        <time>2020-12-23T10:27:34.000Z</time>
      </trkpt>
      <trkpt lat="43.77045" lon="5.72185">
        <ele>451.20001220703</ele>
        <time>2020-12-23T10:27:39.000Z</time>
      </trkpt>
      <trkpt lat="43.77032" lon="5.72183">
        <ele>451.60000610352</ele>
        <time>2020-12-23T10:27:43.000Z</time>
      </trkpt>
      <trkpt lat="43.77029" lon="5.72182">
        <ele>451.60000610352</ele>
        <time>2020-12-23T10:27:44.000Z</time>
      </trkpt>
      <trkpt lat="43.77028" lon="5.72178">
        <ele>451.60000610352</ele>
        <time>2020-12-23T10:27:46.000Z</time>
      </trkpt>
      <trkpt lat="43.77032" lon="5.72171">
        <ele>451.39999389648</ele>
        <time>2020-12-23T10:27:48.000Z</time>
      </trkpt>
      <trkpt lat="43.77033" lon="5.72168">
        <ele>451.39999389648</ele>
        <time>2020-12-23T10:27:49.000Z</time>
      </trkpt>
      <trkpt lat="43.77033" lon="5.72166">
        <ele>451.20001220703</ele>
        <time>2020-12-23T10:27:50.000Z</time>
      </trkpt>
      <trkpt lat="43.77027" lon="5.72164">
        <ele>451.20001220703</ele>
        <time>2020-12-23T10:27:52.000Z</time>
      </trkpt>
      <trkpt lat="43.77019" lon="5.72166">
        <ele>450.79998779297</ele>
        <time>2020-12-23T10:27:54.000Z</time>
      </trkpt>
      <trkpt lat="43.77016" lon="5.72166">
        <ele>450.39999389648</ele>
        <time>2020-12-23T10:27:55.000Z</time>
      </trkpt>
      <trkpt lat="43.77014" lon="5.72165">
        <ele>449.60000610352</ele>
        <time>2020-12-23T10:27:56.000Z</time>
      </trkpt>
      <trkpt lat="43.77013" lon="5.72163">
        <ele>449</ele>
        <time>2020-12-23T10:27:57.000Z</time>
      </trkpt>
      <trkpt lat="43.77016" lon="5.72159">
        <ele>448</ele>
        <time>2020-12-23T10:27:59.000Z</time>
      </trkpt>
      <trkpt lat="43.7702" lon="5.72155">
        <ele>447.39999389648</ele>
        <time>2020-12-23T10:28:00.000Z</time>
      </trkpt>
      <trkpt lat="43.77032" lon="5.72145">
        <ele>446.39999389648</ele>
        <time>2020-12-23T10:28:03.000Z</time>
      </trkpt>
      <trkpt lat="43.77036" lon="5.7214">
        <ele>446.39999389648</ele>
        <time>2020-12-23T10:28:04.000Z</time>
      </trkpt>
      <trkpt lat="43.77041" lon="5.72137">
        <ele>446.20001220703</ele>
        <time>2020-12-23T10:28:05.000Z</time>
      </trkpt>
      <trkpt lat="43.77048" lon="5.72132">
        <ele>444.79998779297</ele>
        <time>2020-12-23T10:28:07.000Z</time>
      </trkpt>
      <trkpt lat="43.77057" lon="5.72125">
        <ele>443.60000610352</ele>
        <time>2020-12-23T10:28:09.000Z</time>
      </trkpt>
      <trkpt lat="43.77066" lon="5.72114">
        <ele>443</ele>
        <time>2020-12-23T10:28:11.000Z</time>
      </trkpt>
      <trkpt lat="43.77075" lon="5.72102">
        <ele>442.20001220703</ele>
        <time>2020-12-23T10:28:13.000Z</time>
      </trkpt>
      <trkpt lat="43.77084" lon="5.72085">
        <ele>441.60000610352</ele>
        <time>2020-12-23T10:28:15.000Z</time>
      </trkpt>
      <trkpt lat="43.77093" lon="5.72072">
        <ele>440.79998779297</ele>
        <time>2020-12-23T10:28:17.000Z</time>
      </trkpt>
      <trkpt lat="43.77095" lon="5.72067">
        <ele>440.20001220703</ele>
        <time>2020-12-23T10:28:18.000Z</time>
      </trkpt>
      <trkpt lat="43.77098" lon="5.72061">
        <ele>439.79998779297</ele>
        <time>2020-12-23T10:28:19.000Z</time>
      </trkpt>
      <trkpt lat="43.77105" lon="5.72051">
        <ele>438.20001220703</ele>
        <time>2020-12-23T10:28:21.000Z</time>
      </trkpt>
      <trkpt lat="43.77108" lon="5.72045">
        <ele>437.39999389648</ele>
        <time>2020-12-23T10:28:22.000Z</time>
      </trkpt>
      <trkpt lat="43.77112" lon="5.72039">
        <ele>436.39999389648</ele>
        <time>2020-12-23T10:28:23.000Z</time>
      </trkpt>
      <trkpt lat="43.7712" lon="5.72029">
        <ele>435</ele>
        <time>2020-12-23T10:28:25.000Z</time>
      </trkpt>
      <trkpt lat="43.77123" lon="5.72027">
        <ele>434.79998779297</ele>
        <time>2020-12-23T10:28:26.000Z</time>
      </trkpt>
      <trkpt lat="43.7713" lon="5.72026">
        <ele>434</ele>
        <time>2020-12-23T10:28:28.000Z</time>
      </trkpt>
      <trkpt lat="43.77134" lon="5.72025">
        <ele>433.20001220703</ele>
        <time>2020-12-23T10:28:29.000Z</time>
      </trkpt>
      <trkpt lat="43.77138" lon="5.72024">
        <ele>432.20001220703</ele>
        <time>2020-12-23T10:28:30.000Z</time>
      </trkpt>
      <trkpt lat="43.77141" lon="5.72024">
        <ele>431.39999389648</ele>
        <time>2020-12-23T10:28:31.000Z</time>
      </trkpt>
      <trkpt lat="43.77144" lon="5.72023">
        <ele>430.39999389648</ele>
        <time>2020-12-23T10:28:32.000Z</time>
      </trkpt>
      <trkpt lat="43.77144" lon="5.7202">
        <ele>429</ele>
        <time>2020-12-23T10:28:34.000Z</time>
      </trkpt>
      <trkpt lat="43.77143" lon="5.72018">
        <ele>428.60000610352</ele>
        <time>2020-12-23T10:28:36.000Z</time>
      </trkpt>
      <trkpt lat="43.77139" lon="5.72015">
        <ele>428.60000610352</ele>
        <time>2020-12-23T10:28:39.000Z</time>
      </trkpt>
      <trkpt lat="43.77128" lon="5.72008">
        <ele>429</ele>
        <time>2020-12-23T10:28:46.000Z</time>
      </trkpt>
      <trkpt lat="43.77124" lon="5.72005">
        <ele>430.20001220703</ele>
        <time>2020-12-23T10:28:49.000Z</time>
      </trkpt>
      <trkpt lat="43.77122" lon="5.72003">
        <ele>431.20001220703</ele>
        <time>2020-12-23T10:28:51.000Z</time>
      </trkpt>
      <trkpt lat="43.7712" lon="5.72002">
        <ele>431.79998779297</ele>
        <time>2020-12-23T10:28:52.000Z</time>
      </trkpt>
      <trkpt lat="43.77118" lon="5.72002">
        <ele>432.39999389648</ele>
        <time>2020-12-23T10:28:53.000Z</time>
      </trkpt>
      <trkpt lat="43.77114" lon="5.71999">
        <ele>433.60000610352</ele>
        <time>2020-12-23T10:28:55.000Z</time>
      </trkpt>
      <trkpt lat="43.77111" lon="5.71997">
        <ele>434.60000610352</ele>
        <time>2020-12-23T10:28:57.000Z</time>
      </trkpt>
      <trkpt lat="43.77107" lon="5.71993">
        <ele>435.79998779297</ele>
        <time>2020-12-23T10:28:59.000Z</time>
      </trkpt>
      <trkpt lat="43.77103" lon="5.71988">
        <ele>437.39999389648</ele>
        <time>2020-12-23T10:29:02.000Z</time>
      </trkpt>
      <trkpt lat="43.77098" lon="5.71986">
        <ele>438.79998779297</ele>
        <time>2020-12-23T10:29:05.000Z</time>
      </trkpt>
      <trkpt lat="43.7709" lon="5.71977">
        <ele>439.39999389648</ele>
        <time>2020-12-23T10:29:10.000Z</time>
      </trkpt>
      <trkpt lat="43.77087" lon="5.71961">
        <ele>439.39999389648</ele>
        <time>2020-12-23T10:29:15.000Z</time>
      </trkpt>
      <trkpt lat="43.7709" lon="5.71944">
        <ele>440</ele>
        <time>2020-12-23T10:29:21.000Z</time>
      </trkpt>
      <trkpt lat="43.77091" lon="5.71934">
        <ele>441</ele>
        <time>2020-12-23T10:29:24.000Z</time>
      </trkpt>
      <trkpt lat="43.77091" lon="5.71925">
        <ele>442.20001220703</ele>
        <time>2020-12-23T10:29:27.000Z</time>
      </trkpt>
      <trkpt lat="43.7709" lon="5.7192">
        <ele>443</ele>
        <time>2020-12-23T10:29:29.000Z</time>
      </trkpt>
      <trkpt lat="43.77089" lon="5.71917">
        <ele>443.39999389648</ele>
        <time>2020-12-23T10:29:30.000Z</time>
      </trkpt>
      <trkpt lat="43.77089" lon="5.7191">
        <ele>444.60000610352</ele>
        <time>2020-12-23T10:29:32.000Z</time>
      </trkpt>
      <trkpt lat="43.77087" lon="5.71905">
        <ele>445.39999389648</ele>
        <time>2020-12-23T10:29:34.000Z</time>
      </trkpt>
      <trkpt lat="43.77086" lon="5.71903">
        <ele>446</ele>
        <time>2020-12-23T10:29:35.000Z</time>
      </trkpt>
      <trkpt lat="43.77078" lon="5.71899">
        <ele>447.39999389648</ele>
        <time>2020-12-23T10:29:39.000Z</time>
      </trkpt>
      <trkpt lat="43.77077" lon="5.719">
        <ele>447.60000610352</ele>
        <time>2020-12-23T10:29:40.000Z</time>
      </trkpt>
      <trkpt lat="43.77074" lon="5.71904">
        <ele>448.39999389648</ele>
        <time>2020-12-23T10:29:42.000Z</time>
      </trkpt>
      <trkpt lat="43.77073" lon="5.71906">
        <ele>448.79998779297</ele>
        <time>2020-12-23T10:29:43.000Z</time>
      </trkpt>
      <trkpt lat="43.7707" lon="5.71911">
        <ele>449.39999389648</ele>
        <time>2020-12-23T10:29:45.000Z</time>
      </trkpt>
      <trkpt lat="43.77069" lon="5.71912">
        <ele>449.39999389648</ele>
        <time>2020-12-23T10:29:46.000Z</time>
      </trkpt>
      <trkpt lat="43.77062" lon="5.71917">
        <ele>449.79998779297</ele>
        <time>2020-12-23T10:29:50.000Z</time>
      </trkpt>
      <trkpt lat="43.77051" lon="5.71925">
        <ele>450</ele>
        <time>2020-12-23T10:29:55.000Z</time>
      </trkpt>
      <trkpt lat="43.77049" lon="5.71925">
        <ele>450.20001220703</ele>
        <time>2020-12-23T10:29:56.000Z</time>
      </trkpt>
      <trkpt lat="43.77045" lon="5.71925">
        <ele>450.60000610352</ele>
        <time>2020-12-23T10:29:58.000Z</time>
      </trkpt>
      <trkpt lat="43.77033" lon="5.71921">
        <ele>451.39999389648</ele>
        <time>2020-12-23T10:30:04.000Z</time>
      </trkpt>
      <trkpt lat="43.77015" lon="5.71912">
        <ele>451.60000610352</ele>
        <time>2020-12-23T10:30:10.000Z</time>
      </trkpt>
      <trkpt lat="43.77009" lon="5.7191">
        <ele>451.79998779297</ele>
        <time>2020-12-23T10:30:12.000Z</time>
      </trkpt>
      <trkpt lat="43.76993" lon="5.71905">
        <ele>452.20001220703</ele>
        <time>2020-12-23T10:30:17.000Z</time>
      </trkpt>
      <trkpt lat="43.76978" lon="5.719">
        <ele>452.79998779297</ele>
        <time>2020-12-23T10:30:22.000Z</time>
      </trkpt>
      <trkpt lat="43.76973" lon="5.71899">
        <ele>453.20001220703</ele>
        <time>2020-12-23T10:30:24.000Z</time>
      </trkpt>
      <trkpt lat="43.76961" lon="5.71895">
        <ele>454</ele>
        <time>2020-12-23T10:30:29.000Z</time>
      </trkpt>
      <trkpt lat="43.76958" lon="5.71894">
        <ele>454</ele>
        <time>2020-12-23T10:30:30.000Z</time>
      </trkpt>
      <trkpt lat="43.76951" lon="5.71891">
        <ele>455</ele>
        <time>2020-12-23T10:30:34.000Z</time>
      </trkpt>
      <trkpt lat="43.76946" lon="5.7189">
        <ele>455.20001220703</ele>
        <time>2020-12-23T10:30:36.000Z</time>
      </trkpt>
      <trkpt lat="43.76938" lon="5.71888">
        <ele>456</ele>
        <time>2020-12-23T10:30:40.000Z</time>
      </trkpt>
      <trkpt lat="43.76928" lon="5.71885">
        <ele>456.60000610352</ele>
        <time>2020-12-23T10:30:44.000Z</time>
      </trkpt>
      <trkpt lat="43.7692" lon="5.71883">
        <ele>457</ele>
        <time>2020-12-23T10:30:48.000Z</time>
      </trkpt>
      <trkpt lat="43.76914" lon="5.71884">
        <ele>457.39999389648</ele>
        <time>2020-12-23T10:30:50.000Z</time>
      </trkpt>
      <trkpt lat="43.76902" lon="5.71885">
        <ele>458</ele>
        <time>2020-12-23T10:30:55.000Z</time>
      </trkpt>
      <trkpt lat="43.76897" lon="5.71885">
        <ele>458.39999389648</ele>
        <time>2020-12-23T10:30:58.000Z</time>
      </trkpt>
      <trkpt lat="43.76888" lon="5.71886">
        <ele>459.20001220703</ele>
        <time>2020-12-23T10:31:02.000Z</time>
      </trkpt>
      <trkpt lat="43.7688" lon="5.71888">
        <ele>459.79998779297</ele>
        <time>2020-12-23T10:31:06.000Z</time>
      </trkpt>
      <trkpt lat="43.76873" lon="5.71889">
        <ele>460.20001220703</ele>
        <time>2020-12-23T10:31:09.000Z</time>
      </trkpt>
      <trkpt lat="43.76862" lon="5.71892">
        <ele>460.79998779297</ele>
        <time>2020-12-23T10:31:14.000Z</time>
      </trkpt>
      <trkpt lat="43.76856" lon="5.71893">
        <ele>461.20001220703</ele>
        <time>2020-12-23T10:31:16.000Z</time>
      </trkpt>
      <trkpt lat="43.76844" lon="5.71895">
        <ele>462.39999389648</ele>
        <time>2020-12-23T10:31:21.000Z</time>
      </trkpt>
      <trkpt lat="43.76842" lon="5.71896">
        <ele>462.60000610352</ele>
        <time>2020-12-23T10:31:22.000Z</time>
      </trkpt>
      <trkpt lat="43.76835" lon="5.71897">
        <ele>463.39999389648</ele>
        <time>2020-12-23T10:31:25.000Z</time>
      </trkpt>
      <trkpt lat="43.76823" lon="5.71898">
        <ele>464.60000610352</ele>
        <time>2020-12-23T10:31:30.000Z</time>
      </trkpt>
      <trkpt lat="43.76813" lon="5.71901">
        <ele>466</ele>
        <time>2020-12-23T10:31:35.000Z</time>
      </trkpt>
      <trkpt lat="43.76804" lon="5.71902">
        <ele>466.60000610352</ele>
        <time>2020-12-23T10:31:39.000Z</time>
      </trkpt>
      <trkpt lat="43.76801" lon="5.71902">
        <ele>467.20001220703</ele>
        <time>2020-12-23T10:31:41.000Z</time>
      </trkpt>
      <trkpt lat="43.76792" lon="5.71901">
        <ele>468</ele>
        <time>2020-12-23T10:31:45.000Z</time>
      </trkpt>
      <trkpt lat="43.76789" lon="5.71901">
        <ele>468.20001220703</ele>
        <time>2020-12-23T10:31:46.000Z</time>
      </trkpt>
      <trkpt lat="43.76778" lon="5.71901">
        <ele>469.39999389648</ele>
        <time>2020-12-23T10:31:52.000Z</time>
      </trkpt>
      <trkpt lat="43.7677" lon="5.71905">
        <ele>470.39999389648</ele>
        <time>2020-12-23T10:31:56.000Z</time>
      </trkpt>
      <trkpt lat="43.76762" lon="5.71909">
        <ele>471.20001220703</ele>
        <time>2020-12-23T10:32:00.000Z</time>
      </trkpt>
      <trkpt lat="43.7676" lon="5.71911">
        <ele>471.60000610352</ele>
        <time>2020-12-23T10:32:02.000Z</time>
      </trkpt>
      <trkpt lat="43.76751" lon="5.71913">
        <ele>472.60000610352</ele>
        <time>2020-12-23T10:32:07.000Z</time>
      </trkpt>
      <trkpt lat="43.76749" lon="5.71911">
        <ele>472.79998779297</ele>
        <time>2020-12-23T10:32:08.000Z</time>
      </trkpt>
      <trkpt lat="43.76747" lon="5.71904">
        <ele>473</ele>
        <time>2020-12-23T10:32:11.000Z</time>
      </trkpt>
      <trkpt lat="43.76751" lon="5.71894">
        <ele>473.79998779297</ele>
        <time>2020-12-23T10:32:16.000Z</time>
      </trkpt>
      <trkpt lat="43.76752" lon="5.71892">
        <ele>474.20001220703</ele>
        <time>2020-12-23T10:32:17.000Z</time>
      </trkpt>
      <trkpt lat="43.76754" lon="5.71888">
        <ele>475</ele>
        <time>2020-12-23T10:32:19.000Z</time>
      </trkpt>
      <trkpt lat="43.76757" lon="5.71878">
        <ele>476.20001220703</ele>
        <time>2020-12-23T10:32:23.000Z</time>
      </trkpt>
      <trkpt lat="43.76758" lon="5.71876">
        <ele>476.39999389648</ele>
        <time>2020-12-23T10:32:24.000Z</time>
      </trkpt>
      <trkpt lat="43.7676" lon="5.71872">
        <ele>477.20001220703</ele>
        <time>2020-12-23T10:32:26.000Z</time>
      </trkpt>
      <trkpt lat="43.76762" lon="5.71865">
        <ele>478.60000610352</ele>
        <time>2020-12-23T10:32:29.000Z</time>
      </trkpt>
      <trkpt lat="43.76764" lon="5.71863">
        <ele>479</ele>
        <time>2020-12-23T10:32:30.000Z</time>
      </trkpt>
      <trkpt lat="43.76767" lon="5.71857">
        <ele>479.79998779297</ele>
        <time>2020-12-23T10:32:33.000Z</time>
      </trkpt>
      <trkpt lat="43.76772" lon="5.71853">
        <ele>480.79998779297</ele>
        <time>2020-12-23T10:32:36.000Z</time>
      </trkpt>
      <trkpt lat="43.76773" lon="5.71852">
        <ele>481</ele>
        <time>2020-12-23T10:32:37.000Z</time>
      </trkpt>
      <trkpt lat="43.76782" lon="5.71843">
        <ele>482</ele>
        <time>2020-12-23T10:32:42.000Z</time>
      </trkpt>
      <trkpt lat="43.76784" lon="5.71841">
        <ele>482.20001220703</ele>
        <time>2020-12-23T10:32:43.000Z</time>
      </trkpt>
      <trkpt lat="43.76796" lon="5.71828">
        <ele>483.20001220703</ele>
        <time>2020-12-23T10:32:48.000Z</time>
      </trkpt>
      <trkpt lat="43.768" lon="5.71823">
        <ele>483.60000610352</ele>
        <time>2020-12-23T10:32:50.000Z</time>
      </trkpt>
      <trkpt lat="43.76811" lon="5.71805">
        <ele>484</ele>
        <time>2020-12-23T10:32:56.000Z</time>
      </trkpt>
      <trkpt lat="43.7682" lon="5.71789">
        <ele>484</ele>
        <time>2020-12-23T10:33:01.000Z</time>
      </trkpt>
      <trkpt lat="43.76819" lon="5.71783">
        <ele>484.20001220703</ele>
        <time>2020-12-23T10:33:03.000Z</time>
      </trkpt>
      <trkpt lat="43.76817" lon="5.71779">
        <ele>484.20001220703</ele>
        <time>2020-12-23T10:33:06.000Z</time>
      </trkpt>
      <trkpt lat="43.76815" lon="5.71779">
        <ele>484.20001220703</ele>
        <time>2020-12-23T10:33:08.000Z</time>
      </trkpt>
      <trkpt lat="43.76812" lon="5.71782">
        <ele>484.39999389648</ele>
        <time>2020-12-23T10:33:10.000Z</time>
      </trkpt>
      <trkpt lat="43.7681" lon="5.71784">
        <ele>484.39999389648</ele>
        <time>2020-12-23T10:33:11.000Z</time>
      </trkpt>
      <trkpt lat="43.76803" lon="5.71792">
        <ele>485.60000610352</ele>
        <time>2020-12-23T10:33:16.000Z</time>
      </trkpt>
      <trkpt lat="43.76801" lon="5.71794">
        <ele>485.60000610352</ele>
        <time>2020-12-23T10:33:17.000Z</time>
      </trkpt>
      <trkpt lat="43.76785" lon="5.71801">
        <ele>486.79998779297</ele>
        <time>2020-12-23T10:33:25.000Z</time>
      </trkpt>
      <trkpt lat="43.76774" lon="5.71807">
        <ele>487.79998779297</ele>
        <time>2020-12-23T10:33:31.000Z</time>
      </trkpt>
      <trkpt lat="43.76771" lon="5.71809">
        <ele>488.60000610352</ele>
        <time>2020-12-23T10:33:37.000Z</time>
      </trkpt>
      <trkpt lat="43.76771" lon="5.71809">
        <ele>489</ele>
        <time>2020-12-23T10:33:41.000Z</time>
      </trkpt>
      <trkpt lat="43.76769" lon="5.7181">
        <ele>489.20001220703</ele>
        <time>2020-12-23T10:33:48.000Z</time>
      </trkpt>
      <trkpt lat="43.76756" lon="5.71819">
        <ele>489.20001220703</ele>
        <time>2020-12-23T10:33:53.000Z</time>
      </trkpt>
      <trkpt lat="43.76741" lon="5.71831">
        <ele>489.20001220703</ele>
        <time>2020-12-23T10:34:00.000Z</time>
      </trkpt>
      <trkpt lat="43.76718" lon="5.71848">
        <ele>489.20001220703</ele>
        <time>2020-12-23T10:34:07.000Z</time>
      </trkpt>
      <trkpt lat="43.76696" lon="5.71869">
        <ele>489</ele>
        <time>2020-12-23T10:34:14.000Z</time>
      </trkpt>
      <trkpt lat="43.76679" lon="5.71889">
        <ele>488.60000610352</ele>
        <time>2020-12-23T10:34:20.000Z</time>
      </trkpt>
      <trkpt lat="43.76667" lon="5.71905">
        <ele>488.39999389648</ele>
        <time>2020-12-23T10:34:25.000Z</time>
      </trkpt>
      <trkpt lat="43.76651" lon="5.71933">
        <ele>488.60000610352</ele>
        <time>2020-12-23T10:34:33.000Z</time>
      </trkpt>
      <trkpt lat="43.76641" lon="5.71952">
        <ele>489</ele>
        <time>2020-12-23T10:34:39.000Z</time>
      </trkpt>
      <trkpt lat="43.76625" lon="5.7198">
        <ele>490</ele>
        <time>2020-12-23T10:34:48.000Z</time>
      </trkpt>
      <trkpt lat="43.76619" lon="5.71987">
        <ele>490.39999389648</ele>
        <time>2020-12-23T10:34:51.000Z</time>
      </trkpt>
      <trkpt lat="43.76614" lon="5.71993">
        <ele>490.79998779297</ele>
        <time>2020-12-23T10:34:54.000Z</time>
      </trkpt>
      <trkpt lat="43.76609" lon="5.72002">
        <ele>491.60000610352</ele>
        <time>2020-12-23T10:34:58.000Z</time>
      </trkpt>
      <trkpt lat="43.76608" lon="5.72008">
        <ele>492</ele>
        <time>2020-12-23T10:35:00.000Z</time>
      </trkpt>
      <trkpt lat="43.7661" lon="5.72019">
        <ele>492.60000610352</ele>
        <time>2020-12-23T10:35:03.000Z</time>
      </trkpt>
      <trkpt lat="43.7661" lon="5.72025">
        <ele>493</ele>
        <time>2020-12-23T10:35:05.000Z</time>
      </trkpt>
      <trkpt lat="43.76613" lon="5.72044">
        <ele>493.79998779297</ele>
        <time>2020-12-23T10:35:12.000Z</time>
      </trkpt>
      <trkpt lat="43.76615" lon="5.72067">
        <ele>493.79998779297</ele>
        <time>2020-12-23T10:35:19.000Z</time>
      </trkpt>
      <trkpt lat="43.76612" lon="5.72088">
        <ele>494.20001220703</ele>
        <time>2020-12-23T10:35:25.000Z</time>
      </trkpt>
      <trkpt lat="43.76609" lon="5.72103">
        <ele>494.79998779297</ele>
        <time>2020-12-23T10:35:30.000Z</time>
      </trkpt>
      <trkpt lat="43.76608" lon="5.72105">
        <ele>495</ele>
        <time>2020-12-23T10:35:31.000Z</time>
      </trkpt>
      <trkpt lat="43.76605" lon="5.72119">
        <ele>495.79998779297</ele>
        <time>2020-12-23T10:35:35.000Z</time>
      </trkpt>
      <trkpt lat="43.76605" lon="5.72123">
        <ele>496</ele>
        <time>2020-12-23T10:35:36.000Z</time>
      </trkpt>
      <trkpt lat="43.76605" lon="5.72139">
        <ele>496.79998779297</ele>
        <time>2020-12-23T10:35:41.000Z</time>
      </trkpt>
      <trkpt lat="43.76605" lon="5.72142">
        <ele>497</ele>
        <time>2020-12-23T10:35:42.000Z</time>
      </trkpt>
      <trkpt lat="43.766" lon="5.72161">
        <ele>497.79998779297</ele>
        <time>2020-12-23T10:35:48.000Z</time>
      </trkpt>
      <trkpt lat="43.76599" lon="5.72167">
        <ele>498</ele>
        <time>2020-12-23T10:35:50.000Z</time>
      </trkpt>
      <trkpt lat="43.76597" lon="5.72181">
        <ele>498.39999389648</ele>
        <time>2020-12-23T10:35:54.000Z</time>
      </trkpt>
      <trkpt lat="43.76592" lon="5.72206">
        <ele>498.79998779297</ele>
        <time>2020-12-23T10:36:01.000Z</time>
      </trkpt>
      <trkpt lat="43.76586" lon="5.7223">
        <ele>499.20001220703</ele>
        <time>2020-12-23T10:36:08.000Z</time>
      </trkpt>
      <trkpt lat="43.76585" lon="5.72233">
        <ele>499.20001220703</ele>
        <time>2020-12-23T10:36:09.000Z</time>
      </trkpt>
      <trkpt lat="43.76576" lon="5.72251">
        <ele>500.20001220703</ele>
        <time>2020-12-23T10:36:15.000Z</time>
      </trkpt>
      <trkpt lat="43.76567" lon="5.72266">
        <ele>501.20001220703</ele>
        <time>2020-12-23T10:36:20.000Z</time>
      </trkpt>
      <trkpt lat="43.76565" lon="5.72269">
        <ele>501.39999389648</ele>
        <time>2020-12-23T10:36:21.000Z</time>
      </trkpt>
      <trkpt lat="43.76561" lon="5.72278">
        <ele>502.20001220703</ele>
        <time>2020-12-23T10:36:24.000Z</time>
      </trkpt>
      <trkpt lat="43.76554" lon="5.72287">
        <ele>503.20001220703</ele>
        <time>2020-12-23T10:36:28.000Z</time>
      </trkpt>
      <trkpt lat="43.76545" lon="5.72294">
        <ele>504.60000610352</ele>
        <time>2020-12-23T10:36:33.000Z</time>
      </trkpt>
      <trkpt lat="43.76543" lon="5.72297">
        <ele>505</ele>
        <time>2020-12-23T10:36:34.000Z</time>
      </trkpt>
      <trkpt lat="43.76532" lon="5.72311">
        <ele>505.79998779297</ele>
        <time>2020-12-23T10:36:39.000Z</time>
      </trkpt>
      <trkpt lat="43.76526" lon="5.7232">
        <ele>505.79998779297</ele>
        <time>2020-12-23T10:36:42.000Z</time>
      </trkpt>
      <trkpt lat="43.76513" lon="5.72338">
        <ele>505.79998779297</ele>
        <time>2020-12-23T10:36:48.000Z</time>
      </trkpt>
      <trkpt lat="43.76501" lon="5.72358">
        <ele>506.20001220703</ele>
        <time>2020-12-23T10:36:55.000Z</time>
      </trkpt>
      <trkpt lat="43.76494" lon="5.72368">
        <ele>506.60000610352</ele>
        <time>2020-12-23T10:37:00.000Z</time>
      </trkpt>
      <trkpt lat="43.76492" lon="5.72369">
        <ele>506.79998779297</ele>
        <time>2020-12-23T10:37:01.000Z</time>
      </trkpt>
      <trkpt lat="43.7649" lon="5.7237">
        <ele>506.79998779297</ele>
        <time>2020-12-23T10:37:02.000Z</time>
      </trkpt>
      <trkpt lat="43.76486" lon="5.72379">
        <ele>507.20001220703</ele>
        <time>2020-12-23T10:37:06.000Z</time>
      </trkpt>
      <trkpt lat="43.76484" lon="5.72385">
        <ele>507.60000610352</ele>
        <time>2020-12-23T10:37:11.000Z</time>
      </trkpt>
      <trkpt lat="43.76484" lon="5.72386">
        <ele>507.79998779297</ele>
        <time>2020-12-23T10:37:17.000Z</time>
      </trkpt>
      <trkpt lat="43.76484" lon="5.72386">
        <ele>508</ele>
        <time>2020-12-23T10:37:24.000Z</time>
      </trkpt>
      <trkpt lat="43.76484" lon="5.72386">
        <ele>508.20001220703</ele>
        <time>2020-12-23T10:37:31.000Z</time>
      </trkpt>
      <trkpt lat="43.76484" lon="5.72386">
        <ele>508.20001220703</ele>
        <time>2020-12-23T10:37:41.000Z</time>
      </trkpt>
      <trkpt lat="43.76484" lon="5.72386">
        <ele>508.20001220703</ele>
        <time>2020-12-23T10:38:00.000Z</time>
      </trkpt>
      <trkpt lat="43.76477" lon="5.72393">
        <ele>508.20001220703</ele>
        <time>2020-12-23T10:38:04.000Z</time>
      </trkpt>
      <trkpt lat="43.7646" lon="5.72422">
        <ele>508</ele>
        <time>2020-12-23T10:38:10.000Z</time>
      </trkpt>
      <trkpt lat="43.76444" lon="5.72448">
        <ele>506.79998779297</ele>
        <time>2020-12-23T10:38:15.000Z</time>
      </trkpt>
      <trkpt lat="43.76437" lon="5.72461">
        <ele>505.79998779297</ele>
        <time>2020-12-23T10:38:17.000Z</time>
      </trkpt>
      <trkpt lat="43.7643" lon="5.72474">
        <ele>504.79998779297</ele>
        <time>2020-12-23T10:38:19.000Z</time>
      </trkpt>
      <trkpt lat="43.76417" lon="5.72495">
        <ele>503.60000610352</ele>
        <time>2020-12-23T10:38:22.000Z</time>
      </trkpt>
      <trkpt lat="43.76413" lon="5.72502">
        <ele>503</ele>
        <time>2020-12-23T10:38:23.000Z</time>
      </trkpt>
      <trkpt lat="43.76408" lon="5.72508">
        <ele>502.20001220703</ele>
        <time>2020-12-23T10:38:24.000Z</time>
      </trkpt>
      <trkpt lat="43.76404" lon="5.72515">
        <ele>501.39999389648</ele>
        <time>2020-12-23T10:38:25.000Z</time>
      </trkpt>
      <trkpt lat="43.764" lon="5.72523">
        <ele>500.60000610352</ele>
        <time>2020-12-23T10:38:26.000Z</time>
      </trkpt>
      <trkpt lat="43.76392" lon="5.72538">
        <ele>499.39999389648</ele>
        <time>2020-12-23T10:38:28.000Z</time>
      </trkpt>
      <trkpt lat="43.76382" lon="5.72555">
        <ele>498.20001220703</ele>
        <time>2020-12-23T10:38:30.000Z</time>
      </trkpt>
      <trkpt lat="43.76371" lon="5.72571">
        <ele>497</ele>
        <time>2020-12-23T10:38:32.000Z</time>
      </trkpt>
      <trkpt lat="43.76365" lon="5.7258">
        <ele>496.60000610352</ele>
        <time>2020-12-23T10:38:33.000Z</time>
      </trkpt>
      <trkpt lat="43.76358" lon="5.72588">
        <ele>496</ele>
        <time>2020-12-23T10:38:34.000Z</time>
      </trkpt>
      <trkpt lat="43.76345" lon="5.72602">
        <ele>494.39999389648</ele>
        <time>2020-12-23T10:38:36.000Z</time>
      </trkpt>
      <trkpt lat="43.76332" lon="5.72615">
        <ele>492.79998779297</ele>
        <time>2020-12-23T10:38:38.000Z</time>
      </trkpt>
      <trkpt lat="43.7632" lon="5.72627">
        <ele>491.39999389648</ele>
        <time>2020-12-23T10:38:40.000Z</time>
      </trkpt>
      <trkpt lat="43.76307" lon="5.72639">
        <ele>490.39999389648</ele>
        <time>2020-12-23T10:38:42.000Z</time>
      </trkpt>
      <trkpt lat="43.76295" lon="5.72652">
        <ele>489.20001220703</ele>
        <time>2020-12-23T10:38:44.000Z</time>
      </trkpt>
      <trkpt lat="43.76283" lon="5.72665">
        <ele>488.60000610352</ele>
        <time>2020-12-23T10:38:46.000Z</time>
      </trkpt>
      <trkpt lat="43.76273" lon="5.7268">
        <ele>488.20001220703</ele>
        <time>2020-12-23T10:38:48.000Z</time>
      </trkpt>
      <trkpt lat="43.76269" lon="5.7269">
        <ele>487.39999389648</ele>
        <time>2020-12-23T10:38:49.000Z</time>
      </trkpt>
      <trkpt lat="43.76265" lon="5.727">
        <ele>487</ele>
        <time>2020-12-23T10:38:50.000Z</time>
      </trkpt>
      <trkpt lat="43.76261" lon="5.72736">
        <ele>485.79998779297</ele>
        <time>2020-12-23T10:38:53.000Z</time>
      </trkpt>
      <trkpt lat="43.76261" lon="5.7276">
        <ele>484.60000610352</ele>
        <time>2020-12-23T10:38:55.000Z</time>
      </trkpt>
      <trkpt lat="43.76262" lon="5.72784">
        <ele>482.79998779297</ele>
        <time>2020-12-23T10:38:57.000Z</time>
      </trkpt>
      <trkpt lat="43.76262" lon="5.72796">
        <ele>481.60000610352</ele>
        <time>2020-12-23T10:38:58.000Z</time>
      </trkpt>
      <trkpt lat="43.76262" lon="5.72809">
        <ele>480.20001220703</ele>
        <time>2020-12-23T10:38:59.000Z</time>
      </trkpt>
      <trkpt lat="43.76261" lon="5.72822">
        <ele>478.60000610352</ele>
        <time>2020-12-23T10:39:00.000Z</time>
      </trkpt>
      <trkpt lat="43.7626" lon="5.72834">
        <ele>477.79998779297</ele>
        <time>2020-12-23T10:39:01.000Z</time>
      </trkpt>
      <trkpt lat="43.76258" lon="5.72846">
        <ele>477</ele>
        <time>2020-12-23T10:39:02.000Z</time>
      </trkpt>
      <trkpt lat="43.76253" lon="5.72868">
        <ele>476.20001220703</ele>
        <time>2020-12-23T10:39:04.000Z</time>
      </trkpt>
      <trkpt lat="43.76248" lon="5.72886">
        <ele>474.39999389648</ele>
        <time>2020-12-23T10:39:06.000Z</time>
      </trkpt>
      <trkpt lat="43.76244" lon="5.72904">
        <ele>473.39999389648</ele>
        <time>2020-12-23T10:39:08.000Z</time>
      </trkpt>
      <trkpt lat="43.76242" lon="5.72924">
        <ele>472.60000610352</ele>
        <time>2020-12-23T10:39:10.000Z</time>
      </trkpt>
      <trkpt lat="43.76241" lon="5.72945">
        <ele>472.20001220703</ele>
        <time>2020-12-23T10:39:12.000Z</time>
      </trkpt>
      <trkpt lat="43.76238" lon="5.72981">
        <ele>471.39999389648</ele>
        <time>2020-12-23T10:39:15.000Z</time>
      </trkpt>
      <trkpt lat="43.76236" lon="5.72992">
        <ele>470.20001220703</ele>
        <time>2020-12-23T10:39:16.000Z</time>
      </trkpt>
      <trkpt lat="43.76232" lon="5.73013">
        <ele>468.79998779297</ele>
        <time>2020-12-23T10:39:18.000Z</time>
      </trkpt>
      <trkpt lat="43.76229" lon="5.73035">
        <ele>467.39999389648</ele>
        <time>2020-12-23T10:39:20.000Z</time>
      </trkpt>
      <trkpt lat="43.76227" lon="5.73046">
        <ele>466.39999389648</ele>
        <time>2020-12-23T10:39:21.000Z</time>
      </trkpt>
      <trkpt lat="43.76225" lon="5.73068">
        <ele>464.60000610352</ele>
        <time>2020-12-23T10:39:23.000Z</time>
      </trkpt>
      <trkpt lat="43.76223" lon="5.73087">
        <ele>463.39999389648</ele>
        <time>2020-12-23T10:39:25.000Z</time>
      </trkpt>
      <trkpt lat="43.76223" lon="5.73096">
        <ele>462.60000610352</ele>
        <time>2020-12-23T10:39:26.000Z</time>
      </trkpt>
      <trkpt lat="43.76224" lon="5.73102">
        <ele>461.79998779297</ele>
        <time>2020-12-23T10:39:27.000Z</time>
      </trkpt>
      <trkpt lat="43.76227" lon="5.73113">
        <ele>460.79998779297</ele>
        <time>2020-12-23T10:39:29.000Z</time>
      </trkpt>
      <trkpt lat="43.76237" lon="5.73121">
        <ele>460</ele>
        <time>2020-12-23T10:39:32.000Z</time>
      </trkpt>
      <trkpt lat="43.76243" lon="5.73119">
        <ele>459.79998779297</ele>
        <time>2020-12-23T10:39:34.000Z</time>
      </trkpt>
      <trkpt lat="43.76249" lon="5.73114">
        <ele>459.60000610352</ele>
        <time>2020-12-23T10:39:36.000Z</time>
      </trkpt>
      <trkpt lat="43.76255" lon="5.73107">
        <ele>459.60000610352</ele>
        <time>2020-12-23T10:39:38.000Z</time>
      </trkpt>
      <trkpt lat="43.76267" lon="5.73089">
        <ele>459.60000610352</ele>
        <time>2020-12-23T10:39:43.000Z</time>
      </trkpt>
      <trkpt lat="43.76282" lon="5.7308">
        <ele>460.20001220703</ele>
        <time>2020-12-23T10:39:48.000Z</time>
      </trkpt>
      <trkpt lat="43.76287" lon="5.73085">
        <ele>460.79998779297</ele>
        <time>2020-12-23T10:39:50.000Z</time>
      </trkpt>
      <trkpt lat="43.76288" lon="5.73089">
        <ele>461</ele>
        <time>2020-12-23T10:39:51.000Z</time>
      </trkpt>
      <trkpt lat="43.7629" lon="5.73101">
        <ele>462</ele>
        <time>2020-12-23T10:39:54.000Z</time>
      </trkpt>
      <trkpt lat="43.76291" lon="5.73113">
        <ele>463.60000610352</ele>
        <time>2020-12-23T10:39:57.000Z</time>
      </trkpt>
      <trkpt lat="43.76291" lon="5.73121">
        <ele>464.79998779297</ele>
        <time>2020-12-23T10:39:59.000Z</time>
      </trkpt>
      <trkpt lat="43.76294" lon="5.73133">
        <ele>465.79998779297</ele>
        <time>2020-12-23T10:40:02.000Z</time>
      </trkpt>
      <trkpt lat="43.76295" lon="5.73137">
        <ele>466.20001220703</ele>
        <time>2020-12-23T10:40:03.000Z</time>
      </trkpt>
      <trkpt lat="43.76298" lon="5.73143">
        <ele>466.79998779297</ele>
        <time>2020-12-23T10:40:05.000Z</time>
      </trkpt>
      <trkpt lat="43.76304" lon="5.73155">
        <ele>467.39999389648</ele>
        <time>2020-12-23T10:40:09.000Z</time>
      </trkpt>
      <trkpt lat="43.76309" lon="5.73163">
        <ele>468</ele>
        <time>2020-12-23T10:40:12.000Z</time>
      </trkpt>
      <trkpt lat="43.76314" lon="5.7317">
        <ele>468.60000610352</ele>
        <time>2020-12-23T10:40:15.000Z</time>
      </trkpt>
      <trkpt lat="43.76321" lon="5.73175">
        <ele>469.20001220703</ele>
        <time>2020-12-23T10:40:18.000Z</time>
      </trkpt>
      <trkpt lat="43.76326" lon="5.73176">
        <ele>470</ele>
        <time>2020-12-23T10:40:20.000Z</time>
      </trkpt>
      <trkpt lat="43.76328" lon="5.73177">
        <ele>470.39999389648</ele>
        <time>2020-12-23T10:40:21.000Z</time>
      </trkpt>
      <trkpt lat="43.7634" lon="5.73179">
        <ele>471.79998779297</ele>
        <time>2020-12-23T10:40:25.000Z</time>
      </trkpt>
      <trkpt lat="43.76348" lon="5.73181">
        <ele>472.79998779297</ele>
        <time>2020-12-23T10:40:28.000Z</time>
      </trkpt>
      <trkpt lat="43.76351" lon="5.73182">
        <ele>473.20001220703</ele>
        <time>2020-12-23T10:40:29.000Z</time>
      </trkpt>
      <trkpt lat="43.7636" lon="5.73182">
        <ele>474</ele>
        <time>2020-12-23T10:40:32.000Z</time>
      </trkpt>
      <trkpt lat="43.7637" lon="5.73178">
        <ele>474.39999389648</ele>
        <time>2020-12-23T10:40:36.000Z</time>
      </trkpt>
      <trkpt lat="43.76385" lon="5.73164">
        <ele>475.39999389648</ele>
        <time>2020-12-23T10:40:42.000Z</time>
      </trkpt>
      <trkpt lat="43.76402" lon="5.73141">
        <ele>476.20001220703</ele>
        <time>2020-12-23T10:40:49.000Z</time>
      </trkpt>
      <trkpt lat="43.76405" lon="5.73133">
        <ele>476.39999389648</ele>
        <time>2020-12-23T10:40:51.000Z</time>
      </trkpt>
      <trkpt lat="43.76414" lon="5.73111">
        <ele>476.79998779297</ele>
        <time>2020-12-23T10:40:56.000Z</time>
      </trkpt>
      <trkpt lat="43.76428" lon="5.73079">
        <ele>477.39999389648</ele>
        <time>2020-12-23T10:41:04.000Z</time>
      </trkpt>
      <trkpt lat="43.76439" lon="5.73063">
        <ele>477.39999389648</ele>
        <time>2020-12-23T10:41:08.000Z</time>
      </trkpt>
      <trkpt lat="43.76445" lon="5.73055">
        <ele>477.60000610352</ele>
        <time>2020-12-23T10:41:10.000Z</time>
      </trkpt>
      <trkpt lat="43.76465" lon="5.73035">
        <ele>478</ele>
        <time>2020-12-23T10:41:16.000Z</time>
      </trkpt>
      <trkpt lat="43.76492" lon="5.73011">
        <ele>478</ele>
        <time>2020-12-23T10:41:24.000Z</time>
      </trkpt>
      <trkpt lat="43.76513" lon="5.72994">
        <ele>478.20001220703</ele>
        <time>2020-12-23T10:41:30.000Z</time>
      </trkpt>
      <trkpt lat="43.76535" lon="5.72974">
        <ele>478.60000610352</ele>
        <time>2020-12-23T10:41:37.000Z</time>
      </trkpt>
      <trkpt lat="43.76558" lon="5.72961">
        <ele>479.20001220703</ele>
        <time>2020-12-23T10:41:44.000Z</time>
      </trkpt>
      <trkpt lat="43.76573" lon="5.72963">
        <ele>479.79998779297</ele>
        <time>2020-12-23T10:41:48.000Z</time>
      </trkpt>
      <trkpt lat="43.76601" lon="5.72967">
        <ele>480.39999389648</ele>
        <time>2020-12-23T10:41:56.000Z</time>
      </trkpt>
      <trkpt lat="43.76604" lon="5.72967">
        <ele>480.60000610352</ele>
        <time>2020-12-23T10:41:57.000Z</time>
      </trkpt>
      <trkpt lat="43.76618" lon="5.72968">
        <ele>481.79998779297</ele>
        <time>2020-12-23T10:42:01.000Z</time>
      </trkpt>
      <trkpt lat="43.76625" lon="5.72971">
        <ele>482.39999389648</ele>
        <time>2020-12-23T10:42:03.000Z</time>
      </trkpt>
      <trkpt lat="43.76635" lon="5.72975">
        <ele>483</ele>
        <time>2020-12-23T10:42:06.000Z</time>
      </trkpt>
      <trkpt lat="43.7665" lon="5.72981">
        <ele>483.60000610352</ele>
        <time>2020-12-23T10:42:11.000Z</time>
      </trkpt>
      <trkpt lat="43.76653" lon="5.72982">
        <ele>484.20001220703</ele>
        <time>2020-12-23T10:42:14.000Z</time>
      </trkpt>
      <trkpt lat="43.76656" lon="5.72982">
        <ele>484.79998779297</ele>
        <time>2020-12-23T10:42:16.000Z</time>
      </trkpt>
      <trkpt lat="43.76658" lon="5.7298">
        <ele>485.39999389648</ele>
        <time>2020-12-23T10:42:18.000Z</time>
      </trkpt>
      <trkpt lat="43.76665" lon="5.72973">
        <ele>485.79998779297</ele>
        <time>2020-12-23T10:42:22.000Z</time>
      </trkpt>
      <trkpt lat="43.76671" lon="5.72964">
        <ele>486</ele>
        <time>2020-12-23T10:42:28.000Z</time>
      </trkpt>
      <trkpt lat="43.76677" lon="5.72957">
        <ele>485.39999389648</ele>
        <time>2020-12-23T10:42:34.000Z</time>
      </trkpt>
      <trkpt lat="43.76675" lon="5.72953">
        <ele>485.20001220703</ele>
        <time>2020-12-23T10:42:38.000Z</time>
      </trkpt>
      <trkpt lat="43.76669" lon="5.72963">
        <ele>484.79998779297</ele>
        <time>2020-12-23T10:42:42.000Z</time>
      </trkpt>
      <trkpt lat="43.76668" lon="5.72966">
        <ele>484.79998779297</ele>
        <time>2020-12-23T10:42:43.000Z</time>
      </trkpt>
      <trkpt lat="43.76656" lon="5.7298">
        <ele>484.79998779297</ele>
        <time>2020-12-23T10:42:49.000Z</time>
      </trkpt>
      <trkpt lat="43.76654" lon="5.7298">
        <ele>484.79998779297</ele>
        <time>2020-12-23T10:42:50.000Z</time>
      </trkpt>
      <trkpt lat="43.76649" lon="5.72975">
        <ele>484.79998779297</ele>
        <time>2020-12-23T10:42:53.000Z</time>
      </trkpt>
      <trkpt lat="43.7665" lon="5.72962">
        <ele>485.60000610352</ele>
        <time>2020-12-23T10:42:58.000Z</time>
      </trkpt>
      <trkpt lat="43.7665" lon="5.7295">
        <ele>487</ele>
        <time>2020-12-23T10:43:03.000Z</time>
      </trkpt>
      <trkpt lat="43.76648" lon="5.72942">
        <ele>488.20001220703</ele>
        <time>2020-12-23T10:43:06.000Z</time>
      </trkpt>
      <trkpt lat="43.76647" lon="5.72933">
        <ele>489.39999389648</ele>
        <time>2020-12-23T10:43:10.000Z</time>
      </trkpt>
      <trkpt lat="43.76646" lon="5.72931">
        <ele>490.79998779297</ele>
        <time>2020-12-23T10:43:13.000Z</time>
      </trkpt>
      <trkpt lat="43.76646" lon="5.72931">
        <ele>491.79998779297</ele>
        <time>2020-12-23T10:43:15.000Z</time>
      </trkpt>
      <trkpt lat="43.76646" lon="5.72931">
        <ele>492.39999389648</ele>
        <time>2020-12-23T10:43:16.000Z</time>
      </trkpt>
      <trkpt lat="43.76646" lon="5.7293">
        <ele>493.39999389648</ele>
        <time>2020-12-23T10:43:18.000Z</time>
      </trkpt>
      <trkpt lat="43.76647" lon="5.7293">
        <ele>494.60000610352</ele>
        <time>2020-12-23T10:43:21.000Z</time>
      </trkpt>
      <trkpt lat="43.76647" lon="5.72929">
        <ele>495</ele>
        <time>2020-12-23T10:43:27.000Z</time>
      </trkpt>
      <trkpt lat="43.76646" lon="5.72926">
        <ele>495</ele>
        <time>2020-12-23T10:43:32.000Z</time>
      </trkpt>
      <trkpt lat="43.76645" lon="5.72923">
        <ele>495</ele>
        <time>2020-12-23T10:43:34.000Z</time>
      </trkpt>
      <trkpt lat="43.76642" lon="5.7292">
        <ele>495</ele>
        <time>2020-12-23T10:43:39.000Z</time>
      </trkpt>
      <trkpt lat="43.76639" lon="5.72919">
        <ele>495.79998779297</ele>
        <time>2020-12-23T10:43:42.000Z</time>
      </trkpt>
      <trkpt lat="43.76636" lon="5.72917">
        <ele>496.79998779297</ele>
        <time>2020-12-23T10:43:44.000Z</time>
      </trkpt>
      <trkpt lat="43.76633" lon="5.72912">
        <ele>497.79998779297</ele>
        <time>2020-12-23T10:43:47.000Z</time>
      </trkpt>
      <trkpt lat="43.76633" lon="5.7291">
        <ele>498</ele>
        <time>2020-12-23T10:43:48.000Z</time>
      </trkpt>
      <trkpt lat="43.76629" lon="5.72899">
        <ele>499.39999389648</ele>
        <time>2020-12-23T10:43:53.000Z</time>
      </trkpt>
      <trkpt lat="43.76627" lon="5.72895">
        <ele>500.79998779297</ele>
        <time>2020-12-23T10:43:55.000Z</time>
      </trkpt>
      <trkpt lat="43.76626" lon="5.7289">
        <ele>501.79998779297</ele>
        <time>2020-12-23T10:43:57.000Z</time>
      </trkpt>
      <trkpt lat="43.76624" lon="5.72886">
        <ele>502.60000610352</ele>
        <time>2020-12-23T10:43:59.000Z</time>
      </trkpt>
      <trkpt lat="43.76624" lon="5.72883">
        <ele>503.20001220703</ele>
        <time>2020-12-23T10:44:00.000Z</time>
      </trkpt>
      <trkpt lat="43.76623" lon="5.72875">
        <ele>504.39999389648</ele>
        <time>2020-12-23T10:44:03.000Z</time>
      </trkpt>
      <trkpt lat="43.76624" lon="5.72872">
        <ele>504.79998779297</ele>
        <time>2020-12-23T10:44:04.000Z</time>
      </trkpt>
      <trkpt lat="43.76624" lon="5.72869">
        <ele>505.20001220703</ele>
        <time>2020-12-23T10:44:05.000Z</time>
      </trkpt>
      <trkpt lat="43.76626" lon="5.72865">
        <ele>505.60000610352</ele>
        <time>2020-12-23T10:44:06.000Z</time>
      </trkpt>
      <trkpt lat="43.76627" lon="5.72859">
        <ele>506.79998779297</ele>
        <time>2020-12-23T10:44:08.000Z</time>
      </trkpt>
      <trkpt lat="43.76627" lon="5.72856">
        <ele>507.20001220703</ele>
        <time>2020-12-23T10:44:09.000Z</time>
      </trkpt>
      <trkpt lat="43.76627" lon="5.7285">
        <ele>508.20001220703</ele>
        <time>2020-12-23T10:44:11.000Z</time>
      </trkpt>
      <trkpt lat="43.7663" lon="5.7284">
        <ele>509.20001220703</ele>
        <time>2020-12-23T10:44:15.000Z</time>
      </trkpt>
      <trkpt lat="43.7663" lon="5.72837">
        <ele>509.39999389648</ele>
        <time>2020-12-23T10:44:16.000Z</time>
      </trkpt>
      <trkpt lat="43.76631" lon="5.72828">
        <ele>510</ele>
        <time>2020-12-23T10:44:19.000Z</time>
      </trkpt>
      <trkpt lat="43.76629" lon="5.72818">
        <ele>510.39999389648</ele>
        <time>2020-12-23T10:44:22.000Z</time>
      </trkpt>
      <trkpt lat="43.76629" lon="5.72811">
        <ele>510.79998779297</ele>
        <time>2020-12-23T10:44:24.000Z</time>
      </trkpt>
      <trkpt lat="43.76628" lon="5.72804">
        <ele>511</ele>
        <time>2020-12-23T10:44:26.000Z</time>
      </trkpt>
      <trkpt lat="43.76628" lon="5.728">
        <ele>511</ele>
        <time>2020-12-23T10:44:27.000Z</time>
      </trkpt>
      <trkpt lat="43.76626" lon="5.7279">
        <ele>511.39999389648</ele>
        <time>2020-12-23T10:44:29.000Z</time>
      </trkpt>
      <trkpt lat="43.76623" lon="5.72775">
        <ele>512</ele>
        <time>2020-12-23T10:44:32.000Z</time>
      </trkpt>
      <trkpt lat="43.76618" lon="5.72747">
        <ele>512.20001220703</ele>
        <time>2020-12-23T10:44:37.000Z</time>
      </trkpt>
      <trkpt lat="43.76613" lon="5.72713">
        <ele>512</ele>
        <time>2020-12-23T10:44:43.000Z</time>
      </trkpt>
      <trkpt lat="43.7661" lon="5.72686">
        <ele>511</ele>
        <time>2020-12-23T10:44:48.000Z</time>
      </trkpt>
      <trkpt lat="43.76605" lon="5.72661">
        <ele>511</ele>
        <time>2020-12-23T10:44:53.000Z</time>
      </trkpt>
      <trkpt lat="43.76604" lon="5.72636">
        <ele>511.20001220703</ele>
        <time>2020-12-23T10:44:58.000Z</time>
      </trkpt>
      <trkpt lat="43.76609" lon="5.72606">
        <ele>512.59997558594</ele>
        <time>2020-12-23T10:45:04.000Z</time>
      </trkpt>
      <trkpt lat="43.76614" lon="5.72589">
        <ele>513.79998779297</ele>
        <time>2020-12-23T10:45:08.000Z</time>
      </trkpt>
      <trkpt lat="43.76616" lon="5.72584">
        <ele>514</ele>
        <time>2020-12-23T10:45:09.000Z</time>
      </trkpt>
      <trkpt lat="43.76619" lon="5.72574">
        <ele>514.79998779297</ele>
        <time>2020-12-23T10:45:12.000Z</time>
      </trkpt>
      <trkpt lat="43.76622" lon="5.72566">
        <ele>515.59997558594</ele>
        <time>2020-12-23T10:45:14.000Z</time>
      </trkpt>
      <trkpt lat="43.76622" lon="5.72562">
        <ele>516</ele>
        <time>2020-12-23T10:45:15.000Z</time>
      </trkpt>
      <trkpt lat="43.7662" lon="5.72551">
        <ele>516.59997558594</ele>
        <time>2020-12-23T10:45:18.000Z</time>
      </trkpt>
      <trkpt lat="43.76619" lon="5.72548">
        <ele>517.59997558594</ele>
        <time>2020-12-23T10:45:19.000Z</time>
      </trkpt>
      <trkpt lat="43.76614" lon="5.72542">
        <ele>519</ele>
        <time>2020-12-23T10:45:22.000Z</time>
      </trkpt>
      <trkpt lat="43.76611" lon="5.72541">
        <ele>519.40002441406</ele>
        <time>2020-12-23T10:45:23.000Z</time>
      </trkpt>
      <trkpt lat="43.76609" lon="5.72541">
        <ele>520</ele>
        <time>2020-12-23T10:45:24.000Z</time>
      </trkpt>
      <trkpt lat="43.76604" lon="5.72543">
        <ele>520.79998779297</ele>
        <time>2020-12-23T10:45:26.000Z</time>
      </trkpt>
      <trkpt lat="43.76601" lon="5.72544">
        <ele>521.20001220703</ele>
        <time>2020-12-23T10:45:27.000Z</time>
      </trkpt>
      <trkpt lat="43.76598" lon="5.72545">
        <ele>521.40002441406</ele>
        <time>2020-12-23T10:45:28.000Z</time>
      </trkpt>
      <trkpt lat="43.76588" lon="5.72548">
        <ele>522.20001220703</ele>
        <time>2020-12-23T10:45:32.000Z</time>
      </trkpt>
      <trkpt lat="43.76585" lon="5.72548">
        <ele>522.40002441406</ele>
        <time>2020-12-23T10:45:34.000Z</time>
      </trkpt>
      <trkpt lat="43.76582" lon="5.72546">
        <ele>523.59997558594</ele>
        <time>2020-12-23T10:45:39.000Z</time>
      </trkpt>
      <trkpt lat="43.76582" lon="5.72546">
        <ele>523.79998779297</ele>
        <time>2020-12-23T10:45:40.000Z</time>
      </trkpt>
      <trkpt lat="43.76581" lon="5.72547">
        <ele>524.79998779297</ele>
        <time>2020-12-23T10:45:43.000Z</time>
      </trkpt>
      <trkpt lat="43.76581" lon="5.72547">
        <ele>525.40002441406</ele>
        <time>2020-12-23T10:45:48.000Z</time>
      </trkpt>
      <trkpt lat="43.76581" lon="5.72546">
        <ele>525.59997558594</ele>
        <time>2020-12-23T10:46:03.000Z</time>
      </trkpt>
      <trkpt lat="43.76581" lon="5.72546">
        <ele>525.59997558594</ele>
        <time>2020-12-23T10:46:19.000Z</time>
      </trkpt>
      <trkpt lat="43.76581" lon="5.72545">
        <ele>525.59997558594</ele>
        <time>2020-12-23T10:46:33.000Z</time>
      </trkpt>
      <trkpt lat="43.76583" lon="5.72544">
        <ele>525.59997558594</ele>
        <time>2020-12-23T10:46:37.000Z</time>
      </trkpt>
      <trkpt lat="43.76587" lon="5.72544">
        <ele>525.40002441406</ele>
        <time>2020-12-23T10:46:39.000Z</time>
      </trkpt>
      <trkpt lat="43.76606" lon="5.72539">
        <ele>525.40002441406</ele>
        <time>2020-12-23T10:46:44.000Z</time>
      </trkpt>
      <trkpt lat="43.7661" lon="5.72538">
        <ele>525.40002441406</ele>
        <time>2020-12-23T10:46:45.000Z</time>
      </trkpt>
      <trkpt lat="43.76635" lon="5.72527">
        <ele>524</ele>
        <time>2020-12-23T10:46:50.000Z</time>
      </trkpt>
      <trkpt lat="43.76649" lon="5.72518">
        <ele>522.59997558594</ele>
        <time>2020-12-23T10:46:53.000Z</time>
      </trkpt>
      <trkpt lat="43.76657" lon="5.72513">
        <ele>521.59997558594</ele>
        <time>2020-12-23T10:46:55.000Z</time>
      </trkpt>
      <trkpt lat="43.76661" lon="5.72511">
        <ele>521.20001220703</ele>
        <time>2020-12-23T10:46:56.000Z</time>
      </trkpt>
      <trkpt lat="43.76667" lon="5.72507">
        <ele>520.40002441406</ele>
        <time>2020-12-23T10:46:58.000Z</time>
      </trkpt>
      <trkpt lat="43.76678" lon="5.72498">
        <ele>519.40002441406</ele>
        <time>2020-12-23T10:47:02.000Z</time>
      </trkpt>
      <trkpt lat="43.7669" lon="5.72489">
        <ele>518.40002441406</ele>
        <time>2020-12-23T10:47:10.000Z</time>
      </trkpt>
      <trkpt lat="43.76694" lon="5.7249">
        <ele>518.20001220703</ele>
        <time>2020-12-23T10:47:12.000Z</time>
      </trkpt>
      <trkpt lat="43.76699" lon="5.72494">
        <ele>518</ele>
        <time>2020-12-23T10:47:15.000Z</time>
      </trkpt>
      <trkpt lat="43.76711" lon="5.72496">
        <ele>517.59997558594</ele>
        <time>2020-12-23T10:47:20.000Z</time>
      </trkpt>
      <trkpt lat="43.76723" lon="5.72503">
        <ele>517.59997558594</ele>
        <time>2020-12-23T10:47:25.000Z</time>
      </trkpt>
      <trkpt lat="43.76734" lon="5.72512">
        <ele>517.40002441406</ele>
        <time>2020-12-23T10:47:28.000Z</time>
      </trkpt>
      <trkpt lat="43.76737" lon="5.72517">
        <ele>517.40002441406</ele>
        <time>2020-12-23T10:47:29.000Z</time>
      </trkpt>
      <trkpt lat="43.76743" lon="5.72529">
        <ele>517.20001220703</ele>
        <time>2020-12-23T10:47:31.000Z</time>
      </trkpt>
      <trkpt lat="43.76752" lon="5.72535">
        <ele>517</ele>
        <time>2020-12-23T10:47:33.000Z</time>
      </trkpt>
      <trkpt lat="43.76763" lon="5.72533">
        <ele>516.20001220703</ele>
        <time>2020-12-23T10:47:35.000Z</time>
      </trkpt>
      <trkpt lat="43.7677" lon="5.72531">
        <ele>515.59997558594</ele>
        <time>2020-12-23T10:47:36.000Z</time>
      </trkpt>
      <trkpt lat="43.76776" lon="5.72529">
        <ele>514.59997558594</ele>
        <time>2020-12-23T10:47:37.000Z</time>
      </trkpt>
      <trkpt lat="43.76783" lon="5.72527">
        <ele>512.59997558594</ele>
        <time>2020-12-23T10:47:38.000Z</time>
      </trkpt>
      <trkpt lat="43.76789" lon="5.72526">
        <ele>511.39999389648</ele>
        <time>2020-12-23T10:47:39.000Z</time>
      </trkpt>
      <trkpt lat="43.76795" lon="5.72527">
        <ele>510.20001220703</ele>
        <time>2020-12-23T10:47:40.000Z</time>
      </trkpt>
      <trkpt lat="43.768" lon="5.72528">
        <ele>509.20001220703</ele>
        <time>2020-12-23T10:47:41.000Z</time>
      </trkpt>
      <trkpt lat="43.76805" lon="5.72528">
        <ele>508</ele>
        <time>2020-12-23T10:47:42.000Z</time>
      </trkpt>
      <trkpt lat="43.76812" lon="5.72527">
        <ele>506.60000610352</ele>
        <time>2020-12-23T10:47:44.000Z</time>
      </trkpt>
      <trkpt lat="43.76816" lon="5.72527">
        <ele>506</ele>
        <time>2020-12-23T10:47:45.000Z</time>
      </trkpt>
      <trkpt lat="43.76819" lon="5.72527">
        <ele>505.20001220703</ele>
        <time>2020-12-23T10:47:46.000Z</time>
      </trkpt>
      <trkpt lat="43.7683" lon="5.72528">
        <ele>504.20001220703</ele>
        <time>2020-12-23T10:47:50.000Z</time>
      </trkpt>
      <trkpt lat="43.76833" lon="5.72528">
        <ele>504</ele>
        <time>2020-12-23T10:47:51.000Z</time>
      </trkpt>
      <trkpt lat="43.7685" lon="5.72531">
        <ele>503.79998779297</ele>
        <time>2020-12-23T10:47:56.000Z</time>
      </trkpt>
      <trkpt lat="43.76871" lon="5.72538">
        <ele>503.60000610352</ele>
        <time>2020-12-23T10:48:01.000Z</time>
      </trkpt>
      <trkpt lat="43.76876" lon="5.7254">
        <ele>503.39999389648</ele>
        <time>2020-12-23T10:48:02.000Z</time>
      </trkpt>
      <trkpt lat="43.76885" lon="5.72549">
        <ele>502.79998779297</ele>
        <time>2020-12-23T10:48:04.000Z</time>
      </trkpt>
      <trkpt lat="43.7689" lon="5.72561">
        <ele>501.79998779297</ele>
        <time>2020-12-23T10:48:06.000Z</time>
      </trkpt>
      <trkpt lat="43.76895" lon="5.72573">
        <ele>501.20001220703</ele>
        <time>2020-12-23T10:48:08.000Z</time>
      </trkpt>
      <trkpt lat="43.76897" lon="5.72578">
        <ele>500.60000610352</ele>
        <time>2020-12-23T10:48:09.000Z</time>
      </trkpt>
      <trkpt lat="43.76899" lon="5.72583">
        <ele>499.39999389648</ele>
        <time>2020-12-23T10:48:11.000Z</time>
      </trkpt>
      <trkpt lat="43.769" lon="5.72588">
        <ele>498</ele>
        <time>2020-12-23T10:48:14.000Z</time>
      </trkpt>
      <trkpt lat="43.769" lon="5.72588">
        <ele>497</ele>
        <time>2020-12-23T10:48:16.000Z</time>
      </trkpt>
      <trkpt lat="43.769" lon="5.72588">
        <ele>496</ele>
        <time>2020-12-23T10:48:18.000Z</time>
      </trkpt>
      <trkpt lat="43.769" lon="5.72588">
        <ele>494.79998779297</ele>
        <time>2020-12-23T10:48:22.000Z</time>
      </trkpt>
      <trkpt lat="43.76901" lon="5.72589">
        <ele>494.60000610352</ele>
        <time>2020-12-23T10:48:25.000Z</time>
      </trkpt>
      <trkpt lat="43.76903" lon="5.72592">
        <ele>494.39999389648</ele>
        <time>2020-12-23T10:48:31.000Z</time>
      </trkpt>
      <trkpt lat="43.76904" lon="5.72593">
        <ele>494.39999389648</ele>
        <time>2020-12-23T10:48:32.000Z</time>
      </trkpt>
      <trkpt lat="43.76911" lon="5.72607">
        <ele>494.39999389648</ele>
        <time>2020-12-23T10:48:36.000Z</time>
      </trkpt>
      <trkpt lat="43.76921" lon="5.72631">
        <ele>494.20001220703</ele>
        <time>2020-12-23T10:48:40.000Z</time>
      </trkpt>
      <trkpt lat="43.76929" lon="5.72638">
        <ele>493.60000610352</ele>
        <time>2020-12-23T10:48:42.000Z</time>
      </trkpt>
      <trkpt lat="43.76933" lon="5.72641">
        <ele>493.20001220703</ele>
        <time>2020-12-23T10:48:43.000Z</time>
      </trkpt>
      <trkpt lat="43.76937" lon="5.72642">
        <ele>492.60000610352</ele>
        <time>2020-12-23T10:48:44.000Z</time>
      </trkpt>
      <trkpt lat="43.76946" lon="5.72646">
        <ele>491.39999389648</ele>
        <time>2020-12-23T10:48:46.000Z</time>
      </trkpt>
      <trkpt lat="43.7695" lon="5.72648">
        <ele>491</ele>
        <time>2020-12-23T10:48:47.000Z</time>
      </trkpt>
      <trkpt lat="43.7696" lon="5.72655">
        <ele>490.60000610352</ele>
        <time>2020-12-23T10:48:49.000Z</time>
      </trkpt>
      <trkpt lat="43.76972" lon="5.72662">
        <ele>490.20001220703</ele>
        <time>2020-12-23T10:48:52.000Z</time>
      </trkpt>
      <trkpt lat="43.76973" lon="5.72663">
        <ele>490.20001220703</ele>
        <time>2020-12-23T10:48:53.000Z</time>
      </trkpt>
      <trkpt lat="43.76974" lon="5.72663">
        <ele>490</ele>
        <time>2020-12-23T10:49:01.000Z</time>
      </trkpt>
      <trkpt lat="43.76974" lon="5.72663">
        <ele>490</ele>
        <time>2020-12-23T10:49:19.000Z</time>
      </trkpt>
      <trkpt lat="43.76974" lon="5.72663">
        <ele>490</ele>
        <time>2020-12-23T10:49:40.000Z</time>
      </trkpt>
      <trkpt lat="43.76974" lon="5.72663">
        <ele>490</ele>
        <time>2020-12-23T10:49:57.000Z</time>
      </trkpt>
      <trkpt lat="43.76974" lon="5.72663">
        <ele>490</ele>
        <time>2020-12-23T10:50:15.000Z</time>
      </trkpt>
      <trkpt lat="43.76974" lon="5.72663">
        <ele>490.20001220703</ele>
        <time>2020-12-23T10:50:36.000Z</time>
      </trkpt>
      <trkpt lat="43.76974" lon="5.72663">
        <ele>490.20001220703</ele>
        <time>2020-12-23T10:51:14.000Z</time>
      </trkpt>
      <trkpt lat="43.76974" lon="5.72663">
        <ele>490.20001220703</ele>
        <time>2020-12-23T10:51:40.000Z</time>
      </trkpt>
      <trkpt lat="43.76975" lon="5.72663">
        <ele>490.20001220703</ele>
        <time>2020-12-23T10:51:50.000Z</time>
      </trkpt>
      <trkpt lat="43.76976" lon="5.72664">
        <ele>490</ele>
        <time>2020-12-23T10:52:02.000Z</time>
      </trkpt>
      <trkpt lat="43.76976" lon="5.72664">
        <ele>490</ele>
        <time>2020-12-23T10:52:12.000Z</time>
      </trkpt>
      <trkpt lat="43.76976" lon="5.72664">
        <ele>490</ele>
        <time>2020-12-23T10:52:31.000Z</time>
      </trkpt>
      <trkpt lat="43.76976" lon="5.72664">
        <ele>490</ele>
        <time>2020-12-23T10:53:06.000Z</time>
      </trkpt>
      <trkpt lat="43.76976" lon="5.72664">
        <ele>490</ele>
        <time>2020-12-23T10:53:28.000Z</time>
      </trkpt>
      <trkpt lat="43.76976" lon="5.72665">
        <ele>490.20001220703</ele>
        <time>2020-12-23T10:53:42.000Z</time>
      </trkpt>
      <trkpt lat="43.76976" lon="5.72665">
        <ele>490.20001220703</ele>
        <time>2020-12-23T10:53:58.000Z</time>
      </trkpt>
      <trkpt lat="43.76976" lon="5.72665">
        <ele>490.20001220703</ele>
        <time>2020-12-23T10:54:28.000Z</time>
      </trkpt>
      <trkpt lat="43.76982" lon="5.72668">
        <ele>490.20001220703</ele>
        <time>2020-12-23T10:54:34.000Z</time>
      </trkpt>
      <trkpt lat="43.76993" lon="5.72678">
        <ele>490.20001220703</ele>
        <time>2020-12-23T10:54:39.000Z</time>
      </trkpt>
      <trkpt lat="43.77004" lon="5.72685">
        <ele>490</ele>
        <time>2020-12-23T10:54:43.000Z</time>
      </trkpt>
      <trkpt lat="43.77012" lon="5.72688">
        <ele>489.79998779297</ele>
        <time>2020-12-23T10:54:45.000Z</time>
      </trkpt>
      <trkpt lat="43.77016" lon="5.7269">
        <ele>489.79998779297</ele>
        <time>2020-12-23T10:54:46.000Z</time>
      </trkpt>
      <trkpt lat="43.77021" lon="5.72694">
        <ele>489.60000610352</ele>
        <time>2020-12-23T10:54:47.000Z</time>
      </trkpt>
      <trkpt lat="43.77035" lon="5.72706">
        <ele>489.39999389648</ele>
        <time>2020-12-23T10:54:50.000Z</time>
      </trkpt>
      <trkpt lat="43.77044" lon="5.72715">
        <ele>488.60000610352</ele>
        <time>2020-12-23T10:54:52.000Z</time>
      </trkpt>
      <trkpt lat="43.77048" lon="5.7272">
        <ele>488.39999389648</ele>
        <time>2020-12-23T10:54:53.000Z</time>
      </trkpt>
      <trkpt lat="43.77057" lon="5.72731">
        <ele>487.39999389648</ele>
        <time>2020-12-23T10:54:55.000Z</time>
      </trkpt>
      <trkpt lat="43.77065" lon="5.72741">
        <ele>486.20001220703</ele>
        <time>2020-12-23T10:54:57.000Z</time>
      </trkpt>
      <trkpt lat="43.7707" lon="5.72746">
        <ele>484.60000610352</ele>
        <time>2020-12-23T10:54:59.000Z</time>
      </trkpt>
      <trkpt lat="43.77075" lon="5.72749">
        <ele>483.79998779297</ele>
        <time>2020-12-23T10:55:01.000Z</time>
      </trkpt>
      <trkpt lat="43.77077" lon="5.72751">
        <ele>483.39999389648</ele>
        <time>2020-12-23T10:55:02.000Z</time>
      </trkpt>
      <trkpt lat="43.77081" lon="5.72753">
        <ele>481.20001220703</ele>
        <time>2020-12-23T10:55:04.000Z</time>
      </trkpt>
      <trkpt lat="43.77084" lon="5.72756">
        <ele>480.79998779297</ele>
        <time>2020-12-23T10:55:06.000Z</time>
      </trkpt>
      <trkpt lat="43.77097" lon="5.72768">
        <ele>480.20001220703</ele>
        <time>2020-12-23T10:55:12.000Z</time>
      </trkpt>
      <trkpt lat="43.77109" lon="5.72796">
        <ele>480.39999389648</ele>
        <time>2020-12-23T10:55:18.000Z</time>
      </trkpt>
      <trkpt lat="43.77112" lon="5.72812">
        <ele>480.39999389648</ele>
        <time>2020-12-23T10:55:21.000Z</time>
      </trkpt>
      <trkpt lat="43.77116" lon="5.72816">
        <ele>480.39999389648</ele>
        <time>2020-12-23T10:55:24.000Z</time>
      </trkpt>
      <trkpt lat="43.77118" lon="5.72816">
        <ele>480.39999389648</ele>
        <time>2020-12-23T10:55:25.000Z</time>
      </trkpt>
      <trkpt lat="43.7712" lon="5.72816">
        <ele>480.20001220703</ele>
        <time>2020-12-23T10:55:26.000Z</time>
      </trkpt>
      <trkpt lat="43.77126" lon="5.72814">
        <ele>479.60000610352</ele>
        <time>2020-12-23T10:55:29.000Z</time>
      </trkpt>
      <trkpt lat="43.77128" lon="5.72816">
        <ele>479.60000610352</ele>
        <time>2020-12-23T10:55:30.000Z</time>
      </trkpt>
      <trkpt lat="43.77131" lon="5.72825">
        <ele>479</ele>
        <time>2020-12-23T10:55:33.000Z</time>
      </trkpt>
      <trkpt lat="43.77133" lon="5.72829">
        <ele>478.39999389648</ele>
        <time>2020-12-23T10:55:34.000Z</time>
      </trkpt>
      <trkpt lat="43.77134" lon="5.72831">
        <ele>477.60000610352</ele>
        <time>2020-12-23T10:55:35.000Z</time>
      </trkpt>
      <trkpt lat="43.77135" lon="5.72834">
        <ele>476.39999389648</ele>
        <time>2020-12-23T10:55:37.000Z</time>
      </trkpt>
      <trkpt lat="43.77136" lon="5.72836">
        <ele>475.79998779297</ele>
        <time>2020-12-23T10:55:38.000Z</time>
      </trkpt>
      <trkpt lat="43.77136" lon="5.72838">
        <ele>475.20001220703</ele>
        <time>2020-12-23T10:55:39.000Z</time>
      </trkpt>
      <trkpt lat="43.77141" lon="5.72848">
        <ele>474</ele>
        <time>2020-12-23T10:55:42.000Z</time>
      </trkpt>
      <trkpt lat="43.77141" lon="5.72851">
        <ele>473.79998779297</ele>
        <time>2020-12-23T10:55:43.000Z</time>
      </trkpt>
      <trkpt lat="43.77141" lon="5.72871">
        <ele>473.60000610352</ele>
        <time>2020-12-23T10:55:48.000Z</time>
      </trkpt>
      <trkpt lat="43.77142" lon="5.72894">
        <ele>473</ele>
        <time>2020-12-23T10:55:53.000Z</time>
      </trkpt>
      <trkpt lat="43.77145" lon="5.72906">
        <ele>472.79998779297</ele>
        <time>2020-12-23T10:55:57.000Z</time>
      </trkpt>
      <trkpt lat="43.77149" lon="5.72909">
        <ele>472.60000610352</ele>
        <time>2020-12-23T10:56:05.000Z</time>
      </trkpt>
      <trkpt lat="43.77154" lon="5.72916">
        <ele>472</ele>
        <time>2020-12-23T10:56:10.000Z</time>
      </trkpt>
      <trkpt lat="43.77155" lon="5.72918">
        <ele>471.79998779297</ele>
        <time>2020-12-23T10:56:11.000Z</time>
      </trkpt>
      <trkpt lat="43.77163" lon="5.72927">
        <ele>470.79998779297</ele>
        <time>2020-12-23T10:56:14.000Z</time>
      </trkpt>
      <trkpt lat="43.77165" lon="5.72931">
        <ele>470.39999389648</ele>
        <time>2020-12-23T10:56:15.000Z</time>
      </trkpt>
      <trkpt lat="43.77166" lon="5.72936">
        <ele>470</ele>
        <time>2020-12-23T10:56:16.000Z</time>
      </trkpt>
      <trkpt lat="43.77166" lon="5.72941">
        <ele>469.20001220703</ele>
        <time>2020-12-23T10:56:17.000Z</time>
      </trkpt>
      <trkpt lat="43.77167" lon="5.72944">
        <ele>468.79998779297</ele>
        <time>2020-12-23T10:56:18.000Z</time>
      </trkpt>
      <trkpt lat="43.7717" lon="5.72946">
        <ele>468.60000610352</ele>
        <time>2020-12-23T10:56:19.000Z</time>
      </trkpt>
      <trkpt lat="43.77177" lon="5.72946">
        <ele>468</ele>
        <time>2020-12-23T10:56:21.000Z</time>
      </trkpt>
      <trkpt lat="43.77184" lon="5.72949">
        <ele>467.60000610352</ele>
        <time>2020-12-23T10:56:23.000Z</time>
      </trkpt>
      <trkpt lat="43.77188" lon="5.72953">
        <ele>467.39999389648</ele>
        <time>2020-12-23T10:56:24.000Z</time>
      </trkpt>
      <trkpt lat="43.77194" lon="5.72969">
        <ele>467</ele>
        <time>2020-12-23T10:56:27.000Z</time>
      </trkpt>
      <trkpt lat="43.77195" lon="5.72972">
        <ele>466.79998779297</ele>
        <time>2020-12-23T10:56:28.000Z</time>
      </trkpt>
      <trkpt lat="43.77199" lon="5.72976">
        <ele>466.79998779297</ele>
        <time>2020-12-23T10:56:30.000Z</time>
      </trkpt>
      <trkpt lat="43.77203" lon="5.72977">
        <ele>466.79998779297</ele>
        <time>2020-12-23T10:56:31.000Z</time>
      </trkpt>
      <trkpt lat="43.77213" lon="5.72972">
        <ele>466.20001220703</ele>
        <time>2020-12-23T10:56:34.000Z</time>
      </trkpt>
      <trkpt lat="43.77213" lon="5.7296">
        <ele>465.79998779297</ele>
        <time>2020-12-23T10:56:37.000Z</time>
      </trkpt>
      <trkpt lat="43.77212" lon="5.72955">
        <ele>465.79998779297</ele>
        <time>2020-12-23T10:56:38.000Z</time>
      </trkpt>
      <trkpt lat="43.77212" lon="5.72938">
        <ele>465.60000610352</ele>
        <time>2020-12-23T10:56:42.000Z</time>
      </trkpt>
      <trkpt lat="43.77205" lon="5.72936">
        <ele>465</ele>
        <time>2020-12-23T10:56:46.000Z</time>
      </trkpt>
      <trkpt lat="43.77204" lon="5.72938">
        <ele>464.60000610352</ele>
        <time>2020-12-23T10:56:47.000Z</time>
      </trkpt>
      <trkpt lat="43.77198" lon="5.72942">
        <ele>463.60000610352</ele>
        <time>2020-12-23T10:56:51.000Z</time>
      </trkpt>
      <trkpt lat="43.77198" lon="5.72935">
        <ele>463.39999389648</ele>
        <time>2020-12-23T10:56:54.000Z</time>
      </trkpt>
      <trkpt lat="43.77205" lon="5.72922">
        <ele>462.79998779297</ele>
        <time>2020-12-23T10:56:58.000Z</time>
      </trkpt>
      <trkpt lat="43.77209" lon="5.7292">
        <ele>462.39999389648</ele>
        <time>2020-12-23T10:57:00.000Z</time>
      </trkpt>
      <trkpt lat="43.77211" lon="5.72919">
        <ele>462.39999389648</ele>
        <time>2020-12-23T10:57:01.000Z</time>
      </trkpt>
      <trkpt lat="43.77211" lon="5.72917">
        <ele>462.39999389648</ele>
        <time>2020-12-23T10:57:02.000Z</time>
      </trkpt>
      <trkpt lat="43.77214" lon="5.72905">
        <ele>462</ele>
        <time>2020-12-23T10:57:05.000Z</time>
      </trkpt>
      <trkpt lat="43.77217" lon="5.729">
        <ele>461.39999389648</ele>
        <time>2020-12-23T10:57:06.000Z</time>
      </trkpt>
      <trkpt lat="43.77225" lon="5.7289">
        <ele>460</ele>
        <time>2020-12-23T10:57:08.000Z</time>
      </trkpt>
      <trkpt lat="43.77235" lon="5.72883">
        <ele>458.79998779297</ele>
        <time>2020-12-23T10:57:10.000Z</time>
      </trkpt>
      <trkpt lat="43.77244" lon="5.72871">
        <ele>457</ele>
        <time>2020-12-23T10:57:12.000Z</time>
      </trkpt>
      <trkpt lat="43.77248" lon="5.72865">
        <ele>456</ele>
        <time>2020-12-23T10:57:13.000Z</time>
      </trkpt>
      <trkpt lat="43.77251" lon="5.72859">
        <ele>454.60000610352</ele>
        <time>2020-12-23T10:57:14.000Z</time>
      </trkpt>
      <trkpt lat="43.77252" lon="5.72854">
        <ele>453.60000610352</ele>
        <time>2020-12-23T10:57:15.000Z</time>
      </trkpt>
      <trkpt lat="43.77253" lon="5.72851">
        <ele>452.20001220703</ele>
        <time>2020-12-23T10:57:16.000Z</time>
      </trkpt>
      <trkpt lat="43.77255" lon="5.72846">
        <ele>450.60000610352</ele>
        <time>2020-12-23T10:57:18.000Z</time>
      </trkpt>
      <trkpt lat="43.77254" lon="5.72843">
        <ele>449.79998779297</ele>
        <time>2020-12-23T10:57:19.000Z</time>
      </trkpt>
      <trkpt lat="43.77253" lon="5.72841">
        <ele>449.20001220703</ele>
        <time>2020-12-23T10:57:20.000Z</time>
      </trkpt>
      <trkpt lat="43.77248" lon="5.72836">
        <ele>447</ele>
        <time>2020-12-23T10:57:22.000Z</time>
      </trkpt>
      <trkpt lat="43.77245" lon="5.72832">
        <ele>445.79998779297</ele>
        <time>2020-12-23T10:57:24.000Z</time>
      </trkpt>
      <trkpt lat="43.77244" lon="5.72831">
        <ele>445.60000610352</ele>
        <time>2020-12-23T10:57:25.000Z</time>
      </trkpt>
      <trkpt lat="43.77243" lon="5.72829">
        <ele>445.60000610352</ele>
        <time>2020-12-23T10:57:26.000Z</time>
      </trkpt>
      <trkpt lat="43.77242" lon="5.7282">
        <ele>445.39999389648</ele>
        <time>2020-12-23T10:57:29.000Z</time>
      </trkpt>
      <trkpt lat="43.77241" lon="5.72805">
        <ele>445.20001220703</ele>
        <time>2020-12-23T10:57:34.000Z</time>
      </trkpt>
      <trkpt lat="43.77241" lon="5.72786">
        <ele>445.20001220703</ele>
        <time>2020-12-23T10:57:38.000Z</time>
      </trkpt>
      <trkpt lat="43.77237" lon="5.7278">
        <ele>445.20001220703</ele>
        <time>2020-12-23T10:57:39.000Z</time>
      </trkpt>
      <trkpt lat="43.77231" lon="5.72757">
        <ele>445.20001220703</ele>
        <time>2020-12-23T10:57:43.000Z</time>
      </trkpt>
      <trkpt lat="43.77232" lon="5.72753">
        <ele>444.79998779297</ele>
        <time>2020-12-23T10:57:44.000Z</time>
      </trkpt>
      <trkpt lat="43.77237" lon="5.72745">
        <ele>444.39999389648</ele>
        <time>2020-12-23T10:57:46.000Z</time>
      </trkpt>
      <trkpt lat="43.7724" lon="5.7274">
        <ele>444.20001220703</ele>
        <time>2020-12-23T10:57:47.000Z</time>
      </trkpt>
      <trkpt lat="43.77247" lon="5.72728">
        <ele>443.79998779297</ele>
        <time>2020-12-23T10:57:49.000Z</time>
      </trkpt>
      <trkpt lat="43.77251" lon="5.7272">
        <ele>443.20001220703</ele>
        <time>2020-12-23T10:57:50.000Z</time>
      </trkpt>
      <trkpt lat="43.77259" lon="5.72704">
        <ele>442.79998779297</ele>
        <time>2020-12-23T10:57:52.000Z</time>
      </trkpt>
      <trkpt lat="43.77273" lon="5.72683">
        <ele>440.79998779297</ele>
        <time>2020-12-23T10:57:55.000Z</time>
      </trkpt>
      <trkpt lat="43.7728" lon="5.72672">
        <ele>438.60000610352</ele>
        <time>2020-12-23T10:57:57.000Z</time>
      </trkpt>
      <trkpt lat="43.77283" lon="5.72668">
        <ele>437.20001220703</ele>
        <time>2020-12-23T10:57:58.000Z</time>
      </trkpt>
      <trkpt lat="43.77284" lon="5.72665">
        <ele>436.20001220703</ele>
        <time>2020-12-23T10:57:59.000Z</time>
      </trkpt>
      <trkpt lat="43.77286" lon="5.72663">
        <ele>435</ele>
        <time>2020-12-23T10:58:01.000Z</time>
      </trkpt>
      <trkpt lat="43.77286" lon="5.72662">
        <ele>434.20001220703</ele>
        <time>2020-12-23T10:58:03.000Z</time>
      </trkpt>
      <trkpt lat="43.77286" lon="5.72662">
        <ele>434</ele>
        <time>2020-12-23T10:58:08.000Z</time>
      </trkpt>
      <trkpt lat="43.77286" lon="5.72662">
        <ele>433.79998779297</ele>
        <time>2020-12-23T10:58:22.000Z</time>
      </trkpt>
      <trkpt lat="43.77286" lon="5.72659">
        <ele>433.79998779297</ele>
        <time>2020-12-23T10:58:26.000Z</time>
      </trkpt>
      <trkpt lat="43.77287" lon="5.72653">
        <ele>433.79998779297</ele>
        <time>2020-12-23T10:58:28.000Z</time>
      </trkpt>
      <trkpt lat="43.77293" lon="5.72636">
        <ele>433.79998779297</ele>
        <time>2020-12-23T10:58:31.000Z</time>
      </trkpt>
      <trkpt lat="43.77298" lon="5.72623">
        <ele>433.79998779297</ele>
        <time>2020-12-23T10:58:33.000Z</time>
      </trkpt>
      <trkpt lat="43.77309" lon="5.72592">
        <ele>432.79998779297</ele>
        <time>2020-12-23T10:58:37.000Z</time>
      </trkpt>
      <trkpt lat="43.77312" lon="5.72583">
        <ele>432.20001220703</ele>
        <time>2020-12-23T10:58:38.000Z</time>
      </trkpt>
      <trkpt lat="43.77318" lon="5.72556">
        <ele>431.39999389648</ele>
        <time>2020-12-23T10:58:41.000Z</time>
      </trkpt>
      <trkpt lat="43.7732" lon="5.72546">
        <ele>431</ele>
        <time>2020-12-23T10:58:42.000Z</time>
      </trkpt>
      <trkpt lat="43.7732" lon="5.72536">
        <ele>430.39999389648</ele>
        <time>2020-12-23T10:58:43.000Z</time>
      </trkpt>
      <trkpt lat="43.77319" lon="5.72527">
        <ele>430</ele>
        <time>2020-12-23T10:58:44.000Z</time>
      </trkpt>
      <trkpt lat="43.77313" lon="5.72512">
        <ele>428.39999389648</ele>
        <time>2020-12-23T10:58:46.000Z</time>
      </trkpt>
      <trkpt lat="43.77303" lon="5.72501">
        <ele>427.20001220703</ele>
        <time>2020-12-23T10:58:48.000Z</time>
      </trkpt>
      <trkpt lat="43.77298" lon="5.72497">
        <ele>426.60000610352</ele>
        <time>2020-12-23T10:58:49.000Z</time>
      </trkpt>
      <trkpt lat="43.77286" lon="5.72492">
        <ele>425.79998779297</ele>
        <time>2020-12-23T10:58:51.000Z</time>
      </trkpt>
      <trkpt lat="43.77274" lon="5.72488">
        <ele>425.20001220703</ele>
        <time>2020-12-23T10:58:53.000Z</time>
      </trkpt>
      <trkpt lat="43.77269" lon="5.72488">
        <ele>425</ele>
        <time>2020-12-23T10:58:54.000Z</time>
      </trkpt>
      <trkpt lat="43.77264" lon="5.72488">
        <ele>424.60000610352</ele>
        <time>2020-12-23T10:58:55.000Z</time>
      </trkpt>
      <trkpt lat="43.77248" lon="5.72491">
        <ele>423.79998779297</ele>
        <time>2020-12-23T10:58:59.000Z</time>
      </trkpt>
      <trkpt lat="43.77238" lon="5.72491">
        <ele>423.60000610352</ele>
        <time>2020-12-23T10:59:04.000Z</time>
      </trkpt>
      <trkpt lat="43.77238" lon="5.72491">
        <ele>423.79998779297</ele>
        <time>2020-12-23T10:59:09.000Z</time>
      </trkpt>
      <trkpt lat="43.77237" lon="5.72491">
        <ele>424</ele>
        <time>2020-12-23T10:59:18.000Z</time>
      </trkpt>
      <trkpt lat="43.77236" lon="5.7249">
        <ele>424</ele>
        <time>2020-12-23T10:59:34.000Z</time>
      </trkpt>
      <trkpt lat="43.77227" lon="5.72492">
        <ele>423.79998779297</ele>
        <time>2020-12-23T10:59:38.000Z</time>
      </trkpt>
      <trkpt lat="43.7722" lon="5.72494">
        <ele>423.79998779297</ele>
        <time>2020-12-23T10:59:42.000Z</time>
      </trkpt>
      <trkpt lat="43.77214" lon="5.72495">
        <ele>424.20001220703</ele>
        <time>2020-12-23T10:59:48.000Z</time>
      </trkpt>
      <trkpt lat="43.77213" lon="5.72494">
        <ele>424.20001220703</ele>
        <time>2020-12-23T10:59:49.000Z</time>
      </trkpt>
      <trkpt lat="43.7721" lon="5.72488">
        <ele>424.39999389648</ele>
        <time>2020-12-23T10:59:53.000Z</time>
      </trkpt>
      <trkpt lat="43.77209" lon="5.72486">
        <ele>424.60000610352</ele>
        <time>2020-12-23T10:59:54.000Z</time>
      </trkpt>
      <trkpt lat="43.77209" lon="5.72482">
        <ele>424.60000610352</ele>
        <time>2020-12-23T10:59:56.000Z</time>
      </trkpt>
      <trkpt lat="43.77207" lon="5.72482">
        <ele>424.60000610352</ele>
        <time>2020-12-23T10:59:58.000Z</time>
      </trkpt>
      <trkpt lat="43.77205" lon="5.72482">
        <ele>424.60000610352</ele>
        <time>2020-12-23T10:59:59.000Z</time>
      </trkpt>
      <trkpt lat="43.77196" lon="5.72484">
        <ele>425.60000610352</ele>
        <time>2020-12-23T11:00:04.000Z</time>
      </trkpt>
      <trkpt lat="43.77191" lon="5.72485">
        <ele>426.39999389648</ele>
        <time>2020-12-23T11:00:06.000Z</time>
      </trkpt>
      <trkpt lat="43.77189" lon="5.72486">
        <ele>426.60000610352</ele>
        <time>2020-12-23T11:00:07.000Z</time>
      </trkpt>
      <trkpt lat="43.77182" lon="5.72488">
        <ele>428</ele>
        <time>2020-12-23T11:00:10.000Z</time>
      </trkpt>
      <trkpt lat="43.77176" lon="5.7249">
        <ele>429.20001220703</ele>
        <time>2020-12-23T11:00:13.000Z</time>
      </trkpt>
      <trkpt lat="43.77172" lon="5.72491">
        <ele>430</ele>
        <time>2020-12-23T11:00:15.000Z</time>
      </trkpt>
      <trkpt lat="43.7717" lon="5.72492">
        <ele>430.20001220703</ele>
        <time>2020-12-23T11:00:16.000Z</time>
      </trkpt>
      <trkpt lat="43.77159" lon="5.72494">
        <ele>431.39999389648</ele>
        <time>2020-12-23T11:00:21.000Z</time>
      </trkpt>
      <trkpt lat="43.77157" lon="5.72494">
        <ele>431.79998779297</ele>
        <time>2020-12-23T11:00:22.000Z</time>
      </trkpt>
      <trkpt lat="43.77152" lon="5.72496">
        <ele>432.60000610352</ele>
        <time>2020-12-23T11:00:25.000Z</time>
      </trkpt>
      <trkpt lat="43.77144" lon="5.72497">
        <ele>433.79998779297</ele>
        <time>2020-12-23T11:00:29.000Z</time>
      </trkpt>
      <trkpt lat="43.7714" lon="5.72496">
        <ele>435</ele>
        <time>2020-12-23T11:00:32.000Z</time>
      </trkpt>
      <trkpt lat="43.77132" lon="5.72496">
        <ele>436</ele>
        <time>2020-12-23T11:00:36.000Z</time>
      </trkpt>
      <trkpt lat="43.77129" lon="5.72496">
        <ele>437.20001220703</ele>
        <time>2020-12-23T11:00:38.000Z</time>
      </trkpt>
      <trkpt lat="43.77123" lon="5.72497">
        <ele>438.39999389648</ele>
        <time>2020-12-23T11:00:41.000Z</time>
      </trkpt>
      <trkpt lat="43.77117" lon="5.72497">
        <ele>439.20001220703</ele>
        <time>2020-12-23T11:00:44.000Z</time>
      </trkpt>
      <trkpt lat="43.77115" lon="5.72498">
        <ele>439.60000610352</ele>
        <time>2020-12-23T11:00:45.000Z</time>
      </trkpt>
      <trkpt lat="43.7711" lon="5.72499">
        <ele>440.39999389648</ele>
        <time>2020-12-23T11:00:48.000Z</time>
      </trkpt>
      <trkpt lat="43.77103" lon="5.725">
        <ele>441.60000610352</ele>
        <time>2020-12-23T11:00:51.000Z</time>
      </trkpt>
      <trkpt lat="43.77097" lon="5.72502">
        <ele>443</ele>
        <time>2020-12-23T11:00:54.000Z</time>
      </trkpt>
      <trkpt lat="43.77092" lon="5.72505">
        <ele>444.39999389648</ele>
        <time>2020-12-23T11:00:57.000Z</time>
      </trkpt>
      <trkpt lat="43.7709" lon="5.72506">
        <ele>444.79998779297</ele>
        <time>2020-12-23T11:00:58.000Z</time>
      </trkpt>
      <trkpt lat="43.77085" lon="5.72509">
        <ele>445.60000610352</ele>
        <time>2020-12-23T11:01:01.000Z</time>
      </trkpt>
      <trkpt lat="43.77078" lon="5.72514">
        <ele>447.20001220703</ele>
        <time>2020-12-23T11:01:05.000Z</time>
      </trkpt>
      <trkpt lat="43.77074" lon="5.72516">
        <ele>448.39999389648</ele>
        <time>2020-12-23T11:01:08.000Z</time>
      </trkpt>
      <trkpt lat="43.77071" lon="5.72516">
        <ele>449.60000610352</ele>
        <time>2020-12-23T11:01:11.000Z</time>
      </trkpt>
      <trkpt lat="43.77069" lon="5.72514">
        <ele>450.39999389648</ele>
        <time>2020-12-23T11:01:13.000Z</time>
      </trkpt>
      <trkpt lat="43.77067" lon="5.72513">
        <ele>450.79998779297</ele>
        <time>2020-12-23T11:01:14.000Z</time>
      </trkpt>
      <trkpt lat="43.77066" lon="5.72507">
        <ele>452.20001220703</ele>
        <time>2020-12-23T11:01:17.000Z</time>
      </trkpt>
      <trkpt lat="43.77063" lon="5.725">
        <ele>453.60000610352</ele>
        <time>2020-12-23T11:01:20.000Z</time>
      </trkpt>
      <trkpt lat="43.77062" lon="5.72497">
        <ele>454.20001220703</ele>
        <time>2020-12-23T11:01:21.000Z</time>
      </trkpt>
      <trkpt lat="43.77062" lon="5.72495">
        <ele>454.60000610352</ele>
        <time>2020-12-23T11:01:22.000Z</time>
      </trkpt>
      <trkpt lat="43.77061" lon="5.7249">
        <ele>455.60000610352</ele>
        <time>2020-12-23T11:01:24.000Z</time>
      </trkpt>
      <trkpt lat="43.77061" lon="5.72488">
        <ele>456</ele>
        <time>2020-12-23T11:01:25.000Z</time>
      </trkpt>
      <trkpt lat="43.77063" lon="5.7248">
        <ele>456.79998779297</ele>
        <time>2020-12-23T11:01:28.000Z</time>
      </trkpt>
      <trkpt lat="43.77067" lon="5.72472">
        <ele>458</ele>
        <time>2020-12-23T11:01:31.000Z</time>
      </trkpt>
      <trkpt lat="43.7707" lon="5.72468">
        <ele>459.39999389648</ele>
        <time>2020-12-23T11:01:33.000Z</time>
      </trkpt>
      <trkpt lat="43.77075" lon="5.72462">
        <ele>460.79998779297</ele>
        <time>2020-12-23T11:01:36.000Z</time>
      </trkpt>
      <trkpt lat="43.77079" lon="5.72448">
        <ele>461.60000610352</ele>
        <time>2020-12-23T11:01:42.000Z</time>
      </trkpt>
      <trkpt lat="43.7708" lon="5.72446">
        <ele>461.79998779297</ele>
        <time>2020-12-23T11:01:43.000Z</time>
      </trkpt>
      <trkpt lat="43.77082" lon="5.72436">
        <ele>462.60000610352</ele>
        <time>2020-12-23T11:01:48.000Z</time>
      </trkpt>
      <trkpt lat="43.77085" lon="5.72432">
        <ele>463</ele>
        <time>2020-12-23T11:01:50.000Z</time>
      </trkpt>
      <trkpt lat="43.77087" lon="5.72426">
        <ele>464.20001220703</ele>
        <time>2020-12-23T11:01:53.000Z</time>
      </trkpt>
      <trkpt lat="43.77089" lon="5.72419">
        <ele>465.79998779297</ele>
        <time>2020-12-23T11:01:56.000Z</time>
      </trkpt>
      <trkpt lat="43.77091" lon="5.72412">
        <ele>466.60000610352</ele>
        <time>2020-12-23T11:01:59.000Z</time>
      </trkpt>
      <trkpt lat="43.77092" lon="5.7241">
        <ele>466.79998779297</ele>
        <time>2020-12-23T11:02:00.000Z</time>
      </trkpt>
      <trkpt lat="43.77093" lon="5.72403">
        <ele>468</ele>
        <time>2020-12-23T11:02:03.000Z</time>
      </trkpt>
      <trkpt lat="43.77095" lon="5.72396">
        <ele>469</ele>
        <time>2020-12-23T11:02:06.000Z</time>
      </trkpt>
      <trkpt lat="43.771" lon="5.72385">
        <ele>470.39999389648</ele>
        <time>2020-12-23T11:02:10.000Z</time>
      </trkpt>
      <trkpt lat="43.77101" lon="5.72382">
        <ele>470.79998779297</ele>
        <time>2020-12-23T11:02:11.000Z</time>
      </trkpt>
      <trkpt lat="43.77102" lon="5.72376">
        <ele>471.39999389648</ele>
        <time>2020-12-23T11:02:13.000Z</time>
      </trkpt>
      <trkpt lat="43.77105" lon="5.72368">
        <ele>472.60000610352</ele>
        <time>2020-12-23T11:02:16.000Z</time>
      </trkpt>
      <trkpt lat="43.77111" lon="5.72355">
        <ele>474</ele>
        <time>2020-12-23T11:02:21.000Z</time>
      </trkpt>
      <trkpt lat="43.77112" lon="5.72352">
        <ele>474.39999389648</ele>
        <time>2020-12-23T11:02:22.000Z</time>
      </trkpt>
      <trkpt lat="43.77115" lon="5.72346">
        <ele>475.20001220703</ele>
        <time>2020-12-23T11:02:24.000Z</time>
      </trkpt>
      <trkpt lat="43.77118" lon="5.72332">
        <ele>476</ele>
        <time>2020-12-23T11:02:29.000Z</time>
      </trkpt>
      <trkpt lat="43.77119" lon="5.72329">
        <ele>476.20001220703</ele>
        <time>2020-12-23T11:02:30.000Z</time>
      </trkpt>
      <trkpt lat="43.77124" lon="5.72321">
        <ele>476.79998779297</ele>
        <time>2020-12-23T11:02:33.000Z</time>
      </trkpt>
      <trkpt lat="43.77127" lon="5.72315">
        <ele>477.39999389648</ele>
        <time>2020-12-23T11:02:35.000Z</time>
      </trkpt>
      <trkpt lat="43.77134" lon="5.72308">
        <ele>478.60000610352</ele>
        <time>2020-12-23T11:02:38.000Z</time>
      </trkpt>
      <trkpt lat="43.77135" lon="5.72305">
        <ele>478.60000610352</ele>
        <time>2020-12-23T11:02:39.000Z</time>
      </trkpt>
      <trkpt lat="43.77149" lon="5.7229">
        <ele>478.79998779297</ele>
        <time>2020-12-23T11:02:45.000Z</time>
      </trkpt>
      <trkpt lat="43.77164" lon="5.72286">
        <ele>478.39999389648</ele>
        <time>2020-12-23T11:02:48.000Z</time>
      </trkpt>
      <trkpt lat="43.77171" lon="5.72285">
        <ele>478.20001220703</ele>
        <time>2020-12-23T11:02:49.000Z</time>
      </trkpt>
      <trkpt lat="43.77185" lon="5.72285">
        <ele>478</ele>
        <time>2020-12-23T11:02:52.000Z</time>
      </trkpt>
      <trkpt lat="43.77193" lon="5.72286">
        <ele>478</ele>
        <time>2020-12-23T11:02:54.000Z</time>
      </trkpt>
      <trkpt lat="43.77197" lon="5.72288">
        <ele>477.39999389648</ele>
        <time>2020-12-23T11:02:55.000Z</time>
      </trkpt>
      <trkpt lat="43.772" lon="5.72288">
        <ele>476.39999389648</ele>
        <time>2020-12-23T11:02:56.000Z</time>
      </trkpt>
      <trkpt lat="43.77203" lon="5.72288">
        <ele>474.20001220703</ele>
        <time>2020-12-23T11:02:57.000Z</time>
      </trkpt>
      <trkpt lat="43.77205" lon="5.72288">
        <ele>473</ele>
        <time>2020-12-23T11:02:58.000Z</time>
      </trkpt>
      <trkpt lat="43.77209" lon="5.72288">
        <ele>471.79998779297</ele>
        <time>2020-12-23T11:03:00.000Z</time>
      </trkpt>
      <trkpt lat="43.77212" lon="5.72287">
        <ele>471.20001220703</ele>
        <time>2020-12-23T11:03:01.000Z</time>
      </trkpt>
      <trkpt lat="43.77215" lon="5.72284">
        <ele>470.20001220703</ele>
        <time>2020-12-23T11:03:02.000Z</time>
      </trkpt>
      <trkpt lat="43.77218" lon="5.72282">
        <ele>469</ele>
        <time>2020-12-23T11:03:03.000Z</time>
      </trkpt>
      <trkpt lat="43.77226" lon="5.7228">
        <ele>468.20001220703</ele>
        <time>2020-12-23T11:03:05.000Z</time>
      </trkpt>
      <trkpt lat="43.77231" lon="5.7228">
        <ele>467.79998779297</ele>
        <time>2020-12-23T11:03:06.000Z</time>
      </trkpt>
      <trkpt lat="43.77237" lon="5.7228">
        <ele>467.39999389648</ele>
        <time>2020-12-23T11:03:07.000Z</time>
      </trkpt>
      <trkpt lat="43.77251" lon="5.72276">
        <ele>466.39999389648</ele>
        <time>2020-12-23T11:03:09.000Z</time>
      </trkpt>
      <trkpt lat="43.77264" lon="5.72268">
        <ele>465.60000610352</ele>
        <time>2020-12-23T11:03:11.000Z</time>
      </trkpt>
      <trkpt lat="43.7727" lon="5.72265">
        <ele>465.39999389648</ele>
        <time>2020-12-23T11:03:12.000Z</time>
      </trkpt>
      <trkpt lat="43.77276" lon="5.72263">
        <ele>465</ele>
        <time>2020-12-23T11:03:13.000Z</time>
      </trkpt>
      <trkpt lat="43.77283" lon="5.7226">
        <ele>463.20001220703</ele>
        <time>2020-12-23T11:03:15.000Z</time>
      </trkpt>
      <trkpt lat="43.77285" lon="5.72258">
        <ele>462</ele>
        <time>2020-12-23T11:03:16.000Z</time>
      </trkpt>
      <trkpt lat="43.77285" lon="5.72257">
        <ele>460.79998779297</ele>
        <time>2020-12-23T11:03:17.000Z</time>
      </trkpt>
      <trkpt lat="43.77286" lon="5.72257">
        <ele>459.60000610352</ele>
        <time>2020-12-23T11:03:18.000Z</time>
      </trkpt>
      <trkpt lat="43.77286" lon="5.72256">
        <ele>458.60000610352</ele>
        <time>2020-12-23T11:03:19.000Z</time>
      </trkpt>
      <trkpt lat="43.77287" lon="5.72256">
        <ele>457.39999389648</ele>
        <time>2020-12-23T11:03:20.000Z</time>
      </trkpt>
      <trkpt lat="43.77288" lon="5.72256">
        <ele>456.39999389648</ele>
        <time>2020-12-23T11:03:23.000Z</time>
      </trkpt>
      <trkpt lat="43.77288" lon="5.72256">
        <ele>456</ele>
        <time>2020-12-23T11:03:40.000Z</time>
      </trkpt>
      <trkpt lat="43.77288" lon="5.72255">
        <ele>456</ele>
        <time>2020-12-23T11:03:59.000Z</time>
      </trkpt>
      <trkpt lat="43.7729" lon="5.7225">
        <ele>456</ele>
        <time>2020-12-23T11:04:07.000Z</time>
      </trkpt>
      <trkpt lat="43.77291" lon="5.72247">
        <ele>456</ele>
        <time>2020-12-23T11:04:08.000Z</time>
      </trkpt>
      <trkpt lat="43.77296" lon="5.7223">
        <ele>455.79998779297</ele>
        <time>2020-12-23T11:04:13.000Z</time>
      </trkpt>
      <trkpt lat="43.77295" lon="5.72221">
        <ele>455.39999389648</ele>
        <time>2020-12-23T11:04:15.000Z</time>
      </trkpt>
      <trkpt lat="43.77293" lon="5.72212">
        <ele>454.20001220703</ele>
        <time>2020-12-23T11:04:17.000Z</time>
      </trkpt>
      <trkpt lat="43.77293" lon="5.72208">
        <ele>453.39999389648</ele>
        <time>2020-12-23T11:04:18.000Z</time>
      </trkpt>
      <trkpt lat="43.77292" lon="5.72203">
        <ele>452.79998779297</ele>
        <time>2020-12-23T11:04:19.000Z</time>
      </trkpt>
      <trkpt lat="43.7729" lon="5.72193">
        <ele>451</ele>
        <time>2020-12-23T11:04:21.000Z</time>
      </trkpt>
      <trkpt lat="43.77291" lon="5.72189">
        <ele>450.60000610352</ele>
        <time>2020-12-23T11:04:22.000Z</time>
      </trkpt>
      <trkpt lat="43.77298" lon="5.72182">
        <ele>449.79998779297</ele>
        <time>2020-12-23T11:04:25.000Z</time>
      </trkpt>
      <trkpt lat="43.77303" lon="5.72182">
        <ele>449.60000610352</ele>
        <time>2020-12-23T11:04:26.000Z</time>
      </trkpt>
      <trkpt lat="43.77309" lon="5.72181">
        <ele>448.79998779297</ele>
        <time>2020-12-23T11:04:28.000Z</time>
      </trkpt>
      <trkpt lat="43.7731" lon="5.72179">
        <ele>448.20001220703</ele>
        <time>2020-12-23T11:04:29.000Z</time>
      </trkpt>
      <trkpt lat="43.77311" lon="5.7217">
        <ele>447.20001220703</ele>
        <time>2020-12-23T11:04:31.000Z</time>
      </trkpt>
      <trkpt lat="43.7731" lon="5.72165">
        <ele>446.20001220703</ele>
        <time>2020-12-23T11:04:32.000Z</time>
      </trkpt>
      <trkpt lat="43.7731" lon="5.7216">
        <ele>444.79998779297</ele>
        <time>2020-12-23T11:04:33.000Z</time>
      </trkpt>
      <trkpt lat="43.77308" lon="5.72154">
        <ele>443.60000610352</ele>
        <time>2020-12-23T11:04:34.000Z</time>
      </trkpt>
      <trkpt lat="43.77305" lon="5.72145">
        <ele>441.79998779297</ele>
        <time>2020-12-23T11:04:36.000Z</time>
      </trkpt>
      <trkpt lat="43.77303" lon="5.72142">
        <ele>441.20001220703</ele>
        <time>2020-12-23T11:04:37.000Z</time>
      </trkpt>
      <trkpt lat="43.77304" lon="5.72139">
        <ele>440.39999389648</ele>
        <time>2020-12-23T11:04:38.000Z</time>
      </trkpt>
      <trkpt lat="43.77306" lon="5.72132">
        <ele>438.39999389648</ele>
        <time>2020-12-23T11:04:40.000Z</time>
      </trkpt>
      <trkpt lat="43.77303" lon="5.72126">
        <ele>437.39999389648</ele>
        <time>2020-12-23T11:04:42.000Z</time>
      </trkpt>
      <trkpt lat="43.773" lon="5.72122">
        <ele>436.79998779297</ele>
        <time>2020-12-23T11:04:43.000Z</time>
      </trkpt>
      <trkpt lat="43.77298" lon="5.7212">
        <ele>436.20001220703</ele>
        <time>2020-12-23T11:04:44.000Z</time>
      </trkpt>
      <trkpt lat="43.77299" lon="5.72113">
        <ele>435.60000610352</ele>
        <time>2020-12-23T11:04:46.000Z</time>
      </trkpt>
      <trkpt lat="43.77301" lon="5.72111">
        <ele>434.79998779297</ele>
        <time>2020-12-23T11:04:47.000Z</time>
      </trkpt>
      <trkpt lat="43.77304" lon="5.72105">
        <ele>432.39999389648</ele>
        <time>2020-12-23T11:04:49.000Z</time>
      </trkpt>
      <trkpt lat="43.77304" lon="5.72101">
        <ele>431.79998779297</ele>
        <time>2020-12-23T11:04:50.000Z</time>
      </trkpt>
      <trkpt lat="43.77302" lon="5.72097">
        <ele>431.20001220703</ele>
        <time>2020-12-23T11:04:51.000Z</time>
      </trkpt>
      <trkpt lat="43.77297" lon="5.7209">
        <ele>430.39999389648</ele>
        <time>2020-12-23T11:04:53.000Z</time>
      </trkpt>
      <trkpt lat="43.77294" lon="5.72087">
        <ele>429.79998779297</ele>
        <time>2020-12-23T11:04:54.000Z</time>
      </trkpt>
      <trkpt lat="43.77288" lon="5.7208">
        <ele>428.39999389648</ele>
        <time>2020-12-23T11:04:56.000Z</time>
      </trkpt>
      <trkpt lat="43.77285" lon="5.72077">
        <ele>427.20001220703</ele>
        <time>2020-12-23T11:04:57.000Z</time>
      </trkpt>
      <trkpt lat="43.77282" lon="5.72074">
        <ele>426</ele>
        <time>2020-12-23T11:04:58.000Z</time>
      </trkpt>
      <trkpt lat="43.7728" lon="5.72072">
        <ele>424.79998779297</ele>
        <time>2020-12-23T11:04:59.000Z</time>
      </trkpt>
      <trkpt lat="43.7728" lon="5.72068">
        <ele>423.79998779297</ele>
        <time>2020-12-23T11:05:01.000Z</time>
      </trkpt>
      <trkpt lat="43.77286" lon="5.72065">
        <ele>422.79998779297</ele>
        <time>2020-12-23T11:05:04.000Z</time>
      </trkpt>
      <trkpt lat="43.77289" lon="5.72065">
        <ele>422.39999389648</ele>
        <time>2020-12-23T11:05:05.000Z</time>
      </trkpt>
      <trkpt lat="43.77299" lon="5.72068">
        <ele>421.60000610352</ele>
        <time>2020-12-23T11:05:08.000Z</time>
      </trkpt>
      <trkpt lat="43.77303" lon="5.72068">
        <ele>421.39999389648</ele>
        <time>2020-12-23T11:05:09.000Z</time>
      </trkpt>
      <trkpt lat="43.77307" lon="5.72063">
        <ele>420</ele>
        <time>2020-12-23T11:05:11.000Z</time>
      </trkpt>
      <trkpt lat="43.77311" lon="5.72057">
        <ele>418.60000610352</ele>
        <time>2020-12-23T11:05:14.000Z</time>
      </trkpt>
      <trkpt lat="43.77311" lon="5.72057">
        <ele>417.60000610352</ele>
        <time>2020-12-23T11:05:15.000Z</time>
      </trkpt>
      <trkpt lat="43.77311" lon="5.72057">
        <ele>415.60000610352</ele>
        <time>2020-12-23T11:05:16.000Z</time>
      </trkpt>
      <trkpt lat="43.77312" lon="5.72056">
        <ele>414.60000610352</ele>
        <time>2020-12-23T11:05:19.000Z</time>
      </trkpt>
      <trkpt lat="43.77312" lon="5.72056">
        <ele>414.20001220703</ele>
        <time>2020-12-23T11:05:27.000Z</time>
      </trkpt>
      <trkpt lat="43.77318" lon="5.72053">
        <ele>414.20001220703</ele>
        <time>2020-12-23T11:05:31.000Z</time>
      </trkpt>
      <trkpt lat="43.77321" lon="5.72052">
        <ele>414.20001220703</ele>
        <time>2020-12-23T11:05:32.000Z</time>
      </trkpt>
      <trkpt lat="43.77335" lon="5.72051">
        <ele>414.20001220703</ele>
        <time>2020-12-23T11:05:37.000Z</time>
      </trkpt>
      <trkpt lat="43.77337" lon="5.72051">
        <ele>413.39999389648</ele>
        <time>2020-12-23T11:05:43.000Z</time>
      </trkpt>
      <trkpt lat="43.77338" lon="5.72052">
        <ele>413.20001220703</ele>
        <time>2020-12-23T11:05:44.000Z</time>
      </trkpt>
      <trkpt lat="43.77339" lon="5.72054">
        <ele>413.20001220703</ele>
        <time>2020-12-23T11:05:46.000Z</time>
      </trkpt>
      <trkpt lat="43.77338" lon="5.72063">
        <ele>413</ele>
        <time>2020-12-23T11:05:50.000Z</time>
      </trkpt>
      <trkpt lat="43.77341" lon="5.72072">
        <ele>413</ele>
        <time>2020-12-23T11:05:53.000Z</time>
      </trkpt>
      <trkpt lat="43.77343" lon="5.72073">
        <ele>412.79998779297</ele>
        <time>2020-12-23T11:05:54.000Z</time>
      </trkpt>
      <trkpt lat="43.77349" lon="5.72077">
        <ele>412</ele>
        <time>2020-12-23T11:05:57.000Z</time>
      </trkpt>
      <trkpt lat="43.7735" lon="5.72078">
        <ele>411.39999389648</ele>
        <time>2020-12-23T11:05:58.000Z</time>
      </trkpt>
      <trkpt lat="43.77354" lon="5.72081">
        <ele>411</ele>
        <time>2020-12-23T11:06:00.000Z</time>
      </trkpt>
      <trkpt lat="43.77356" lon="5.72083">
        <ele>411</ele>
        <time>2020-12-23T11:06:01.000Z</time>
      </trkpt>
      <trkpt lat="43.77363" lon="5.72087">
        <ele>410.79998779297</ele>
        <time>2020-12-23T11:06:03.000Z</time>
      </trkpt>
      <trkpt lat="43.77372" lon="5.72098">
        <ele>410.39999389648</ele>
        <time>2020-12-23T11:06:07.000Z</time>
      </trkpt>
      <trkpt lat="43.77381" lon="5.72109">
        <ele>409.39999389648</ele>
        <time>2020-12-23T11:06:11.000Z</time>
      </trkpt>
      <trkpt lat="43.77384" lon="5.72113">
        <ele>408.79998779297</ele>
        <time>2020-12-23T11:06:12.000Z</time>
      </trkpt>
      <trkpt lat="43.77393" lon="5.72126">
        <ele>408.20001220703</ele>
        <time>2020-12-23T11:06:15.000Z</time>
      </trkpt>
      <trkpt lat="43.77395" lon="5.72129">
        <ele>408.20001220703</ele>
        <time>2020-12-23T11:06:16.000Z</time>
      </trkpt>
      <trkpt lat="43.77405" lon="5.72141">
        <ele>407</ele>
        <time>2020-12-23T11:06:20.000Z</time>
      </trkpt>
      <trkpt lat="43.77408" lon="5.72145">
        <ele>406.79998779297</ele>
        <time>2020-12-23T11:06:21.000Z</time>
      </trkpt>
      <trkpt lat="43.77419" lon="5.72169">
        <ele>406.39999389648</ele>
        <time>2020-12-23T11:06:26.000Z</time>
      </trkpt>
      <trkpt lat="43.77422" lon="5.72172">
        <ele>406.20001220703</ele>
        <time>2020-12-23T11:06:27.000Z</time>
      </trkpt>
      <trkpt lat="43.77427" lon="5.72179">
        <ele>406.20001220703</ele>
        <time>2020-12-23T11:06:29.000Z</time>
      </trkpt>
      <trkpt lat="43.77429" lon="5.72188">
        <ele>406.20001220703</ele>
        <time>2020-12-23T11:06:31.000Z</time>
      </trkpt>
      <trkpt lat="43.77432" lon="5.72197">
        <ele>406</ele>
        <time>2020-12-23T11:06:33.000Z</time>
      </trkpt>
      <trkpt lat="43.77435" lon="5.72201">
        <ele>406</ele>
        <time>2020-12-23T11:06:34.000Z</time>
      </trkpt>
      <trkpt lat="43.77441" lon="5.72208">
        <ele>405.79998779297</ele>
        <time>2020-12-23T11:06:36.000Z</time>
      </trkpt>
      <trkpt lat="43.77449" lon="5.72226">
        <ele>405.20001220703</ele>
        <time>2020-12-23T11:06:40.000Z</time>
      </trkpt>
      <trkpt lat="43.77452" lon="5.72233">
        <ele>404.60000610352</ele>
        <time>2020-12-23T11:06:42.000Z</time>
      </trkpt>
      <trkpt lat="43.77456" lon="5.7224">
        <ele>403.79998779297</ele>
        <time>2020-12-23T11:06:44.000Z</time>
      </trkpt>
      <trkpt lat="43.77458" lon="5.72245">
        <ele>403</ele>
        <time>2020-12-23T11:06:45.000Z</time>
      </trkpt>
      <trkpt lat="43.77459" lon="5.72252">
        <ele>401.60000610352</ele>
        <time>2020-12-23T11:06:47.000Z</time>
      </trkpt>
      <trkpt lat="43.77459" lon="5.72254">
        <ele>401.20001220703</ele>
        <time>2020-12-23T11:06:48.000Z</time>
      </trkpt>
      <trkpt lat="43.77459" lon="5.72258">
        <ele>400.39999389648</ele>
        <time>2020-12-23T11:06:50.000Z</time>
      </trkpt>
      <trkpt lat="43.7746" lon="5.72264">
        <ele>399</ele>
        <time>2020-12-23T11:06:53.000Z</time>
      </trkpt>
      <trkpt lat="43.7746" lon="5.72267">
        <ele>398.79998779297</ele>
        <time>2020-12-23T11:06:54.000Z</time>
      </trkpt>
      <trkpt lat="43.77461" lon="5.72274">
        <ele>398.79998779297</ele>
        <time>2020-12-23T11:07:00.000Z</time>
      </trkpt>
      <trkpt lat="43.77463" lon="5.72277">
        <ele>398.79998779297</ele>
        <time>2020-12-23T11:07:04.000Z</time>
      </trkpt>
      <trkpt lat="43.77466" lon="5.72278">
        <ele>398.79998779297</ele>
        <time>2020-12-23T11:07:06.000Z</time>
      </trkpt>
      <trkpt lat="43.77469" lon="5.7228">
        <ele>398.79998779297</ele>
        <time>2020-12-23T11:07:08.000Z</time>
      </trkpt>
      <trkpt lat="43.77474" lon="5.72285">
        <ele>398.60000610352</ele>
        <time>2020-12-23T11:07:12.000Z</time>
      </trkpt>
      <trkpt lat="43.77477" lon="5.72285">
        <ele>398.20001220703</ele>
        <time>2020-12-23T11:07:13.000Z</time>
      </trkpt>
      <trkpt lat="43.7748" lon="5.72286">
        <ele>397.60000610352</ele>
        <time>2020-12-23T11:07:14.000Z</time>
      </trkpt>
      <trkpt lat="43.77482" lon="5.72287">
        <ele>397.20001220703</ele>
        <time>2020-12-23T11:07:15.000Z</time>
      </trkpt>
      <trkpt lat="43.77483" lon="5.72289">
        <ele>396.60000610352</ele>
        <time>2020-12-23T11:07:16.000Z</time>
      </trkpt>
      <trkpt lat="43.77486" lon="5.72298">
        <ele>395.39999389648</ele>
        <time>2020-12-23T11:07:19.000Z</time>
      </trkpt>
      <trkpt lat="43.77488" lon="5.72303">
        <ele>395.20001220703</ele>
        <time>2020-12-23T11:07:20.000Z</time>
      </trkpt>
      <trkpt lat="43.77489" lon="5.72309">
        <ele>394.79998779297</ele>
        <time>2020-12-23T11:07:21.000Z</time>
      </trkpt>
      <trkpt lat="43.77488" lon="5.72321">
        <ele>394.60000610352</ele>
        <time>2020-12-23T11:07:23.000Z</time>
      </trkpt>
      <trkpt lat="43.77489" lon="5.72326">
        <ele>394</ele>
        <time>2020-12-23T11:07:24.000Z</time>
      </trkpt>
      <trkpt lat="43.7749" lon="5.72338">
        <ele>393.60000610352</ele>
        <time>2020-12-23T11:07:27.000Z</time>
      </trkpt>
      <trkpt lat="43.77496" lon="5.72361">
        <ele>393.20001220703</ele>
        <time>2020-12-23T11:07:32.000Z</time>
      </trkpt>
      <trkpt lat="43.77496" lon="5.72368">
        <ele>393.20001220703</ele>
        <time>2020-12-23T11:07:33.000Z</time>
      </trkpt>
      <trkpt lat="43.77496" lon="5.72382">
        <ele>392.79998779297</ele>
        <time>2020-12-23T11:07:36.000Z</time>
      </trkpt>
      <trkpt lat="43.77496" lon="5.72386">
        <ele>392.79998779297</ele>
        <time>2020-12-23T11:07:37.000Z</time>
      </trkpt>
      <trkpt lat="43.77496" lon="5.72391">
        <ele>392.60000610352</ele>
        <time>2020-12-23T11:07:38.000Z</time>
      </trkpt>
      <trkpt lat="43.77497" lon="5.72397">
        <ele>392.60000610352</ele>
        <time>2020-12-23T11:07:39.000Z</time>
      </trkpt>
      <trkpt lat="43.77506" lon="5.72411">
        <ele>391.79998779297</ele>
        <time>2020-12-23T11:07:43.000Z</time>
      </trkpt>
      <trkpt lat="43.77516" lon="5.7242">
        <ele>391.20001220703</ele>
        <time>2020-12-23T11:07:47.000Z</time>
      </trkpt>
      <trkpt lat="43.77526" lon="5.72427">
        <ele>391</ele>
        <time>2020-12-23T11:07:51.000Z</time>
      </trkpt>
      <trkpt lat="43.77528" lon="5.72429">
        <ele>391</ele>
        <time>2020-12-23T11:07:52.000Z</time>
      </trkpt>
      <trkpt lat="43.77529" lon="5.72431">
        <ele>390.79998779297</ele>
        <time>2020-12-23T11:07:53.000Z</time>
      </trkpt>
      <trkpt lat="43.77529" lon="5.72434">
        <ele>390.60000610352</ele>
        <time>2020-12-23T11:07:54.000Z</time>
      </trkpt>
      <trkpt lat="43.77528" lon="5.72436">
        <ele>390.20001220703</ele>
        <time>2020-12-23T11:07:55.000Z</time>
      </trkpt>
      <trkpt lat="43.77521" lon="5.72439">
        <ele>389.79998779297</ele>
        <time>2020-12-23T11:07:58.000Z</time>
      </trkpt>
      <trkpt lat="43.7752" lon="5.72441">
        <ele>389.79998779297</ele>
        <time>2020-12-23T11:07:59.000Z</time>
      </trkpt>
      <trkpt lat="43.7752" lon="5.7245">
        <ele>389.39999389648</ele>
        <time>2020-12-23T11:08:02.000Z</time>
      </trkpt>
      <trkpt lat="43.77523" lon="5.72452">
        <ele>388.20001220703</ele>
        <time>2020-12-23T11:08:03.000Z</time>
      </trkpt>
      <trkpt lat="43.77526" lon="5.72454">
        <ele>387.39999389648</ele>
        <time>2020-12-23T11:08:04.000Z</time>
      </trkpt>
      <trkpt lat="43.77528" lon="5.72455">
        <ele>386.60000610352</ele>
        <time>2020-12-23T11:08:05.000Z</time>
      </trkpt>
      <trkpt lat="43.77532" lon="5.72458">
        <ele>385.20001220703</ele>
        <time>2020-12-23T11:08:07.000Z</time>
      </trkpt>
      <trkpt lat="43.77535" lon="5.72461">
        <ele>383.60000610352</ele>
        <time>2020-12-23T11:08:09.000Z</time>
      </trkpt>
      <trkpt lat="43.77538" lon="5.72464">
        <ele>382</ele>
        <time>2020-12-23T11:08:11.000Z</time>
      </trkpt>
      <trkpt lat="43.77541" lon="5.72466">
        <ele>380.79998779297</ele>
        <time>2020-12-23T11:08:14.000Z</time>
      </trkpt>
      <trkpt lat="43.77545" lon="5.72469">
        <ele>380.79998779297</ele>
        <time>2020-12-23T11:08:16.000Z</time>
      </trkpt>
      <trkpt lat="43.77553" lon="5.72478">
        <ele>380.60000610352</ele>
        <time>2020-12-23T11:08:19.000Z</time>
      </trkpt>
      <trkpt lat="43.77566" lon="5.72489">
        <ele>380.20001220703</ele>
        <time>2020-12-23T11:08:23.000Z</time>
      </trkpt>
      <trkpt lat="43.77576" lon="5.72491">
        <ele>380</ele>
        <time>2020-12-23T11:08:27.000Z</time>
      </trkpt>
      <trkpt lat="43.77588" lon="5.72501">
        <ele>380</ele>
        <time>2020-12-23T11:08:32.000Z</time>
      </trkpt>
      <trkpt lat="43.77598" lon="5.72506">
        <ele>379.79998779297</ele>
        <time>2020-12-23T11:08:36.000Z</time>
      </trkpt>
      <trkpt lat="43.77608" lon="5.72512">
        <ele>379.79998779297</ele>
        <time>2020-12-23T11:08:39.000Z</time>
      </trkpt>
      <trkpt lat="43.77619" lon="5.72517">
        <ele>379.60000610352</ele>
        <time>2020-12-23T11:08:43.000Z</time>
      </trkpt>
      <trkpt lat="43.77623" lon="5.72518">
        <ele>379.20001220703</ele>
        <time>2020-12-23T11:08:44.000Z</time>
      </trkpt>
      <trkpt lat="43.77629" lon="5.72519">
        <ele>378</ele>
        <time>2020-12-23T11:08:46.000Z</time>
      </trkpt>
      <trkpt lat="43.77641" lon="5.72523">
        <ele>377.39999389648</ele>
        <time>2020-12-23T11:08:50.000Z</time>
      </trkpt>
      <trkpt lat="43.77654" lon="5.72536">
        <ele>377.39999389648</ele>
        <time>2020-12-23T11:08:54.000Z</time>
      </trkpt>
      <trkpt lat="43.77664" lon="5.72547">
        <ele>378.20001220703</ele>
        <time>2020-12-23T11:08:58.000Z</time>
      </trkpt>
      <trkpt lat="43.77678" lon="5.72554">
        <ele>379</ele>
        <time>2020-12-23T11:09:02.000Z</time>
      </trkpt>
      <trkpt lat="43.77682" lon="5.72558">
        <ele>379.20001220703</ele>
        <time>2020-12-23T11:09:03.000Z</time>
      </trkpt>
      <trkpt lat="43.77696" lon="5.72572">
        <ele>379.20001220703</ele>
        <time>2020-12-23T11:09:07.000Z</time>
      </trkpt>
      <trkpt lat="43.777" lon="5.72576">
        <ele>379.20001220703</ele>
        <time>2020-12-23T11:09:08.000Z</time>
      </trkpt>
      <trkpt lat="43.77709" lon="5.72588">
        <ele>379</ele>
        <time>2020-12-23T11:09:10.000Z</time>
      </trkpt>
      <trkpt lat="43.77718" lon="5.72598">
        <ele>378.79998779297</ele>
        <time>2020-12-23T11:09:13.000Z</time>
      </trkpt>
      <trkpt lat="43.7772" lon="5.72603">
        <ele>378.60000610352</ele>
        <time>2020-12-23T11:09:14.000Z</time>
      </trkpt>
      <trkpt lat="43.77724" lon="5.72614">
        <ele>378.20001220703</ele>
        <time>2020-12-23T11:09:16.000Z</time>
      </trkpt>
      <trkpt lat="43.77726" lon="5.72625">
        <ele>377.60000610352</ele>
        <time>2020-12-23T11:09:18.000Z</time>
      </trkpt>
      <trkpt lat="43.77728" lon="5.72632">
        <ele>377.39999389648</ele>
        <time>2020-12-23T11:09:19.000Z</time>
      </trkpt>
      <trkpt lat="43.7773" lon="5.72637">
        <ele>377</ele>
        <time>2020-12-23T11:09:20.000Z</time>
      </trkpt>
      <trkpt lat="43.77733" lon="5.72643">
        <ele>376.79998779297</ele>
        <time>2020-12-23T11:09:21.000Z</time>
      </trkpt>
      <trkpt lat="43.77738" lon="5.72654">
        <ele>376.20001220703</ele>
        <time>2020-12-23T11:09:23.000Z</time>
      </trkpt>
      <trkpt lat="43.77741" lon="5.72661">
        <ele>376.20001220703</ele>
        <time>2020-12-23T11:09:24.000Z</time>
      </trkpt>
      <trkpt lat="43.77747" lon="5.72673">
        <ele>375.20001220703</ele>
        <time>2020-12-23T11:09:26.000Z</time>
      </trkpt>
      <trkpt lat="43.77751" lon="5.72682">
        <ele>374.60000610352</ele>
        <time>2020-12-23T11:09:28.000Z</time>
      </trkpt>
      <trkpt lat="43.77756" lon="5.72691">
        <ele>374.60000610352</ele>
        <time>2020-12-23T11:09:30.000Z</time>
      </trkpt>
      <trkpt lat="43.77758" lon="5.72696">
        <ele>374.20001220703</ele>
        <time>2020-12-23T11:09:31.000Z</time>
      </trkpt>
      <trkpt lat="43.77763" lon="5.72704">
        <ele>373.60000610352</ele>
        <time>2020-12-23T11:09:33.000Z</time>
      </trkpt>
      <trkpt lat="43.77766" lon="5.72714">
        <ele>373</ele>
        <time>2020-12-23T11:09:35.000Z</time>
      </trkpt>
      <trkpt lat="43.77771" lon="5.72727">
        <ele>372.60000610352</ele>
        <time>2020-12-23T11:09:38.000Z</time>
      </trkpt>
      <trkpt lat="43.77776" lon="5.72734">
        <ele>372.39999389648</ele>
        <time>2020-12-23T11:09:40.000Z</time>
      </trkpt>
      <trkpt lat="43.77783" lon="5.72737">
        <ele>372</ele>
        <time>2020-12-23T11:09:42.000Z</time>
      </trkpt>
      <trkpt lat="43.77789" lon="5.72741">
        <ele>372</ele>
        <time>2020-12-23T11:09:44.000Z</time>
      </trkpt>
      <trkpt lat="43.77792" lon="5.72745">
        <ele>372</ele>
        <time>2020-12-23T11:09:46.000Z</time>
      </trkpt>
      <trkpt lat="43.77797" lon="5.72757">
        <ele>371.79998779297</ele>
        <time>2020-12-23T11:09:49.000Z</time>
      </trkpt>
      <trkpt lat="43.778" lon="5.72763">
        <ele>371.60000610352</ele>
        <time>2020-12-23T11:09:50.000Z</time>
      </trkpt>
      <trkpt lat="43.77804" lon="5.7277">
        <ele>371.20001220703</ele>
        <time>2020-12-23T11:09:51.000Z</time>
      </trkpt>
      <trkpt lat="43.77808" lon="5.72776">
        <ele>371.20001220703</ele>
        <time>2020-12-23T11:09:52.000Z</time>
      </trkpt>
      <trkpt lat="43.77817" lon="5.72788">
        <ele>371.20001220703</ele>
        <time>2020-12-23T11:09:55.000Z</time>
      </trkpt>
      <trkpt lat="43.77821" lon="5.72795">
        <ele>369.39999389648</ele>
        <time>2020-12-23T11:09:57.000Z</time>
      </trkpt>
      <trkpt lat="43.77823" lon="5.728">
        <ele>368</ele>
        <time>2020-12-23T11:09:58.000Z</time>
      </trkpt>
      <trkpt lat="43.77825" lon="5.72805">
        <ele>366.60000610352</ele>
        <time>2020-12-23T11:09:59.000Z</time>
      </trkpt>
      <trkpt lat="43.77826" lon="5.72811">
        <ele>365.60000610352</ele>
        <time>2020-12-23T11:10:00.000Z</time>
      </trkpt>
      <trkpt lat="43.77828" lon="5.72817">
        <ele>365.20001220703</ele>
        <time>2020-12-23T11:10:01.000Z</time>
      </trkpt>
      <trkpt lat="43.77834" lon="5.72829">
        <ele>364.60000610352</ele>
        <time>2020-12-23T11:10:03.000Z</time>
      </trkpt>
      <trkpt lat="43.77836" lon="5.72833">
        <ele>364.39999389648</ele>
        <time>2020-12-23T11:10:04.000Z</time>
      </trkpt>
      <trkpt lat="43.77836" lon="5.7284">
        <ele>364.20001220703</ele>
        <time>2020-12-23T11:10:05.000Z</time>
      </trkpt>
      <trkpt lat="43.77836" lon="5.72846">
        <ele>363.79998779297</ele>
        <time>2020-12-23T11:10:06.000Z</time>
      </trkpt>
      <trkpt lat="43.77837" lon="5.72852">
        <ele>363</ele>
        <time>2020-12-23T11:10:07.000Z</time>
      </trkpt>
      <trkpt lat="43.77839" lon="5.72862">
        <ele>361.60000610352</ele>
        <time>2020-12-23T11:10:09.000Z</time>
      </trkpt>
      <trkpt lat="43.7784" lon="5.72867">
        <ele>360.39999389648</ele>
        <time>2020-12-23T11:10:10.000Z</time>
      </trkpt>
      <trkpt lat="43.77841" lon="5.72872">
        <ele>359.20001220703</ele>
        <time>2020-12-23T11:10:11.000Z</time>
      </trkpt>
      <trkpt lat="43.77845" lon="5.72879">
        <ele>358.20001220703</ele>
        <time>2020-12-23T11:10:13.000Z</time>
      </trkpt>
      <trkpt lat="43.77847" lon="5.72883">
        <ele>357.20001220703</ele>
        <time>2020-12-23T11:10:14.000Z</time>
      </trkpt>
      <trkpt lat="43.77849" lon="5.72889">
        <ele>356.39999389648</ele>
        <time>2020-12-23T11:10:15.000Z</time>
      </trkpt>
      <trkpt lat="43.77853" lon="5.72902">
        <ele>355.39999389648</ele>
        <time>2020-12-23T11:10:17.000Z</time>
      </trkpt>
      <trkpt lat="43.77856" lon="5.72906">
        <ele>354.20001220703</ele>
        <time>2020-12-23T11:10:18.000Z</time>
      </trkpt>
      <trkpt lat="43.77862" lon="5.7291">
        <ele>352.39999389648</ele>
        <time>2020-12-23T11:10:20.000Z</time>
      </trkpt>
      <trkpt lat="43.77865" lon="5.72912">
        <ele>351.79998779297</ele>
        <time>2020-12-23T11:10:21.000Z</time>
      </trkpt>
      <trkpt lat="43.77868" lon="5.72913">
        <ele>351.20001220703</ele>
        <time>2020-12-23T11:10:22.000Z</time>
      </trkpt>
      <trkpt lat="43.77871" lon="5.72916">
        <ele>349</ele>
        <time>2020-12-23T11:10:23.000Z</time>
      </trkpt>
      <trkpt lat="43.77874" lon="5.72919">
        <ele>347.60000610352</ele>
        <time>2020-12-23T11:10:24.000Z</time>
      </trkpt>
      <trkpt lat="43.77875" lon="5.72922">
        <ele>346.79998779297</ele>
        <time>2020-12-23T11:10:25.000Z</time>
      </trkpt>
      <trkpt lat="43.77876" lon="5.72926">
        <ele>346.39999389648</ele>
        <time>2020-12-23T11:10:26.000Z</time>
      </trkpt>
      <trkpt lat="43.77873" lon="5.72931">
        <ele>345.60000610352</ele>
        <time>2020-12-23T11:10:28.000Z</time>
      </trkpt>
      <trkpt lat="43.77875" lon="5.72937">
        <ele>344.79998779297</ele>
        <time>2020-12-23T11:10:30.000Z</time>
      </trkpt>
      <trkpt lat="43.77878" lon="5.7294">
        <ele>344</ele>
        <time>2020-12-23T11:10:31.000Z</time>
      </trkpt>
      <trkpt lat="43.7788" lon="5.72942">
        <ele>343.39999389648</ele>
        <time>2020-12-23T11:10:32.000Z</time>
      </trkpt>
      <trkpt lat="43.77881" lon="5.72948">
        <ele>342.39999389648</ele>
        <time>2020-12-23T11:10:34.000Z</time>
      </trkpt>
      <trkpt lat="43.7788" lon="5.72955">
        <ele>341.20001220703</ele>
        <time>2020-12-23T11:10:36.000Z</time>
      </trkpt>
      <trkpt lat="43.77881" lon="5.72963">
        <ele>339.79998779297</ele>
        <time>2020-12-23T11:10:38.000Z</time>
      </trkpt>
      <trkpt lat="43.77881" lon="5.72969">
        <ele>338.39999389648</ele>
        <time>2020-12-23T11:10:40.000Z</time>
      </trkpt>
      <trkpt lat="43.77878" lon="5.72975">
        <ele>337.20001220703</ele>
        <time>2020-12-23T11:10:42.000Z</time>
      </trkpt>
      <trkpt lat="43.77875" lon="5.72981">
        <ele>335.79998779297</ele>
        <time>2020-12-23T11:10:44.000Z</time>
      </trkpt>
      <trkpt lat="43.77873" lon="5.72989">
        <ele>334.20001220703</ele>
        <time>2020-12-23T11:10:46.000Z</time>
      </trkpt>
      <trkpt lat="43.7787" lon="5.72996">
        <ele>332.79998779297</ele>
        <time>2020-12-23T11:10:48.000Z</time>
      </trkpt>
      <trkpt lat="43.77868" lon="5.72999">
        <ele>332</ele>
        <time>2020-12-23T11:10:49.000Z</time>
      </trkpt>
      <trkpt lat="43.77867" lon="5.73002">
        <ele>330.79998779297</ele>
        <time>2020-12-23T11:10:50.000Z</time>
      </trkpt>
      <trkpt lat="43.77866" lon="5.73004">
        <ele>330.39999389648</ele>
        <time>2020-12-23T11:10:51.000Z</time>
      </trkpt>
      <trkpt lat="43.77865" lon="5.73004">
        <ele>329.60000610352</ele>
        <time>2020-12-23T11:10:53.000Z</time>
      </trkpt>
      <trkpt lat="43.77865" lon="5.73005">
        <ele>328.60000610352</ele>
        <time>2020-12-23T11:10:57.000Z</time>
      </trkpt>
      <trkpt lat="43.77865" lon="5.73005">
        <ele>328</ele>
        <time>2020-12-23T11:11:12.000Z</time>
      </trkpt>
      <trkpt lat="43.77865" lon="5.73005">
        <ele>328.20001220703</ele>
        <time>2020-12-23T11:11:29.000Z</time>
      </trkpt>
      <trkpt lat="43.77865" lon="5.73006">
        <ele>328</ele>
        <time>2020-12-23T11:11:45.000Z</time>
      </trkpt>
      <trkpt lat="43.77861" lon="5.73017">
        <ele>328</ele>
        <time>2020-12-23T11:11:50.000Z</time>
      </trkpt>
      <trkpt lat="43.77856" lon="5.73025">
        <ele>328</ele>
        <time>2020-12-23T11:11:54.000Z</time>
      </trkpt>
      <trkpt lat="43.77854" lon="5.73027">
        <ele>328</ele>
        <time>2020-12-23T11:11:55.000Z</time>
      </trkpt>
      <trkpt lat="43.77851" lon="5.73032">
        <ele>327.60000610352</ele>
        <time>2020-12-23T11:11:59.000Z</time>
      </trkpt>
      <trkpt lat="43.77851" lon="5.73037">
        <ele>327</ele>
        <time>2020-12-23T11:12:04.000Z</time>
      </trkpt>
      <trkpt lat="43.77851" lon="5.73038">
        <ele>326.60000610352</ele>
        <time>2020-12-23T11:12:06.000Z</time>
      </trkpt>
      <trkpt lat="43.77848" lon="5.73044">
        <ele>325.79998779297</ele>
        <time>2020-12-23T11:12:16.000Z</time>
      </trkpt>
      <trkpt lat="43.77849" lon="5.73047">
        <ele>325.79998779297</ele>
        <time>2020-12-23T11:12:20.000Z</time>
      </trkpt>
      <trkpt lat="43.77848" lon="5.73051">
        <ele>325.79998779297</ele>
        <time>2020-12-23T11:12:23.000Z</time>
      </trkpt>
      <trkpt lat="43.77848" lon="5.73052">
        <ele>325.79998779297</ele>
        <time>2020-12-23T11:12:26.000Z</time>
      </trkpt>
      <trkpt lat="43.77847" lon="5.73052">
        <ele>325.60000610352</ele>
        <time>2020-12-23T11:12:29.000Z</time>
      </trkpt>
      <trkpt lat="43.77847" lon="5.73051">
        <ele>324.79998779297</ele>
        <time>2020-12-23T11:12:51.000Z</time>
      </trkpt>
      <trkpt lat="43.77843" lon="5.73057">
        <ele>325</ele>
        <time>2020-12-23T11:12:59.000Z</time>
      </trkpt>
      <trkpt lat="43.77842" lon="5.73059">
        <ele>325</ele>
        <time>2020-12-23T11:13:01.000Z</time>
      </trkpt>
      <trkpt lat="43.77841" lon="5.7306">
        <ele>325</ele>
        <time>2020-12-23T11:13:05.000Z</time>
      </trkpt>
      <trkpt lat="43.77841" lon="5.73063">
        <ele>325.39999389648</ele>
        <time>2020-12-23T11:13:16.000Z</time>
      </trkpt>
      <trkpt lat="43.77841" lon="5.73066">
        <ele>325.60000610352</ele>
        <time>2020-12-23T11:13:26.000Z</time>
      </trkpt>
      <trkpt lat="43.77832" lon="5.73072">
        <ele>325.79998779297</ele>
        <time>2020-12-23T11:13:33.000Z</time>
      </trkpt>
      <trkpt lat="43.77823" lon="5.73084">
        <ele>325.79998779297</ele>
        <time>2020-12-23T11:13:38.000Z</time>
      </trkpt>
      <trkpt lat="43.77819" lon="5.73089">
        <ele>325.20001220703</ele>
        <time>2020-12-23T11:13:42.000Z</time>
      </trkpt>
      <trkpt lat="43.77816" lon="5.73091">
        <ele>324.60000610352</ele>
        <time>2020-12-23T11:13:50.000Z</time>
      </trkpt>
      <trkpt lat="43.77813" lon="5.73095">
        <ele>324.60000610352</ele>
        <time>2020-12-23T11:13:59.000Z</time>
      </trkpt>
      <trkpt lat="43.77806" lon="5.73107">
        <ele>324.60000610352</ele>
        <time>2020-12-23T11:14:03.000Z</time>
      </trkpt>
      <trkpt lat="43.77799" lon="5.73114">
        <ele>324.60000610352</ele>
        <time>2020-12-23T11:14:07.000Z</time>
      </trkpt>
      <trkpt lat="43.77792" lon="5.73125">
        <ele>324</ele>
        <time>2020-12-23T11:14:12.000Z</time>
      </trkpt>
      <trkpt lat="43.77791" lon="5.73126">
        <ele>324</ele>
        <time>2020-12-23T11:14:13.000Z</time>
      </trkpt>
      <trkpt lat="43.77791" lon="5.73131">
        <ele>323.79998779297</ele>
        <time>2020-12-23T11:14:17.000Z</time>
      </trkpt>
      <trkpt lat="43.77788" lon="5.73137">
        <ele>324</ele>
        <time>2020-12-23T11:14:25.000Z</time>
      </trkpt>
      <trkpt lat="43.77787" lon="5.73138">
        <ele>324</ele>
        <time>2020-12-23T11:14:26.000Z</time>
      </trkpt>
      <trkpt lat="43.77785" lon="5.73143">
        <ele>323.79998779297</ele>
        <time>2020-12-23T11:14:29.000Z</time>
      </trkpt>
      <trkpt lat="43.7778" lon="5.73153">
        <ele>324</ele>
        <time>2020-12-23T11:14:35.000Z</time>
      </trkpt>
      <trkpt lat="43.77778" lon="5.7316">
        <ele>324</ele>
        <time>2020-12-23T11:14:44.000Z</time>
      </trkpt>
      <trkpt lat="43.77778" lon="5.73161">
        <ele>324</ele>
        <time>2020-12-23T11:14:45.000Z</time>
      </trkpt>
      <trkpt lat="43.77778" lon="5.73169">
        <ele>324.20001220703</ele>
        <time>2020-12-23T11:14:53.000Z</time>
      </trkpt>
      <trkpt lat="43.77779" lon="5.73169">
        <ele>324.79998779297</ele>
        <time>2020-12-23T11:14:56.000Z</time>
      </trkpt>
      <trkpt lat="43.77781" lon="5.73168">
        <ele>325.60000610352</ele>
        <time>2020-12-23T11:15:01.000Z</time>
      </trkpt>
      <trkpt lat="43.77783" lon="5.73168">
        <ele>325.79998779297</ele>
        <time>2020-12-23T11:15:02.000Z</time>
      </trkpt>
      <trkpt lat="43.77784" lon="5.73167">
        <ele>326.60000610352</ele>
        <time>2020-12-23T11:15:07.000Z</time>
      </trkpt>
      <trkpt lat="43.77784" lon="5.73169">
        <ele>326.79998779297</ele>
        <time>2020-12-23T11:15:13.000Z</time>
      </trkpt>
      <trkpt lat="43.77784" lon="5.7317">
        <ele>326.79998779297</ele>
        <time>2020-12-23T11:15:14.000Z</time>
      </trkpt>
      <trkpt lat="43.77783" lon="5.73171">
        <ele>327.20001220703</ele>
        <time>2020-12-23T11:15:16.000Z</time>
      </trkpt>
      <trkpt lat="43.7778" lon="5.73174">
        <ele>328.20001220703</ele>
        <time>2020-12-23T11:15:18.000Z</time>
      </trkpt>
      <trkpt lat="43.77776" lon="5.7318">
        <ele>329.20001220703</ele>
        <time>2020-12-23T11:15:22.000Z</time>
      </trkpt>
      <trkpt lat="43.77775" lon="5.7318">
        <ele>329.39999389648</ele>
        <time>2020-12-23T11:15:23.000Z</time>
      </trkpt>
      <trkpt lat="43.77772" lon="5.73184">
        <ele>329.60000610352</ele>
        <time>2020-12-23T11:15:26.000Z</time>
      </trkpt>
      <trkpt lat="43.77769" lon="5.73189">
        <ele>330.39999389648</ele>
        <time>2020-12-23T11:15:28.000Z</time>
      </trkpt>
      <trkpt lat="43.77766" lon="5.7319">
        <ele>330.79998779297</ele>
        <time>2020-12-23T11:15:29.000Z</time>
      </trkpt>
      <trkpt lat="43.7776" lon="5.73193">
        <ele>331</ele>
        <time>2020-12-23T11:15:32.000Z</time>
      </trkpt>
      <trkpt lat="43.77757" lon="5.732">
        <ele>331</ele>
        <time>2020-12-23T11:15:34.000Z</time>
      </trkpt>
      <trkpt lat="43.77754" lon="5.73211">
        <ele>331</ele>
        <time>2020-12-23T11:15:36.000Z</time>
      </trkpt>
      <trkpt lat="43.77753" lon="5.73214">
        <ele>331</ele>
        <time>2020-12-23T11:15:37.000Z</time>
      </trkpt>
      <trkpt lat="43.77752" lon="5.73221">
        <ele>331</ele>
        <time>2020-12-23T11:15:39.000Z</time>
      </trkpt>
      <trkpt lat="43.77749" lon="5.73247">
        <ele>329.39999389648</ele>
        <time>2020-12-23T11:15:46.000Z</time>
      </trkpt>
      <trkpt lat="43.77747" lon="5.73252">
        <ele>329.39999389648</ele>
        <time>2020-12-23T11:15:47.000Z</time>
      </trkpt>
      <trkpt lat="43.77746" lon="5.73257">
        <ele>329.20001220703</ele>
        <time>2020-12-23T11:15:48.000Z</time>
      </trkpt>
      <trkpt lat="43.77743" lon="5.73266">
        <ele>328.79998779297</ele>
        <time>2020-12-23T11:15:50.000Z</time>
      </trkpt>
      <trkpt lat="43.77739" lon="5.7327">
        <ele>328.39999389648</ele>
        <time>2020-12-23T11:15:52.000Z</time>
      </trkpt>
      <trkpt lat="43.77737" lon="5.73273">
        <ele>327.79998779297</ele>
        <time>2020-12-23T11:15:54.000Z</time>
      </trkpt>
      <trkpt lat="43.77735" lon="5.73275">
        <ele>327.20001220703</ele>
        <time>2020-12-23T11:16:02.000Z</time>
      </trkpt>
      <trkpt lat="43.77736" lon="5.73279">
        <ele>327.60000610352</ele>
        <time>2020-12-23T11:16:09.000Z</time>
      </trkpt>
      <trkpt lat="43.77738" lon="5.73279">
        <ele>327.79998779297</ele>
        <time>2020-12-23T11:16:11.000Z</time>
      </trkpt>
      <trkpt lat="43.7774" lon="5.73278">
        <ele>328.20001220703</ele>
        <time>2020-12-23T11:16:14.000Z</time>
      </trkpt>
      <trkpt lat="43.77745" lon="5.73278">
        <ele>328.79998779297</ele>
        <time>2020-12-23T11:16:20.000Z</time>
      </trkpt>
      <trkpt lat="43.77745" lon="5.73279">
        <ele>329.39999389648</ele>
        <time>2020-12-23T11:16:25.000Z</time>
      </trkpt>
      <trkpt lat="43.77745" lon="5.73278">
        <ele>329.79998779297</ele>
        <time>2020-12-23T11:16:36.000Z</time>
      </trkpt>
      <trkpt lat="43.77745" lon="5.73278">
        <ele>329.79998779297</ele>
        <time>2020-12-23T11:16:55.000Z</time>
      </trkpt>
      <trkpt lat="43.77745" lon="5.73278">
        <ele>329.79998779297</ele>
        <time>2020-12-23T11:17:13.000Z</time>
      </trkpt>
      <trkpt lat="43.77745" lon="5.73278">
        <ele>329.79998779297</ele>
        <time>2020-12-23T11:17:29.000Z</time>
      </trkpt>
      <trkpt lat="43.77744" lon="5.73278">
        <ele>329.79998779297</ele>
        <time>2020-12-23T11:17:42.000Z</time>
      </trkpt>
      <trkpt lat="43.77748" lon="5.73277">
        <ele>329.79998779297</ele>
        <time>2020-12-23T11:17:47.000Z</time>
      </trkpt>
      <trkpt lat="43.77762" lon="5.73276">
        <ele>329.79998779297</ele>
        <time>2020-12-23T11:17:54.000Z</time>
      </trkpt>
      <trkpt lat="43.77766" lon="5.73275">
        <ele>330.20001220703</ele>
        <time>2020-12-23T11:17:56.000Z</time>
      </trkpt>
      <trkpt lat="43.77776" lon="5.73274">
        <ele>331</ele>
        <time>2020-12-23T11:18:01.000Z</time>
      </trkpt>
      <trkpt lat="43.77778" lon="5.73273">
        <ele>331.20001220703</ele>
        <time>2020-12-23T11:18:02.000Z</time>
      </trkpt>
      <trkpt lat="43.7779" lon="5.73272">
        <ele>332.39999389648</ele>
        <time>2020-12-23T11:18:08.000Z</time>
      </trkpt>
      <trkpt lat="43.77798" lon="5.73274">
        <ele>333.60000610352</ele>
        <time>2020-12-23T11:18:12.000Z</time>
      </trkpt>
      <trkpt lat="43.77805" lon="5.73277">
        <ele>334.20001220703</ele>
        <time>2020-12-23T11:18:15.000Z</time>
      </trkpt>
      <trkpt lat="43.7781" lon="5.7328">
        <ele>334.79998779297</ele>
        <time>2020-12-23T11:18:17.000Z</time>
      </trkpt>
      <trkpt lat="43.77822" lon="5.73284">
        <ele>335.79998779297</ele>
        <time>2020-12-23T11:18:22.000Z</time>
      </trkpt>
      <trkpt lat="43.77826" lon="5.73284">
        <ele>336.39999389648</ele>
        <time>2020-12-23T11:18:24.000Z</time>
      </trkpt>
      <trkpt lat="43.77835" lon="5.73284">
        <ele>337.20001220703</ele>
        <time>2020-12-23T11:18:28.000Z</time>
      </trkpt>
      <trkpt lat="43.77839" lon="5.73281">
        <ele>337.79998779297</ele>
        <time>2020-12-23T11:18:30.000Z</time>
      </trkpt>
      <trkpt lat="43.77842" lon="5.73272">
        <ele>338.39999389648</ele>
        <time>2020-12-23T11:18:33.000Z</time>
      </trkpt>
      <trkpt lat="43.77842" lon="5.73269">
        <ele>338.39999389648</ele>
        <time>2020-12-23T11:18:34.000Z</time>
      </trkpt>
      <trkpt lat="43.77841" lon="5.73266">
        <ele>338.60000610352</ele>
        <time>2020-12-23T11:18:35.000Z</time>
      </trkpt>
      <trkpt lat="43.77836" lon="5.73259">
        <ele>339.20001220703</ele>
        <time>2020-12-23T11:18:38.000Z</time>
      </trkpt>
      <trkpt lat="43.77834" lon="5.73258">
        <ele>339.39999389648</ele>
        <time>2020-12-23T11:18:39.000Z</time>
      </trkpt>
      <trkpt lat="43.77825" lon="5.73255">
        <ele>339.60000610352</ele>
        <time>2020-12-23T11:18:43.000Z</time>
      </trkpt>
      <trkpt lat="43.77815" lon="5.73252">
        <ele>340.39999389648</ele>
        <time>2020-12-23T11:18:48.000Z</time>
      </trkpt>
      <trkpt lat="43.77809" lon="5.73246">
        <ele>340.79998779297</ele>
        <time>2020-12-23T11:18:51.000Z</time>
      </trkpt>
      <trkpt lat="43.77807" lon="5.73239">
        <ele>341.39999389648</ele>
        <time>2020-12-23T11:18:54.000Z</time>
      </trkpt>
      <trkpt lat="43.77808" lon="5.73237">
        <ele>341.60000610352</ele>
        <time>2020-12-23T11:18:55.000Z</time>
      </trkpt>
      <trkpt lat="43.77817" lon="5.73239">
        <ele>342</ele>
        <time>2020-12-23T11:18:58.000Z</time>
      </trkpt>
      <trkpt lat="43.77819" lon="5.73241">
        <ele>342.20001220703</ele>
        <time>2020-12-23T11:18:59.000Z</time>
      </trkpt>
      <trkpt lat="43.77824" lon="5.73244">
        <ele>342.60000610352</ele>
        <time>2020-12-23T11:19:01.000Z</time>
      </trkpt>
      <trkpt lat="43.77831" lon="5.73247">
        <ele>343.60000610352</ele>
        <time>2020-12-23T11:19:04.000Z</time>
      </trkpt>
      <trkpt lat="43.77833" lon="5.73247">
        <ele>343.79998779297</ele>
        <time>2020-12-23T11:19:05.000Z</time>
      </trkpt>
      <trkpt lat="43.77839" lon="5.73247">
        <ele>344.79998779297</ele>
        <time>2020-12-23T11:19:08.000Z</time>
      </trkpt>
      <trkpt lat="43.77845" lon="5.73246">
        <ele>345.79998779297</ele>
        <time>2020-12-23T11:19:12.000Z</time>
      </trkpt>
      <trkpt lat="43.77846" lon="5.73245">
        <ele>346.20001220703</ele>
        <time>2020-12-23T11:19:13.000Z</time>
      </trkpt>
      <trkpt lat="43.77852" lon="5.73245">
        <ele>346.79998779297</ele>
        <time>2020-12-23T11:19:17.000Z</time>
      </trkpt>
      <trkpt lat="43.77859" lon="5.73245">
        <ele>347.39999389648</ele>
        <time>2020-12-23T11:19:20.000Z</time>
      </trkpt>
      <trkpt lat="43.77867" lon="5.73246">
        <ele>347.79998779297</ele>
        <time>2020-12-23T11:19:24.000Z</time>
      </trkpt>
      <trkpt lat="43.77872" lon="5.73247">
        <ele>348</ele>
        <time>2020-12-23T11:19:26.000Z</time>
      </trkpt>
      <trkpt lat="43.77881" lon="5.73247">
        <ele>348.60000610352</ele>
        <time>2020-12-23T11:19:30.000Z</time>
      </trkpt>
      <trkpt lat="43.77888" lon="5.73248">
        <ele>349</ele>
        <time>2020-12-23T11:19:33.000Z</time>
      </trkpt>
      <trkpt lat="43.77898" lon="5.73251">
        <ele>349.79998779297</ele>
        <time>2020-12-23T11:19:38.000Z</time>
      </trkpt>
      <trkpt lat="43.77903" lon="5.73253">
        <ele>350</ele>
        <time>2020-12-23T11:19:40.000Z</time>
      </trkpt>
      <trkpt lat="43.77912" lon="5.73257">
        <ele>351</ele>
        <time>2020-12-23T11:19:45.000Z</time>
      </trkpt>
      <trkpt lat="43.77914" lon="5.73259">
        <ele>351.20001220703</ele>
        <time>2020-12-23T11:19:46.000Z</time>
      </trkpt>
      <trkpt lat="43.77924" lon="5.73264">
        <ele>352.20001220703</ele>
        <time>2020-12-23T11:19:52.000Z</time>
      </trkpt>
      <trkpt lat="43.77934" lon="5.73268">
        <ele>353.39999389648</ele>
        <time>2020-12-23T11:19:58.000Z</time>
      </trkpt>
      <trkpt lat="43.77935" lon="5.73269">
        <ele>353.39999389648</ele>
        <time>2020-12-23T11:19:59.000Z</time>
      </trkpt>
      <trkpt lat="43.77939" lon="5.73271">
        <ele>354.39999389648</ele>
        <time>2020-12-23T11:20:05.000Z</time>
      </trkpt>
      <trkpt lat="43.77939" lon="5.73271">
        <ele>354.60000610352</ele>
        <time>2020-12-23T11:20:06.000Z</time>
      </trkpt>
      <trkpt lat="43.77939" lon="5.73271">
        <ele>355.39999389648</ele>
        <time>2020-12-23T11:20:18.000Z</time>
      </trkpt>
      <trkpt lat="43.77939" lon="5.73271">
        <ele>355.39999389648</ele>
        <time>2020-12-23T11:20:33.000Z</time>
      </trkpt>
      <trkpt lat="43.77939" lon="5.7327">
        <ele>355.39999389648</ele>
        <time>2020-12-23T11:20:45.000Z</time>
      </trkpt>
      <trkpt lat="43.77939" lon="5.73271">
        <ele>355.39999389648</ele>
        <time>2020-12-23T11:20:57.000Z</time>
      </trkpt>
      <trkpt lat="43.77935" lon="5.7327">
        <ele>355.39999389648</ele>
        <time>2020-12-23T11:21:08.000Z</time>
      </trkpt>
      <trkpt lat="43.77926" lon="5.73265">
        <ele>355.39999389648</ele>
        <time>2020-12-23T11:21:12.000Z</time>
      </trkpt>
      <trkpt lat="43.7792" lon="5.73261">
        <ele>355.39999389648</ele>
        <time>2020-12-23T11:21:14.000Z</time>
      </trkpt>
      <trkpt lat="43.77908" lon="5.73254">
        <ele>355</ele>
        <time>2020-12-23T11:21:17.000Z</time>
      </trkpt>
      <trkpt lat="43.77904" lon="5.73252">
        <ele>354.79998779297</ele>
        <time>2020-12-23T11:21:18.000Z</time>
      </trkpt>
      <trkpt lat="43.77887" lon="5.73248">
        <ele>354</ele>
        <time>2020-12-23T11:21:21.000Z</time>
      </trkpt>
      <trkpt lat="43.77875" lon="5.73247">
        <ele>353</ele>
        <time>2020-12-23T11:21:23.000Z</time>
      </trkpt>
      <trkpt lat="43.77856" lon="5.73246">
        <ele>351.60000610352</ele>
        <time>2020-12-23T11:21:26.000Z</time>
      </trkpt>
      <trkpt lat="43.77849" lon="5.73247">
        <ele>350.79998779297</ele>
        <time>2020-12-23T11:21:27.000Z</time>
      </trkpt>
      <trkpt lat="43.77842" lon="5.73247">
        <ele>350.60000610352</ele>
        <time>2020-12-23T11:21:28.000Z</time>
      </trkpt>
      <trkpt lat="43.77836" lon="5.73246">
        <ele>349.79998779297</ele>
        <time>2020-12-23T11:21:29.000Z</time>
      </trkpt>
      <trkpt lat="43.7783" lon="5.73244">
        <ele>349.20001220703</ele>
        <time>2020-12-23T11:21:30.000Z</time>
      </trkpt>
      <trkpt lat="43.77824" lon="5.73241">
        <ele>348.60000610352</ele>
        <time>2020-12-23T11:21:31.000Z</time>
      </trkpt>
      <trkpt lat="43.77817" lon="5.7324">
        <ele>348.20001220703</ele>
        <time>2020-12-23T11:21:32.000Z</time>
      </trkpt>
      <trkpt lat="43.77811" lon="5.73239">
        <ele>347.60000610352</ele>
        <time>2020-12-23T11:21:33.000Z</time>
      </trkpt>
      <trkpt lat="43.77804" lon="5.73237">
        <ele>347.20001220703</ele>
        <time>2020-12-23T11:21:34.000Z</time>
      </trkpt>
      <trkpt lat="43.778" lon="5.73235">
        <ele>346.60000610352</ele>
        <time>2020-12-23T11:21:35.000Z</time>
      </trkpt>
      <trkpt lat="43.77794" lon="5.73233">
        <ele>345.39999389648</ele>
        <time>2020-12-23T11:21:37.000Z</time>
      </trkpt>
      <trkpt lat="43.77793" lon="5.73232">
        <ele>345</ele>
        <time>2020-12-23T11:21:38.000Z</time>
      </trkpt>
      <trkpt lat="43.77788" lon="5.73229">
        <ele>344</ele>
        <time>2020-12-23T11:21:40.000Z</time>
      </trkpt>
      <trkpt lat="43.77784" lon="5.73226">
        <ele>342.79998779297</ele>
        <time>2020-12-23T11:21:42.000Z</time>
      </trkpt>
      <trkpt lat="43.77781" lon="5.73221">
        <ele>342.39999389648</ele>
        <time>2020-12-23T11:21:45.000Z</time>
      </trkpt>
      <trkpt lat="43.77782" lon="5.73215">
        <ele>341.79998779297</ele>
        <time>2020-12-23T11:21:48.000Z</time>
      </trkpt>
      <trkpt lat="43.77784" lon="5.73208">
        <ele>341.39999389648</ele>
        <time>2020-12-23T11:21:51.000Z</time>
      </trkpt>
      <trkpt lat="43.77789" lon="5.73192">
        <ele>341</ele>
        <time>2020-12-23T11:21:56.000Z</time>
      </trkpt>
      <trkpt lat="43.77798" lon="5.73179">
        <ele>340.79998779297</ele>
        <time>2020-12-23T11:22:00.000Z</time>
      </trkpt>
      <trkpt lat="43.77801" lon="5.73175">
        <ele>340.60000610352</ele>
        <time>2020-12-23T11:22:01.000Z</time>
      </trkpt>
      <trkpt lat="43.77813" lon="5.7315">
        <ele>339.79998779297</ele>
        <time>2020-12-23T11:22:06.000Z</time>
      </trkpt>
      <trkpt lat="43.77815" lon="5.73145">
        <ele>339.60000610352</ele>
        <time>2020-12-23T11:22:07.000Z</time>
      </trkpt>
      <trkpt lat="43.77816" lon="5.7314">
        <ele>339.60000610352</ele>
        <time>2020-12-23T11:22:08.000Z</time>
      </trkpt>
      <trkpt lat="43.77821" lon="5.73127">
        <ele>339.20001220703</ele>
        <time>2020-12-23T11:22:10.000Z</time>
      </trkpt>
      <trkpt lat="43.77831" lon="5.73111">
        <ele>338.79998779297</ele>
        <time>2020-12-23T11:22:13.000Z</time>
      </trkpt>
      <trkpt lat="43.77835" lon="5.73105">
        <ele>338.60000610352</ele>
        <time>2020-12-23T11:22:14.000Z</time>
      </trkpt>
      <trkpt lat="43.77839" lon="5.731">
        <ele>338.60000610352</ele>
        <time>2020-12-23T11:22:15.000Z</time>
      </trkpt>
      <trkpt lat="43.77854" lon="5.73082">
        <ele>337.60000610352</ele>
        <time>2020-12-23T11:22:19.000Z</time>
      </trkpt>
      <trkpt lat="43.77858" lon="5.73078">
        <ele>337.20001220703</ele>
        <time>2020-12-23T11:22:20.000Z</time>
      </trkpt>
      <trkpt lat="43.77868" lon="5.73068">
        <ele>336.60000610352</ele>
        <time>2020-12-23T11:22:23.000Z</time>
      </trkpt>
      <trkpt lat="43.77872" lon="5.73061">
        <ele>336.39999389648</ele>
        <time>2020-12-23T11:22:25.000Z</time>
      </trkpt>
      <trkpt lat="43.77884" lon="5.73041">
        <ele>336.39999389648</ele>
        <time>2020-12-23T11:22:31.000Z</time>
      </trkpt>
      <trkpt lat="43.77894" lon="5.73023">
        <ele>337.60000610352</ele>
        <time>2020-12-23T11:22:37.000Z</time>
      </trkpt>
      <trkpt lat="43.77896" lon="5.7302">
        <ele>337.79998779297</ele>
        <time>2020-12-23T11:22:38.000Z</time>
      </trkpt>
      <trkpt lat="43.77901" lon="5.7301">
        <ele>338.79998779297</ele>
        <time>2020-12-23T11:22:42.000Z</time>
      </trkpt>
      <trkpt lat="43.77905" lon="5.73003">
        <ele>340</ele>
        <time>2020-12-23T11:22:45.000Z</time>
      </trkpt>
      <trkpt lat="43.77907" lon="5.73001">
        <ele>340.20001220703</ele>
        <time>2020-12-23T11:22:46.000Z</time>
      </trkpt>
      <trkpt lat="43.77913" lon="5.72991">
        <ele>341.20001220703</ele>
        <time>2020-12-23T11:22:50.000Z</time>
      </trkpt>
      <trkpt lat="43.7792" lon="5.72985">
        <ele>341.79998779297</ele>
        <time>2020-12-23T11:22:53.000Z</time>
      </trkpt>
      <trkpt lat="43.77925" lon="5.72982">
        <ele>342.20001220703</ele>
        <time>2020-12-23T11:22:55.000Z</time>
      </trkpt>
      <trkpt lat="43.77935" lon="5.72974">
        <ele>343</ele>
        <time>2020-12-23T11:23:00.000Z</time>
      </trkpt>
      <trkpt lat="43.77937" lon="5.72972">
        <ele>343.20001220703</ele>
        <time>2020-12-23T11:23:01.000Z</time>
      </trkpt>
      <trkpt lat="43.77957" lon="5.72954">
        <ele>344</ele>
        <time>2020-12-23T11:23:10.000Z</time>
      </trkpt>
      <trkpt lat="43.77963" lon="5.72947">
        <ele>344.20001220703</ele>
        <time>2020-12-23T11:23:13.000Z</time>
      </trkpt>
      <trkpt lat="43.77973" lon="5.72937">
        <ele>345</ele>
        <time>2020-12-23T11:23:18.000Z</time>
      </trkpt>
      <trkpt lat="43.77978" lon="5.72934">
        <ele>345.39999389648</ele>
        <time>2020-12-23T11:23:20.000Z</time>
      </trkpt>
      <trkpt lat="43.77989" lon="5.7293">
        <ele>346.20001220703</ele>
        <time>2020-12-23T11:23:25.000Z</time>
      </trkpt>
      <trkpt lat="43.77992" lon="5.72929">
        <ele>346.60000610352</ele>
        <time>2020-12-23T11:23:26.000Z</time>
      </trkpt>
      <trkpt lat="43.78004" lon="5.72927">
        <ele>347.39999389648</ele>
        <time>2020-12-23T11:23:32.000Z</time>
      </trkpt>
      <trkpt lat="43.78006" lon="5.72927">
        <ele>347.60000610352</ele>
        <time>2020-12-23T11:23:33.000Z</time>
      </trkpt>
      <trkpt lat="43.78018" lon="5.72926">
        <ele>348.79998779297</ele>
        <time>2020-12-23T11:23:38.000Z</time>
      </trkpt>
      <trkpt lat="43.78025" lon="5.72925">
        <ele>349.20001220703</ele>
        <time>2020-12-23T11:23:41.000Z</time>
      </trkpt>
      <trkpt lat="43.78035" lon="5.72925">
        <ele>349.79998779297</ele>
        <time>2020-12-23T11:23:45.000Z</time>
      </trkpt>
      <trkpt lat="43.78047" lon="5.72925">
        <ele>350.60000610352</ele>
        <time>2020-12-23T11:23:50.000Z</time>
      </trkpt>
      <trkpt lat="43.78052" lon="5.72925">
        <ele>350.79998779297</ele>
        <time>2020-12-23T11:23:52.000Z</time>
      </trkpt>
      <trkpt lat="43.78069" lon="5.72924">
        <ele>351.79998779297</ele>
        <time>2020-12-23T11:23:59.000Z</time>
      </trkpt>
      <trkpt lat="43.78074" lon="5.72923">
        <ele>352</ele>
        <time>2020-12-23T11:24:01.000Z</time>
      </trkpt>
      <trkpt lat="43.78092" lon="5.72917">
        <ele>353.20001220703</ele>
        <time>2020-12-23T11:24:08.000Z</time>
      </trkpt>
      <trkpt lat="43.78107" lon="5.7291">
        <ele>354.39999389648</ele>
        <time>2020-12-23T11:24:14.000Z</time>
      </trkpt>
      <trkpt lat="43.78111" lon="5.72907">
        <ele>354.79998779297</ele>
        <time>2020-12-23T11:24:16.000Z</time>
      </trkpt>
      <trkpt lat="43.78117" lon="5.72901">
        <ele>355.39999389648</ele>
        <time>2020-12-23T11:24:19.000Z</time>
      </trkpt>
      <trkpt lat="43.78127" lon="5.72892">
        <ele>356.39999389648</ele>
        <time>2020-12-23T11:24:24.000Z</time>
      </trkpt>
      <trkpt lat="43.78128" lon="5.7289">
        <ele>356.60000610352</ele>
        <time>2020-12-23T11:24:25.000Z</time>
      </trkpt>
      <trkpt lat="43.78137" lon="5.72884">
        <ele>357.60000610352</ele>
        <time>2020-12-23T11:24:29.000Z</time>
      </trkpt>
      <trkpt lat="43.78142" lon="5.72881">
        <ele>358</ele>
        <time>2020-12-23T11:24:31.000Z</time>
      </trkpt>
      <trkpt lat="43.78149" lon="5.72879">
        <ele>358.79998779297</ele>
        <time>2020-12-23T11:24:34.000Z</time>
      </trkpt>
      <trkpt lat="43.78162" lon="5.72878">
        <ele>359.79998779297</ele>
        <time>2020-12-23T11:24:39.000Z</time>
      </trkpt>
      <trkpt lat="43.78175" lon="5.7288">
        <ele>360.79998779297</ele>
        <time>2020-12-23T11:24:44.000Z</time>
      </trkpt>
      <trkpt lat="43.78187" lon="5.72886">
        <ele>361.60000610352</ele>
        <time>2020-12-23T11:24:49.000Z</time>
      </trkpt>
      <trkpt lat="43.78192" lon="5.72889">
        <ele>362</ele>
        <time>2020-12-23T11:24:51.000Z</time>
      </trkpt>
      <trkpt lat="43.78201" lon="5.72894">
        <ele>362.60000610352</ele>
        <time>2020-12-23T11:24:55.000Z</time>
      </trkpt>
      <trkpt lat="43.7821" lon="5.729">
        <ele>363</ele>
        <time>2020-12-23T11:24:59.000Z</time>
      </trkpt>
      <trkpt lat="43.78214" lon="5.72899">
        <ele>363.20001220703</ele>
        <time>2020-12-23T11:25:01.000Z</time>
      </trkpt>
      <trkpt lat="43.78218" lon="5.72888">
        <ele>363.60000610352</ele>
        <time>2020-12-23T11:25:05.000Z</time>
      </trkpt>
      <trkpt lat="43.78213" lon="5.72869">
        <ele>363.60000610352</ele>
        <time>2020-12-23T11:25:10.000Z</time>
      </trkpt>
      <trkpt lat="43.78205" lon="5.72855">
        <ele>363.60000610352</ele>
        <time>2020-12-23T11:25:14.000Z</time>
      </trkpt>
      <trkpt lat="43.78198" lon="5.72846">
        <ele>364</ele>
        <time>2020-12-23T11:25:17.000Z</time>
      </trkpt>
      <trkpt lat="43.78195" lon="5.7284">
        <ele>364.20001220703</ele>
        <time>2020-12-23T11:25:19.000Z</time>
      </trkpt>
      <trkpt lat="43.78189" lon="5.72823">
        <ele>364.79998779297</ele>
        <time>2020-12-23T11:25:24.000Z</time>
      </trkpt>
      <trkpt lat="43.78189" lon="5.72812">
        <ele>365.20001220703</ele>
        <time>2020-12-23T11:25:27.000Z</time>
      </trkpt>
      <trkpt lat="43.78191" lon="5.72801">
        <ele>365.79998779297</ele>
        <time>2020-12-23T11:25:30.000Z</time>
      </trkpt>
      <trkpt lat="43.78194" lon="5.72792">
        <ele>366.39999389648</ele>
        <time>2020-12-23T11:25:33.000Z</time>
      </trkpt>
      <trkpt lat="43.782" lon="5.72782">
        <ele>367.39999389648</ele>
        <time>2020-12-23T11:25:37.000Z</time>
      </trkpt>
      <trkpt lat="43.78202" lon="5.72779">
        <ele>367.79998779297</ele>
        <time>2020-12-23T11:25:38.000Z</time>
      </trkpt>
      <trkpt lat="43.78209" lon="5.7277">
        <ele>368.79998779297</ele>
        <time>2020-12-23T11:25:42.000Z</time>
      </trkpt>
      <trkpt lat="43.78219" lon="5.72759">
        <ele>370</ele>
        <time>2020-12-23T11:25:47.000Z</time>
      </trkpt>
      <trkpt lat="43.78232" lon="5.72748">
        <ele>371.20001220703</ele>
        <time>2020-12-23T11:25:53.000Z</time>
      </trkpt>
      <trkpt lat="43.78236" lon="5.72745">
        <ele>371.60000610352</ele>
        <time>2020-12-23T11:25:55.000Z</time>
      </trkpt>
      <trkpt lat="43.78243" lon="5.7274">
        <ele>372.39999389648</ele>
        <time>2020-12-23T11:25:58.000Z</time>
      </trkpt>
      <trkpt lat="43.78252" lon="5.72735">
        <ele>373.20001220703</ele>
        <time>2020-12-23T11:26:02.000Z</time>
      </trkpt>
      <trkpt lat="43.78255" lon="5.72734">
        <ele>373.39999389648</ele>
        <time>2020-12-23T11:26:03.000Z</time>
      </trkpt>
      <trkpt lat="43.78267" lon="5.72729">
        <ele>374.60000610352</ele>
        <time>2020-12-23T11:26:08.000Z</time>
      </trkpt>
      <trkpt lat="43.78272" lon="5.72728">
        <ele>375</ele>
        <time>2020-12-23T11:26:10.000Z</time>
      </trkpt>
      <trkpt lat="43.78277" lon="5.72726">
        <ele>375.60000610352</ele>
        <time>2020-12-23T11:26:12.000Z</time>
      </trkpt>
      <trkpt lat="43.78289" lon="5.72722">
        <ele>376.60000610352</ele>
        <time>2020-12-23T11:26:17.000Z</time>
      </trkpt>
      <trkpt lat="43.78294" lon="5.7272">
        <ele>377.20001220703</ele>
        <time>2020-12-23T11:26:19.000Z</time>
      </trkpt>
      <trkpt lat="43.78301" lon="5.72717">
        <ele>377.79998779297</ele>
        <time>2020-12-23T11:26:22.000Z</time>
      </trkpt>
      <trkpt lat="43.78312" lon="5.72713">
        <ele>379</ele>
        <time>2020-12-23T11:26:26.000Z</time>
      </trkpt>
      <trkpt lat="43.78317" lon="5.72712">
        <ele>379.39999389648</ele>
        <time>2020-12-23T11:26:28.000Z</time>
      </trkpt>
      <trkpt lat="43.78324" lon="5.7271">
        <ele>380.20001220703</ele>
        <time>2020-12-23T11:26:31.000Z</time>
      </trkpt>
      <trkpt lat="43.78333" lon="5.72708">
        <ele>381</ele>
        <time>2020-12-23T11:26:35.000Z</time>
      </trkpt>
      <trkpt lat="43.78338" lon="5.72706">
        <ele>381.60000610352</ele>
        <time>2020-12-23T11:26:37.000Z</time>
      </trkpt>
      <trkpt lat="43.78357" lon="5.72699">
        <ele>382.60000610352</ele>
        <time>2020-12-23T11:26:44.000Z</time>
      </trkpt>
      <trkpt lat="43.78378" lon="5.72692">
        <ele>383.39999389648</ele>
        <time>2020-12-23T11:26:52.000Z</time>
      </trkpt>
      <trkpt lat="43.78384" lon="5.7269">
        <ele>383.79998779297</ele>
        <time>2020-12-23T11:26:54.000Z</time>
      </trkpt>
      <trkpt lat="43.78403" lon="5.72687">
        <ele>384.79998779297</ele>
        <time>2020-12-23T11:27:01.000Z</time>
      </trkpt>
      <trkpt lat="43.78406" lon="5.72687">
        <ele>385</ele>
        <time>2020-12-23T11:27:02.000Z</time>
      </trkpt>
      <trkpt lat="43.78426" lon="5.72686">
        <ele>386.20001220703</ele>
        <time>2020-12-23T11:27:09.000Z</time>
      </trkpt>
      <trkpt lat="43.78443" lon="5.72682">
        <ele>386.79998779297</ele>
        <time>2020-12-23T11:27:15.000Z</time>
      </trkpt>
      <trkpt lat="43.78459" lon="5.72673">
        <ele>387.20001220703</ele>
        <time>2020-12-23T11:27:21.000Z</time>
      </trkpt>
      <trkpt lat="43.78461" lon="5.7267">
        <ele>387.39999389648</ele>
        <time>2020-12-23T11:27:22.000Z</time>
      </trkpt>
      <trkpt lat="43.78472" lon="5.72655">
        <ele>387.60000610352</ele>
        <time>2020-12-23T11:27:27.000Z</time>
      </trkpt>
      <trkpt lat="43.78488" lon="5.72641">
        <ele>388.20001220703</ele>
        <time>2020-12-23T11:27:33.000Z</time>
      </trkpt>
      <trkpt lat="43.78491" lon="5.7264">
        <ele>388.39999389648</ele>
        <time>2020-12-23T11:27:34.000Z</time>
      </trkpt>
      <trkpt lat="43.7851" lon="5.72631">
        <ele>389</ele>
        <time>2020-12-23T11:27:41.000Z</time>
      </trkpt>
      <trkpt lat="43.78535" lon="5.72621">
        <ele>389.60000610352</ele>
        <time>2020-12-23T11:27:49.000Z</time>
      </trkpt>
      <trkpt lat="43.78558" lon="5.72618">
        <ele>390.39999389648</ele>
        <time>2020-12-23T11:27:56.000Z</time>
      </trkpt>
      <trkpt lat="43.78565" lon="5.7262">
        <ele>390.60000610352</ele>
        <time>2020-12-23T11:27:58.000Z</time>
      </trkpt>
      <trkpt lat="43.78575" lon="5.72618">
        <ele>390.79998779297</ele>
        <time>2020-12-23T11:28:01.000Z</time>
      </trkpt>
      <trkpt lat="43.78597" lon="5.72604">
        <ele>391.20001220703</ele>
        <time>2020-12-23T11:28:08.000Z</time>
      </trkpt>
      <trkpt lat="43.78611" lon="5.72593">
        <ele>391.39999389648</ele>
        <time>2020-12-23T11:28:13.000Z</time>
      </trkpt>
      <trkpt lat="43.78632" lon="5.72588">
        <ele>391.39999389648</ele>
        <time>2020-12-23T11:28:19.000Z</time>
      </trkpt>
      <trkpt lat="43.78647" lon="5.72586">
        <ele>391.60000610352</ele>
        <time>2020-12-23T11:28:23.000Z</time>
      </trkpt>
      <trkpt lat="43.78649" lon="5.72582">
        <ele>391.60000610352</ele>
        <time>2020-12-23T11:28:24.000Z</time>
      </trkpt>
      <trkpt lat="43.7865" lon="5.72573">
        <ele>391.79998779297</ele>
        <time>2020-12-23T11:28:26.000Z</time>
      </trkpt>
      <trkpt lat="43.78641" lon="5.72559">
        <ele>392</ele>
        <time>2020-12-23T11:28:30.000Z</time>
      </trkpt>
      <trkpt lat="43.78623" lon="5.72549">
        <ele>392.79998779297</ele>
        <time>2020-12-23T11:28:36.000Z</time>
      </trkpt>
      <trkpt lat="43.78619" lon="5.72519">
        <ele>393.79998779297</ele>
        <time>2020-12-23T11:28:41.000Z</time>
      </trkpt>
      <trkpt lat="43.78615" lon="5.72526">
        <ele>394</ele>
        <time>2020-12-23T11:28:42.000Z</time>
      </trkpt>
      <trkpt lat="43.78604" lon="5.7253">
        <ele>395.20001220703</ele>
        <time>2020-12-23T11:28:45.000Z</time>
      </trkpt>
      <trkpt lat="43.78593" lon="5.72534">
        <ele>396</ele>
        <time>2020-12-23T11:28:48.000Z</time>
      </trkpt>
      <trkpt lat="43.7859" lon="5.72535">
        <ele>396.39999389648</ele>
        <time>2020-12-23T11:28:49.000Z</time>
      </trkpt>
      <trkpt lat="43.78578" lon="5.72534">
        <ele>397.20001220703</ele>
        <time>2020-12-23T11:28:53.000Z</time>
      </trkpt>
      <trkpt lat="43.78571" lon="5.72535">
        <ele>397.60000610352</ele>
        <time>2020-12-23T11:28:55.000Z</time>
      </trkpt>
      <trkpt lat="43.7856" lon="5.72534">
        <ele>398.20001220703</ele>
        <time>2020-12-23T11:28:58.000Z</time>
      </trkpt>
      <trkpt lat="43.78546" lon="5.72531">
        <ele>399.20001220703</ele>
        <time>2020-12-23T11:29:03.000Z</time>
      </trkpt>
      <trkpt lat="43.78543" lon="5.7253">
        <ele>399.39999389648</ele>
        <time>2020-12-23T11:29:04.000Z</time>
      </trkpt>
      <trkpt lat="43.78532" lon="5.72525">
        <ele>400.60000610352</ele>
        <time>2020-12-23T11:29:08.000Z</time>
      </trkpt>
      <trkpt lat="43.78525" lon="5.72522">
        <ele>401.20001220703</ele>
        <time>2020-12-23T11:29:11.000Z</time>
      </trkpt>
      <trkpt lat="43.7852" lon="5.7252">
        <ele>401.79998779297</ele>
        <time>2020-12-23T11:29:13.000Z</time>
      </trkpt>
      <trkpt lat="43.78509" lon="5.72519">
        <ele>402.60000610352</ele>
        <time>2020-12-23T11:29:17.000Z</time>
      </trkpt>
      <trkpt lat="43.78504" lon="5.72519">
        <ele>402.79998779297</ele>
        <time>2020-12-23T11:29:19.000Z</time>
      </trkpt>
      <trkpt lat="43.78487" lon="5.7252">
        <ele>404</ele>
        <time>2020-12-23T11:29:25.000Z</time>
      </trkpt>
      <trkpt lat="43.78482" lon="5.72519">
        <ele>404.39999389648</ele>
        <time>2020-12-23T11:29:27.000Z</time>
      </trkpt>
      <trkpt lat="43.78473" lon="5.72516">
        <ele>405.20001220703</ele>
        <time>2020-12-23T11:29:30.000Z</time>
      </trkpt>
      <trkpt lat="43.78462" lon="5.72512">
        <ele>405.79998779297</ele>
        <time>2020-12-23T11:29:34.000Z</time>
      </trkpt>
      <trkpt lat="43.78457" lon="5.72512">
        <ele>406.20001220703</ele>
        <time>2020-12-23T11:29:36.000Z</time>
      </trkpt>
      <trkpt lat="43.78446" lon="5.72513">
        <ele>407.20001220703</ele>
        <time>2020-12-23T11:29:40.000Z</time>
      </trkpt>
      <trkpt lat="43.78444" lon="5.72514">
        <ele>407.60000610352</ele>
        <time>2020-12-23T11:29:41.000Z</time>
      </trkpt>
      <trkpt lat="43.7843" lon="5.72517">
        <ele>408.79998779297</ele>
        <time>2020-12-23T11:29:46.000Z</time>
      </trkpt>
      <trkpt lat="43.78425" lon="5.72517">
        <ele>409.20001220703</ele>
        <time>2020-12-23T11:29:48.000Z</time>
      </trkpt>
      <trkpt lat="43.78416" lon="5.72515">
        <ele>410</ele>
        <time>2020-12-23T11:29:51.000Z</time>
      </trkpt>
      <trkpt lat="43.78403" lon="5.72507">
        <ele>410.79998779297</ele>
        <time>2020-12-23T11:29:56.000Z</time>
      </trkpt>
      <trkpt lat="43.784" lon="5.72506">
        <ele>411.20001220703</ele>
        <time>2020-12-23T11:29:57.000Z</time>
      </trkpt>
      <trkpt lat="43.78383" lon="5.72504">
        <ele>412.20001220703</ele>
        <time>2020-12-23T11:30:03.000Z</time>
      </trkpt>
      <trkpt lat="43.78369" lon="5.72508">
        <ele>413.60000610352</ele>
        <time>2020-12-23T11:30:08.000Z</time>
      </trkpt>
      <trkpt lat="43.7836" lon="5.72509">
        <ele>414.20001220703</ele>
        <time>2020-12-23T11:30:11.000Z</time>
      </trkpt>
      <trkpt lat="43.78354" lon="5.72508">
        <ele>414.79998779297</ele>
        <time>2020-12-23T11:30:13.000Z</time>
      </trkpt>
      <trkpt lat="43.7834" lon="5.72503">
        <ele>415.60000610352</ele>
        <time>2020-12-23T11:30:18.000Z</time>
      </trkpt>
      <trkpt lat="43.78337" lon="5.72502">
        <ele>415.79998779297</ele>
        <time>2020-12-23T11:30:19.000Z</time>
      </trkpt>
      <trkpt lat="43.78324" lon="5.72499">
        <ele>416.79998779297</ele>
        <time>2020-12-23T11:30:24.000Z</time>
      </trkpt>
      <trkpt lat="43.78321" lon="5.72499">
        <ele>417</ele>
        <time>2020-12-23T11:30:25.000Z</time>
      </trkpt>
      <trkpt lat="43.78308" lon="5.725">
        <ele>418</ele>
        <time>2020-12-23T11:30:30.000Z</time>
      </trkpt>
      <trkpt lat="43.78302" lon="5.725">
        <ele>418.39999389648</ele>
        <time>2020-12-23T11:30:32.000Z</time>
      </trkpt>
      <trkpt lat="43.78291" lon="5.72503">
        <ele>419.39999389648</ele>
        <time>2020-12-23T11:30:36.000Z</time>
      </trkpt>
      <trkpt lat="43.78282" lon="5.72504">
        <ele>419.79998779297</ele>
        <time>2020-12-23T11:30:39.000Z</time>
      </trkpt>
      <trkpt lat="43.78261" lon="5.72512">
        <ele>420.20001220703</ele>
        <time>2020-12-23T11:30:46.000Z</time>
      </trkpt>
      <trkpt lat="43.78244" lon="5.72517">
        <ele>420.60000610352</ele>
        <time>2020-12-23T11:30:52.000Z</time>
      </trkpt>
      <trkpt lat="43.78241" lon="5.72516">
        <ele>420.79998779297</ele>
        <time>2020-12-23T11:30:53.000Z</time>
      </trkpt>
      <trkpt lat="43.78234" lon="5.72509">
        <ele>421</ele>
        <time>2020-12-23T11:30:57.000Z</time>
      </trkpt>
      <trkpt lat="43.78233" lon="5.72507">
        <ele>421.20001220703</ele>
        <time>2020-12-23T11:31:02.000Z</time>
      </trkpt>
      <trkpt lat="43.78231" lon="5.72511">
        <ele>421.60000610352</ele>
        <time>2020-12-23T11:31:05.000Z</time>
      </trkpt>
      <trkpt lat="43.78231" lon="5.72513">
        <ele>421.79998779297</ele>
        <time>2020-12-23T11:31:06.000Z</time>
      </trkpt>
      <trkpt lat="43.78229" lon="5.72515">
        <ele>421.79998779297</ele>
        <time>2020-12-23T11:31:07.000Z</time>
      </trkpt>
      <trkpt lat="43.78221" lon="5.72518">
        <ele>421.79998779297</ele>
        <time>2020-12-23T11:31:11.000Z</time>
      </trkpt>
      <trkpt lat="43.78216" lon="5.72516">
        <ele>421.79998779297</ele>
        <time>2020-12-23T11:31:13.000Z</time>
      </trkpt>
      <trkpt lat="43.78206" lon="5.72516">
        <ele>421.79998779297</ele>
        <time>2020-12-23T11:31:16.000Z</time>
      </trkpt>
      <trkpt lat="43.78197" lon="5.72519">
        <ele>421.39999389648</ele>
        <time>2020-12-23T11:31:18.000Z</time>
      </trkpt>
      <trkpt lat="43.78187" lon="5.72527">
        <ele>421.20001220703</ele>
        <time>2020-12-23T11:31:21.000Z</time>
      </trkpt>
      <trkpt lat="43.78185" lon="5.72531">
        <ele>421.20001220703</ele>
        <time>2020-12-23T11:31:22.000Z</time>
      </trkpt>
      <trkpt lat="43.78182" lon="5.72533">
        <ele>420.79998779297</ele>
        <time>2020-12-23T11:31:23.000Z</time>
      </trkpt>
      <trkpt lat="43.78175" lon="5.72541">
        <ele>420.60000610352</ele>
        <time>2020-12-23T11:31:26.000Z</time>
      </trkpt>
      <trkpt lat="43.78161" lon="5.72552">
        <ele>420.60000610352</ele>
        <time>2020-12-23T11:31:31.000Z</time>
      </trkpt>
      <trkpt lat="43.78147" lon="5.72565">
        <ele>420.60000610352</ele>
        <time>2020-12-23T11:31:36.000Z</time>
      </trkpt>
      <trkpt lat="43.78143" lon="5.7258">
        <ele>420.39999389648</ele>
        <time>2020-12-23T11:31:41.000Z</time>
      </trkpt>
      <trkpt lat="43.78142" lon="5.72588">
        <ele>419.79998779297</ele>
        <time>2020-12-23T11:31:43.000Z</time>
      </trkpt>
      <trkpt lat="43.78139" lon="5.72602">
        <ele>418.60000610352</ele>
        <time>2020-12-23T11:31:46.000Z</time>
      </trkpt>
      <trkpt lat="43.78133" lon="5.72623">
        <ele>417.39999389648</ele>
        <time>2020-12-23T11:31:50.000Z</time>
      </trkpt>
      <trkpt lat="43.78132" lon="5.72627">
        <ele>417</ele>
        <time>2020-12-23T11:31:51.000Z</time>
      </trkpt>
      <trkpt lat="43.78132" lon="5.72631">
        <ele>416.60000610352</ele>
        <time>2020-12-23T11:31:52.000Z</time>
      </trkpt>
      <trkpt lat="43.78133" lon="5.72635">
        <ele>416.20001220703</ele>
        <time>2020-12-23T11:31:53.000Z</time>
      </trkpt>
      <trkpt lat="43.78136" lon="5.72647">
        <ele>415.20001220703</ele>
        <time>2020-12-23T11:31:55.000Z</time>
      </trkpt>
      <trkpt lat="43.78137" lon="5.7266">
        <ele>413.39999389648</ele>
        <time>2020-12-23T11:31:57.000Z</time>
      </trkpt>
      <trkpt lat="43.78136" lon="5.72667">
        <ele>411.60000610352</ele>
        <time>2020-12-23T11:31:58.000Z</time>
      </trkpt>
      <trkpt lat="43.78134" lon="5.72674">
        <ele>410.79998779297</ele>
        <time>2020-12-23T11:31:59.000Z</time>
      </trkpt>
      <trkpt lat="43.78132" lon="5.7268">
        <ele>410</ele>
        <time>2020-12-23T11:32:00.000Z</time>
      </trkpt>
      <trkpt lat="43.78125" lon="5.72692">
        <ele>408.20001220703</ele>
        <time>2020-12-23T11:32:02.000Z</time>
      </trkpt>
      <trkpt lat="43.78122" lon="5.72697">
        <ele>407</ele>
        <time>2020-12-23T11:32:03.000Z</time>
      </trkpt>
      <trkpt lat="43.78118" lon="5.72703">
        <ele>405.79998779297</ele>
        <time>2020-12-23T11:32:04.000Z</time>
      </trkpt>
      <trkpt lat="43.78116" lon="5.72708">
        <ele>404.79998779297</ele>
        <time>2020-12-23T11:32:05.000Z</time>
      </trkpt>
      <trkpt lat="43.78113" lon="5.72714">
        <ele>403.39999389648</ele>
        <time>2020-12-23T11:32:06.000Z</time>
      </trkpt>
      <trkpt lat="43.7811" lon="5.7272">
        <ele>402.20001220703</ele>
        <time>2020-12-23T11:32:07.000Z</time>
      </trkpt>
      <trkpt lat="43.78107" lon="5.72727">
        <ele>401</ele>
        <time>2020-12-23T11:32:08.000Z</time>
      </trkpt>
      <trkpt lat="43.78106" lon="5.72732">
        <ele>400</ele>
        <time>2020-12-23T11:32:09.000Z</time>
      </trkpt>
      <trkpt lat="43.78107" lon="5.72736">
        <ele>398.79998779297</ele>
        <time>2020-12-23T11:32:10.000Z</time>
      </trkpt>
      <trkpt lat="43.7811" lon="5.7274">
        <ele>397.39999389648</ele>
        <time>2020-12-23T11:32:12.000Z</time>
      </trkpt>
      <trkpt lat="43.78111" lon="5.72743">
        <ele>396.20001220703</ele>
        <time>2020-12-23T11:32:14.000Z</time>
      </trkpt>
      <trkpt lat="43.7811" lon="5.7275">
        <ele>394.79998779297</ele>
        <time>2020-12-23T11:32:16.000Z</time>
      </trkpt>
      <trkpt lat="43.7811" lon="5.72758">
        <ele>393.79998779297</ele>
        <time>2020-12-23T11:32:18.000Z</time>
      </trkpt>
      <trkpt lat="43.7811" lon="5.72762">
        <ele>393.60000610352</ele>
        <time>2020-12-23T11:32:19.000Z</time>
      </trkpt>
      <trkpt lat="43.78105" lon="5.72783">
        <ele>392.39999389648</ele>
        <time>2020-12-23T11:32:23.000Z</time>
      </trkpt>
      <trkpt lat="43.78102" lon="5.72792">
        <ele>390.39999389648</ele>
        <time>2020-12-23T11:32:25.000Z</time>
      </trkpt>
      <trkpt lat="43.78096" lon="5.72802">
        <ele>388.60000610352</ele>
        <time>2020-12-23T11:32:27.000Z</time>
      </trkpt>
      <trkpt lat="43.78093" lon="5.72808">
        <ele>387.60000610352</ele>
        <time>2020-12-23T11:32:28.000Z</time>
      </trkpt>
      <trkpt lat="43.78089" lon="5.72813">
        <ele>386.39999389648</ele>
        <time>2020-12-23T11:32:29.000Z</time>
      </trkpt>
      <trkpt lat="43.78085" lon="5.72817">
        <ele>385.20001220703</ele>
        <time>2020-12-23T11:32:30.000Z</time>
      </trkpt>
      <trkpt lat="43.78078" lon="5.72824">
        <ele>383.39999389648</ele>
        <time>2020-12-23T11:32:32.000Z</time>
      </trkpt>
      <trkpt lat="43.78075" lon="5.72827">
        <ele>382</ele>
        <time>2020-12-23T11:32:33.000Z</time>
      </trkpt>
      <trkpt lat="43.78072" lon="5.72828">
        <ele>380.79998779297</ele>
        <time>2020-12-23T11:32:34.000Z</time>
      </trkpt>
      <trkpt lat="43.78069" lon="5.72829">
        <ele>379.39999389648</ele>
        <time>2020-12-23T11:32:35.000Z</time>
      </trkpt>
      <trkpt lat="43.78066" lon="5.72829">
        <ele>378.39999389648</ele>
        <time>2020-12-23T11:32:36.000Z</time>
      </trkpt>
      <trkpt lat="43.78062" lon="5.72829">
        <ele>377.39999389648</ele>
        <time>2020-12-23T11:32:37.000Z</time>
      </trkpt>
      <trkpt lat="43.78058" lon="5.72825">
        <ele>376</ele>
        <time>2020-12-23T11:32:39.000Z</time>
      </trkpt>
      <trkpt lat="43.78056" lon="5.72823">
        <ele>375.60000610352</ele>
        <time>2020-12-23T11:32:40.000Z</time>
      </trkpt>
      <trkpt lat="43.78053" lon="5.7282">
        <ele>374.60000610352</ele>
        <time>2020-12-23T11:32:42.000Z</time>
      </trkpt>
      <trkpt lat="43.7805" lon="5.72822">
        <ele>373.79998779297</ele>
        <time>2020-12-23T11:32:44.000Z</time>
      </trkpt>
      <trkpt lat="43.78048" lon="5.72823">
        <ele>373</ele>
        <time>2020-12-23T11:32:45.000Z</time>
      </trkpt>
      <trkpt lat="43.78046" lon="5.72823">
        <ele>372</ele>
        <time>2020-12-23T11:32:46.000Z</time>
      </trkpt>
      <trkpt lat="43.78042" lon="5.72819">
        <ele>370.60000610352</ele>
        <time>2020-12-23T11:32:48.000Z</time>
      </trkpt>
      <trkpt lat="43.78039" lon="5.72805">
        <ele>369.39999389648</ele>
        <time>2020-12-23T11:32:51.000Z</time>
      </trkpt>
      <trkpt lat="43.78039" lon="5.72799">
        <ele>367.79998779297</ele>
        <time>2020-12-23T11:32:52.000Z</time>
      </trkpt>
      <trkpt lat="43.78037" lon="5.72792">
        <ele>366.39999389648</ele>
        <time>2020-12-23T11:32:54.000Z</time>
      </trkpt>
      <trkpt lat="43.78036" lon="5.72789">
        <ele>365.60000610352</ele>
        <time>2020-12-23T11:32:55.000Z</time>
      </trkpt>
      <trkpt lat="43.78035" lon="5.72786">
        <ele>364.60000610352</ele>
        <time>2020-12-23T11:32:56.000Z</time>
      </trkpt>
      <trkpt lat="43.78035" lon="5.72782">
        <ele>363.39999389648</ele>
        <time>2020-12-23T11:32:57.000Z</time>
      </trkpt>
      <trkpt lat="43.78036" lon="5.72774">
        <ele>361.60000610352</ele>
        <time>2020-12-23T11:32:59.000Z</time>
      </trkpt>
      <trkpt lat="43.78035" lon="5.72763">
        <ele>360.60000610352</ele>
        <time>2020-12-23T11:33:02.000Z</time>
      </trkpt>
      <trkpt lat="43.78035" lon="5.7276">
        <ele>360.39999389648</ele>
        <time>2020-12-23T11:33:03.000Z</time>
      </trkpt>
      <trkpt lat="43.78034" lon="5.72758">
        <ele>360.20001220703</ele>
        <time>2020-12-23T11:33:04.000Z</time>
      </trkpt>
      <trkpt lat="43.7803" lon="5.72757">
        <ele>359.39999389648</ele>
        <time>2020-12-23T11:33:06.000Z</time>
      </trkpt>
      <trkpt lat="43.7802" lon="5.72756">
        <ele>358.20001220703</ele>
        <time>2020-12-23T11:33:11.000Z</time>
      </trkpt>
      <trkpt lat="43.78019" lon="5.72747">
        <ele>357.39999389648</ele>
        <time>2020-12-23T11:33:13.000Z</time>
      </trkpt>
      <trkpt lat="43.78018" lon="5.72742">
        <ele>356.79998779297</ele>
        <time>2020-12-23T11:33:14.000Z</time>
      </trkpt>
      <trkpt lat="43.78016" lon="5.72734">
        <ele>355</ele>
        <time>2020-12-23T11:33:16.000Z</time>
      </trkpt>
      <trkpt lat="43.78014" lon="5.72728">
        <ele>353</ele>
        <time>2020-12-23T11:33:18.000Z</time>
      </trkpt>
      <trkpt lat="43.78012" lon="5.72723">
        <ele>351.79998779297</ele>
        <time>2020-12-23T11:33:20.000Z</time>
      </trkpt>
      <trkpt lat="43.78001" lon="5.72708">
        <ele>351.20001220703</ele>
        <time>2020-12-23T11:33:24.000Z</time>
      </trkpt>
      <trkpt lat="43.77992" lon="5.72696">
        <ele>350.60000610352</ele>
        <time>2020-12-23T11:33:27.000Z</time>
      </trkpt>
      <trkpt lat="43.7799" lon="5.72693">
        <ele>350.39999389648</ele>
        <time>2020-12-23T11:33:28.000Z</time>
      </trkpt>
      <trkpt lat="43.77987" lon="5.72689">
        <ele>350.39999389648</ele>
        <time>2020-12-23T11:33:29.000Z</time>
      </trkpt>
      <trkpt lat="43.77979" lon="5.7268">
        <ele>350</ele>
        <time>2020-12-23T11:33:32.000Z</time>
      </trkpt>
      <trkpt lat="43.77974" lon="5.72668">
        <ele>349.79998779297</ele>
        <time>2020-12-23T11:33:37.000Z</time>
      </trkpt>
      <trkpt lat="43.77966" lon="5.72662">
        <ele>349.79998779297</ele>
        <time>2020-12-23T11:33:40.000Z</time>
      </trkpt>
      <trkpt lat="43.77962" lon="5.7266">
        <ele>349.79998779297</ele>
        <time>2020-12-23T11:33:41.000Z</time>
      </trkpt>
      <trkpt lat="43.77954" lon="5.72652">
        <ele>350.79998779297</ele>
        <time>2020-12-23T11:33:45.000Z</time>
      </trkpt>
      <trkpt lat="43.77945" lon="5.72644">
        <ele>351.39999389648</ele>
        <time>2020-12-23T11:33:50.000Z</time>
      </trkpt>
      <trkpt lat="43.77938" lon="5.72639">
        <ele>352</ele>
        <time>2020-12-23T11:33:52.000Z</time>
      </trkpt>
      <trkpt lat="43.77934" lon="5.72633">
        <ele>353</ele>
        <time>2020-12-23T11:33:54.000Z</time>
      </trkpt>
      <trkpt lat="43.77929" lon="5.72624">
        <ele>354</ele>
        <time>2020-12-23T11:33:57.000Z</time>
      </trkpt>
      <trkpt lat="43.77928" lon="5.72619">
        <ele>354.20001220703</ele>
        <time>2020-12-23T11:33:58.000Z</time>
      </trkpt>
      <trkpt lat="43.77923" lon="5.72609">
        <ele>354.39999389648</ele>
        <time>2020-12-23T11:34:00.000Z</time>
      </trkpt>
      <trkpt lat="43.77919" lon="5.72605">
        <ele>354.39999389648</ele>
        <time>2020-12-23T11:34:01.000Z</time>
      </trkpt>
      <trkpt lat="43.77916" lon="5.726">
        <ele>354.39999389648</ele>
        <time>2020-12-23T11:34:02.000Z</time>
      </trkpt>
      <trkpt lat="43.77916" lon="5.72594">
        <ele>354.39999389648</ele>
        <time>2020-12-23T11:34:04.000Z</time>
      </trkpt>
      <trkpt lat="43.7792" lon="5.72591">
        <ele>354.20001220703</ele>
        <time>2020-12-23T11:34:06.000Z</time>
      </trkpt>
      <trkpt lat="43.77924" lon="5.7258">
        <ele>352.60000610352</ele>
        <time>2020-12-23T11:34:09.000Z</time>
      </trkpt>
      <trkpt lat="43.77926" lon="5.72569">
        <ele>351.39999389648</ele>
        <time>2020-12-23T11:34:11.000Z</time>
      </trkpt>
      <trkpt lat="43.7793" lon="5.72556">
        <ele>351</ele>
        <time>2020-12-23T11:34:14.000Z</time>
      </trkpt>
      <trkpt lat="43.77933" lon="5.72536">
        <ele>350.79998779297</ele>
        <time>2020-12-23T11:34:19.000Z</time>
      </trkpt>
      <trkpt lat="43.77939" lon="5.72529">
        <ele>350.79998779297</ele>
        <time>2020-12-23T11:34:22.000Z</time>
      </trkpt>
      <trkpt lat="43.77941" lon="5.72525">
        <ele>350.79998779297</ele>
        <time>2020-12-23T11:34:23.000Z</time>
      </trkpt>
      <trkpt lat="43.77946" lon="5.72519">
        <ele>350.39999389648</ele>
        <time>2020-12-23T11:34:25.000Z</time>
      </trkpt>
      <trkpt lat="43.77947" lon="5.72517">
        <ele>349.60000610352</ele>
        <time>2020-12-23T11:34:26.000Z</time>
      </trkpt>
      <trkpt lat="43.77949" lon="5.72513">
        <ele>349</ele>
        <time>2020-12-23T11:34:27.000Z</time>
      </trkpt>
      <trkpt lat="43.77955" lon="5.72496">
        <ele>348.20001220703</ele>
        <time>2020-12-23T11:34:30.000Z</time>
      </trkpt>
      <trkpt lat="43.77958" lon="5.72491">
        <ele>348</ele>
        <time>2020-12-23T11:34:31.000Z</time>
      </trkpt>
      <trkpt lat="43.77961" lon="5.72488">
        <ele>347.79998779297</ele>
        <time>2020-12-23T11:34:32.000Z</time>
      </trkpt>
      <trkpt lat="43.77964" lon="5.72486">
        <ele>347.79998779297</ele>
        <time>2020-12-23T11:34:33.000Z</time>
      </trkpt>
      <trkpt lat="43.77968" lon="5.72482">
        <ele>347.60000610352</ele>
        <time>2020-12-23T11:34:35.000Z</time>
      </trkpt>
      <trkpt lat="43.77971" lon="5.72478">
        <ele>347.79998779297</ele>
        <time>2020-12-23T11:34:38.000Z</time>
      </trkpt>
      <trkpt lat="43.77973" lon="5.72465">
        <ele>348</ele>
        <time>2020-12-23T11:34:42.000Z</time>
      </trkpt>
      <trkpt lat="43.77977" lon="5.72453">
        <ele>348.60000610352</ele>
        <time>2020-12-23T11:34:46.000Z</time>
      </trkpt>
      <trkpt lat="43.77978" lon="5.72448">
        <ele>349</ele>
        <time>2020-12-23T11:34:48.000Z</time>
      </trkpt>
      <trkpt lat="43.77979" lon="5.72444">
        <ele>349</ele>
        <time>2020-12-23T11:34:49.000Z</time>
      </trkpt>
      <trkpt lat="43.7798" lon="5.72435">
        <ele>349.20001220703</ele>
        <time>2020-12-23T11:34:51.000Z</time>
      </trkpt>
      <trkpt lat="43.77984" lon="5.72414">
        <ele>349.39999389648</ele>
        <time>2020-12-23T11:34:56.000Z</time>
      </trkpt>
      <trkpt lat="43.77985" lon="5.72391">
        <ele>349.39999389648</ele>
        <time>2020-12-23T11:35:01.000Z</time>
      </trkpt>
      <trkpt lat="43.77988" lon="5.72375">
        <ele>349.39999389648</ele>
        <time>2020-12-23T11:35:05.000Z</time>
      </trkpt>
      <trkpt lat="43.77991" lon="5.72353">
        <ele>349.39999389648</ele>
        <time>2020-12-23T11:35:10.000Z</time>
      </trkpt>
      <trkpt lat="43.77996" lon="5.72337">
        <ele>349.39999389648</ele>
        <time>2020-12-23T11:35:15.000Z</time>
      </trkpt>
      <trkpt lat="43.78007" lon="5.72317">
        <ele>349.79998779297</ele>
        <time>2020-12-23T11:35:20.000Z</time>
      </trkpt>
      <trkpt lat="43.78011" lon="5.72313">
        <ele>349.79998779297</ele>
        <time>2020-12-23T11:35:21.000Z</time>
      </trkpt>
      <trkpt lat="43.78021" lon="5.72297">
        <ele>350</ele>
        <time>2020-12-23T11:35:24.000Z</time>
      </trkpt>
      <trkpt lat="43.78024" lon="5.72287">
        <ele>350</ele>
        <time>2020-12-23T11:35:26.000Z</time>
      </trkpt>
      <trkpt lat="43.78026" lon="5.72281">
        <ele>350</ele>
        <time>2020-12-23T11:35:28.000Z</time>
      </trkpt>
      <trkpt lat="43.78037" lon="5.72265">
        <ele>349.20001220703</ele>
        <time>2020-12-23T11:35:34.000Z</time>
      </trkpt>
      <trkpt lat="43.78045" lon="5.72251">
        <ele>349.79998779297</ele>
        <time>2020-12-23T11:35:40.000Z</time>
      </trkpt>
      <trkpt lat="43.78046" lon="5.72248">
        <ele>350</ele>
        <time>2020-12-23T11:35:41.000Z</time>
      </trkpt>
      <trkpt lat="43.78052" lon="5.72241">
        <ele>351.39999389648</ele>
        <time>2020-12-23T11:35:45.000Z</time>
      </trkpt>
      <trkpt lat="43.78054" lon="5.72241">
        <ele>351.79998779297</ele>
        <time>2020-12-23T11:35:46.000Z</time>
      </trkpt>
      <trkpt lat="43.78057" lon="5.72241">
        <ele>352.60000610352</ele>
        <time>2020-12-23T11:35:48.000Z</time>
      </trkpt>
      <trkpt lat="43.7806" lon="5.7224">
        <ele>353.79998779297</ele>
        <time>2020-12-23T11:35:51.000Z</time>
      </trkpt>
      <trkpt lat="43.78065" lon="5.72239">
        <ele>355</ele>
        <time>2020-12-23T11:35:54.000Z</time>
      </trkpt>
      <trkpt lat="43.78068" lon="5.72236">
        <ele>356</ele>
        <time>2020-12-23T11:35:57.000Z</time>
      </trkpt>
      <trkpt lat="43.78068" lon="5.72235">
        <ele>356.20001220703</ele>
        <time>2020-12-23T11:35:58.000Z</time>
      </trkpt>
      <trkpt lat="43.78068" lon="5.72235">
        <ele>356.39999389648</ele>
        <time>2020-12-23T11:35:59.000Z</time>
      </trkpt>
      <trkpt lat="43.78068" lon="5.72236">
        <ele>357.20001220703</ele>
        <time>2020-12-23T11:36:04.000Z</time>
      </trkpt>
      <trkpt lat="43.78068" lon="5.72235">
        <ele>357.79998779297</ele>
        <time>2020-12-23T11:36:13.000Z</time>
      </trkpt>
      <trkpt lat="43.78069" lon="5.72236">
        <ele>357.79998779297</ele>
        <time>2020-12-23T11:36:14.000Z</time>
      </trkpt>
      <trkpt lat="43.78069" lon="5.72233">
        <ele>357.79998779297</ele>
        <time>2020-12-23T11:36:23.000Z</time>
      </trkpt>
      <trkpt lat="43.78073" lon="5.72221">
        <ele>357.79998779297</ele>
        <time>2020-12-23T11:36:26.000Z</time>
      </trkpt>
      <trkpt lat="43.78075" lon="5.72215">
        <ele>357.79998779297</ele>
        <time>2020-12-23T11:36:27.000Z</time>
      </trkpt>
      <trkpt lat="43.78082" lon="5.72206">
        <ele>357.60000610352</ele>
        <time>2020-12-23T11:36:29.000Z</time>
      </trkpt>
      <trkpt lat="43.78095" lon="5.7219">
        <ele>356.20001220703</ele>
        <time>2020-12-23T11:36:33.000Z</time>
      </trkpt>
      <trkpt lat="43.78098" lon="5.72187">
        <ele>355</ele>
        <time>2020-12-23T11:36:34.000Z</time>
      </trkpt>
      <trkpt lat="43.78101" lon="5.72185">
        <ele>354</ele>
        <time>2020-12-23T11:36:35.000Z</time>
      </trkpt>
      <trkpt lat="43.78107" lon="5.72179">
        <ele>352.60000610352</ele>
        <time>2020-12-23T11:36:37.000Z</time>
      </trkpt>
      <trkpt lat="43.7811" lon="5.72175">
        <ele>352.39999389648</ele>
        <time>2020-12-23T11:36:38.000Z</time>
      </trkpt>
      <trkpt lat="43.78112" lon="5.7217">
        <ele>352.20001220703</ele>
        <time>2020-12-23T11:36:39.000Z</time>
      </trkpt>
      <trkpt lat="43.78122" lon="5.7215">
        <ele>351.79998779297</ele>
        <time>2020-12-23T11:36:43.000Z</time>
      </trkpt>
      <trkpt lat="43.7813" lon="5.72131">
        <ele>351.79998779297</ele>
        <time>2020-12-23T11:36:47.000Z</time>
      </trkpt>
      <trkpt lat="43.7813" lon="5.72125">
        <ele>351.60000610352</ele>
        <time>2020-12-23T11:36:48.000Z</time>
      </trkpt>
      <trkpt lat="43.78128" lon="5.7211">
        <ele>351.20001220703</ele>
        <time>2020-12-23T11:36:50.000Z</time>
      </trkpt>
      <trkpt lat="43.78125" lon="5.72103">
        <ele>351</ele>
        <time>2020-12-23T11:36:51.000Z</time>
      </trkpt>
      <trkpt lat="43.78124" lon="5.72095">
        <ele>351</ele>
        <time>2020-12-23T11:36:52.000Z</time>
      </trkpt>
      <trkpt lat="43.78124" lon="5.72089">
        <ele>350.60000610352</ele>
        <time>2020-12-23T11:36:53.000Z</time>
      </trkpt>
      <trkpt lat="43.78126" lon="5.72082">
        <ele>350.39999389648</ele>
        <time>2020-12-23T11:36:54.000Z</time>
      </trkpt>
      <trkpt lat="43.78131" lon="5.72071">
        <ele>349.79998779297</ele>
        <time>2020-12-23T11:36:56.000Z</time>
      </trkpt>
      <trkpt lat="43.78134" lon="5.72065">
        <ele>349</ele>
        <time>2020-12-23T11:36:57.000Z</time>
      </trkpt>
      <trkpt lat="43.78138" lon="5.7206">
        <ele>348</ele>
        <time>2020-12-23T11:36:58.000Z</time>
      </trkpt>
      <trkpt lat="43.78143" lon="5.72056">
        <ele>347.39999389648</ele>
        <time>2020-12-23T11:36:59.000Z</time>
      </trkpt>
      <trkpt lat="43.78153" lon="5.72052">
        <ele>345.20001220703</ele>
        <time>2020-12-23T11:37:01.000Z</time>
      </trkpt>
      <trkpt lat="43.78165" lon="5.72048">
        <ele>344.60000610352</ele>
        <time>2020-12-23T11:37:04.000Z</time>
      </trkpt>
      <trkpt lat="43.78177" lon="5.72042">
        <ele>344.39999389648</ele>
        <time>2020-12-23T11:37:08.000Z</time>
      </trkpt>
      <trkpt lat="43.78186" lon="5.72033">
        <ele>344.60000610352</ele>
        <time>2020-12-23T11:37:11.000Z</time>
      </trkpt>
      <trkpt lat="43.78189" lon="5.7203">
        <ele>344.60000610352</ele>
        <time>2020-12-23T11:37:12.000Z</time>
      </trkpt>
      <trkpt lat="43.78202" lon="5.72017">
        <ele>345.39999389648</ele>
        <time>2020-12-23T11:37:16.000Z</time>
      </trkpt>
      <trkpt lat="43.78205" lon="5.72014">
        <ele>345.60000610352</ele>
        <time>2020-12-23T11:37:17.000Z</time>
      </trkpt>
      <trkpt lat="43.78218" lon="5.72003">
        <ele>346.20001220703</ele>
        <time>2020-12-23T11:37:21.000Z</time>
      </trkpt>
      <trkpt lat="43.78229" lon="5.71997">
        <ele>346.39999389648</ele>
        <time>2020-12-23T11:37:25.000Z</time>
      </trkpt>
      <trkpt lat="43.78234" lon="5.71995">
        <ele>346.39999389648</ele>
        <time>2020-12-23T11:37:27.000Z</time>
      </trkpt>
      <trkpt lat="43.78238" lon="5.7199">
        <ele>346.60000610352</ele>
        <time>2020-12-23T11:37:29.000Z</time>
      </trkpt>
      <trkpt lat="43.78243" lon="5.7198">
        <ele>346.79998779297</ele>
        <time>2020-12-23T11:37:33.000Z</time>
      </trkpt>
      <trkpt lat="43.78249" lon="5.71972">
        <ele>346.79998779297</ele>
        <time>2020-12-23T11:37:38.000Z</time>
      </trkpt>
      <trkpt lat="43.7825" lon="5.71968">
        <ele>345.39999389648</ele>
        <time>2020-12-23T11:37:44.000Z</time>
      </trkpt>
      <trkpt lat="43.78252" lon="5.71958">
        <ele>345.39999389648</ele>
        <time>2020-12-23T11:37:49.000Z</time>
      </trkpt>
      <trkpt lat="43.78257" lon="5.71944">
        <ele>345.60000610352</ele>
        <time>2020-12-23T11:37:54.000Z</time>
      </trkpt>
      <trkpt lat="43.78268" lon="5.71925">
        <ele>346.60000610352</ele>
        <time>2020-12-23T11:37:59.000Z</time>
      </trkpt>
      <trkpt lat="43.78271" lon="5.71919">
        <ele>346.60000610352</ele>
        <time>2020-12-23T11:38:01.000Z</time>
      </trkpt>
      <trkpt lat="43.78274" lon="5.71913">
        <ele>347</ele>
        <time>2020-12-23T11:38:03.000Z</time>
      </trkpt>
      <trkpt lat="43.78274" lon="5.71911">
        <ele>347.39999389648</ele>
        <time>2020-12-23T11:38:04.000Z</time>
      </trkpt>
      <trkpt lat="43.78275" lon="5.71904">
        <ele>348.20001220703</ele>
        <time>2020-12-23T11:38:06.000Z</time>
      </trkpt>
      <trkpt lat="43.78275" lon="5.719">
        <ele>348.60000610352</ele>
        <time>2020-12-23T11:38:07.000Z</time>
      </trkpt>
      <trkpt lat="43.78277" lon="5.71896">
        <ele>349.39999389648</ele>
        <time>2020-12-23T11:38:08.000Z</time>
      </trkpt>
      <trkpt lat="43.78279" lon="5.71889">
        <ele>350.39999389648</ele>
        <time>2020-12-23T11:38:10.000Z</time>
      </trkpt>
      <trkpt lat="43.7828" lon="5.71885">
        <ele>350.79998779297</ele>
        <time>2020-12-23T11:38:11.000Z</time>
      </trkpt>
      <trkpt lat="43.78282" lon="5.71877">
        <ele>351.39999389648</ele>
        <time>2020-12-23T11:38:13.000Z</time>
      </trkpt>
      <trkpt lat="43.78281" lon="5.71871">
        <ele>351.79998779297</ele>
        <time>2020-12-23T11:38:15.000Z</time>
      </trkpt>
      <trkpt lat="43.7828" lon="5.71857">
        <ele>352.20001220703</ele>
        <time>2020-12-23T11:38:19.000Z</time>
      </trkpt>
      <trkpt lat="43.78275" lon="5.71844">
        <ele>352.39999389648</ele>
        <time>2020-12-23T11:38:22.000Z</time>
      </trkpt>
      <trkpt lat="43.78274" lon="5.7184">
        <ele>352.39999389648</ele>
        <time>2020-12-23T11:38:23.000Z</time>
      </trkpt>
      <trkpt lat="43.78274" lon="5.71837">
        <ele>352.39999389648</ele>
        <time>2020-12-23T11:38:24.000Z</time>
      </trkpt>
      <trkpt lat="43.78274" lon="5.71833">
        <ele>352.60000610352</ele>
        <time>2020-12-23T11:38:25.000Z</time>
      </trkpt>
      <trkpt lat="43.78274" lon="5.71827">
        <ele>352.79998779297</ele>
        <time>2020-12-23T11:38:27.000Z</time>
      </trkpt>
      <trkpt lat="43.78268" lon="5.71813">
        <ele>353.39999389648</ele>
        <time>2020-12-23T11:38:31.000Z</time>
      </trkpt>
      <trkpt lat="43.78265" lon="5.71811">
        <ele>353.39999389648</ele>
        <time>2020-12-23T11:38:32.000Z</time>
      </trkpt>
      <trkpt lat="43.78252" lon="5.71798">
        <ele>353.20001220703</ele>
        <time>2020-12-23T11:38:36.000Z</time>
      </trkpt>
      <trkpt lat="43.7825" lon="5.71793">
        <ele>353.20001220703</ele>
        <time>2020-12-23T11:38:37.000Z</time>
      </trkpt>
      <trkpt lat="43.78242" lon="5.71775">
        <ele>352.79998779297</ele>
        <time>2020-12-23T11:38:42.000Z</time>
      </trkpt>
      <trkpt lat="43.78238" lon="5.71772">
        <ele>352.60000610352</ele>
        <time>2020-12-23T11:38:44.000Z</time>
      </trkpt>
      <trkpt lat="43.78233" lon="5.71774">
        <ele>352.20001220703</ele>
        <time>2020-12-23T11:38:46.000Z</time>
      </trkpt>
      <trkpt lat="43.78229" lon="5.71768">
        <ele>352.20001220703</ele>
        <time>2020-12-23T11:38:49.000Z</time>
      </trkpt>
      <trkpt lat="43.78221" lon="5.71763">
        <ele>352.20001220703</ele>
        <time>2020-12-23T11:38:53.000Z</time>
      </trkpt>
      <trkpt lat="43.78209" lon="5.71756">
        <ele>352.39999389648</ele>
        <time>2020-12-23T11:38:57.000Z</time>
      </trkpt>
      <trkpt lat="43.78191" lon="5.71759">
        <ele>352.60000610352</ele>
        <time>2020-12-23T11:39:01.000Z</time>
      </trkpt>
      <trkpt lat="43.78187" lon="5.7176">
        <ele>352.60000610352</ele>
        <time>2020-12-23T11:39:02.000Z</time>
      </trkpt>
      <trkpt lat="43.78174" lon="5.71762">
        <ele>352.79998779297</ele>
        <time>2020-12-23T11:39:06.000Z</time>
      </trkpt>
      <trkpt lat="43.78163" lon="5.71762">
        <ele>353.20001220703</ele>
        <time>2020-12-23T11:39:11.000Z</time>
      </trkpt>
      <trkpt lat="43.78158" lon="5.71762">
        <ele>353.60000610352</ele>
        <time>2020-12-23T11:39:13.000Z</time>
      </trkpt>
      <trkpt lat="43.7815" lon="5.71763">
        <ele>355.20001220703</ele>
        <time>2020-12-23T11:39:16.000Z</time>
      </trkpt>
      <trkpt lat="43.78143" lon="5.71762">
        <ele>356.39999389648</ele>
        <time>2020-12-23T11:39:18.000Z</time>
      </trkpt>
      <trkpt lat="43.78133" lon="5.71758">
        <ele>358</ele>
        <time>2020-12-23T11:39:21.000Z</time>
      </trkpt>
      <trkpt lat="43.78123" lon="5.71751">
        <ele>359.20001220703</ele>
        <time>2020-12-23T11:39:24.000Z</time>
      </trkpt>
      <trkpt lat="43.78116" lon="5.7174">
        <ele>359.60000610352</ele>
        <time>2020-12-23T11:39:27.000Z</time>
      </trkpt>
      <trkpt lat="43.78113" lon="5.7173">
        <ele>360.20001220703</ele>
        <time>2020-12-23T11:39:29.000Z</time>
      </trkpt>
      <trkpt lat="43.78113" lon="5.71719">
        <ele>360.60000610352</ele>
        <time>2020-12-23T11:39:31.000Z</time>
      </trkpt>
      <trkpt lat="43.78113" lon="5.71712">
        <ele>360.79998779297</ele>
        <time>2020-12-23T11:39:32.000Z</time>
      </trkpt>
      <trkpt lat="43.78113" lon="5.71689">
        <ele>360.79998779297</ele>
        <time>2020-12-23T11:39:35.000Z</time>
      </trkpt>
      <trkpt lat="43.78121" lon="5.71663">
        <ele>360.79998779297</ele>
        <time>2020-12-23T11:39:38.000Z</time>
      </trkpt>
      <trkpt lat="43.78131" lon="5.71629">
        <ele>359.60000610352</ele>
        <time>2020-12-23T11:39:43.000Z</time>
      </trkpt>
      <trkpt lat="43.78133" lon="5.71624">
        <ele>358.79998779297</ele>
        <time>2020-12-23T11:39:44.000Z</time>
      </trkpt>
      <trkpt lat="43.78138" lon="5.71607">
        <ele>357.79998779297</ele>
        <time>2020-12-23T11:39:47.000Z</time>
      </trkpt>
      <trkpt lat="43.78142" lon="5.71593">
        <ele>357.20001220703</ele>
        <time>2020-12-23T11:39:49.000Z</time>
      </trkpt>
      <trkpt lat="43.78145" lon="5.71577">
        <ele>356.79998779297</ele>
        <time>2020-12-23T11:39:51.000Z</time>
      </trkpt>
      <trkpt lat="43.78147" lon="5.71572">
        <ele>356.60000610352</ele>
        <time>2020-12-23T11:39:52.000Z</time>
      </trkpt>
      <trkpt lat="43.78149" lon="5.71566">
        <ele>356.60000610352</ele>
        <time>2020-12-23T11:39:53.000Z</time>
      </trkpt>
      <trkpt lat="43.78152" lon="5.71554">
        <ele>356.39999389648</ele>
        <time>2020-12-23T11:39:55.000Z</time>
      </trkpt>
      <trkpt lat="43.78153" lon="5.71539">
        <ele>356.20001220703</ele>
        <time>2020-12-23T11:39:57.000Z</time>
      </trkpt>
      <trkpt lat="43.78154" lon="5.7153">
        <ele>356</ele>
        <time>2020-12-23T11:39:58.000Z</time>
      </trkpt>
      <trkpt lat="43.78159" lon="5.71514">
        <ele>355.79998779297</ele>
        <time>2020-12-23T11:40:00.000Z</time>
      </trkpt>
      <trkpt lat="43.78167" lon="5.715">
        <ele>355.79998779297</ele>
        <time>2020-12-23T11:40:02.000Z</time>
      </trkpt>
      <trkpt lat="43.78171" lon="5.71495">
        <ele>355.60000610352</ele>
        <time>2020-12-23T11:40:03.000Z</time>
      </trkpt>
      <trkpt lat="43.78175" lon="5.7149">
        <ele>355.39999389648</ele>
        <time>2020-12-23T11:40:04.000Z</time>
      </trkpt>
      <trkpt lat="43.78187" lon="5.71476">
        <ele>354.39999389648</ele>
        <time>2020-12-23T11:40:07.000Z</time>
      </trkpt>
      <trkpt lat="43.78192" lon="5.71465">
        <ele>354.20001220703</ele>
        <time>2020-12-23T11:40:09.000Z</time>
      </trkpt>
      <trkpt lat="43.78192" lon="5.71438">
        <ele>354.20001220703</ele>
        <time>2020-12-23T11:40:13.000Z</time>
      </trkpt>
      <trkpt lat="43.78192" lon="5.71431">
        <ele>354.20001220703</ele>
        <time>2020-12-23T11:40:14.000Z</time>
      </trkpt>
      <trkpt lat="43.78192" lon="5.71418">
        <ele>355</ele>
        <time>2020-12-23T11:40:16.000Z</time>
      </trkpt>
      <trkpt lat="43.78189" lon="5.71413">
        <ele>355.39999389648</ele>
        <time>2020-12-23T11:40:17.000Z</time>
      </trkpt>
      <trkpt lat="43.78186" lon="5.71408">
        <ele>355.60000610352</ele>
        <time>2020-12-23T11:40:18.000Z</time>
      </trkpt>
      <trkpt lat="43.7818" lon="5.71395">
        <ele>355.60000610352</ele>
        <time>2020-12-23T11:40:20.000Z</time>
      </trkpt>
      <trkpt lat="43.78178" lon="5.71387">
        <ele>355.60000610352</ele>
        <time>2020-12-23T11:40:21.000Z</time>
      </trkpt>
      <trkpt lat="43.78168" lon="5.71368">
        <ele>355.60000610352</ele>
        <time>2020-12-23T11:40:24.000Z</time>
      </trkpt>
      <trkpt lat="43.78153" lon="5.71361">
        <ele>355.39999389648</ele>
        <time>2020-12-23T11:40:27.000Z</time>
      </trkpt>
      <trkpt lat="43.78138" lon="5.71349">
        <ele>354.60000610352</ele>
        <time>2020-12-23T11:40:30.000Z</time>
      </trkpt>
      <trkpt lat="43.78136" lon="5.71343">
        <ele>354.60000610352</ele>
        <time>2020-12-23T11:40:31.000Z</time>
      </trkpt>
      <trkpt lat="43.78135" lon="5.71339">
        <ele>354.39999389648</ele>
        <time>2020-12-23T11:40:32.000Z</time>
      </trkpt>
      <trkpt lat="43.78134" lon="5.71333">
        <ele>354.20001220703</ele>
        <time>2020-12-23T11:40:33.000Z</time>
      </trkpt>
      <trkpt lat="43.78133" lon="5.71327">
        <ele>353.79998779297</ele>
        <time>2020-12-23T11:40:34.000Z</time>
      </trkpt>
      <trkpt lat="43.78132" lon="5.71308">
        <ele>353.60000610352</ele>
        <time>2020-12-23T11:40:37.000Z</time>
      </trkpt>
      <trkpt lat="43.78131" lon="5.71301">
        <ele>353.39999389648</ele>
        <time>2020-12-23T11:40:38.000Z</time>
      </trkpt>
      <trkpt lat="43.7813" lon="5.71295">
        <ele>353.39999389648</ele>
        <time>2020-12-23T11:40:39.000Z</time>
      </trkpt>
      <trkpt lat="43.78129" lon="5.71289">
        <ele>353.39999389648</ele>
        <time>2020-12-23T11:40:40.000Z</time>
      </trkpt>
      <trkpt lat="43.78127" lon="5.71273">
        <ele>353.79998779297</ele>
        <time>2020-12-23T11:40:44.000Z</time>
      </trkpt>
      <trkpt lat="43.78127" lon="5.71272">
        <ele>354</ele>
        <time>2020-12-23T11:40:45.000Z</time>
      </trkpt>
      <trkpt lat="43.78129" lon="5.7127">
        <ele>354.39999389648</ele>
        <time>2020-12-23T11:40:49.000Z</time>
      </trkpt>
      <trkpt lat="43.78129" lon="5.7127">
        <ele>354.79998779297</ele>
        <time>2020-12-23T11:40:53.000Z</time>
      </trkpt>
      <trkpt lat="43.78129" lon="5.7127">
        <ele>355.39999389648</ele>
        <time>2020-12-23T11:41:04.000Z</time>
      </trkpt>
      <trkpt lat="43.78129" lon="5.7127">
        <ele>355.39999389648</ele>
        <time>2020-12-23T11:41:19.000Z</time>
      </trkpt>
      <trkpt lat="43.78129" lon="5.7127">
        <ele>355.20001220703</ele>
        <time>2020-12-23T11:41:48.000Z</time>
      </trkpt>
      <trkpt lat="43.78129" lon="5.7127">
        <ele>355.39999389648</ele>
        <time>2020-12-23T11:42:15.000Z</time>
      </trkpt>
      <trkpt lat="43.78131" lon="5.71265">
        <ele>355.39999389648</ele>
        <time>2020-12-23T11:42:21.000Z</time>
      </trkpt>
      <trkpt lat="43.78141" lon="5.71242">
        <ele>355.39999389648</ele>
        <time>2020-12-23T11:42:28.000Z</time>
      </trkpt>
      <trkpt lat="43.78145" lon="5.71221">
        <ele>355.60000610352</ele>
        <time>2020-12-23T11:42:33.000Z</time>
      </trkpt>
      <trkpt lat="43.78143" lon="5.71195">
        <ele>355.79998779297</ele>
        <time>2020-12-23T11:42:39.000Z</time>
      </trkpt>
      <trkpt lat="43.78143" lon="5.71188">
        <ele>356</ele>
        <time>2020-12-23T11:42:41.000Z</time>
      </trkpt>
      <trkpt lat="43.78143" lon="5.71178">
        <ele>356.20001220703</ele>
        <time>2020-12-23T11:42:44.000Z</time>
      </trkpt>
      <trkpt lat="43.78142" lon="5.71167">
        <ele>356.39999389648</ele>
        <time>2020-12-23T11:42:49.000Z</time>
      </trkpt>
      <trkpt lat="43.78146" lon="5.71157">
        <ele>356.60000610352</ele>
        <time>2020-12-23T11:42:54.000Z</time>
      </trkpt>
      <trkpt lat="43.78147" lon="5.71154">
        <ele>356.60000610352</ele>
        <time>2020-12-23T11:42:55.000Z</time>
      </trkpt>
      <trkpt lat="43.78147" lon="5.71152">
        <ele>356.79998779297</ele>
        <time>2020-12-23T11:42:59.000Z</time>
      </trkpt>
      <trkpt lat="43.78147" lon="5.71152">
        <ele>357.20001220703</ele>
        <time>2020-12-23T11:43:00.000Z</time>
      </trkpt>
      <trkpt lat="43.78147" lon="5.71151">
        <ele>357.39999389648</ele>
        <time>2020-12-23T11:43:14.000Z</time>
      </trkpt>
      <trkpt lat="43.78147" lon="5.71149">
        <ele>357.39999389648</ele>
        <time>2020-12-23T11:43:22.000Z</time>
      </trkpt>
      <trkpt lat="43.78148" lon="5.71149">
        <ele>356.79998779297</ele>
        <time>2020-12-23T11:43:40.000Z</time>
      </trkpt>
      <trkpt lat="43.78148" lon="5.71149">
        <ele>356.79998779297</ele>
        <time>2020-12-23T11:43:57.000Z</time>
      </trkpt>
      <trkpt lat="43.78148" lon="5.71149">
        <ele>356.79998779297</ele>
        <time>2020-12-23T11:44:29.000Z</time>
      </trkpt>
      <trkpt lat="43.78147" lon="5.71149">
        <ele>356.79998779297</ele>
        <time>2020-12-23T11:44:59.000Z</time>
      </trkpt>
      <trkpt lat="43.78148" lon="5.71149">
        <ele>357</ele>
        <time>2020-12-23T11:45:33.000Z</time>
      </trkpt>
      <trkpt lat="43.78148" lon="5.71149">
        <ele>357.60000610352</ele>
        <time>2020-12-23T11:46:21.000Z</time>
      </trkpt>
      <trkpt lat="43.78148" lon="5.71148">
        <ele>357.60000610352</ele>
        <time>2020-12-23T11:47:16.000Z</time>
      </trkpt>
      <trkpt lat="43.78148" lon="5.71148">
        <ele>357.39999389648</ele>
        <time>2020-12-23T11:47:46.000Z</time>
      </trkpt>
      <trkpt lat="43.78148" lon="5.71148">
        <ele>357.39999389648</ele>
        <time>2020-12-23T11:48:13.000Z</time>
      </trkpt>
      <trkpt lat="43.78148" lon="5.71148">
        <ele>357.20001220703</ele>
        <time>2020-12-23T11:48:44.000Z</time>
      </trkpt>
      <trkpt lat="43.78148" lon="5.71148">
        <ele>357</ele>
        <time>2020-12-23T11:49:26.000Z</time>
      </trkpt>
      <trkpt lat="43.78148" lon="5.71148">
        <ele>356.79998779297</ele>
        <time>2020-12-23T11:50:12.000Z</time>
      </trkpt>
      <trkpt lat="43.78148" lon="5.71148">
        <ele>356.39999389648</ele>
        <time>2020-12-23T11:50:56.000Z</time>
      </trkpt>
      <trkpt lat="43.78148" lon="5.71149">
        <ele>356.60000610352</ele>
        <time>2020-12-23T11:51:58.000Z</time>
      </trkpt>
      <trkpt lat="43.78148" lon="5.71148">
        <ele>356.60000610352</ele>
        <time>2020-12-23T11:52:56.000Z</time>
      </trkpt>
      <trkpt lat="43.78148" lon="5.71148">
        <ele>356.60000610352</ele>
        <time>2020-12-23T11:53:47.000Z</time>
      </trkpt>
      <trkpt lat="43.78148" lon="5.71149">
        <ele>356.79998779297</ele>
        <time>2020-12-23T11:54:37.000Z</time>
      </trkpt>
      <trkpt lat="43.78149" lon="5.71148">
        <ele>357.20001220703</ele>
        <time>2020-12-23T11:55:30.000Z</time>
      </trkpt>
      <trkpt lat="43.78149" lon="5.71148">
        <ele>357.39999389648</ele>
        <time>2020-12-23T11:56:03.000Z</time>
      </trkpt>
      <trkpt lat="43.78149" lon="5.71148">
        <ele>357.60000610352</ele>
        <time>2020-12-23T11:56:52.000Z</time>
      </trkpt>
      <trkpt lat="43.78149" lon="5.71148">
        <ele>358</ele>
        <time>2020-12-23T11:57:35.000Z</time>
      </trkpt>
      <trkpt lat="43.78149" lon="5.71148">
        <ele>357.79998779297</ele>
        <time>2020-12-23T11:58:14.000Z</time>
      </trkpt>
      <trkpt lat="43.78149" lon="5.71148">
        <ele>357.79998779297</ele>
        <time>2020-12-23T11:58:19.000Z</time>
      </trkpt>
      <trkpt lat="43.78149" lon="5.71148">
        <ele>357.79998779297</ele>
        <time>2020-12-23T11:58:44.000Z</time>
      </trkpt>
      <trkpt lat="43.78149" lon="5.71148">
        <ele>358.39999389648</ele>
        <time>2020-12-23T11:58:52.000Z</time>
      </trkpt>
      <trkpt lat="43.78149" lon="5.71148">
        <ele>358.39999389648</ele>
        <time>2020-12-23T11:58:56.000Z</time>
      </trkpt>
      <trkpt lat="43.78149" lon="5.71148">
        <ele>358.39999389648</ele>
        <time>2020-12-23T11:59:14.000Z</time>
      </trkpt>
      <trkpt lat="43.78149" lon="5.71149">
        <ele>358.79998779297</ele>
        <time>2020-12-23T11:59:42.000Z</time>
      </trkpt>
      <trkpt lat="43.78149" lon="5.71148">
        <ele>358.79998779297</ele>
        <time>2020-12-23T12:00:04.000Z</time>
      </trkpt>
      <trkpt lat="43.78149" lon="5.71148">
        <ele>358</ele>
        <time>2020-12-23T12:00:24.000Z</time>
      </trkpt>
      <trkpt lat="43.78149" lon="5.71148">
        <ele>358</ele>
        <time>2020-12-23T12:01:10.000Z</time>
      </trkpt>
      <trkpt lat="43.78149" lon="5.71148">
        <ele>358</ele>
        <time>2020-12-23T12:01:51.000Z</time>
      </trkpt>
      <trkpt lat="43.78149" lon="5.71148">
        <ele>358.20001220703</ele>
        <time>2020-12-23T12:02:38.000Z</time>
      </trkpt>
      <trkpt lat="43.78149" lon="5.71148">
        <ele>358.20001220703</ele>
        <time>2020-12-23T12:03:35.000Z</time>
      </trkpt>
      <trkpt lat="43.78149" lon="5.71147">
        <ele>358.20001220703</ele>
        <time>2020-12-23T12:04:25.000Z</time>
      </trkpt>
      <trkpt lat="43.78149" lon="5.71147">
        <ele>358.20001220703</ele>
        <time>2020-12-23T12:05:04.000Z</time>
      </trkpt>
      <trkpt lat="43.78149" lon="5.71148">
        <ele>358.39999389648</ele>
        <time>2020-12-23T12:05:23.000Z</time>
      </trkpt>
      <trkpt lat="43.78149" lon="5.71148">
        <ele>359.20001220703</ele>
        <time>2020-12-23T12:05:41.000Z</time>
      </trkpt>
      <trkpt lat="43.78149" lon="5.71148">
        <ele>359</ele>
        <time>2020-12-23T12:06:05.000Z</time>
      </trkpt>
      <trkpt lat="43.78149" lon="5.7115">
        <ele>359</ele>
        <time>2020-12-23T12:06:28.000Z</time>
      </trkpt>
      <trkpt lat="43.78148" lon="5.7115">
        <ele>359</ele>
        <time>2020-12-23T12:06:38.000Z</time>
      </trkpt>
      <trkpt lat="43.78149" lon="5.7115">
        <ele>359.20001220703</ele>
        <time>2020-12-23T12:06:53.000Z</time>
      </trkpt>
      <trkpt lat="43.78152" lon="5.71152">
        <ele>359.20001220703</ele>
        <time>2020-12-23T12:06:55.000Z</time>
      </trkpt>
      <trkpt lat="43.78163" lon="5.71157">
        <ele>359.20001220703</ele>
        <time>2020-12-23T12:07:02.000Z</time>
      </trkpt>
      <trkpt lat="43.78164" lon="5.71159">
        <ele>359.20001220703</ele>
        <time>2020-12-23T12:07:03.000Z</time>
      </trkpt>
      <trkpt lat="43.78162" lon="5.71163">
        <ele>359.20001220703</ele>
        <time>2020-12-23T12:07:05.000Z</time>
      </trkpt>
      <trkpt lat="43.78156" lon="5.71159">
        <ele>359.39999389648</ele>
        <time>2020-12-23T12:07:09.000Z</time>
      </trkpt>
      <trkpt lat="43.78152" lon="5.71153">
        <ele>359.39999389648</ele>
        <time>2020-12-23T12:07:13.000Z</time>
      </trkpt>
      <trkpt lat="43.78151" lon="5.71151">
        <ele>359.39999389648</ele>
        <time>2020-12-23T12:07:15.000Z</time>
      </trkpt>
      <trkpt lat="43.7815" lon="5.7115">
        <ele>359.39999389648</ele>
        <time>2020-12-23T12:07:26.000Z</time>
      </trkpt>
      <trkpt lat="43.7815" lon="5.7115">
        <ele>359.60000610352</ele>
        <time>2020-12-23T12:07:35.000Z</time>
      </trkpt>
      <trkpt lat="43.78148" lon="5.71148">
        <ele>359.20001220703</ele>
        <time>2020-12-23T12:07:48.000Z</time>
      </trkpt>
      <trkpt lat="43.78146" lon="5.71147">
        <ele>359.20001220703</ele>
        <time>2020-12-23T12:07:49.000Z</time>
      </trkpt>
      <trkpt lat="43.78135" lon="5.71147">
        <ele>359.20001220703</ele>
        <time>2020-12-23T12:07:53.000Z</time>
      </trkpt>
      <trkpt lat="43.78127" lon="5.71146">
        <ele>359</ele>
        <time>2020-12-23T12:07:58.000Z</time>
      </trkpt>
      <trkpt lat="43.78123" lon="5.71144">
        <ele>358.60000610352</ele>
        <time>2020-12-23T12:08:01.000Z</time>
      </trkpt>
      <trkpt lat="43.78122" lon="5.71141">
        <ele>358.60000610352</ele>
        <time>2020-12-23T12:08:03.000Z</time>
      </trkpt>
      <trkpt lat="43.78122" lon="5.71128">
        <ele>358.79998779297</ele>
        <time>2020-12-23T12:08:09.000Z</time>
      </trkpt>
      <trkpt lat="43.78122" lon="5.71123">
        <ele>358.79998779297</ele>
        <time>2020-12-23T12:08:11.000Z</time>
      </trkpt>
      <trkpt lat="43.78124" lon="5.71107">
        <ele>359.60000610352</ele>
        <time>2020-12-23T12:08:17.000Z</time>
      </trkpt>
      <trkpt lat="43.78126" lon="5.71094">
        <ele>360.39999389648</ele>
        <time>2020-12-23T12:08:23.000Z</time>
      </trkpt>
      <trkpt lat="43.78127" lon="5.71092">
        <ele>360.60000610352</ele>
        <time>2020-12-23T12:08:24.000Z</time>
      </trkpt>
      <trkpt lat="43.7813" lon="5.71083">
        <ele>361.60000610352</ele>
        <time>2020-12-23T12:08:29.000Z</time>
      </trkpt>
      <trkpt lat="43.78134" lon="5.71077">
        <ele>362.79998779297</ele>
        <time>2020-12-23T12:08:33.000Z</time>
      </trkpt>
      <trkpt lat="43.78134" lon="5.71075">
        <ele>363.60000610352</ele>
        <time>2020-12-23T12:08:34.000Z</time>
      </trkpt>
      <trkpt lat="43.78135" lon="5.71073">
        <ele>363.79998779297</ele>
        <time>2020-12-23T12:08:35.000Z</time>
      </trkpt>
      <trkpt lat="43.78137" lon="5.71068">
        <ele>365</ele>
        <time>2020-12-23T12:08:38.000Z</time>
      </trkpt>
      <trkpt lat="43.78138" lon="5.71067">
        <ele>365.39999389648</ele>
        <time>2020-12-23T12:08:39.000Z</time>
      </trkpt>
      <trkpt lat="43.78139" lon="5.71063">
        <ele>366</ele>
        <time>2020-12-23T12:08:41.000Z</time>
      </trkpt>
      <trkpt lat="43.78139" lon="5.71055">
        <ele>367.39999389648</ele>
        <time>2020-12-23T12:08:45.000Z</time>
      </trkpt>
      <trkpt lat="43.78141" lon="5.7105">
        <ele>368.79998779297</ele>
        <time>2020-12-23T12:08:48.000Z</time>
      </trkpt>
      <trkpt lat="43.78144" lon="5.71043">
        <ele>369.79998779297</ele>
        <time>2020-12-23T12:08:52.000Z</time>
      </trkpt>
      <trkpt lat="43.78145" lon="5.71041">
        <ele>370</ele>
        <time>2020-12-23T12:08:53.000Z</time>
      </trkpt>
      <trkpt lat="43.78149" lon="5.71034">
        <ele>371</ele>
        <time>2020-12-23T12:08:57.000Z</time>
      </trkpt>
      <trkpt lat="43.78152" lon="5.71026">
        <ele>371.60000610352</ele>
        <time>2020-12-23T12:09:01.000Z</time>
      </trkpt>
      <trkpt lat="43.78153" lon="5.71024">
        <ele>372</ele>
        <time>2020-12-23T12:09:02.000Z</time>
      </trkpt>
      <trkpt lat="43.7816" lon="5.71008">
        <ele>373.20001220703</ele>
        <time>2020-12-23T12:09:10.000Z</time>
      </trkpt>
      <trkpt lat="43.78161" lon="5.70995">
        <ele>374.20001220703</ele>
        <time>2020-12-23T12:09:16.000Z</time>
      </trkpt>
      <trkpt lat="43.78161" lon="5.70991">
        <ele>374.20001220703</ele>
        <time>2020-12-23T12:09:18.000Z</time>
      </trkpt>
      <trkpt lat="43.78158" lon="5.70978">
        <ele>375.60000610352</ele>
        <time>2020-12-23T12:09:24.000Z</time>
      </trkpt>
      <trkpt lat="43.78158" lon="5.70976">
        <ele>375.60000610352</ele>
        <time>2020-12-23T12:09:25.000Z</time>
      </trkpt>
      <trkpt lat="43.78158" lon="5.70969">
        <ele>376.79998779297</ele>
        <time>2020-12-23T12:09:28.000Z</time>
      </trkpt>
      <trkpt lat="43.78159" lon="5.70962">
        <ele>377.79998779297</ele>
        <time>2020-12-23T12:09:31.000Z</time>
      </trkpt>
      <trkpt lat="43.78161" lon="5.7095">
        <ele>378.79998779297</ele>
        <time>2020-12-23T12:09:36.000Z</time>
      </trkpt>
      <trkpt lat="43.78162" lon="5.70943">
        <ele>379.39999389648</ele>
        <time>2020-12-23T12:09:39.000Z</time>
      </trkpt>
      <trkpt lat="43.78166" lon="5.70932">
        <ele>380</ele>
        <time>2020-12-23T12:09:45.000Z</time>
      </trkpt>
      <trkpt lat="43.78166" lon="5.7093">
        <ele>380.20001220703</ele>
        <time>2020-12-23T12:09:46.000Z</time>
      </trkpt>
      <trkpt lat="43.78168" lon="5.70929">
        <ele>380.60000610352</ele>
        <time>2020-12-23T12:09:47.000Z</time>
      </trkpt>
      <trkpt lat="43.78171" lon="5.70923">
        <ele>381.39999389648</ele>
        <time>2020-12-23T12:09:51.000Z</time>
      </trkpt>
      <trkpt lat="43.78174" lon="5.70919">
        <ele>381.79998779297</ele>
        <time>2020-12-23T12:09:53.000Z</time>
      </trkpt>
      <trkpt lat="43.78177" lon="5.70914">
        <ele>382</ele>
        <time>2020-12-23T12:09:56.000Z</time>
      </trkpt>
      <trkpt lat="43.78186" lon="5.70902">
        <ele>382.20001220703</ele>
        <time>2020-12-23T12:10:04.000Z</time>
      </trkpt>
      <trkpt lat="43.78196" lon="5.70889">
        <ele>382.20001220703</ele>
        <time>2020-12-23T12:10:10.000Z</time>
      </trkpt>
      <trkpt lat="43.78211" lon="5.70876">
        <ele>382.20001220703</ele>
        <time>2020-12-23T12:10:16.000Z</time>
      </trkpt>
      <trkpt lat="43.78221" lon="5.70859">
        <ele>381.60000610352</ele>
        <time>2020-12-23T12:10:23.000Z</time>
      </trkpt>
      <trkpt lat="43.7823" lon="5.70837">
        <ele>381.79998779297</ele>
        <time>2020-12-23T12:10:31.000Z</time>
      </trkpt>
      <trkpt lat="43.78232" lon="5.7081">
        <ele>382</ele>
        <time>2020-12-23T12:10:38.000Z</time>
      </trkpt>
      <trkpt lat="43.78234" lon="5.70783">
        <ele>382</ele>
        <time>2020-12-23T12:10:45.000Z</time>
      </trkpt>
      <trkpt lat="43.78235" lon="5.70765">
        <ele>381.79998779297</ele>
        <time>2020-12-23T12:10:50.000Z</time>
      </trkpt>
      <trkpt lat="43.78236" lon="5.70752">
        <ele>381.60000610352</ele>
        <time>2020-12-23T12:10:55.000Z</time>
      </trkpt>
      <trkpt lat="43.78239" lon="5.70733">
        <ele>381.60000610352</ele>
        <time>2020-12-23T12:11:01.000Z</time>
      </trkpt>
      <trkpt lat="43.7824" lon="5.70716">
        <ele>381.60000610352</ele>
        <time>2020-12-23T12:11:06.000Z</time>
      </trkpt>
      <trkpt lat="43.78242" lon="5.70699">
        <ele>381.60000610352</ele>
        <time>2020-12-23T12:11:12.000Z</time>
      </trkpt>
      <trkpt lat="43.78243" lon="5.70679">
        <ele>382.79998779297</ele>
        <time>2020-12-23T12:11:18.000Z</time>
      </trkpt>
      <trkpt lat="43.78244" lon="5.70676">
        <ele>383</ele>
        <time>2020-12-23T12:11:19.000Z</time>
      </trkpt>
      <trkpt lat="43.78241" lon="5.70655">
        <ele>384</ele>
        <time>2020-12-23T12:11:25.000Z</time>
      </trkpt>
      <trkpt lat="43.78231" lon="5.70632">
        <ele>384</ele>
        <time>2020-12-23T12:11:33.000Z</time>
      </trkpt>
      <trkpt lat="43.78227" lon="5.70615">
        <ele>384.20001220703</ele>
        <time>2020-12-23T12:11:39.000Z</time>
      </trkpt>
      <trkpt lat="43.78227" lon="5.70612">
        <ele>384.39999389648</ele>
        <time>2020-12-23T12:11:40.000Z</time>
      </trkpt>
      <trkpt lat="43.78229" lon="5.70598">
        <ele>385</ele>
        <time>2020-12-23T12:11:44.000Z</time>
      </trkpt>
      <trkpt lat="43.78237" lon="5.70589">
        <ele>385.39999389648</ele>
        <time>2020-12-23T12:11:48.000Z</time>
      </trkpt>
      <trkpt lat="43.78239" lon="5.70586">
        <ele>385.39999389648</ele>
        <time>2020-12-23T12:11:49.000Z</time>
      </trkpt>
      <trkpt lat="43.78251" lon="5.70569">
        <ele>385.39999389648</ele>
        <time>2020-12-23T12:11:55.000Z</time>
      </trkpt>
      <trkpt lat="43.78264" lon="5.70551">
        <ele>385</ele>
        <time>2020-12-23T12:12:01.000Z</time>
      </trkpt>
      <trkpt lat="43.78278" lon="5.70531">
        <ele>384.60000610352</ele>
        <time>2020-12-23T12:12:08.000Z</time>
      </trkpt>
      <trkpt lat="43.78293" lon="5.70508">
        <ele>384.39999389648</ele>
        <time>2020-12-23T12:12:15.000Z</time>
      </trkpt>
      <trkpt lat="43.78295" lon="5.70504">
        <ele>384.39999389648</ele>
        <time>2020-12-23T12:12:16.000Z</time>
      </trkpt>
      <trkpt lat="43.78304" lon="5.70488">
        <ele>384.39999389648</ele>
        <time>2020-12-23T12:12:21.000Z</time>
      </trkpt>
      <trkpt lat="43.78315" lon="5.70472">
        <ele>384.39999389648</ele>
        <time>2020-12-23T12:12:27.000Z</time>
      </trkpt>
      <trkpt lat="43.78327" lon="5.70457">
        <ele>384.60000610352</ele>
        <time>2020-12-23T12:12:33.000Z</time>
      </trkpt>
      <trkpt lat="43.78345" lon="5.70437">
        <ele>384.79998779297</ele>
        <time>2020-12-23T12:12:41.000Z</time>
      </trkpt>
      <trkpt lat="43.78358" lon="5.70418">
        <ele>385.20001220703</ele>
        <time>2020-12-23T12:12:47.000Z</time>
      </trkpt>
      <trkpt lat="43.78364" lon="5.70409">
        <ele>385.79998779297</ele>
        <time>2020-12-23T12:12:50.000Z</time>
      </trkpt>
      <trkpt lat="43.78376" lon="5.70393">
        <ele>386.79998779297</ele>
        <time>2020-12-23T12:12:56.000Z</time>
      </trkpt>
      <trkpt lat="43.78378" lon="5.7039">
        <ele>386.79998779297</ele>
        <time>2020-12-23T12:12:57.000Z</time>
      </trkpt>
      <trkpt lat="43.78389" lon="5.70376">
        <ele>387.79998779297</ele>
        <time>2020-12-23T12:13:02.000Z</time>
      </trkpt>
      <trkpt lat="43.78396" lon="5.70366">
        <ele>388.60000610352</ele>
        <time>2020-12-23T12:13:05.000Z</time>
      </trkpt>
      <trkpt lat="43.78398" lon="5.70363">
        <ele>389</ele>
        <time>2020-12-23T12:13:06.000Z</time>
      </trkpt>
      <trkpt lat="43.78407" lon="5.70344">
        <ele>389.60000610352</ele>
        <time>2020-12-23T12:13:11.000Z</time>
      </trkpt>
      <trkpt lat="43.78426" lon="5.70313">
        <ele>390</ele>
        <time>2020-12-23T12:13:20.000Z</time>
      </trkpt>
      <trkpt lat="43.78437" lon="5.70309">
        <ele>390.20001220703</ele>
        <time>2020-12-23T12:13:24.000Z</time>
      </trkpt>
      <trkpt lat="43.78443" lon="5.70308">
        <ele>390.79998779297</ele>
        <time>2020-12-23T12:13:26.000Z</time>
      </trkpt>
      <trkpt lat="43.78446" lon="5.70307">
        <ele>391.39999389648</ele>
        <time>2020-12-23T12:13:27.000Z</time>
      </trkpt>
      <trkpt lat="43.78454" lon="5.70303">
        <ele>392.39999389648</ele>
        <time>2020-12-23T12:13:30.000Z</time>
      </trkpt>
      <trkpt lat="43.78459" lon="5.70299">
        <ele>393</ele>
        <time>2020-12-23T12:13:32.000Z</time>
      </trkpt>
      <trkpt lat="43.78464" lon="5.70295">
        <ele>393.60000610352</ele>
        <time>2020-12-23T12:13:34.000Z</time>
      </trkpt>
      <trkpt lat="43.78474" lon="5.70286">
        <ele>395</ele>
        <time>2020-12-23T12:13:38.000Z</time>
      </trkpt>
      <trkpt lat="43.78482" lon="5.70278">
        <ele>395.79998779297</ele>
        <time>2020-12-23T12:13:41.000Z</time>
      </trkpt>
      <trkpt lat="43.78487" lon="5.70274">
        <ele>396.20001220703</ele>
        <time>2020-12-23T12:13:43.000Z</time>
      </trkpt>
      <trkpt lat="43.78501" lon="5.70264">
        <ele>397.39999389648</ele>
        <time>2020-12-23T12:13:48.000Z</time>
      </trkpt>
      <trkpt lat="43.78504" lon="5.70263">
        <ele>397.60000610352</ele>
        <time>2020-12-23T12:13:49.000Z</time>
      </trkpt>
      <trkpt lat="43.78518" lon="5.70254">
        <ele>398.60000610352</ele>
        <time>2020-12-23T12:13:54.000Z</time>
      </trkpt>
      <trkpt lat="43.78526" lon="5.70248">
        <ele>399.39999389648</ele>
        <time>2020-12-23T12:13:57.000Z</time>
      </trkpt>
      <trkpt lat="43.78531" lon="5.70246">
        <ele>399.79998779297</ele>
        <time>2020-12-23T12:13:59.000Z</time>
      </trkpt>
      <trkpt lat="43.78543" lon="5.70243">
        <ele>400.20001220703</ele>
        <time>2020-12-23T12:14:04.000Z</time>
      </trkpt>
      <trkpt lat="43.78551" lon="5.70242">
        <ele>400.79998779297</ele>
        <time>2020-12-23T12:14:07.000Z</time>
      </trkpt>
      <trkpt lat="43.78555" lon="5.70241">
        <ele>400.79998779297</ele>
        <time>2020-12-23T12:14:09.000Z</time>
      </trkpt>
      <trkpt lat="43.78569" lon="5.70237">
        <ele>400.79998779297</ele>
        <time>2020-12-23T12:14:14.000Z</time>
      </trkpt>
      <trkpt lat="43.78583" lon="5.70235">
        <ele>401</ele>
        <time>2020-12-23T12:14:20.000Z</time>
      </trkpt>
      <trkpt lat="43.78597" lon="5.70227">
        <ele>401.39999389648</ele>
        <time>2020-12-23T12:14:27.000Z</time>
      </trkpt>
      <trkpt lat="43.78607" lon="5.70216">
        <ele>401.79998779297</ele>
        <time>2020-12-23T12:14:33.000Z</time>
      </trkpt>
      <trkpt lat="43.78621" lon="5.70207">
        <ele>401.79998779297</ele>
        <time>2020-12-23T12:14:40.000Z</time>
      </trkpt>
      <trkpt lat="43.78632" lon="5.70194">
        <ele>401.79998779297</ele>
        <time>2020-12-23T12:14:45.000Z</time>
      </trkpt>
      <trkpt lat="43.78643" lon="5.70184">
        <ele>401.60000610352</ele>
        <time>2020-12-23T12:14:50.000Z</time>
      </trkpt>
      <trkpt lat="43.78651" lon="5.70175">
        <ele>401.79998779297</ele>
        <time>2020-12-23T12:14:54.000Z</time>
      </trkpt>
      <trkpt lat="43.7866" lon="5.70157">
        <ele>401.79998779297</ele>
        <time>2020-12-23T12:15:00.000Z</time>
      </trkpt>
      <trkpt lat="43.78673" lon="5.70136">
        <ele>402</ele>
        <time>2020-12-23T12:15:08.000Z</time>
      </trkpt>
      <trkpt lat="43.78678" lon="5.70131">
        <ele>402.20001220703</ele>
        <time>2020-12-23T12:15:11.000Z</time>
      </trkpt>
      <trkpt lat="43.78681" lon="5.70129">
        <ele>402.39999389648</ele>
        <time>2020-12-23T12:15:13.000Z</time>
      </trkpt>
      <trkpt lat="43.78692" lon="5.70117">
        <ele>403.20001220703</ele>
        <time>2020-12-23T12:15:19.000Z</time>
      </trkpt>
      <trkpt lat="43.78704" lon="5.70104">
        <ele>403.79998779297</ele>
        <time>2020-12-23T12:15:25.000Z</time>
      </trkpt>
      <trkpt lat="43.7871" lon="5.70096">
        <ele>404.39999389648</ele>
        <time>2020-12-23T12:15:29.000Z</time>
      </trkpt>
      <trkpt lat="43.78712" lon="5.70093">
        <ele>404.79998779297</ele>
        <time>2020-12-23T12:15:31.000Z</time>
      </trkpt>
      <trkpt lat="43.78719" lon="5.70087">
        <ele>405.60000610352</ele>
        <time>2020-12-23T12:15:34.000Z</time>
      </trkpt>
      <trkpt lat="43.78724" lon="5.70083">
        <ele>406.39999389648</ele>
        <time>2020-12-23T12:15:36.000Z</time>
      </trkpt>
      <trkpt lat="43.78738" lon="5.70073">
        <ele>406.79998779297</ele>
        <time>2020-12-23T12:15:43.000Z</time>
      </trkpt>
      <trkpt lat="43.7874" lon="5.70071">
        <ele>406.79998779297</ele>
        <time>2020-12-23T12:15:44.000Z</time>
      </trkpt>
      <trkpt lat="43.78751" lon="5.70062">
        <ele>407.20001220703</ele>
        <time>2020-12-23T12:15:50.000Z</time>
      </trkpt>
      <trkpt lat="43.78768" lon="5.70049">
        <ele>407.60000610352</ele>
        <time>2020-12-23T12:15:58.000Z</time>
      </trkpt>
      <trkpt lat="43.78791" lon="5.7003">
        <ele>407.39999389648</ele>
        <time>2020-12-23T12:16:05.000Z</time>
      </trkpt>
      <trkpt lat="43.78798" lon="5.70018">
        <ele>406</ele>
        <time>2020-12-23T12:16:08.000Z</time>
      </trkpt>
      <trkpt lat="43.78801" lon="5.70012">
        <ele>405.60000610352</ele>
        <time>2020-12-23T12:16:09.000Z</time>
      </trkpt>
      <trkpt lat="43.78804" lon="5.70007">
        <ele>405.20001220703</ele>
        <time>2020-12-23T12:16:10.000Z</time>
      </trkpt>
      <trkpt lat="43.78819" lon="5.69988">
        <ele>405</ele>
        <time>2020-12-23T12:16:14.000Z</time>
      </trkpt>
      <trkpt lat="43.78833" lon="5.69975">
        <ele>404.20001220703</ele>
        <time>2020-12-23T12:16:17.000Z</time>
      </trkpt>
      <trkpt lat="43.78838" lon="5.69971">
        <ele>403.79998779297</ele>
        <time>2020-12-23T12:16:18.000Z</time>
      </trkpt>
      <trkpt lat="43.78846" lon="5.69964">
        <ele>403.20001220703</ele>
        <time>2020-12-23T12:16:20.000Z</time>
      </trkpt>
      <trkpt lat="43.7885" lon="5.69962">
        <ele>402.60000610352</ele>
        <time>2020-12-23T12:16:21.000Z</time>
      </trkpt>
      <trkpt lat="43.78854" lon="5.69961">
        <ele>402.39999389648</ele>
        <time>2020-12-23T12:16:22.000Z</time>
      </trkpt>
      <trkpt lat="43.78874" lon="5.6996">
        <ele>401.79998779297</ele>
        <time>2020-12-23T12:16:28.000Z</time>
      </trkpt>
      <trkpt lat="43.78885" lon="5.69951">
        <ele>402.20001220703</ele>
        <time>2020-12-23T12:16:32.000Z</time>
      </trkpt>
      <trkpt lat="43.78894" lon="5.69938">
        <ele>402.39999389648</ele>
        <time>2020-12-23T12:16:35.000Z</time>
      </trkpt>
      <trkpt lat="43.78898" lon="5.69936">
        <ele>402.60000610352</ele>
        <time>2020-12-23T12:16:36.000Z</time>
      </trkpt>
      <trkpt lat="43.78916" lon="5.69931">
        <ele>402.79998779297</ele>
        <time>2020-12-23T12:16:41.000Z</time>
      </trkpt>
      <trkpt lat="43.78937" lon="5.69937">
        <ele>403.20001220703</ele>
        <time>2020-12-23T12:16:47.000Z</time>
      </trkpt>
      <trkpt lat="43.78951" lon="5.69934">
        <ele>404</ele>
        <time>2020-12-23T12:16:52.000Z</time>
      </trkpt>
      <trkpt lat="43.7897" lon="5.6992">
        <ele>405.20001220703</ele>
        <time>2020-12-23T12:16:58.000Z</time>
      </trkpt>
      <trkpt lat="43.78976" lon="5.69915">
        <ele>405.39999389648</ele>
        <time>2020-12-23T12:17:00.000Z</time>
      </trkpt>
      <trkpt lat="43.78992" lon="5.699">
        <ele>405.60000610352</ele>
        <time>2020-12-23T12:17:06.000Z</time>
      </trkpt>
      <trkpt lat="43.79003" lon="5.6988">
        <ele>406.20001220703</ele>
        <time>2020-12-23T12:17:12.000Z</time>
      </trkpt>
      <trkpt lat="43.79007" lon="5.69874">
        <ele>406.79998779297</ele>
        <time>2020-12-23T12:17:14.000Z</time>
      </trkpt>
      <trkpt lat="43.79014" lon="5.69867">
        <ele>407.39999389648</ele>
        <time>2020-12-23T12:17:17.000Z</time>
      </trkpt>
      <trkpt lat="43.79026" lon="5.6985">
        <ele>408.39999389648</ele>
        <time>2020-12-23T12:17:23.000Z</time>
      </trkpt>
      <trkpt lat="43.79027" lon="5.69847">
        <ele>408.60000610352</ele>
        <time>2020-12-23T12:17:24.000Z</time>
      </trkpt>
      <trkpt lat="43.79039" lon="5.69835">
        <ele>409.39999389648</ele>
        <time>2020-12-23T12:17:28.000Z</time>
      </trkpt>
      <trkpt lat="43.79054" lon="5.6983">
        <ele>409.60000610352</ele>
        <time>2020-12-23T12:17:32.000Z</time>
      </trkpt>
      <trkpt lat="43.79073" lon="5.69834">
        <ele>409.60000610352</ele>
        <time>2020-12-23T12:17:37.000Z</time>
      </trkpt>
      <trkpt lat="43.79076" lon="5.69836">
        <ele>409.60000610352</ele>
        <time>2020-12-23T12:17:38.000Z</time>
      </trkpt>
      <trkpt lat="43.79084" lon="5.6984">
        <ele>409.60000610352</ele>
        <time>2020-12-23T12:17:40.000Z</time>
      </trkpt>
      <trkpt lat="43.79088" lon="5.69843">
        <ele>409.39999389648</ele>
        <time>2020-12-23T12:17:41.000Z</time>
      </trkpt>
      <trkpt lat="43.79099" lon="5.69855">
        <ele>409.39999389648</ele>
        <time>2020-12-23T12:17:44.000Z</time>
      </trkpt>
      <trkpt lat="43.79103" lon="5.69858">
        <ele>409.20001220703</ele>
        <time>2020-12-23T12:17:45.000Z</time>
      </trkpt>
      <trkpt lat="43.79115" lon="5.6986">
        <ele>409.20001220703</ele>
        <time>2020-12-23T12:17:48.000Z</time>
      </trkpt>
      <trkpt lat="43.79119" lon="5.6986">
        <ele>409.20001220703</ele>
        <time>2020-12-23T12:17:49.000Z</time>
      </trkpt>
      <trkpt lat="43.79145" lon="5.69865">
        <ele>409</ele>
        <time>2020-12-23T12:17:56.000Z</time>
      </trkpt>
      <trkpt lat="43.79167" lon="5.69856">
        <ele>409.60000610352</ele>
        <time>2020-12-23T12:18:02.000Z</time>
      </trkpt>
      <trkpt lat="43.79185" lon="5.69837">
        <ele>410.39999389648</ele>
        <time>2020-12-23T12:18:09.000Z</time>
      </trkpt>
      <trkpt lat="43.79194" lon="5.6983">
        <ele>411.20001220703</ele>
        <time>2020-12-23T12:18:12.000Z</time>
      </trkpt>
      <trkpt lat="43.79208" lon="5.69818">
        <ele>411.79998779297</ele>
        <time>2020-12-23T12:18:17.000Z</time>
      </trkpt>
      <trkpt lat="43.79221" lon="5.69807">
        <ele>412.20001220703</ele>
        <time>2020-12-23T12:18:21.000Z</time>
      </trkpt>
      <trkpt lat="43.79228" lon="5.69805">
        <ele>412.60000610352</ele>
        <time>2020-12-23T12:18:23.000Z</time>
      </trkpt>
      <trkpt lat="43.79244" lon="5.69807">
        <ele>413</ele>
        <time>2020-12-23T12:18:27.000Z</time>
      </trkpt>
      <trkpt lat="43.79274" lon="5.69805">
        <ele>413</ele>
        <time>2020-12-23T12:18:34.000Z</time>
      </trkpt>
      <trkpt lat="43.79278" lon="5.69803">
        <ele>412.79998779297</ele>
        <time>2020-12-23T12:18:35.000Z</time>
      </trkpt>
      <trkpt lat="43.79291" lon="5.698">
        <ele>412.20001220703</ele>
        <time>2020-12-23T12:18:38.000Z</time>
      </trkpt>
      <trkpt lat="43.793" lon="5.69799">
        <ele>411.79998779297</ele>
        <time>2020-12-23T12:18:40.000Z</time>
      </trkpt>
      <trkpt lat="43.79308" lon="5.69797">
        <ele>411.39999389648</ele>
        <time>2020-12-23T12:18:42.000Z</time>
      </trkpt>
      <trkpt lat="43.79315" lon="5.6979">
        <ele>411</ele>
        <time>2020-12-23T12:18:44.000Z</time>
      </trkpt>
      <trkpt lat="43.79322" lon="5.69783">
        <ele>410.20001220703</ele>
        <time>2020-12-23T12:18:46.000Z</time>
      </trkpt>
      <trkpt lat="43.79326" lon="5.69778">
        <ele>410.20001220703</ele>
        <time>2020-12-23T12:18:47.000Z</time>
      </trkpt>
      <trkpt lat="43.79334" lon="5.69764">
        <ele>409.60000610352</ele>
        <time>2020-12-23T12:18:50.000Z</time>
      </trkpt>
      <trkpt lat="43.79337" lon="5.6976">
        <ele>409.39999389648</ele>
        <time>2020-12-23T12:18:51.000Z</time>
      </trkpt>
      <trkpt lat="43.7934" lon="5.69756">
        <ele>409.20001220703</ele>
        <time>2020-12-23T12:18:52.000Z</time>
      </trkpt>
      <trkpt lat="43.79345" lon="5.69749">
        <ele>408.20001220703</ele>
        <time>2020-12-23T12:18:54.000Z</time>
      </trkpt>
      <trkpt lat="43.79348" lon="5.69746">
        <ele>407.60000610352</ele>
        <time>2020-12-23T12:18:55.000Z</time>
      </trkpt>
      <trkpt lat="43.79352" lon="5.6974">
        <ele>407</ele>
        <time>2020-12-23T12:18:57.000Z</time>
      </trkpt>
      <trkpt lat="43.79366" lon="5.69722">
        <ele>406.60000610352</ele>
        <time>2020-12-23T12:19:02.000Z</time>
      </trkpt>
      <trkpt lat="43.79377" lon="5.69708">
        <ele>406.20001220703</ele>
        <time>2020-12-23T12:19:07.000Z</time>
      </trkpt>
      <trkpt lat="43.7939" lon="5.69686">
        <ele>406</ele>
        <time>2020-12-23T12:19:14.000Z</time>
      </trkpt>
      <trkpt lat="43.79398" lon="5.69674">
        <ele>406.20001220703</ele>
        <time>2020-12-23T12:19:19.000Z</time>
      </trkpt>
      <trkpt lat="43.79402" lon="5.69653">
        <ele>407.20001220703</ele>
        <time>2020-12-23T12:19:24.000Z</time>
      </trkpt>
      <trkpt lat="43.79407" lon="5.69638">
        <ele>408.20001220703</ele>
        <time>2020-12-23T12:19:27.000Z</time>
      </trkpt>
      <trkpt lat="43.79412" lon="5.69624">
        <ele>408.79998779297</ele>
        <time>2020-12-23T12:19:30.000Z</time>
      </trkpt>
      <trkpt lat="43.79419" lon="5.69614">
        <ele>409.20001220703</ele>
        <time>2020-12-23T12:19:33.000Z</time>
      </trkpt>
      <trkpt lat="43.79422" lon="5.69614">
        <ele>409.39999389648</ele>
        <time>2020-12-23T12:19:34.000Z</time>
      </trkpt>
      <trkpt lat="43.79425" lon="5.69613">
        <ele>409.60000610352</ele>
        <time>2020-12-23T12:19:35.000Z</time>
      </trkpt>
      <trkpt lat="43.79446" lon="5.69613">
        <ele>410.20001220703</ele>
        <time>2020-12-23T12:19:41.000Z</time>
      </trkpt>
      <trkpt lat="43.79449" lon="5.69614">
        <ele>410.39999389648</ele>
        <time>2020-12-23T12:19:42.000Z</time>
      </trkpt>
      <trkpt lat="43.79462" lon="5.6962">
        <ele>410.79998779297</ele>
        <time>2020-12-23T12:19:46.000Z</time>
      </trkpt>
      <trkpt lat="43.79474" lon="5.69617">
        <ele>411</ele>
        <time>2020-12-23T12:19:50.000Z</time>
      </trkpt>
      <trkpt lat="43.79482" lon="5.69607">
        <ele>411.39999389648</ele>
        <time>2020-12-23T12:19:54.000Z</time>
      </trkpt>
      <trkpt lat="43.79482" lon="5.69592">
        <ele>411.79998779297</ele>
        <time>2020-12-23T12:19:59.000Z</time>
      </trkpt>
      <trkpt lat="43.79476" lon="5.69586">
        <ele>412</ele>
        <time>2020-12-23T12:20:03.000Z</time>
      </trkpt>
      <trkpt lat="43.79476" lon="5.69585">
        <ele>412.20001220703</ele>
        <time>2020-12-23T12:20:09.000Z</time>
      </trkpt>
      <trkpt lat="43.79475" lon="5.69586">
        <ele>412.60000610352</ele>
        <time>2020-12-23T12:20:15.000Z</time>
      </trkpt>
      <trkpt lat="43.79475" lon="5.69585">
        <ele>412.79998779297</ele>
        <time>2020-12-23T12:20:20.000Z</time>
      </trkpt>
      <trkpt lat="43.79484" lon="5.69579">
        <ele>412.60000610352</ele>
        <time>2020-12-23T12:20:26.000Z</time>
      </trkpt>
      <trkpt lat="43.79486" lon="5.69579">
        <ele>412.60000610352</ele>
        <time>2020-12-23T12:20:27.000Z</time>
      </trkpt>
      <trkpt lat="43.79497" lon="5.69581">
        <ele>412.60000610352</ele>
        <time>2020-12-23T12:20:31.000Z</time>
      </trkpt>
      <trkpt lat="43.79507" lon="5.6958">
        <ele>412.60000610352</ele>
        <time>2020-12-23T12:20:36.000Z</time>
      </trkpt>
      <trkpt lat="43.79517" lon="5.69574">
        <ele>412.60000610352</ele>
        <time>2020-12-23T12:20:43.000Z</time>
      </trkpt>
      <trkpt lat="43.79523" lon="5.69573">
        <ele>412.60000610352</ele>
        <time>2020-12-23T12:20:49.000Z</time>
      </trkpt>
      <trkpt lat="43.79526" lon="5.69574">
        <ele>412.60000610352</ele>
        <time>2020-12-23T12:20:52.000Z</time>
      </trkpt>
      <trkpt lat="43.79525" lon="5.69577">
        <ele>412.60000610352</ele>
        <time>2020-12-23T12:20:54.000Z</time>
      </trkpt>
      <trkpt lat="43.7952" lon="5.69579">
        <ele>412.60000610352</ele>
        <time>2020-12-23T12:20:57.000Z</time>
      </trkpt>
      <trkpt lat="43.79518" lon="5.69579">
        <ele>412.60000610352</ele>
        <time>2020-12-23T12:20:59.000Z</time>
      </trkpt>
      <trkpt lat="43.79511" lon="5.69577">
        <ele>412.60000610352</ele>
        <time>2020-12-23T12:21:03.000Z</time>
      </trkpt>
      <trkpt lat="43.79509" lon="5.69577">
        <ele>412.39999389648</ele>
        <time>2020-12-23T12:21:04.000Z</time>
      </trkpt>
      <trkpt lat="43.79499" lon="5.69582">
        <ele>412.39999389648</ele>
        <time>2020-12-23T12:21:07.000Z</time>
      </trkpt>
      <trkpt lat="43.79493" lon="5.69585">
        <ele>412.39999389648</ele>
        <time>2020-12-23T12:21:09.000Z</time>
      </trkpt>
      <trkpt lat="43.79486" lon="5.69586">
        <ele>412.39999389648</ele>
        <time>2020-12-23T12:21:12.000Z</time>
      </trkpt>
      <trkpt lat="43.79485" lon="5.69588">
        <ele>412.39999389648</ele>
        <time>2020-12-23T12:21:13.000Z</time>
      </trkpt>
      <trkpt lat="43.79487" lon="5.69595">
        <ele>412.20001220703</ele>
        <time>2020-12-23T12:21:16.000Z</time>
      </trkpt>
      <trkpt lat="43.79491" lon="5.69591">
        <ele>412.20001220703</ele>
        <time>2020-12-23T12:21:18.000Z</time>
      </trkpt>
      <trkpt lat="43.79494" lon="5.69588">
        <ele>412.20001220703</ele>
        <time>2020-12-23T12:21:19.000Z</time>
      </trkpt>
      <trkpt lat="43.79513" lon="5.69579">
        <ele>412.20001220703</ele>
        <time>2020-12-23T12:21:25.000Z</time>
      </trkpt>
      <trkpt lat="43.79523" lon="5.69578">
        <ele>412.39999389648</ele>
        <time>2020-12-23T12:21:30.000Z</time>
      </trkpt>
      <trkpt lat="43.79531" lon="5.6958">
        <ele>412.39999389648</ele>
        <time>2020-12-23T12:21:35.000Z</time>
      </trkpt>
      <trkpt lat="43.79533" lon="5.69581">
        <ele>412.39999389648</ele>
        <time>2020-12-23T12:21:40.000Z</time>
      </trkpt>
      <trkpt lat="43.79533" lon="5.69581">
        <ele>412.20001220703</ele>
        <time>2020-12-23T12:21:51.000Z</time>
      </trkpt>
      <trkpt lat="43.79532" lon="5.69578">
        <ele>412.39999389648</ele>
        <time>2020-12-23T12:22:01.000Z</time>
      </trkpt>
      <trkpt lat="43.79532" lon="5.69579">
        <ele>412.39999389648</ele>
        <time>2020-12-23T12:22:08.000Z</time>
      </trkpt>
      <trkpt lat="43.79533" lon="5.69579">
        <ele>412.39999389648</ele>
        <time>2020-12-23T12:22:15.000Z</time>
      </trkpt>
      <trkpt lat="43.79535" lon="5.6958">
        <ele>412.39999389648</ele>
        <time>2020-12-23T12:22:19.000Z</time>
      </trkpt>
      <trkpt lat="43.79535" lon="5.6958">
        <ele>412.39999389648</ele>
        <time>2020-12-23T12:22:24.000Z</time>
      </trkpt>
      <trkpt lat="43.79535" lon="5.6958">
        <ele>412.20001220703</ele>
        <time>2020-12-23T12:22:31.000Z</time>
      </trkpt>
      <trkpt lat="43.79535" lon="5.69581">
        <ele>412.20001220703</ele>
        <time>2020-12-23T12:22:41.000Z</time>
      </trkpt>
      <trkpt lat="43.79537" lon="5.69584">
        <ele>412.39999389648</ele>
        <time>2020-12-23T12:22:49.000Z</time>
      </trkpt>
      <trkpt lat="43.79536" lon="5.69583">
        <ele>412.39999389648</ele>
        <time>2020-12-23T12:22:58.000Z</time>
      </trkpt>
      <trkpt lat="43.79536" lon="5.69584">
        <ele>412.39999389648</ele>
        <time>2020-12-23T12:23:04.000Z</time>
      </trkpt>
      <trkpt lat="43.79536" lon="5.69584">
        <ele>412.20001220703</ele>
        <time>2020-12-23T12:23:15.000Z</time>
      </trkpt>
      <trkpt lat="43.79538" lon="5.69587">
        <ele>412.39999389648</ele>
        <time>2020-12-23T12:23:26.000Z</time>
      </trkpt>
      <trkpt lat="43.79539" lon="5.69587">
        <ele>412.39999389648</ele>
        <time>2020-12-23T12:23:34.000Z</time>
      </trkpt>
      <trkpt lat="43.79541" lon="5.69588">
        <ele>412.39999389648</ele>
        <time>2020-12-23T12:23:40.000Z</time>
      </trkpt>
      <trkpt lat="43.79543" lon="5.69588">
        <ele>412.39999389648</ele>
        <time>2020-12-23T12:23:42.000Z</time>
      </trkpt>
      <trkpt lat="43.7955" lon="5.69597">
        <ele>412.39999389648</ele>
        <time>2020-12-23T12:23:46.000Z</time>
      </trkpt>
      <trkpt lat="43.79551" lon="5.696">
        <ele>412.39999389648</ele>
        <time>2020-12-23T12:23:47.000Z</time>
      </trkpt>
      <trkpt lat="43.79558" lon="5.69622">
        <ele>411.79998779297</ele>
        <time>2020-12-23T12:23:54.000Z</time>
      </trkpt>
      <trkpt lat="43.79565" lon="5.69642">
        <ele>411.79998779297</ele>
        <time>2020-12-23T12:23:59.000Z</time>
      </trkpt>
      <trkpt lat="43.79567" lon="5.69646">
        <ele>411.79998779297</ele>
        <time>2020-12-23T12:24:00.000Z</time>
      </trkpt>
      <trkpt lat="43.79582" lon="5.69668">
        <ele>411.60000610352</ele>
        <time>2020-12-23T12:24:05.000Z</time>
      </trkpt>
      <trkpt lat="43.79588" lon="5.69676">
        <ele>411.39999389648</ele>
        <time>2020-12-23T12:24:07.000Z</time>
      </trkpt>
      <trkpt lat="43.796" lon="5.6969">
        <ele>410.79998779297</ele>
        <time>2020-12-23T12:24:11.000Z</time>
      </trkpt>
      <trkpt lat="43.79606" lon="5.69698">
        <ele>410.20001220703</ele>
        <time>2020-12-23T12:24:13.000Z</time>
      </trkpt>
      <trkpt lat="43.79618" lon="5.69712">
        <ele>409.79998779297</ele>
        <time>2020-12-23T12:24:16.000Z</time>
      </trkpt>
      <trkpt lat="43.79642" lon="5.69751">
        <ele>409.60000610352</ele>
        <time>2020-12-23T12:24:22.000Z</time>
      </trkpt>
      <trkpt lat="43.79646" lon="5.69758">
        <ele>409.39999389648</ele>
        <time>2020-12-23T12:24:23.000Z</time>
      </trkpt>
      <trkpt lat="43.79658" lon="5.69782">
        <ele>409.39999389648</ele>
        <time>2020-12-23T12:24:27.000Z</time>
      </trkpt>
      <trkpt lat="43.79672" lon="5.69819">
        <ele>409.39999389648</ele>
        <time>2020-12-23T12:24:33.000Z</time>
      </trkpt>
      <trkpt lat="43.79688" lon="5.69876">
        <ele>410.20001220703</ele>
        <time>2020-12-23T12:24:41.000Z</time>
      </trkpt>
      <trkpt lat="43.79693" lon="5.69888">
        <ele>410.39999389648</ele>
        <time>2020-12-23T12:24:43.000Z</time>
      </trkpt>
      <trkpt lat="43.797" lon="5.69903">
        <ele>411.39999389648</ele>
        <time>2020-12-23T12:24:46.000Z</time>
      </trkpt>
      <trkpt lat="43.79703" lon="5.69908">
        <ele>411.79998779297</ele>
        <time>2020-12-23T12:24:47.000Z</time>
      </trkpt>
      <trkpt lat="43.79711" lon="5.69917">
        <ele>412.79998779297</ele>
        <time>2020-12-23T12:24:50.000Z</time>
      </trkpt>
      <trkpt lat="43.79716" lon="5.69923">
        <ele>413.60000610352</ele>
        <time>2020-12-23T12:24:52.000Z</time>
      </trkpt>
      <trkpt lat="43.79719" lon="5.69926">
        <ele>413.79998779297</ele>
        <time>2020-12-23T12:24:53.000Z</time>
      </trkpt>
      <trkpt lat="43.79731" lon="5.69941">
        <ele>415</ele>
        <time>2020-12-23T12:24:57.000Z</time>
      </trkpt>
      <trkpt lat="43.79735" lon="5.69944">
        <ele>415.39999389648</ele>
        <time>2020-12-23T12:24:58.000Z</time>
      </trkpt>
      <trkpt lat="43.79759" lon="5.69963">
        <ele>415.60000610352</ele>
        <time>2020-12-23T12:25:03.000Z</time>
      </trkpt>
      <trkpt lat="43.79764" lon="5.69966">
        <ele>415.60000610352</ele>
        <time>2020-12-23T12:25:04.000Z</time>
      </trkpt>
      <trkpt lat="43.79789" lon="5.69974">
        <ele>415.39999389648</ele>
        <time>2020-12-23T12:25:09.000Z</time>
      </trkpt>
      <trkpt lat="43.79815" lon="5.6999">
        <ele>414.79998779297</ele>
        <time>2020-12-23T12:25:14.000Z</time>
      </trkpt>
      <trkpt lat="43.79819" lon="5.69994">
        <ele>414.79998779297</ele>
        <time>2020-12-23T12:25:15.000Z</time>
      </trkpt>
      <trkpt lat="43.79836" lon="5.70012">
        <ele>414</ele>
        <time>2020-12-23T12:25:19.000Z</time>
      </trkpt>
      <trkpt lat="43.79844" lon="5.70023">
        <ele>413.60000610352</ele>
        <time>2020-12-23T12:25:21.000Z</time>
      </trkpt>
      <trkpt lat="43.79868" lon="5.70063">
        <ele>413.20001220703</ele>
        <time>2020-12-23T12:25:27.000Z</time>
      </trkpt>
      <trkpt lat="43.79894" lon="5.7011">
        <ele>413.39999389648</ele>
        <time>2020-12-23T12:25:35.000Z</time>
      </trkpt>
      <trkpt lat="43.79915" lon="5.70147">
        <ele>415.20001220703</ele>
        <time>2020-12-23T12:25:43.000Z</time>
      </trkpt>
      <trkpt lat="43.79923" lon="5.70161">
        <ele>416.39999389648</ele>
        <time>2020-12-23T12:25:47.000Z</time>
      </trkpt>
      <trkpt lat="43.7993" lon="5.70173">
        <ele>417.39999389648</ele>
        <time>2020-12-23T12:25:50.000Z</time>
      </trkpt>
      <trkpt lat="43.79933" lon="5.70176">
        <ele>417.60000610352</ele>
        <time>2020-12-23T12:25:51.000Z</time>
      </trkpt>
      <trkpt lat="43.79948" lon="5.70201">
        <ele>417.60000610352</ele>
        <time>2020-12-23T12:25:58.000Z</time>
      </trkpt>
      <trkpt lat="43.79959" lon="5.70224">
        <ele>417.60000610352</ele>
        <time>2020-12-23T12:26:04.000Z</time>
      </trkpt>
      <trkpt lat="43.79967" lon="5.70243">
        <ele>417.39999389648</ele>
        <time>2020-12-23T12:26:09.000Z</time>
      </trkpt>
      <trkpt lat="43.79977" lon="5.70271">
        <ele>417.39999389648</ele>
        <time>2020-12-23T12:26:15.000Z</time>
      </trkpt>
      <trkpt lat="43.79993" lon="5.70307">
        <ele>417.60000610352</ele>
        <time>2020-12-23T12:26:23.000Z</time>
      </trkpt>
      <trkpt lat="43.8" lon="5.70319">
        <ele>418.39999389648</ele>
        <time>2020-12-23T12:26:28.000Z</time>
      </trkpt>
      <trkpt lat="43.8" lon="5.70319">
        <ele>418.60000610352</ele>
        <time>2020-12-23T12:26:29.000Z</time>
      </trkpt>
      <trkpt lat="43.80001" lon="5.70319">
        <ele>419.60000610352</ele>
        <time>2020-12-23T12:26:33.000Z</time>
      </trkpt>
      <trkpt lat="43.8" lon="5.70319">
        <ele>420.60000610352</ele>
        <time>2020-12-23T12:26:36.000Z</time>
      </trkpt>
      <trkpt lat="43.80004" lon="5.70325">
        <ele>420.79998779297</ele>
        <time>2020-12-23T12:26:41.000Z</time>
      </trkpt>
      <trkpt lat="43.80005" lon="5.70327">
        <ele>420.79998779297</ele>
        <time>2020-12-23T12:26:45.000Z</time>
      </trkpt>
      <trkpt lat="43.80008" lon="5.70332">
        <ele>421</ele>
        <time>2020-12-23T12:26:50.000Z</time>
      </trkpt>
      <trkpt lat="43.80016" lon="5.70345">
        <ele>421.20001220703</ele>
        <time>2020-12-23T12:26:56.000Z</time>
      </trkpt>
      <trkpt lat="43.80024" lon="5.70363">
        <ele>421.39999389648</ele>
        <time>2020-12-23T12:27:02.000Z</time>
      </trkpt>
      <trkpt lat="43.80035" lon="5.70386">
        <ele>421.79998779297</ele>
        <time>2020-12-23T12:27:08.000Z</time>
      </trkpt>
      <trkpt lat="43.80038" lon="5.70391">
        <ele>421.79998779297</ele>
        <time>2020-12-23T12:27:09.000Z</time>
      </trkpt>
      <trkpt lat="43.80053" lon="5.70428">
        <ele>422</ele>
        <time>2020-12-23T12:27:16.000Z</time>
      </trkpt>
      <trkpt lat="43.80068" lon="5.70465">
        <ele>421.79998779297</ele>
        <time>2020-12-23T12:27:22.000Z</time>
      </trkpt>
      <trkpt lat="43.80088" lon="5.70513">
        <ele>421.39999389648</ele>
        <time>2020-12-23T12:27:29.000Z</time>
      </trkpt>
      <trkpt lat="43.80106" lon="5.70549">
        <ele>421.39999389648</ele>
        <time>2020-12-23T12:27:35.000Z</time>
      </trkpt>
      <trkpt lat="43.80115" lon="5.70579">
        <ele>421.79998779297</ele>
        <time>2020-12-23T12:27:40.000Z</time>
      </trkpt>
      <trkpt lat="43.8012" lon="5.70603">
        <ele>422</ele>
        <time>2020-12-23T12:27:44.000Z</time>
      </trkpt>
      <trkpt lat="43.80122" lon="5.70615">
        <ele>422.20001220703</ele>
        <time>2020-12-23T12:27:46.000Z</time>
      </trkpt>
      <trkpt lat="43.80127" lon="5.70644">
        <ele>422.60000610352</ele>
        <time>2020-12-23T12:27:52.000Z</time>
      </trkpt>
      <trkpt lat="43.80129" lon="5.70664">
        <ele>422.79998779297</ele>
        <time>2020-12-23T12:27:57.000Z</time>
      </trkpt>
      <trkpt lat="43.8013" lon="5.70669">
        <ele>423</ele>
        <time>2020-12-23T12:27:58.000Z</time>
      </trkpt>
      <trkpt lat="43.80133" lon="5.70711">
        <ele>423.60000610352</ele>
        <time>2020-12-23T12:28:06.000Z</time>
      </trkpt>
      <trkpt lat="43.80137" lon="5.70738">
        <ele>423.79998779297</ele>
        <time>2020-12-23T12:28:11.000Z</time>
      </trkpt>
      <trkpt lat="43.80138" lon="5.70743">
        <ele>424</ele>
        <time>2020-12-23T12:28:12.000Z</time>
      </trkpt>
      <trkpt lat="43.80141" lon="5.70777">
        <ele>424.39999389648</ele>
        <time>2020-12-23T12:28:18.000Z</time>
      </trkpt>
      <trkpt lat="43.8014" lon="5.70783">
        <ele>424.60000610352</ele>
        <time>2020-12-23T12:28:19.000Z</time>
      </trkpt>
      <trkpt lat="43.80132" lon="5.70801">
        <ele>424.60000610352</ele>
        <time>2020-12-23T12:28:22.000Z</time>
      </trkpt>
      <trkpt lat="43.80129" lon="5.70807">
        <ele>424.79998779297</ele>
        <time>2020-12-23T12:28:23.000Z</time>
      </trkpt>
      <trkpt lat="43.8011" lon="5.70843">
        <ele>425</ele>
        <time>2020-12-23T12:28:28.000Z</time>
      </trkpt>
      <trkpt lat="43.80076" lon="5.70905">
        <ele>423.20001220703</ele>
        <time>2020-12-23T12:28:37.000Z</time>
      </trkpt>
      <trkpt lat="43.80059" lon="5.70934">
        <ele>422</ele>
        <time>2020-12-23T12:28:42.000Z</time>
      </trkpt>
      <trkpt lat="43.80048" lon="5.7095">
        <ele>422</ele>
        <time>2020-12-23T12:28:45.000Z</time>
      </trkpt>
      <trkpt lat="43.80023" lon="5.70975">
        <ele>421.39999389648</ele>
        <time>2020-12-23T12:28:51.000Z</time>
      </trkpt>
      <trkpt lat="43.79994" lon="5.7101">
        <ele>421.20001220703</ele>
        <time>2020-12-23T12:28:59.000Z</time>
      </trkpt>
      <trkpt lat="43.79973" lon="5.71051">
        <ele>421.20001220703</ele>
        <time>2020-12-23T12:29:06.000Z</time>
      </trkpt>
      <trkpt lat="43.79966" lon="5.71069">
        <ele>421.20001220703</ele>
        <time>2020-12-23T12:29:09.000Z</time>
      </trkpt>
      <trkpt lat="43.79959" lon="5.71096">
        <ele>421.39999389648</ele>
        <time>2020-12-23T12:29:13.000Z</time>
      </trkpt>
      <trkpt lat="43.79953" lon="5.7113">
        <ele>421.79998779297</ele>
        <time>2020-12-23T12:29:18.000Z</time>
      </trkpt>
      <trkpt lat="43.79953" lon="5.71144">
        <ele>422</ele>
        <time>2020-12-23T12:29:20.000Z</time>
      </trkpt>
      <trkpt lat="43.79945" lon="5.71167">
        <ele>422.60000610352</ele>
        <time>2020-12-23T12:29:24.000Z</time>
      </trkpt>
      <trkpt lat="43.79933" lon="5.7118">
        <ele>423.20001220703</ele>
        <time>2020-12-23T12:29:27.000Z</time>
      </trkpt>
      <trkpt lat="43.79925" lon="5.71186">
        <ele>423.60000610352</ele>
        <time>2020-12-23T12:29:29.000Z</time>
      </trkpt>
      <trkpt lat="43.79916" lon="5.71193">
        <ele>424.20001220703</ele>
        <time>2020-12-23T12:29:31.000Z</time>
      </trkpt>
      <trkpt lat="43.79901" lon="5.71205">
        <ele>425.20001220703</ele>
        <time>2020-12-23T12:29:35.000Z</time>
      </trkpt>
      <trkpt lat="43.79898" lon="5.71207">
        <ele>425.39999389648</ele>
        <time>2020-12-23T12:29:36.000Z</time>
      </trkpt>
      <trkpt lat="43.79881" lon="5.71221">
        <ele>426.39999389648</ele>
        <time>2020-12-23T12:29:42.000Z</time>
      </trkpt>
      <trkpt lat="43.79875" lon="5.71227">
        <ele>426.79998779297</ele>
        <time>2020-12-23T12:29:44.000Z</time>
      </trkpt>
      <trkpt lat="43.79866" lon="5.71235">
        <ele>427.79998779297</ele>
        <time>2020-12-23T12:29:47.000Z</time>
      </trkpt>
      <trkpt lat="43.79855" lon="5.71244">
        <ele>428.60000610352</ele>
        <time>2020-12-23T12:29:51.000Z</time>
      </trkpt>
      <trkpt lat="43.79848" lon="5.71249">
        <ele>428.79998779297</ele>
        <time>2020-12-23T12:29:53.000Z</time>
      </trkpt>
      <trkpt lat="43.79829" lon="5.71262">
        <ele>429.60000610352</ele>
        <time>2020-12-23T12:29:59.000Z</time>
      </trkpt>
      <trkpt lat="43.79822" lon="5.71268">
        <ele>429.60000610352</ele>
        <time>2020-12-23T12:30:02.000Z</time>
      </trkpt>
      <trkpt lat="43.79822" lon="5.7127">
        <ele>429.60000610352</ele>
        <time>2020-12-23T12:30:03.000Z</time>
      </trkpt>
      <trkpt lat="43.79826" lon="5.7128">
        <ele>429.60000610352</ele>
        <time>2020-12-23T12:30:07.000Z</time>
      </trkpt>
      <trkpt lat="43.79833" lon="5.71283">
        <ele>429.39999389648</ele>
        <time>2020-12-23T12:30:09.000Z</time>
      </trkpt>
      <trkpt lat="43.79844" lon="5.71289">
        <ele>429.60000610352</ele>
        <time>2020-12-23T12:30:12.000Z</time>
      </trkpt>
      <trkpt lat="43.79857" lon="5.71299">
        <ele>429.60000610352</ele>
        <time>2020-12-23T12:30:17.000Z</time>
      </trkpt>
      <trkpt lat="43.79871" lon="5.71312">
        <ele>429.60000610352</ele>
        <time>2020-12-23T12:30:22.000Z</time>
      </trkpt>
      <trkpt lat="43.79896" lon="5.71325">
        <ele>429.79998779297</ele>
        <time>2020-12-23T12:30:29.000Z</time>
      </trkpt>
      <trkpt lat="43.7993" lon="5.7133">
        <ele>430</ele>
        <time>2020-12-23T12:30:38.000Z</time>
      </trkpt>
      <trkpt lat="43.79934" lon="5.7133">
        <ele>430</ele>
        <time>2020-12-23T12:30:39.000Z</time>
      </trkpt>
      <trkpt lat="43.79944" lon="5.71326">
        <ele>430.60000610352</ele>
        <time>2020-12-23T12:30:43.000Z</time>
      </trkpt>
      <trkpt lat="43.79952" lon="5.71321">
        <ele>431</ele>
        <time>2020-12-23T12:30:48.000Z</time>
      </trkpt>
      <trkpt lat="43.79959" lon="5.71316">
        <ele>432.20001220703</ele>
        <time>2020-12-23T12:30:52.000Z</time>
      </trkpt>
      <trkpt lat="43.79961" lon="5.71315">
        <ele>432.39999389648</ele>
        <time>2020-12-23T12:30:54.000Z</time>
      </trkpt>
      <trkpt lat="43.7996" lon="5.71315">
        <ele>433</ele>
        <time>2020-12-23T12:31:00.000Z</time>
      </trkpt>
      <trkpt lat="43.79963" lon="5.71313">
        <ele>433.39999389648</ele>
        <time>2020-12-23T12:31:04.000Z</time>
      </trkpt>
      <trkpt lat="43.79964" lon="5.71311">
        <ele>433.39999389648</ele>
        <time>2020-12-23T12:31:06.000Z</time>
      </trkpt>
      <trkpt lat="43.79968" lon="5.71306">
        <ele>433.39999389648</ele>
        <time>2020-12-23T12:31:11.000Z</time>
      </trkpt>
      <trkpt lat="43.79971" lon="5.71303">
        <ele>434.20001220703</ele>
        <time>2020-12-23T12:31:16.000Z</time>
      </trkpt>
      <trkpt lat="43.79973" lon="5.713">
        <ele>434.39999389648</ele>
        <time>2020-12-23T12:31:18.000Z</time>
      </trkpt>
      <trkpt lat="43.79981" lon="5.71299">
        <ele>434.60000610352</ele>
        <time>2020-12-23T12:31:21.000Z</time>
      </trkpt>
      <trkpt lat="43.79987" lon="5.71302">
        <ele>434.60000610352</ele>
        <time>2020-12-23T12:31:23.000Z</time>
      </trkpt>
      <trkpt lat="43.79994" lon="5.7131">
        <ele>434.79998779297</ele>
        <time>2020-12-23T12:31:26.000Z</time>
      </trkpt>
      <trkpt lat="43.79999" lon="5.71328">
        <ele>434.79998779297</ele>
        <time>2020-12-23T12:31:30.000Z</time>
      </trkpt>
      <trkpt lat="43.80004" lon="5.71342">
        <ele>434.60000610352</ele>
        <time>2020-12-23T12:31:35.000Z</time>
      </trkpt>
      <trkpt lat="43.80004" lon="5.71343">
        <ele>435</ele>
        <time>2020-12-23T12:31:40.000Z</time>
      </trkpt>
      <trkpt lat="43.80005" lon="5.71346">
        <ele>435.39999389648</ele>
        <time>2020-12-23T12:31:42.000Z</time>
      </trkpt>
      <trkpt lat="43.80007" lon="5.7135">
        <ele>435.79998779297</ele>
        <time>2020-12-23T12:31:44.000Z</time>
      </trkpt>
      <trkpt lat="43.80008" lon="5.71352">
        <ele>436</ele>
        <time>2020-12-23T12:31:49.000Z</time>
      </trkpt>
      <trkpt lat="43.80008" lon="5.71352">
        <ele>436.39999389648</ele>
        <time>2020-12-23T12:31:52.000Z</time>
      </trkpt>
      <trkpt lat="43.80008" lon="5.71352">
        <ele>436.79998779297</ele>
        <time>2020-12-23T12:31:57.000Z</time>
      </trkpt>
      <trkpt lat="43.80009" lon="5.71358">
        <ele>436.79998779297</ele>
        <time>2020-12-23T12:32:06.000Z</time>
      </trkpt>
      <trkpt lat="43.80017" lon="5.71377">
        <ele>436.79998779297</ele>
        <time>2020-12-23T12:32:11.000Z</time>
      </trkpt>
      <trkpt lat="43.80016" lon="5.71392">
        <ele>436.79998779297</ele>
        <time>2020-12-23T12:32:15.000Z</time>
      </trkpt>
      <trkpt lat="43.80017" lon="5.71406">
        <ele>436.79998779297</ele>
        <time>2020-12-23T12:32:18.000Z</time>
      </trkpt>
      <trkpt lat="43.80018" lon="5.71412">
        <ele>436.79998779297</ele>
        <time>2020-12-23T12:32:19.000Z</time>
      </trkpt>
      <trkpt lat="43.8003" lon="5.7145">
        <ele>436.60000610352</ele>
        <time>2020-12-23T12:32:25.000Z</time>
      </trkpt>
      <trkpt lat="43.80038" lon="5.71476">
        <ele>435.39999389648</ele>
        <time>2020-12-23T12:32:29.000Z</time>
      </trkpt>
      <trkpt lat="43.80042" lon="5.71487">
        <ele>434.39999389648</ele>
        <time>2020-12-23T12:32:31.000Z</time>
      </trkpt>
      <trkpt lat="43.80044" lon="5.71492">
        <ele>434</ele>
        <time>2020-12-23T12:32:32.000Z</time>
      </trkpt>
      <trkpt lat="43.80046" lon="5.71508">
        <ele>432.60000610352</ele>
        <time>2020-12-23T12:32:35.000Z</time>
      </trkpt>
      <trkpt lat="43.80048" lon="5.71514">
        <ele>432.20001220703</ele>
        <time>2020-12-23T12:32:36.000Z</time>
      </trkpt>
      <trkpt lat="43.8005" lon="5.71527">
        <ele>431.60000610352</ele>
        <time>2020-12-23T12:32:38.000Z</time>
      </trkpt>
      <trkpt lat="43.80049" lon="5.71533">
        <ele>431.39999389648</ele>
        <time>2020-12-23T12:32:39.000Z</time>
      </trkpt>
      <trkpt lat="43.80048" lon="5.71547">
        <ele>431.39999389648</ele>
        <time>2020-12-23T12:32:41.000Z</time>
      </trkpt>
      <trkpt lat="43.80047" lon="5.71554">
        <ele>431.20001220703</ele>
        <time>2020-12-23T12:32:42.000Z</time>
      </trkpt>
      <trkpt lat="43.8004" lon="5.71565">
        <ele>431</ele>
        <time>2020-12-23T12:32:44.000Z</time>
      </trkpt>
      <trkpt lat="43.80029" lon="5.71566">
        <ele>430.60000610352</ele>
        <time>2020-12-23T12:32:46.000Z</time>
      </trkpt>
      <trkpt lat="43.80017" lon="5.71568">
        <ele>429.39999389648</ele>
        <time>2020-12-23T12:32:49.000Z</time>
      </trkpt>
      <trkpt lat="43.80013" lon="5.71586">
        <ele>428.20001220703</ele>
        <time>2020-12-23T12:32:52.000Z</time>
      </trkpt>
      <trkpt lat="43.80015" lon="5.716">
        <ele>427.20001220703</ele>
        <time>2020-12-23T12:32:54.000Z</time>
      </trkpt>
      <trkpt lat="43.80016" lon="5.71607">
        <ele>426.79998779297</ele>
        <time>2020-12-23T12:32:55.000Z</time>
      </trkpt>
      <trkpt lat="43.80018" lon="5.71615">
        <ele>426.20001220703</ele>
        <time>2020-12-23T12:32:56.000Z</time>
      </trkpt>
      <trkpt lat="43.80018" lon="5.71622">
        <ele>425.79998779297</ele>
        <time>2020-12-23T12:32:57.000Z</time>
      </trkpt>
      <trkpt lat="43.80018" lon="5.71631">
        <ele>425.39999389648</ele>
        <time>2020-12-23T12:32:58.000Z</time>
      </trkpt>
      <trkpt lat="43.80018" lon="5.71649">
        <ele>424.60000610352</ele>
        <time>2020-12-23T12:33:00.000Z</time>
      </trkpt>
      <trkpt lat="43.80019" lon="5.71658">
        <ele>424</ele>
        <time>2020-12-23T12:33:01.000Z</time>
      </trkpt>
      <trkpt lat="43.80027" lon="5.7167">
        <ele>423</ele>
        <time>2020-12-23T12:33:03.000Z</time>
      </trkpt>
      <trkpt lat="43.80032" lon="5.71673">
        <ele>422.60000610352</ele>
        <time>2020-12-23T12:33:04.000Z</time>
      </trkpt>
      <trkpt lat="43.80034" lon="5.71681">
        <ele>421.60000610352</ele>
        <time>2020-12-23T12:33:06.000Z</time>
      </trkpt>
      <trkpt lat="43.80032" lon="5.71685">
        <ele>421</ele>
        <time>2020-12-23T12:33:07.000Z</time>
      </trkpt>
      <trkpt lat="43.80025" lon="5.71686">
        <ele>419.60000610352</ele>
        <time>2020-12-23T12:33:09.000Z</time>
      </trkpt>
      <trkpt lat="43.80016" lon="5.71686">
        <ele>418</ele>
        <time>2020-12-23T12:33:11.000Z</time>
      </trkpt>
      <trkpt lat="43.80012" lon="5.71687">
        <ele>417.20001220703</ele>
        <time>2020-12-23T12:33:12.000Z</time>
      </trkpt>
      <trkpt lat="43.80007" lon="5.71688">
        <ele>416.79998779297</ele>
        <time>2020-12-23T12:33:13.000Z</time>
      </trkpt>
      <trkpt lat="43.80003" lon="5.7169">
        <ele>416.20001220703</ele>
        <time>2020-12-23T12:33:14.000Z</time>
      </trkpt>
      <trkpt lat="43.79998" lon="5.71691">
        <ele>415.60000610352</ele>
        <time>2020-12-23T12:33:15.000Z</time>
      </trkpt>
      <trkpt lat="43.79989" lon="5.7169">
        <ele>415</ele>
        <time>2020-12-23T12:33:17.000Z</time>
      </trkpt>
      <trkpt lat="43.7998" lon="5.71692">
        <ele>414.60000610352</ele>
        <time>2020-12-23T12:33:19.000Z</time>
      </trkpt>
      <trkpt lat="43.79976" lon="5.71697">
        <ele>414.39999389648</ele>
        <time>2020-12-23T12:33:20.000Z</time>
      </trkpt>
      <trkpt lat="43.79968" lon="5.7171">
        <ele>413.60000610352</ele>
        <time>2020-12-23T12:33:22.000Z</time>
      </trkpt>
      <trkpt lat="43.79966" lon="5.71719">
        <ele>413</ele>
        <time>2020-12-23T12:33:23.000Z</time>
      </trkpt>
      <trkpt lat="43.79963" lon="5.71735">
        <ele>412.39999389648</ele>
        <time>2020-12-23T12:33:25.000Z</time>
      </trkpt>
      <trkpt lat="43.79962" lon="5.71744">
        <ele>412</ele>
        <time>2020-12-23T12:33:27.000Z</time>
      </trkpt>
      <trkpt lat="43.79962" lon="5.71748">
        <ele>410.79998779297</ele>
        <time>2020-12-23T12:33:29.000Z</time>
      </trkpt>
      <trkpt lat="43.79962" lon="5.71748">
        <ele>409.39999389648</ele>
        <time>2020-12-23T12:33:31.000Z</time>
      </trkpt>
      <trkpt lat="43.79962" lon="5.71749">
        <ele>408.20001220703</ele>
        <time>2020-12-23T12:33:33.000Z</time>
      </trkpt>
      <trkpt lat="43.79962" lon="5.71749">
        <ele>407.79998779297</ele>
        <time>2020-12-23T12:33:36.000Z</time>
      </trkpt>
      <trkpt lat="43.7996" lon="5.71749">
        <ele>407.79998779297</ele>
        <time>2020-12-23T12:33:38.000Z</time>
      </trkpt>
      <trkpt lat="43.79955" lon="5.71745">
        <ele>407.60000610352</ele>
        <time>2020-12-23T12:33:43.000Z</time>
      </trkpt>
      <trkpt lat="43.79951" lon="5.71744">
        <ele>407.60000610352</ele>
        <time>2020-12-23T12:33:50.000Z</time>
      </trkpt>
      <trkpt lat="43.79952" lon="5.71745">
        <ele>407.60000610352</ele>
        <time>2020-12-23T12:34:03.000Z</time>
      </trkpt>
      <trkpt lat="43.79952" lon="5.71744">
        <ele>407.60000610352</ele>
        <time>2020-12-23T12:34:12.000Z</time>
      </trkpt>
      <trkpt lat="43.79952" lon="5.71744">
        <ele>407.60000610352</ele>
        <time>2020-12-23T12:34:26.000Z</time>
      </trkpt>
      <trkpt lat="43.79952" lon="5.71744">
        <ele>407.60000610352</ele>
        <time>2020-12-23T12:34:40.000Z</time>
      </trkpt>
      <trkpt lat="43.79953" lon="5.71745">
        <ele>407.60000610352</ele>
        <time>2020-12-23T12:34:51.000Z</time>
      </trkpt>
      <trkpt lat="43.79954" lon="5.71745">
        <ele>407.60000610352</ele>
        <time>2020-12-23T12:35:01.000Z</time>
      </trkpt>
      <trkpt lat="43.79954" lon="5.71746">
        <ele>407.60000610352</ele>
        <time>2020-12-23T12:35:09.000Z</time>
      </trkpt>
      <trkpt lat="43.79953" lon="5.71745">
        <ele>407.60000610352</ele>
        <time>2020-12-23T12:35:15.000Z</time>
      </trkpt>
      <trkpt lat="43.79953" lon="5.71745">
        <ele>407.39999389648</ele>
        <time>2020-12-23T12:35:20.000Z</time>
      </trkpt>
      <trkpt lat="43.79953" lon="5.71745">
        <ele>407.39999389648</ele>
        <time>2020-12-23T12:35:32.000Z</time>
      </trkpt>
      <trkpt lat="43.79952" lon="5.71745">
        <ele>407.39999389648</ele>
        <time>2020-12-23T12:35:47.000Z</time>
      </trkpt>
      <trkpt lat="43.79952" lon="5.71745">
        <ele>407.39999389648</ele>
        <time>2020-12-23T12:36:02.000Z</time>
      </trkpt>
      <trkpt lat="43.79952" lon="5.71746">
        <ele>407.79998779297</ele>
        <time>2020-12-23T12:36:13.000Z</time>
      </trkpt>
      <trkpt lat="43.79953" lon="5.71748">
        <ele>407.79998779297</ele>
        <time>2020-12-23T12:36:14.000Z</time>
      </trkpt>
      <trkpt lat="43.79958" lon="5.71748">
        <ele>407.79998779297</ele>
        <time>2020-12-23T12:36:18.000Z</time>
      </trkpt>
      <trkpt lat="43.79963" lon="5.71752">
        <ele>407.79998779297</ele>
        <time>2020-12-23T12:36:21.000Z</time>
      </trkpt>
      <trkpt lat="43.79964" lon="5.71762">
        <ele>407.79998779297</ele>
        <time>2020-12-23T12:36:23.000Z</time>
      </trkpt>
      <trkpt lat="43.79966" lon="5.7177">
        <ele>407.79998779297</ele>
        <time>2020-12-23T12:36:25.000Z</time>
      </trkpt>
      <trkpt lat="43.79972" lon="5.71785">
        <ele>407.60000610352</ele>
        <time>2020-12-23T12:36:30.000Z</time>
      </trkpt>
      <trkpt lat="43.79975" lon="5.71793">
        <ele>407.20001220703</ele>
        <time>2020-12-23T12:36:34.000Z</time>
      </trkpt>
      <trkpt lat="43.79972" lon="5.7179">
        <ele>407</ele>
        <time>2020-12-23T12:36:39.000Z</time>
      </trkpt>
      <trkpt lat="43.7997" lon="5.71784">
        <ele>406.79998779297</ele>
        <time>2020-12-23T12:36:43.000Z</time>
      </trkpt>
      <trkpt lat="43.79972" lon="5.71783">
        <ele>406.79998779297</ele>
        <time>2020-12-23T12:36:46.000Z</time>
      </trkpt>
      <trkpt lat="43.79974" lon="5.71786">
        <ele>406.79998779297</ele>
        <time>2020-12-23T12:36:48.000Z</time>
      </trkpt>
      <trkpt lat="43.79978" lon="5.71799">
        <ele>406.79998779297</ele>
        <time>2020-12-23T12:36:52.000Z</time>
      </trkpt>
      <trkpt lat="43.79981" lon="5.71827">
        <ele>406.60000610352</ele>
        <time>2020-12-23T12:36:57.000Z</time>
      </trkpt>
      <trkpt lat="43.7998" lon="5.71839">
        <ele>406.39999389648</ele>
        <time>2020-12-23T12:36:59.000Z</time>
      </trkpt>
      <trkpt lat="43.79981" lon="5.71859">
        <ele>406.20001220703</ele>
        <time>2020-12-23T12:37:02.000Z</time>
      </trkpt>
      <trkpt lat="43.79982" lon="5.71866">
        <ele>406</ele>
        <time>2020-12-23T12:37:03.000Z</time>
      </trkpt>
      <trkpt lat="43.79988" lon="5.71892">
        <ele>405.39999389648</ele>
        <time>2020-12-23T12:37:06.000Z</time>
      </trkpt>
      <trkpt lat="43.7999" lon="5.71902">
        <ele>405.20001220703</ele>
        <time>2020-12-23T12:37:07.000Z</time>
      </trkpt>
      <trkpt lat="43.79994" lon="5.7194">
        <ele>404.20001220703</ele>
        <time>2020-12-23T12:37:11.000Z</time>
      </trkpt>
      <trkpt lat="43.79996" lon="5.7196">
        <ele>403</ele>
        <time>2020-12-23T12:37:13.000Z</time>
      </trkpt>
      <trkpt lat="43.79997" lon="5.71969">
        <ele>402.39999389648</ele>
        <time>2020-12-23T12:37:14.000Z</time>
      </trkpt>
      <trkpt lat="43.8" lon="5.71978">
        <ele>402</ele>
        <time>2020-12-23T12:37:15.000Z</time>
      </trkpt>
      <trkpt lat="43.80003" lon="5.71987">
        <ele>401.79998779297</ele>
        <time>2020-12-23T12:37:16.000Z</time>
      </trkpt>
      <trkpt lat="43.80012" lon="5.72004">
        <ele>401</ele>
        <time>2020-12-23T12:37:18.000Z</time>
      </trkpt>
      <trkpt lat="43.80017" lon="5.72011">
        <ele>400.79998779297</ele>
        <time>2020-12-23T12:37:19.000Z</time>
      </trkpt>
      <trkpt lat="43.80041" lon="5.72043">
        <ele>399.79998779297</ele>
        <time>2020-12-23T12:37:23.000Z</time>
      </trkpt>
      <trkpt lat="43.80046" lon="5.72052">
        <ele>399.60000610352</ele>
        <time>2020-12-23T12:37:24.000Z</time>
      </trkpt>
      <trkpt lat="43.80056" lon="5.72073">
        <ele>398.60000610352</ele>
        <time>2020-12-23T12:37:26.000Z</time>
      </trkpt>
      <trkpt lat="43.80069" lon="5.7209">
        <ele>396.79998779297</ele>
        <time>2020-12-23T12:37:28.000Z</time>
      </trkpt>
      <trkpt lat="43.80086" lon="5.72098">
        <ele>395.39999389648</ele>
        <time>2020-12-23T12:37:30.000Z</time>
      </trkpt>
      <trkpt lat="43.80096" lon="5.72099">
        <ele>394.79998779297</ele>
        <time>2020-12-23T12:37:31.000Z</time>
      </trkpt>
      <trkpt lat="43.80105" lon="5.72101">
        <ele>394.60000610352</ele>
        <time>2020-12-23T12:37:32.000Z</time>
      </trkpt>
      <trkpt lat="43.80113" lon="5.72103">
        <ele>394</ele>
        <time>2020-12-23T12:37:33.000Z</time>
      </trkpt>
      <trkpt lat="43.80119" lon="5.72106">
        <ele>393.39999389648</ele>
        <time>2020-12-23T12:37:34.000Z</time>
      </trkpt>
      <trkpt lat="43.80124" lon="5.72109">
        <ele>392.60000610352</ele>
        <time>2020-12-23T12:37:35.000Z</time>
      </trkpt>
      <trkpt lat="43.80131" lon="5.72117">
        <ele>391.20001220703</ele>
        <time>2020-12-23T12:37:37.000Z</time>
      </trkpt>
      <trkpt lat="43.80133" lon="5.72121">
        <ele>390.39999389648</ele>
        <time>2020-12-23T12:37:38.000Z</time>
      </trkpt>
      <trkpt lat="43.80135" lon="5.72125">
        <ele>389.79998779297</ele>
        <time>2020-12-23T12:37:39.000Z</time>
      </trkpt>
      <trkpt lat="43.80139" lon="5.72135">
        <ele>389</ele>
        <time>2020-12-23T12:37:41.000Z</time>
      </trkpt>
      <trkpt lat="43.80143" lon="5.72139">
        <ele>388.79998779297</ele>
        <time>2020-12-23T12:37:42.000Z</time>
      </trkpt>
      <trkpt lat="43.80149" lon="5.72143">
        <ele>388.60000610352</ele>
        <time>2020-12-23T12:37:43.000Z</time>
      </trkpt>
      <trkpt lat="43.80173" lon="5.72146">
        <ele>388</ele>
        <time>2020-12-23T12:37:47.000Z</time>
      </trkpt>
      <trkpt lat="43.80188" lon="5.72142">
        <ele>387.79998779297</ele>
        <time>2020-12-23T12:37:49.000Z</time>
      </trkpt>
      <trkpt lat="43.80211" lon="5.72136">
        <ele>386.79998779297</ele>
        <time>2020-12-23T12:37:52.000Z</time>
      </trkpt>
      <trkpt lat="43.80218" lon="5.72134">
        <ele>386.39999389648</ele>
        <time>2020-12-23T12:37:53.000Z</time>
      </trkpt>
      <trkpt lat="43.80242" lon="5.72127">
        <ele>385.20001220703</ele>
        <time>2020-12-23T12:37:56.000Z</time>
      </trkpt>
      <trkpt lat="43.8025" lon="5.72126">
        <ele>384.60000610352</ele>
        <time>2020-12-23T12:37:57.000Z</time>
      </trkpt>
      <trkpt lat="43.80258" lon="5.72127">
        <ele>384.20001220703</ele>
        <time>2020-12-23T12:37:58.000Z</time>
      </trkpt>
      <trkpt lat="43.80266" lon="5.7213">
        <ele>383.79998779297</ele>
        <time>2020-12-23T12:37:59.000Z</time>
      </trkpt>
      <trkpt lat="43.8028" lon="5.72142">
        <ele>383</ele>
        <time>2020-12-23T12:38:01.000Z</time>
      </trkpt>
      <trkpt lat="43.80286" lon="5.72149">
        <ele>382.60000610352</ele>
        <time>2020-12-23T12:38:02.000Z</time>
      </trkpt>
      <trkpt lat="43.80292" lon="5.72157">
        <ele>382.20001220703</ele>
        <time>2020-12-23T12:38:03.000Z</time>
      </trkpt>
      <trkpt lat="43.80297" lon="5.72165">
        <ele>381.60000610352</ele>
        <time>2020-12-23T12:38:04.000Z</time>
      </trkpt>
      <trkpt lat="43.80303" lon="5.72173">
        <ele>380.20001220703</ele>
        <time>2020-12-23T12:38:05.000Z</time>
      </trkpt>
      <trkpt lat="43.80308" lon="5.72182">
        <ele>379.79998779297</ele>
        <time>2020-12-23T12:38:06.000Z</time>
      </trkpt>
      <trkpt lat="43.80318" lon="5.722">
        <ele>379</ele>
        <time>2020-12-23T12:38:08.000Z</time>
      </trkpt>
      <trkpt lat="43.80322" lon="5.7221">
        <ele>378.79998779297</ele>
        <time>2020-12-23T12:38:09.000Z</time>
      </trkpt>
      <trkpt lat="43.80328" lon="5.72232">
        <ele>378.39999389648</ele>
        <time>2020-12-23T12:38:11.000Z</time>
      </trkpt>
      <trkpt lat="43.80326" lon="5.7225">
        <ele>377.79998779297</ele>
        <time>2020-12-23T12:38:13.000Z</time>
      </trkpt>
      <trkpt lat="43.80312" lon="5.72252">
        <ele>377.60000610352</ele>
        <time>2020-12-23T12:38:15.000Z</time>
      </trkpt>
      <trkpt lat="43.80298" lon="5.72247">
        <ele>376.79998779297</ele>
        <time>2020-12-23T12:38:17.000Z</time>
      </trkpt>
      <trkpt lat="43.80283" lon="5.72244">
        <ele>375.79998779297</ele>
        <time>2020-12-23T12:38:19.000Z</time>
      </trkpt>
      <trkpt lat="43.8027" lon="5.72253">
        <ele>374.39999389648</ele>
        <time>2020-12-23T12:38:21.000Z</time>
      </trkpt>
      <trkpt lat="43.80268" lon="5.72271">
        <ele>372.60000610352</ele>
        <time>2020-12-23T12:38:23.000Z</time>
      </trkpt>
      <trkpt lat="43.80276" lon="5.72288">
        <ele>371.20001220703</ele>
        <time>2020-12-23T12:38:25.000Z</time>
      </trkpt>
      <trkpt lat="43.80289" lon="5.72303">
        <ele>370.60000610352</ele>
        <time>2020-12-23T12:38:27.000Z</time>
      </trkpt>
      <trkpt lat="43.80301" lon="5.72319">
        <ele>370</ele>
        <time>2020-12-23T12:38:29.000Z</time>
      </trkpt>
      <trkpt lat="43.80313" lon="5.72339">
        <ele>368.60000610352</ele>
        <time>2020-12-23T12:38:31.000Z</time>
      </trkpt>
      <trkpt lat="43.8032" lon="5.72347">
        <ele>367.60000610352</ele>
        <time>2020-12-23T12:38:32.000Z</time>
      </trkpt>
      <trkpt lat="43.80327" lon="5.72355">
        <ele>365.79998779297</ele>
        <time>2020-12-23T12:38:33.000Z</time>
      </trkpt>
      <trkpt lat="43.8034" lon="5.72372">
        <ele>364.20001220703</ele>
        <time>2020-12-23T12:38:35.000Z</time>
      </trkpt>
      <trkpt lat="43.8035" lon="5.72392">
        <ele>362.39999389648</ele>
        <time>2020-12-23T12:38:37.000Z</time>
      </trkpt>
      <trkpt lat="43.80355" lon="5.72415">
        <ele>361.20001220703</ele>
        <time>2020-12-23T12:38:39.000Z</time>
      </trkpt>
      <trkpt lat="43.80359" lon="5.7244">
        <ele>360</ele>
        <time>2020-12-23T12:38:41.000Z</time>
      </trkpt>
      <trkpt lat="43.80362" lon="5.72452">
        <ele>359.39999389648</ele>
        <time>2020-12-23T12:38:42.000Z</time>
      </trkpt>
      <trkpt lat="43.80373" lon="5.72469">
        <ele>358.39999389648</ele>
        <time>2020-12-23T12:38:44.000Z</time>
      </trkpt>
      <trkpt lat="43.80391" lon="5.72473">
        <ele>358</ele>
        <time>2020-12-23T12:38:46.000Z</time>
      </trkpt>
      <trkpt lat="43.80409" lon="5.72479">
        <ele>357.39999389648</ele>
        <time>2020-12-23T12:38:48.000Z</time>
      </trkpt>
      <trkpt lat="43.80414" lon="5.72487">
        <ele>356.60000610352</ele>
        <time>2020-12-23T12:38:49.000Z</time>
      </trkpt>
      <trkpt lat="43.80418" lon="5.72497">
        <ele>356.20001220703</ele>
        <time>2020-12-23T12:38:50.000Z</time>
      </trkpt>
      <trkpt lat="43.80423" lon="5.72518">
        <ele>355.39999389648</ele>
        <time>2020-12-23T12:38:52.000Z</time>
      </trkpt>
      <trkpt lat="43.80428" lon="5.72527">
        <ele>354.60000610352</ele>
        <time>2020-12-23T12:38:53.000Z</time>
      </trkpt>
      <trkpt lat="43.80433" lon="5.72535">
        <ele>353.60000610352</ele>
        <time>2020-12-23T12:38:54.000Z</time>
      </trkpt>
      <trkpt lat="43.80439" lon="5.72541">
        <ele>352.39999389648</ele>
        <time>2020-12-23T12:38:55.000Z</time>
      </trkpt>
      <trkpt lat="43.80444" lon="5.72547">
        <ele>351</ele>
        <time>2020-12-23T12:38:56.000Z</time>
      </trkpt>
      <trkpt lat="43.80453" lon="5.72559">
        <ele>349.79998779297</ele>
        <time>2020-12-23T12:38:58.000Z</time>
      </trkpt>
      <trkpt lat="43.80461" lon="5.7257">
        <ele>349.60000610352</ele>
        <time>2020-12-23T12:39:00.000Z</time>
      </trkpt>
      <trkpt lat="43.80485" lon="5.72615">
        <ele>350</ele>
        <time>2020-12-23T12:39:07.000Z</time>
      </trkpt>
      <trkpt lat="43.80494" lon="5.72632">
        <ele>351</ele>
        <time>2020-12-23T12:39:10.000Z</time>
      </trkpt>
      <trkpt lat="43.80502" lon="5.72645">
        <ele>352</ele>
        <time>2020-12-23T12:39:13.000Z</time>
      </trkpt>
      <trkpt lat="43.80504" lon="5.7265">
        <ele>352.20001220703</ele>
        <time>2020-12-23T12:39:14.000Z</time>
      </trkpt>
      <trkpt lat="43.80512" lon="5.72665">
        <ele>352.79998779297</ele>
        <time>2020-12-23T12:39:19.000Z</time>
      </trkpt>
      <trkpt lat="43.80513" lon="5.72668">
        <ele>353</ele>
        <time>2020-12-23T12:39:21.000Z</time>
      </trkpt>
      <trkpt lat="43.80513" lon="5.72671">
        <ele>353.20001220703</ele>
        <time>2020-12-23T12:39:23.000Z</time>
      </trkpt>
      <trkpt lat="43.80512" lon="5.72672">
        <ele>353.20001220703</ele>
        <time>2020-12-23T12:39:24.000Z</time>
      </trkpt>
      <trkpt lat="43.80505" lon="5.72675">
        <ele>353.20001220703</ele>
        <time>2020-12-23T12:39:31.000Z</time>
      </trkpt>
      <trkpt lat="43.80498" lon="5.72673">
        <ele>352.79998779297</ele>
        <time>2020-12-23T12:39:37.000Z</time>
      </trkpt>
      <trkpt lat="43.80481" lon="5.72676">
        <ele>352.60000610352</ele>
        <time>2020-12-23T12:39:44.000Z</time>
      </trkpt>
      <trkpt lat="43.80463" lon="5.72681">
        <ele>352.39999389648</ele>
        <time>2020-12-23T12:39:51.000Z</time>
      </trkpt>
      <trkpt lat="43.80451" lon="5.7269">
        <ele>352.20001220703</ele>
        <time>2020-12-23T12:39:55.000Z</time>
      </trkpt>
      <trkpt lat="43.80446" lon="5.72696">
        <ele>352</ele>
        <time>2020-12-23T12:39:57.000Z</time>
      </trkpt>
      <trkpt lat="43.80437" lon="5.72713">
        <ele>351.79998779297</ele>
        <time>2020-12-23T12:40:01.000Z</time>
      </trkpt>
      <trkpt lat="43.80435" lon="5.72718">
        <ele>351.60000610352</ele>
        <time>2020-12-23T12:40:02.000Z</time>
      </trkpt>
      <trkpt lat="43.80437" lon="5.72736">
        <ele>351.39999389648</ele>
        <time>2020-12-23T12:40:05.000Z</time>
      </trkpt>
      <trkpt lat="43.80437" lon="5.72741">
        <ele>351.20001220703</ele>
        <time>2020-12-23T12:40:06.000Z</time>
      </trkpt>
      <trkpt lat="43.80434" lon="5.7276">
        <ele>350.20001220703</ele>
        <time>2020-12-23T12:40:10.000Z</time>
      </trkpt>
      <trkpt lat="43.80433" lon="5.72764">
        <ele>350</ele>
        <time>2020-12-23T12:40:11.000Z</time>
      </trkpt>
      <trkpt lat="43.80428" lon="5.72774">
        <ele>349.60000610352</ele>
        <time>2020-12-23T12:40:14.000Z</time>
      </trkpt>
      <trkpt lat="43.80425" lon="5.72776">
        <ele>349.39999389648</ele>
        <time>2020-12-23T12:40:15.000Z</time>
      </trkpt>
      <trkpt lat="43.8041" lon="5.72775">
        <ele>349</ele>
        <time>2020-12-23T12:40:20.000Z</time>
      </trkpt>
      <trkpt lat="43.80406" lon="5.72774">
        <ele>349</ele>
        <time>2020-12-23T12:40:21.000Z</time>
      </trkpt>
      <trkpt lat="43.80401" lon="5.72772">
        <ele>348.79998779297</ele>
        <time>2020-12-23T12:40:22.000Z</time>
      </trkpt>
      <trkpt lat="43.80394" lon="5.72769">
        <ele>348.60000610352</ele>
        <time>2020-12-23T12:40:24.000Z</time>
      </trkpt>
      <trkpt lat="43.80386" lon="5.72764">
        <ele>348</ele>
        <time>2020-12-23T12:40:28.000Z</time>
      </trkpt>
      <trkpt lat="43.8038" lon="5.72759">
        <ele>347</ele>
        <time>2020-12-23T12:40:31.000Z</time>
      </trkpt>
      <trkpt lat="43.80377" lon="5.72756">
        <ele>346.79998779297</ele>
        <time>2020-12-23T12:40:32.000Z</time>
      </trkpt>
      <trkpt lat="43.80364" lon="5.72743">
        <ele>346.60000610352</ele>
        <time>2020-12-23T12:40:36.000Z</time>
      </trkpt>
      <trkpt lat="43.80348" lon="5.72733">
        <ele>346.39999389648</ele>
        <time>2020-12-23T12:40:41.000Z</time>
      </trkpt>
      <trkpt lat="43.8034" lon="5.72735">
        <ele>346.60000610352</ele>
        <time>2020-12-23T12:40:46.000Z</time>
      </trkpt>
      <trkpt lat="43.8033" lon="5.72744">
        <ele>347</ele>
        <time>2020-12-23T12:40:52.000Z</time>
      </trkpt>
      <trkpt lat="43.80328" lon="5.72747">
        <ele>347.39999389648</ele>
        <time>2020-12-23T12:40:57.000Z</time>
      </trkpt>
      <trkpt lat="43.80328" lon="5.72748">
        <ele>348</ele>
        <time>2020-12-23T12:41:02.000Z</time>
      </trkpt>
      <trkpt lat="43.80328" lon="5.72748">
        <ele>348</ele>
        <time>2020-12-23T12:41:06.000Z</time>
      </trkpt>
      <trkpt lat="43.80328" lon="5.72748">
        <ele>348.20001220703</ele>
        <time>2020-12-23T12:41:14.000Z</time>
      </trkpt>
      <trkpt lat="43.80328" lon="5.72748">
        <ele>348</ele>
        <time>2020-12-23T12:41:21.000Z</time>
      </trkpt>
      <trkpt lat="43.80327" lon="5.72748">
        <ele>348.20001220703</ele>
        <time>2020-12-23T12:41:29.000Z</time>
      </trkpt>
      <trkpt lat="43.80326" lon="5.72748">
        <ele>348.20001220703</ele>
        <time>2020-12-23T12:41:39.000Z</time>
      </trkpt>
      <trkpt lat="43.80321" lon="5.72754">
        <ele>348.20001220703</ele>
        <time>2020-12-23T12:41:45.000Z</time>
      </trkpt>
      <trkpt lat="43.8032" lon="5.72754">
        <ele>348.20001220703</ele>
        <time>2020-12-23T12:41:46.000Z</time>
      </trkpt>
      <trkpt lat="43.80317" lon="5.72759">
        <ele>348.39999389648</ele>
        <time>2020-12-23T12:41:50.000Z</time>
      </trkpt>
      <trkpt lat="43.80314" lon="5.72762">
        <ele>348.39999389648</ele>
        <time>2020-12-23T12:41:53.000Z</time>
      </trkpt>
      <trkpt lat="43.80309" lon="5.72764">
        <ele>348.60000610352</ele>
        <time>2020-12-23T12:41:57.000Z</time>
      </trkpt>
      <trkpt lat="43.80305" lon="5.72767">
        <ele>348.60000610352</ele>
        <time>2020-12-23T12:42:05.000Z</time>
      </trkpt>
      <trkpt lat="43.80305" lon="5.72767">
        <ele>348.60000610352</ele>
        <time>2020-12-23T12:42:12.000Z</time>
      </trkpt>
      <trkpt lat="43.80305" lon="5.72766">
        <ele>348.79998779297</ele>
        <time>2020-12-23T12:42:21.000Z</time>
      </trkpt>
      <trkpt lat="43.80305" lon="5.72766">
        <ele>348.79998779297</ele>
        <time>2020-12-23T12:42:30.000Z</time>
      </trkpt>
      <trkpt lat="43.80304" lon="5.72767">
        <ele>348.60000610352</ele>
        <time>2020-12-23T12:42:39.000Z</time>
      </trkpt>
      <trkpt lat="43.80295" lon="5.72768">
        <ele>348.60000610352</ele>
        <time>2020-12-23T12:42:43.000Z</time>
      </trkpt>
      <trkpt lat="43.80269" lon="5.72767">
        <ele>348.39999389648</ele>
        <time>2020-12-23T12:42:49.000Z</time>
      </trkpt>
      <trkpt lat="43.80235" lon="5.72768">
        <ele>347.79998779297</ele>
        <time>2020-12-23T12:42:55.000Z</time>
      </trkpt>
      <trkpt lat="43.8022" lon="5.72776">
        <ele>347</ele>
        <time>2020-12-23T12:42:58.000Z</time>
      </trkpt>
      <trkpt lat="43.80216" lon="5.72781">
        <ele>346.60000610352</ele>
        <time>2020-12-23T12:42:59.000Z</time>
      </trkpt>
      <trkpt lat="43.80207" lon="5.72791">
        <ele>345.79998779297</ele>
        <time>2020-12-23T12:43:01.000Z</time>
      </trkpt>
      <trkpt lat="43.80191" lon="5.72807">
        <ele>344.79998779297</ele>
        <time>2020-12-23T12:43:05.000Z</time>
      </trkpt>
      <trkpt lat="43.80189" lon="5.7281">
        <ele>344.79998779297</ele>
        <time>2020-12-23T12:43:06.000Z</time>
      </trkpt>
      <trkpt lat="43.80185" lon="5.7282">
        <ele>344.60000610352</ele>
        <time>2020-12-23T12:43:09.000Z</time>
      </trkpt>
      <trkpt lat="43.80185" lon="5.72838">
        <ele>344.79998779297</ele>
        <time>2020-12-23T12:43:14.000Z</time>
      </trkpt>
      <trkpt lat="43.80184" lon="5.72843">
        <ele>344.79998779297</ele>
        <time>2020-12-23T12:43:16.000Z</time>
      </trkpt>
      <trkpt lat="43.80185" lon="5.72847">
        <ele>344.79998779297</ele>
        <time>2020-12-23T12:43:19.000Z</time>
      </trkpt>
      <trkpt lat="43.80185" lon="5.72848">
        <ele>345</ele>
        <time>2020-12-23T12:43:26.000Z</time>
      </trkpt>
      <trkpt lat="43.80186" lon="5.72848">
        <ele>345.20001220703</ele>
        <time>2020-12-23T12:43:33.000Z</time>
      </trkpt>
      <trkpt lat="43.80186" lon="5.72848">
        <ele>345.20001220703</ele>
        <time>2020-12-23T12:43:46.000Z</time>
      </trkpt>
      <trkpt lat="43.80186" lon="5.72848">
        <ele>345.20001220703</ele>
        <time>2020-12-23T12:43:54.000Z</time>
      </trkpt>
      <trkpt lat="43.80185" lon="5.72849">
        <ele>345.39999389648</ele>
        <time>2020-12-23T12:44:03.000Z</time>
      </trkpt>
      <trkpt lat="43.80185" lon="5.72849">
        <ele>345.20001220703</ele>
        <time>2020-12-23T12:44:13.000Z</time>
      </trkpt>
      <trkpt lat="43.80185" lon="5.72849">
        <ele>344.20001220703</ele>
        <time>2020-12-23T12:44:30.000Z</time>
      </trkpt>
      <trkpt lat="43.80186" lon="5.7285">
        <ele>344.39999389648</ele>
        <time>2020-12-23T12:45:06.000Z</time>
      </trkpt>
      <trkpt lat="43.80186" lon="5.72849">
        <ele>344.60000610352</ele>
        <time>2020-12-23T12:45:43.000Z</time>
      </trkpt>
      <trkpt lat="43.80186" lon="5.7285">
        <ele>344.39999389648</ele>
        <time>2020-12-23T12:46:20.000Z</time>
      </trkpt>
      <trkpt lat="43.80185" lon="5.7285">
        <ele>345.39999389648</ele>
        <time>2020-12-23T12:46:31.000Z</time>
      </trkpt>
      <trkpt lat="43.80185" lon="5.7285">
        <ele>345.60000610352</ele>
        <time>2020-12-23T12:46:34.000Z</time>
      </trkpt>
      <trkpt lat="43.80185" lon="5.7285">
        <ele>345.60000610352</ele>
        <time>2020-12-23T12:46:41.000Z</time>
      </trkpt>
      <trkpt lat="43.80184" lon="5.72855">
        <ele>345.60000610352</ele>
        <time>2020-12-23T12:46:50.000Z</time>
      </trkpt>
      <trkpt lat="43.80182" lon="5.72865">
        <ele>345.60000610352</ele>
        <time>2020-12-23T12:46:56.000Z</time>
      </trkpt>
      <trkpt lat="43.80182" lon="5.72867">
        <ele>345.60000610352</ele>
        <time>2020-12-23T12:46:57.000Z</time>
      </trkpt>
      <trkpt lat="43.80178" lon="5.72875">
        <ele>345.60000610352</ele>
        <time>2020-12-23T12:47:01.000Z</time>
      </trkpt>
      <trkpt lat="43.80173" lon="5.7289">
        <ele>345.60000610352</ele>
        <time>2020-12-23T12:47:07.000Z</time>
      </trkpt>
      <trkpt lat="43.80168" lon="5.72911">
        <ele>345.60000610352</ele>
        <time>2020-12-23T12:47:14.000Z</time>
      </trkpt>
      <trkpt lat="43.80166" lon="5.72928">
        <ele>345.20001220703</ele>
        <time>2020-12-23T12:47:20.000Z</time>
      </trkpt>
      <trkpt lat="43.80166" lon="5.72947">
        <ele>345</ele>
        <time>2020-12-23T12:47:26.000Z</time>
      </trkpt>
      <trkpt lat="43.80162" lon="5.72974">
        <ele>345</ele>
        <time>2020-12-23T12:47:33.000Z</time>
      </trkpt>
      <trkpt lat="43.80155" lon="5.73007">
        <ele>345.20001220703</ele>
        <time>2020-12-23T12:47:41.000Z</time>
      </trkpt>
      <trkpt lat="43.80153" lon="5.73035">
        <ele>345.20001220703</ele>
        <time>2020-12-23T12:47:48.000Z</time>
      </trkpt>
      <trkpt lat="43.8015" lon="5.73068">
        <ele>345.20001220703</ele>
        <time>2020-12-23T12:47:55.000Z</time>
      </trkpt>
      <trkpt lat="43.80144" lon="5.73097">
        <ele>345.20001220703</ele>
        <time>2020-12-23T12:48:00.000Z</time>
      </trkpt>
      <trkpt lat="43.80141" lon="5.73103">
        <ele>345.20001220703</ele>
        <time>2020-12-23T12:48:01.000Z</time>
      </trkpt>
      <trkpt lat="43.80129" lon="5.7312">
        <ele>345.39999389648</ele>
        <time>2020-12-23T12:48:04.000Z</time>
      </trkpt>
      <trkpt lat="43.80126" lon="5.73127">
        <ele>345.39999389648</ele>
        <time>2020-12-23T12:48:05.000Z</time>
      </trkpt>
      <trkpt lat="43.80122" lon="5.73134">
        <ele>345.39999389648</ele>
        <time>2020-12-23T12:48:06.000Z</time>
      </trkpt>
      <trkpt lat="43.80099" lon="5.73167">
        <ele>345.20001220703</ele>
        <time>2020-12-23T12:48:11.000Z</time>
      </trkpt>
      <trkpt lat="43.8009" lon="5.73182">
        <ele>344.60000610352</ele>
        <time>2020-12-23T12:48:13.000Z</time>
      </trkpt>
      <trkpt lat="43.8008" lon="5.73194">
        <ele>344.20001220703</ele>
        <time>2020-12-23T12:48:15.000Z</time>
      </trkpt>
      <trkpt lat="43.80075" lon="5.73198">
        <ele>343.79998779297</ele>
        <time>2020-12-23T12:48:16.000Z</time>
      </trkpt>
      <trkpt lat="43.80069" lon="5.73201">
        <ele>343.60000610352</ele>
        <time>2020-12-23T12:48:17.000Z</time>
      </trkpt>
      <trkpt lat="43.80057" lon="5.73204">
        <ele>343.39999389648</ele>
        <time>2020-12-23T12:48:19.000Z</time>
      </trkpt>
      <trkpt lat="43.80044" lon="5.73207">
        <ele>343</ele>
        <time>2020-12-23T12:48:21.000Z</time>
      </trkpt>
      <trkpt lat="43.80027" lon="5.73211">
        <ele>342.60000610352</ele>
        <time>2020-12-23T12:48:24.000Z</time>
      </trkpt>
      <trkpt lat="43.80016" lon="5.73215">
        <ele>342.39999389648</ele>
        <time>2020-12-23T12:48:26.000Z</time>
      </trkpt>
      <trkpt lat="43.80004" lon="5.73217">
        <ele>342.20001220703</ele>
        <time>2020-12-23T12:48:28.000Z</time>
      </trkpt>
      <trkpt lat="43.79987" lon="5.73219">
        <ele>341.79998779297</ele>
        <time>2020-12-23T12:48:31.000Z</time>
      </trkpt>
      <trkpt lat="43.79968" lon="5.73226">
        <ele>341.39999389648</ele>
        <time>2020-12-23T12:48:35.000Z</time>
      </trkpt>
      <trkpt lat="43.79964" lon="5.73227">
        <ele>341.39999389648</ele>
        <time>2020-12-23T12:48:36.000Z</time>
      </trkpt>
      <trkpt lat="43.79959" lon="5.73229">
        <ele>341.39999389648</ele>
        <time>2020-12-23T12:48:37.000Z</time>
      </trkpt>
      <trkpt lat="43.79943" lon="5.73242">
        <ele>341.20001220703</ele>
        <time>2020-12-23T12:48:41.000Z</time>
      </trkpt>
      <trkpt lat="43.79927" lon="5.73257">
        <ele>340.79998779297</ele>
        <time>2020-12-23T12:48:46.000Z</time>
      </trkpt>
      <trkpt lat="43.79917" lon="5.73274">
        <ele>340.60000610352</ele>
        <time>2020-12-23T12:48:51.000Z</time>
      </trkpt>
      <trkpt lat="43.79909" lon="5.73289">
        <ele>340.39999389648</ele>
        <time>2020-12-23T12:48:54.000Z</time>
      </trkpt>
      <trkpt lat="43.79906" lon="5.73294">
        <ele>340.39999389648</ele>
        <time>2020-12-23T12:48:55.000Z</time>
      </trkpt>
      <trkpt lat="43.79904" lon="5.73301">
        <ele>340.20001220703</ele>
        <time>2020-12-23T12:48:56.000Z</time>
      </trkpt>
      <trkpt lat="43.79899" lon="5.73313">
        <ele>340</ele>
        <time>2020-12-23T12:48:58.000Z</time>
      </trkpt>
      <trkpt lat="43.79889" lon="5.73328">
        <ele>339.60000610352</ele>
        <time>2020-12-23T12:49:01.000Z</time>
      </trkpt>
      <trkpt lat="43.79877" lon="5.73347">
        <ele>339.20001220703</ele>
        <time>2020-12-23T12:49:05.000Z</time>
      </trkpt>
      <trkpt lat="43.79874" lon="5.73352">
        <ele>339.20001220703</ele>
        <time>2020-12-23T12:49:06.000Z</time>
      </trkpt>
      <trkpt lat="43.79872" lon="5.73357">
        <ele>339</ele>
        <time>2020-12-23T12:49:07.000Z</time>
      </trkpt>
      <trkpt lat="43.79869" lon="5.7338">
        <ele>338.79998779297</ele>
        <time>2020-12-23T12:49:11.000Z</time>
      </trkpt>
      <trkpt lat="43.79865" lon="5.73389">
        <ele>338.60000610352</ele>
        <time>2020-12-23T12:49:15.000Z</time>
      </trkpt>
      <trkpt lat="43.79865" lon="5.73394">
        <ele>338.60000610352</ele>
        <time>2020-12-23T12:49:17.000Z</time>
      </trkpt>
      <trkpt lat="43.79865" lon="5.73395">
        <ele>338.39999389648</ele>
        <time>2020-12-23T12:49:19.000Z</time>
      </trkpt>
      <trkpt lat="43.79865" lon="5.73397">
        <ele>338.39999389648</ele>
        <time>2020-12-23T12:49:25.000Z</time>
      </trkpt>
      <trkpt lat="43.79865" lon="5.73398">
        <ele>338.60000610352</ele>
        <time>2020-12-23T12:49:34.000Z</time>
      </trkpt>
      <trkpt lat="43.79865" lon="5.73399">
        <ele>338.60000610352</ele>
        <time>2020-12-23T12:49:43.000Z</time>
      </trkpt>
      <trkpt lat="43.79865" lon="5.73401">
        <ele>338.60000610352</ele>
        <time>2020-12-23T12:49:51.000Z</time>
      </trkpt>
      <trkpt lat="43.79864" lon="5.73403">
        <ele>338.60000610352</ele>
        <time>2020-12-23T12:49:58.000Z</time>
      </trkpt>
      <trkpt lat="43.79863" lon="5.73404">
        <ele>339.60000610352</ele>
        <time>2020-12-23T12:50:07.000Z</time>
      </trkpt>
      <trkpt lat="43.79861" lon="5.73405">
        <ele>340.20001220703</ele>
        <time>2020-12-23T12:50:15.000Z</time>
      </trkpt>
      <trkpt lat="43.7986" lon="5.73406">
        <ele>340.20001220703</ele>
        <time>2020-12-23T12:50:16.000Z</time>
      </trkpt>
      <trkpt lat="43.79859" lon="5.73407">
        <ele>340.20001220703</ele>
        <time>2020-12-23T12:50:17.000Z</time>
      </trkpt>
      <trkpt lat="43.79856" lon="5.7341">
        <ele>340.20001220703</ele>
        <time>2020-12-23T12:50:19.000Z</time>
      </trkpt>
      <trkpt lat="43.79854" lon="5.73412">
        <ele>340.39999389648</ele>
        <time>2020-12-23T12:50:22.000Z</time>
      </trkpt>
      <trkpt lat="43.7985" lon="5.73415">
        <ele>340.39999389648</ele>
        <time>2020-12-23T12:50:29.000Z</time>
      </trkpt>
      <trkpt lat="43.79856" lon="5.73429">
        <ele>340.20001220703</ele>
        <time>2020-12-23T12:50:33.000Z</time>
      </trkpt>
      <trkpt lat="43.79867" lon="5.73463">
        <ele>339.39999389648</ele>
        <time>2020-12-23T12:50:39.000Z</time>
      </trkpt>
      <trkpt lat="43.79868" lon="5.7347">
        <ele>339.20001220703</ele>
        <time>2020-12-23T12:50:40.000Z</time>
      </trkpt>
      <trkpt lat="43.79873" lon="5.73505">
        <ele>338.60000610352</ele>
        <time>2020-12-23T12:50:45.000Z</time>
      </trkpt>
      <trkpt lat="43.79874" lon="5.73511">
        <ele>338.60000610352</ele>
        <time>2020-12-23T12:50:46.000Z</time>
      </trkpt>
      <trkpt lat="43.79876" lon="5.73523">
        <ele>338.39999389648</ele>
        <time>2020-12-23T12:50:48.000Z</time>
      </trkpt>
      <trkpt lat="43.7988" lon="5.73536">
        <ele>338.20001220703</ele>
        <time>2020-12-23T12:50:50.000Z</time>
      </trkpt>
      <trkpt lat="43.79888" lon="5.73544">
        <ele>338.20001220703</ele>
        <time>2020-12-23T12:50:52.000Z</time>
      </trkpt>
      <trkpt lat="43.79893" lon="5.73545">
        <ele>338.20001220703</ele>
        <time>2020-12-23T12:50:53.000Z</time>
      </trkpt>
      <trkpt lat="43.79906" lon="5.73543">
        <ele>338</ele>
        <time>2020-12-23T12:50:56.000Z</time>
      </trkpt>
      <trkpt lat="43.79909" lon="5.73543">
        <ele>338</ele>
        <time>2020-12-23T12:50:57.000Z</time>
      </trkpt>
      <trkpt lat="43.79929" lon="5.73548">
        <ele>337.79998779297</ele>
        <time>2020-12-23T12:51:03.000Z</time>
      </trkpt>
      <trkpt lat="43.79958" lon="5.73567">
        <ele>339.39999389648</ele>
        <time>2020-12-23T12:51:12.000Z</time>
      </trkpt>
      <trkpt lat="43.79968" lon="5.73578">
        <ele>340.60000610352</ele>
        <time>2020-12-23T12:51:17.000Z</time>
      </trkpt>
      <trkpt lat="43.79969" lon="5.73581">
        <ele>340.79998779297</ele>
        <time>2020-12-23T12:51:18.000Z</time>
      </trkpt>
      <trkpt lat="43.79969" lon="5.73589">
        <ele>341.60000610352</ele>
        <time>2020-12-23T12:51:21.000Z</time>
      </trkpt>
      <trkpt lat="43.79969" lon="5.73594">
        <ele>342.20001220703</ele>
        <time>2020-12-23T12:51:23.000Z</time>
      </trkpt>
      <trkpt lat="43.79966" lon="5.73599">
        <ele>342.79998779297</ele>
        <time>2020-12-23T12:51:26.000Z</time>
      </trkpt>
      <trkpt lat="43.79965" lon="5.73602">
        <ele>343.20001220703</ele>
        <time>2020-12-23T12:51:27.000Z</time>
      </trkpt>
      <trkpt lat="43.79963" lon="5.73611">
        <ele>343.20001220703</ele>
        <time>2020-12-23T12:51:30.000Z</time>
      </trkpt>
      <trkpt lat="43.79962" lon="5.73621">
        <ele>343.20001220703</ele>
        <time>2020-12-23T12:51:34.000Z</time>
      </trkpt>
      <trkpt lat="43.79962" lon="5.73622">
        <ele>343.20001220703</ele>
        <time>2020-12-23T12:51:35.000Z</time>
      </trkpt>
      <trkpt lat="43.79964" lon="5.73622">
        <ele>343.20001220703</ele>
        <time>2020-12-23T12:51:37.000Z</time>
      </trkpt>
      <trkpt lat="43.79965" lon="5.73622">
        <ele>342.79998779297</ele>
        <time>2020-12-23T12:51:39.000Z</time>
      </trkpt>
      <trkpt lat="43.79968" lon="5.73622">
        <ele>342.60000610352</ele>
        <time>2020-12-23T12:51:47.000Z</time>
      </trkpt>
      <trkpt lat="43.7997" lon="5.73622">
        <ele>342.60000610352</ele>
        <time>2020-12-23T12:51:51.000Z</time>
      </trkpt>
      <trkpt lat="43.79976" lon="5.73623">
        <ele>342.79998779297</ele>
        <time>2020-12-23T12:51:56.000Z</time>
      </trkpt>
      <trkpt lat="43.79988" lon="5.73624">
        <ele>343.20001220703</ele>
        <time>2020-12-23T12:52:01.000Z</time>
      </trkpt>
      <trkpt lat="43.80005" lon="5.73628">
        <ele>343.79998779297</ele>
        <time>2020-12-23T12:52:07.000Z</time>
      </trkpt>
      <trkpt lat="43.80008" lon="5.7363">
        <ele>344</ele>
        <time>2020-12-23T12:52:08.000Z</time>
      </trkpt>
      <trkpt lat="43.80022" lon="5.73641">
        <ele>345</ele>
        <time>2020-12-23T12:52:14.000Z</time>
      </trkpt>
      <trkpt lat="43.80024" lon="5.73643">
        <ele>345.20001220703</ele>
        <time>2020-12-23T12:52:15.000Z</time>
      </trkpt>
      <trkpt lat="43.80043" lon="5.73657">
        <ele>345.39999389648</ele>
        <time>2020-12-23T12:52:22.000Z</time>
      </trkpt>
      <trkpt lat="43.80051" lon="5.73661">
        <ele>345</ele>
        <time>2020-12-23T12:52:26.000Z</time>
      </trkpt>
      <trkpt lat="43.80064" lon="5.73669">
        <ele>344.60000610352</ele>
        <time>2020-12-23T12:52:31.000Z</time>
      </trkpt>
      <trkpt lat="43.80075" lon="5.73674">
        <ele>344.60000610352</ele>
        <time>2020-12-23T12:52:37.000Z</time>
      </trkpt>
      <trkpt lat="43.80082" lon="5.73676">
        <ele>344.79998779297</ele>
        <time>2020-12-23T12:52:43.000Z</time>
      </trkpt>
      <trkpt lat="43.80089" lon="5.73677">
        <ele>344.60000610352</ele>
        <time>2020-12-23T12:52:51.000Z</time>
      </trkpt>
      <trkpt lat="43.80095" lon="5.73678">
        <ele>344.60000610352</ele>
        <time>2020-12-23T12:52:57.000Z</time>
      </trkpt>
      <trkpt lat="43.80097" lon="5.73678">
        <ele>344.60000610352</ele>
        <time>2020-12-23T12:52:59.000Z</time>
      </trkpt>
      <trkpt lat="43.80102" lon="5.73679">
        <ele>344.39999389648</ele>
        <time>2020-12-23T12:53:06.000Z</time>
      </trkpt>
      <trkpt lat="43.80112" lon="5.73683">
        <ele>344.39999389648</ele>
        <time>2020-12-23T12:53:13.000Z</time>
      </trkpt>
      <trkpt lat="43.80121" lon="5.73697">
        <ele>344.60000610352</ele>
        <time>2020-12-23T12:53:18.000Z</time>
      </trkpt>
      <trkpt lat="43.80135" lon="5.73724">
        <ele>345.20001220703</ele>
        <time>2020-12-23T12:53:26.000Z</time>
      </trkpt>
      <trkpt lat="43.80155" lon="5.73761">
        <ele>346</ele>
        <time>2020-12-23T12:53:36.000Z</time>
      </trkpt>
      <trkpt lat="43.80163" lon="5.73775">
        <ele>346.20001220703</ele>
        <time>2020-12-23T12:53:40.000Z</time>
      </trkpt>
      <trkpt lat="43.80173" lon="5.73788">
        <ele>346.79998779297</ele>
        <time>2020-12-23T12:53:44.000Z</time>
      </trkpt>
      <trkpt lat="43.8018" lon="5.73796">
        <ele>347.20001220703</ele>
        <time>2020-12-23T12:53:47.000Z</time>
      </trkpt>
      <trkpt lat="43.80189" lon="5.73804">
        <ele>347.39999389648</ele>
        <time>2020-12-23T12:53:50.000Z</time>
      </trkpt>
      <trkpt lat="43.8021" lon="5.73832">
        <ele>348</ele>
        <time>2020-12-23T12:53:58.000Z</time>
      </trkpt>
      <trkpt lat="43.80229" lon="5.7385">
        <ele>348</ele>
        <time>2020-12-23T12:54:05.000Z</time>
      </trkpt>
      <trkpt lat="43.80244" lon="5.7386">
        <ele>348.39999389648</ele>
        <time>2020-12-23T12:54:10.000Z</time>
      </trkpt>
      <trkpt lat="43.80253" lon="5.73864">
        <ele>349</ele>
        <time>2020-12-23T12:54:13.000Z</time>
      </trkpt>
      <trkpt lat="43.80266" lon="5.73877">
        <ele>349.39999389648</ele>
        <time>2020-12-23T12:54:17.000Z</time>
      </trkpt>
      <trkpt lat="43.80269" lon="5.73881">
        <ele>349.39999389648</ele>
        <time>2020-12-23T12:54:18.000Z</time>
      </trkpt>
      <trkpt lat="43.80274" lon="5.73895">
        <ele>349.39999389648</ele>
        <time>2020-12-23T12:54:21.000Z</time>
      </trkpt>
      <trkpt lat="43.80277" lon="5.73909">
        <ele>349.20001220703</ele>
        <time>2020-12-23T12:54:25.000Z</time>
      </trkpt>
      <trkpt lat="43.80291" lon="5.73916">
        <ele>348.39999389648</ele>
        <time>2020-12-23T12:54:30.000Z</time>
      </trkpt>
      <trkpt lat="43.80299" lon="5.7393">
        <ele>347.39999389648</ele>
        <time>2020-12-23T12:54:34.000Z</time>
      </trkpt>
      <trkpt lat="43.803" lon="5.73934">
        <ele>347.39999389648</ele>
        <time>2020-12-23T12:54:35.000Z</time>
      </trkpt>
      <trkpt lat="43.80302" lon="5.73941">
        <ele>347.20001220703</ele>
        <time>2020-12-23T12:54:37.000Z</time>
      </trkpt>
      <trkpt lat="43.80305" lon="5.73947">
        <ele>347</ele>
        <time>2020-12-23T12:54:40.000Z</time>
      </trkpt>
      <trkpt lat="43.80305" lon="5.73948">
        <ele>347.20001220703</ele>
        <time>2020-12-23T12:54:45.000Z</time>
      </trkpt>
      <trkpt lat="43.80312" lon="5.73962">
        <ele>347.79998779297</ele>
        <time>2020-12-23T12:54:51.000Z</time>
      </trkpt>
      <trkpt lat="43.80324" lon="5.73983">
        <ele>348.20001220703</ele>
        <time>2020-12-23T12:54:58.000Z</time>
      </trkpt>
      <trkpt lat="43.80325" lon="5.73986">
        <ele>348.39999389648</ele>
        <time>2020-12-23T12:54:59.000Z</time>
      </trkpt>
      <trkpt lat="43.80334" lon="5.74009">
        <ele>349</ele>
        <time>2020-12-23T12:55:05.000Z</time>
      </trkpt>
      <trkpt lat="43.80332" lon="5.74021">
        <ele>349.39999389648</ele>
        <time>2020-12-23T12:55:08.000Z</time>
      </trkpt>
      <trkpt lat="43.80331" lon="5.74029">
        <ele>349.79998779297</ele>
        <time>2020-12-23T12:55:10.000Z</time>
      </trkpt>
      <trkpt lat="43.80338" lon="5.74049">
        <ele>350</ele>
        <time>2020-12-23T12:55:15.000Z</time>
      </trkpt>
      <trkpt lat="43.80343" lon="5.7406">
        <ele>350.39999389648</ele>
        <time>2020-12-23T12:55:18.000Z</time>
      </trkpt>
      <trkpt lat="43.80352" lon="5.74079">
        <ele>351</ele>
        <time>2020-12-23T12:55:23.000Z</time>
      </trkpt>
      <trkpt lat="43.80354" lon="5.74086">
        <ele>351.39999389648</ele>
        <time>2020-12-23T12:55:26.000Z</time>
      </trkpt>
      <trkpt lat="43.80352" lon="5.74091">
        <ele>351.60000610352</ele>
        <time>2020-12-23T12:55:28.000Z</time>
      </trkpt>
      <trkpt lat="43.80339" lon="5.74098">
        <ele>351.60000610352</ele>
        <time>2020-12-23T12:55:32.000Z</time>
      </trkpt>
      <trkpt lat="43.80334" lon="5.74101">
        <ele>351.79998779297</ele>
        <time>2020-12-23T12:55:33.000Z</time>
      </trkpt>
      <trkpt lat="43.8031" lon="5.74116">
        <ele>352</ele>
        <time>2020-12-23T12:55:39.000Z</time>
      </trkpt>
      <trkpt lat="43.80281" lon="5.74135">
        <ele>352</ele>
        <time>2020-12-23T12:55:46.000Z</time>
      </trkpt>
      <trkpt lat="43.80249" lon="5.74152">
        <ele>352.79998779297</ele>
        <time>2020-12-23T12:55:55.000Z</time>
      </trkpt>
      <trkpt lat="43.80233" lon="5.7416">
        <ele>353.79998779297</ele>
        <time>2020-12-23T12:55:59.000Z</time>
      </trkpt>
      <trkpt lat="43.80225" lon="5.74165">
        <ele>354.20001220703</ele>
        <time>2020-12-23T12:56:01.000Z</time>
      </trkpt>
      <trkpt lat="43.80222" lon="5.74168">
        <ele>354.20001220703</ele>
        <time>2020-12-23T12:56:02.000Z</time>
      </trkpt>
      <trkpt lat="43.80218" lon="5.7418">
        <ele>354.79998779297</ele>
        <time>2020-12-23T12:56:05.000Z</time>
      </trkpt>
      <trkpt lat="43.80219" lon="5.74184">
        <ele>354.79998779297</ele>
        <time>2020-12-23T12:56:06.000Z</time>
      </trkpt>
      <trkpt lat="43.80225" lon="5.74192">
        <ele>355</ele>
        <time>2020-12-23T12:56:08.000Z</time>
      </trkpt>
      <trkpt lat="43.80228" lon="5.74195">
        <ele>355</ele>
        <time>2020-12-23T12:56:09.000Z</time>
      </trkpt>
      <trkpt lat="43.80247" lon="5.74216">
        <ele>355.60000610352</ele>
        <time>2020-12-23T12:56:15.000Z</time>
      </trkpt>
      <trkpt lat="43.80268" lon="5.74242">
        <ele>355.79998779297</ele>
        <time>2020-12-23T12:56:22.000Z</time>
      </trkpt>
      <trkpt lat="43.80274" lon="5.74249">
        <ele>355.79998779297</ele>
        <time>2020-12-23T12:56:24.000Z</time>
      </trkpt>
      <trkpt lat="43.80289" lon="5.7427">
        <ele>356.39999389648</ele>
        <time>2020-12-23T12:56:30.000Z</time>
      </trkpt>
      <trkpt lat="43.80293" lon="5.74275">
        <ele>357</ele>
        <time>2020-12-23T12:56:32.000Z</time>
      </trkpt>
      <trkpt lat="43.80302" lon="5.74286">
        <ele>358</ele>
        <time>2020-12-23T12:56:36.000Z</time>
      </trkpt>
      <trkpt lat="43.80312" lon="5.743">
        <ele>359.20001220703</ele>
        <time>2020-12-23T12:56:41.000Z</time>
      </trkpt>
      <trkpt lat="43.80315" lon="5.74304">
        <ele>359.39999389648</ele>
        <time>2020-12-23T12:56:43.000Z</time>
      </trkpt>
      <trkpt lat="43.80316" lon="5.74304">
        <ele>360.20001220703</ele>
        <time>2020-12-23T12:56:47.000Z</time>
      </trkpt>
      <trkpt lat="43.80316" lon="5.74304">
        <ele>360.39999389648</ele>
        <time>2020-12-23T12:56:48.000Z</time>
      </trkpt>
      <trkpt lat="43.80319" lon="5.74309">
        <ele>361.20001220703</ele>
        <time>2020-12-23T12:56:52.000Z</time>
      </trkpt>
      <trkpt lat="43.8032" lon="5.74314">
        <ele>361.39999389648</ele>
        <time>2020-12-23T12:56:54.000Z</time>
      </trkpt>
      <trkpt lat="43.80324" lon="5.74321">
        <ele>361.60000610352</ele>
        <time>2020-12-23T12:56:58.000Z</time>
      </trkpt>
      <trkpt lat="43.80327" lon="5.74326">
        <ele>362.20001220703</ele>
        <time>2020-12-23T12:57:04.000Z</time>
      </trkpt>
      <trkpt lat="43.80327" lon="5.74326">
        <ele>362.60000610352</ele>
        <time>2020-12-23T12:57:05.000Z</time>
      </trkpt>
      <trkpt lat="43.80331" lon="5.74329">
        <ele>363.60000610352</ele>
        <time>2020-12-23T12:57:08.000Z</time>
      </trkpt>
      <trkpt lat="43.80338" lon="5.74334">
        <ele>364.60000610352</ele>
        <time>2020-12-23T12:57:12.000Z</time>
      </trkpt>
      <trkpt lat="43.80343" lon="5.74339">
        <ele>364.79998779297</ele>
        <time>2020-12-23T12:57:15.000Z</time>
      </trkpt>
      <trkpt lat="43.80349" lon="5.74345">
        <ele>365.60000610352</ele>
        <time>2020-12-23T12:57:19.000Z</time>
      </trkpt>
      <trkpt lat="43.80354" lon="5.74348">
        <ele>366.79998779297</ele>
        <time>2020-12-23T12:57:22.000Z</time>
      </trkpt>
      <trkpt lat="43.8036" lon="5.74351">
        <ele>367.79998779297</ele>
        <time>2020-12-23T12:57:25.000Z</time>
      </trkpt>
      <trkpt lat="43.80363" lon="5.74354">
        <ele>369</ele>
        <time>2020-12-23T12:57:27.000Z</time>
      </trkpt>
      <trkpt lat="43.80368" lon="5.74358">
        <ele>370</ele>
        <time>2020-12-23T12:57:30.000Z</time>
      </trkpt>
      <trkpt lat="43.80373" lon="5.74363">
        <ele>371.20001220703</ele>
        <time>2020-12-23T12:57:33.000Z</time>
      </trkpt>
      <trkpt lat="43.80375" lon="5.74365">
        <ele>371.60000610352</ele>
        <time>2020-12-23T12:57:34.000Z</time>
      </trkpt>
      <trkpt lat="43.80379" lon="5.74368">
        <ele>372.39999389648</ele>
        <time>2020-12-23T12:57:36.000Z</time>
      </trkpt>
      <trkpt lat="43.80384" lon="5.74372">
        <ele>373.60000610352</ele>
        <time>2020-12-23T12:57:39.000Z</time>
      </trkpt>
      <trkpt lat="43.80389" lon="5.74377">
        <ele>374.39999389648</ele>
        <time>2020-12-23T12:57:42.000Z</time>
      </trkpt>
      <trkpt lat="43.8039" lon="5.74378">
        <ele>374.60000610352</ele>
        <time>2020-12-23T12:57:43.000Z</time>
      </trkpt>
      <trkpt lat="43.80397" lon="5.74383">
        <ele>375.79998779297</ele>
        <time>2020-12-23T12:57:47.000Z</time>
      </trkpt>
      <trkpt lat="43.80402" lon="5.74387">
        <ele>376.79998779297</ele>
        <time>2020-12-23T12:57:50.000Z</time>
      </trkpt>
      <trkpt lat="43.80403" lon="5.74389">
        <ele>377.20001220703</ele>
        <time>2020-12-23T12:57:51.000Z</time>
      </trkpt>
      <trkpt lat="43.80406" lon="5.74392">
        <ele>378.20001220703</ele>
        <time>2020-12-23T12:57:53.000Z</time>
      </trkpt>
      <trkpt lat="43.80409" lon="5.74396">
        <ele>379.39999389648</ele>
        <time>2020-12-23T12:57:56.000Z</time>
      </trkpt>
      <trkpt lat="43.80411" lon="5.74398">
        <ele>380.20001220703</ele>
        <time>2020-12-23T12:57:58.000Z</time>
      </trkpt>
      <trkpt lat="43.80411" lon="5.74398">
        <ele>380.60000610352</ele>
        <time>2020-12-23T12:57:59.000Z</time>
      </trkpt>
      <trkpt lat="43.80411" lon="5.74398">
        <ele>381.60000610352</ele>
        <time>2020-12-23T12:58:02.000Z</time>
      </trkpt>
      <trkpt lat="43.80411" lon="5.74398">
        <ele>382.39999389648</ele>
        <time>2020-12-23T12:58:04.000Z</time>
      </trkpt>
      <trkpt lat="43.80411" lon="5.74398">
        <ele>382.79998779297</ele>
        <time>2020-12-23T12:58:06.000Z</time>
      </trkpt>
      <trkpt lat="43.80411" lon="5.74398">
        <ele>382.79998779297</ele>
        <time>2020-12-23T12:58:25.000Z</time>
      </trkpt>
      <trkpt lat="43.80411" lon="5.744">
        <ele>382.79998779297</ele>
        <time>2020-12-23T12:58:31.000Z</time>
      </trkpt>
      <trkpt lat="43.80409" lon="5.74402">
        <ele>382.79998779297</ele>
        <time>2020-12-23T12:58:33.000Z</time>
      </trkpt>
      <trkpt lat="43.80406" lon="5.74398">
        <ele>382.79998779297</ele>
        <time>2020-12-23T12:58:37.000Z</time>
      </trkpt>
      <trkpt lat="43.80409" lon="5.74395">
        <ele>382.79998779297</ele>
        <time>2020-12-23T12:58:40.000Z</time>
      </trkpt>
      <trkpt lat="43.8041" lon="5.74394">
        <ele>382.79998779297</ele>
        <time>2020-12-23T12:58:42.000Z</time>
      </trkpt>
      <trkpt lat="43.80411" lon="5.74394">
        <ele>382.79998779297</ele>
        <time>2020-12-23T12:58:43.000Z</time>
      </trkpt>
      <trkpt lat="43.80412" lon="5.74395">
        <ele>382.60000610352</ele>
        <time>2020-12-23T12:58:47.000Z</time>
      </trkpt>
      <trkpt lat="43.80412" lon="5.74395">
        <ele>382.60000610352</ele>
        <time>2020-12-23T12:59:10.000Z</time>
      </trkpt>
      <trkpt lat="43.80412" lon="5.74395">
        <ele>382.79998779297</ele>
        <time>2020-12-23T12:59:26.000Z</time>
      </trkpt>
      <trkpt lat="43.80414" lon="5.74399">
        <ele>382.79998779297</ele>
        <time>2020-12-23T12:59:33.000Z</time>
      </trkpt>
      <trkpt lat="43.80415" lon="5.74401">
        <ele>382.79998779297</ele>
        <time>2020-12-23T12:59:34.000Z</time>
      </trkpt>
      <trkpt lat="43.80422" lon="5.74411">
        <ele>382.79998779297</ele>
        <time>2020-12-23T12:59:39.000Z</time>
      </trkpt>
      <trkpt lat="43.80422" lon="5.74412">
        <ele>383.20001220703</ele>
        <time>2020-12-23T12:59:44.000Z</time>
      </trkpt>
      <trkpt lat="43.80423" lon="5.74414">
        <ele>384.20001220703</ele>
        <time>2020-12-23T12:59:46.000Z</time>
      </trkpt>
      <trkpt lat="43.80425" lon="5.74416">
        <ele>385.39999389648</ele>
        <time>2020-12-23T12:59:49.000Z</time>
      </trkpt>
      <trkpt lat="43.80425" lon="5.74416">
        <ele>385.60000610352</ele>
        <time>2020-12-23T12:59:50.000Z</time>
      </trkpt>
      <trkpt lat="43.80426" lon="5.74417">
        <ele>386.60000610352</ele>
        <time>2020-12-23T12:59:57.000Z</time>
      </trkpt>
      <trkpt lat="43.80426" lon="5.74417">
        <ele>387.39999389648</ele>
        <time>2020-12-23T13:00:05.000Z</time>
      </trkpt>
      <trkpt lat="43.80426" lon="5.74418">
        <ele>387.60000610352</ele>
        <time>2020-12-23T13:00:09.000Z</time>
      </trkpt>
      <trkpt lat="43.80426" lon="5.74418">
        <ele>387.60000610352</ele>
        <time>2020-12-23T13:00:11.000Z</time>
      </trkpt>
      <trkpt lat="43.80426" lon="5.74419">
        <ele>387.79998779297</ele>
        <time>2020-12-23T13:00:20.000Z</time>
      </trkpt>
      <trkpt lat="43.80427" lon="5.74419">
        <ele>388.20001220703</ele>
        <time>2020-12-23T13:00:25.000Z</time>
      </trkpt>
      <trkpt lat="43.80426" lon="5.7442">
        <ele>388.60000610352</ele>
        <time>2020-12-23T13:00:35.000Z</time>
      </trkpt>
      <trkpt lat="43.80427" lon="5.74422">
        <ele>388.79998779297</ele>
        <time>2020-12-23T13:00:42.000Z</time>
      </trkpt>
      <trkpt lat="43.80428" lon="5.74426">
        <ele>389.20001220703</ele>
        <time>2020-12-23T13:00:47.000Z</time>
      </trkpt>
      <trkpt lat="43.80426" lon="5.74427">
        <ele>389.60000610352</ele>
        <time>2020-12-23T13:00:54.000Z</time>
      </trkpt>
      <trkpt lat="43.80424" lon="5.74429">
        <ele>389.60000610352</ele>
        <time>2020-12-23T13:00:56.000Z</time>
      </trkpt>
      <trkpt lat="43.80418" lon="5.74432">
        <ele>389.79998779297</ele>
        <time>2020-12-23T13:00:59.000Z</time>
      </trkpt>
      <trkpt lat="43.804" lon="5.74443">
        <ele>389.79998779297</ele>
        <time>2020-12-23T13:01:05.000Z</time>
      </trkpt>
      <trkpt lat="43.80385" lon="5.74456">
        <ele>389.79998779297</ele>
        <time>2020-12-23T13:01:10.000Z</time>
      </trkpt>
      <trkpt lat="43.80372" lon="5.74474">
        <ele>389.60000610352</ele>
        <time>2020-12-23T13:01:16.000Z</time>
      </trkpt>
      <trkpt lat="43.80356" lon="5.74489">
        <ele>389.60000610352</ele>
        <time>2020-12-23T13:01:21.000Z</time>
      </trkpt>
      <trkpt lat="43.80334" lon="5.74508">
        <ele>388.79998779297</ele>
        <time>2020-12-23T13:01:28.000Z</time>
      </trkpt>
      <trkpt lat="43.80311" lon="5.74529">
        <ele>388.60000610352</ele>
        <time>2020-12-23T13:01:35.000Z</time>
      </trkpt>
      <trkpt lat="43.80285" lon="5.74554">
        <ele>388.39999389648</ele>
        <time>2020-12-23T13:01:43.000Z</time>
      </trkpt>
      <trkpt lat="43.80276" lon="5.74565">
        <ele>388.20001220703</ele>
        <time>2020-12-23T13:01:46.000Z</time>
      </trkpt>
      <trkpt lat="43.80272" lon="5.74573">
        <ele>388</ele>
        <time>2020-12-23T13:01:48.000Z</time>
      </trkpt>
      <trkpt lat="43.80266" lon="5.74587">
        <ele>387.79998779297</ele>
        <time>2020-12-23T13:01:52.000Z</time>
      </trkpt>
      <trkpt lat="43.80265" lon="5.7459">
        <ele>387.60000610352</ele>
        <time>2020-12-23T13:01:53.000Z</time>
      </trkpt>
      <trkpt lat="43.80256" lon="5.74597">
        <ele>387.20001220703</ele>
        <time>2020-12-23T13:01:57.000Z</time>
      </trkpt>
      <trkpt lat="43.80247" lon="5.74602">
        <ele>386.39999389648</ele>
        <time>2020-12-23T13:02:01.000Z</time>
      </trkpt>
      <trkpt lat="43.80236" lon="5.74606">
        <ele>386.39999389648</ele>
        <time>2020-12-23T13:02:06.000Z</time>
      </trkpt>
      <trkpt lat="43.80231" lon="5.74613">
        <ele>386.20001220703</ele>
        <time>2020-12-23T13:02:09.000Z</time>
      </trkpt>
      <trkpt lat="43.80227" lon="5.74616">
        <ele>386.20001220703</ele>
        <time>2020-12-23T13:02:10.000Z</time>
      </trkpt>
      <trkpt lat="43.80217" lon="5.7462">
        <ele>386</ele>
        <time>2020-12-23T13:02:13.000Z</time>
      </trkpt>
      <trkpt lat="43.80204" lon="5.74635">
        <ele>385.60000610352</ele>
        <time>2020-12-23T13:02:18.000Z</time>
      </trkpt>
      <trkpt lat="43.80195" lon="5.74655">
        <ele>385.60000610352</ele>
        <time>2020-12-23T13:02:23.000Z</time>
      </trkpt>
      <trkpt lat="43.80193" lon="5.74658">
        <ele>385.60000610352</ele>
        <time>2020-12-23T13:02:24.000Z</time>
      </trkpt>
      <trkpt lat="43.80187" lon="5.74664">
        <ele>385.60000610352</ele>
        <time>2020-12-23T13:02:27.000Z</time>
      </trkpt>
      <trkpt lat="43.80183" lon="5.74676">
        <ele>386.39999389648</ele>
        <time>2020-12-23T13:02:31.000Z</time>
      </trkpt>
      <trkpt lat="43.80181" lon="5.74679">
        <ele>386.79998779297</ele>
        <time>2020-12-23T13:02:32.000Z</time>
      </trkpt>
      <trkpt lat="43.80176" lon="5.74688">
        <ele>387.20001220703</ele>
        <time>2020-12-23T13:02:34.000Z</time>
      </trkpt>
      <trkpt lat="43.80172" lon="5.74692">
        <ele>387.39999389648</ele>
        <time>2020-12-23T13:02:35.000Z</time>
      </trkpt>
      <trkpt lat="43.80163" lon="5.747">
        <ele>387.39999389648</ele>
        <time>2020-12-23T13:02:37.000Z</time>
      </trkpt>
      <trkpt lat="43.80155" lon="5.74708">
        <ele>387.60000610352</ele>
        <time>2020-12-23T13:02:39.000Z</time>
      </trkpt>
      <trkpt lat="43.80148" lon="5.74713">
        <ele>387.60000610352</ele>
        <time>2020-12-23T13:02:41.000Z</time>
      </trkpt>
      <trkpt lat="43.80144" lon="5.74719">
        <ele>387.60000610352</ele>
        <time>2020-12-23T13:02:43.000Z</time>
      </trkpt>
      <trkpt lat="43.80131" lon="5.74727">
        <ele>387.60000610352</ele>
        <time>2020-12-23T13:02:46.000Z</time>
      </trkpt>
      <trkpt lat="43.80125" lon="5.74728">
        <ele>387.60000610352</ele>
        <time>2020-12-23T13:02:47.000Z</time>
      </trkpt>
      <trkpt lat="43.80115" lon="5.74733">
        <ele>387.39999389648</ele>
        <time>2020-12-23T13:02:49.000Z</time>
      </trkpt>
      <trkpt lat="43.80111" lon="5.74738">
        <ele>387.20001220703</ele>
        <time>2020-12-23T13:02:50.000Z</time>
      </trkpt>
      <trkpt lat="43.80101" lon="5.74749">
        <ele>386.39999389648</ele>
        <time>2020-12-23T13:02:52.000Z</time>
      </trkpt>
      <trkpt lat="43.80092" lon="5.74761">
        <ele>385.39999389648</ele>
        <time>2020-12-23T13:02:54.000Z</time>
      </trkpt>
      <trkpt lat="43.80087" lon="5.74767">
        <ele>385</ele>
        <time>2020-12-23T13:02:55.000Z</time>
      </trkpt>
      <trkpt lat="43.80067" lon="5.74792">
        <ele>384</ele>
        <time>2020-12-23T13:03:00.000Z</time>
      </trkpt>
      <trkpt lat="43.8006" lon="5.74801">
        <ele>383.39999389648</ele>
        <time>2020-12-23T13:03:02.000Z</time>
      </trkpt>
      <trkpt lat="43.80053" lon="5.74806">
        <ele>382.79998779297</ele>
        <time>2020-12-23T13:03:04.000Z</time>
      </trkpt>
      <trkpt lat="43.8005" lon="5.74808">
        <ele>382.60000610352</ele>
        <time>2020-12-23T13:03:05.000Z</time>
      </trkpt>
      <trkpt lat="43.80039" lon="5.74815">
        <ele>382.60000610352</ele>
        <time>2020-12-23T13:03:09.000Z</time>
      </trkpt>
      <trkpt lat="43.80036" lon="5.74815">
        <ele>382.60000610352</ele>
        <time>2020-12-23T13:03:10.000Z</time>
      </trkpt>
      <trkpt lat="43.80032" lon="5.74817">
        <ele>382.60000610352</ele>
        <time>2020-12-23T13:03:11.000Z</time>
      </trkpt>
      <trkpt lat="43.80027" lon="5.74817">
        <ele>382.60000610352</ele>
        <time>2020-12-23T13:03:12.000Z</time>
      </trkpt>
      <trkpt lat="43.80005" lon="5.74811">
        <ele>383.39999389648</ele>
        <time>2020-12-23T13:03:17.000Z</time>
      </trkpt>
      <trkpt lat="43.79999" lon="5.74809">
        <ele>384</ele>
        <time>2020-12-23T13:03:19.000Z</time>
      </trkpt>
      <trkpt lat="43.79991" lon="5.74806">
        <ele>384.20001220703</ele>
        <time>2020-12-23T13:03:22.000Z</time>
      </trkpt>
      <trkpt lat="43.79985" lon="5.74804">
        <ele>384.60000610352</ele>
        <time>2020-12-23T13:03:27.000Z</time>
      </trkpt>
      <trkpt lat="43.79985" lon="5.74804">
        <ele>385</ele>
        <time>2020-12-23T13:03:28.000Z</time>
      </trkpt>
      <trkpt lat="43.79985" lon="5.74804">
        <ele>386.20001220703</ele>
        <time>2020-12-23T13:03:32.000Z</time>
      </trkpt>
      <trkpt lat="43.79985" lon="5.74803">
        <ele>387.20001220703</ele>
        <time>2020-12-23T13:03:38.000Z</time>
      </trkpt>
      <trkpt lat="43.79985" lon="5.74803">
        <ele>387.20001220703</ele>
        <time>2020-12-23T13:03:39.000Z</time>
      </trkpt>
      <trkpt lat="43.79982" lon="5.74801">
        <ele>387.39999389648</ele>
        <time>2020-12-23T13:03:44.000Z</time>
      </trkpt>
      <trkpt lat="43.7998" lon="5.74798">
        <ele>387.39999389648</ele>
        <time>2020-12-23T13:03:46.000Z</time>
      </trkpt>
      <trkpt lat="43.79976" lon="5.74784">
        <ele>387.39999389648</ele>
        <time>2020-12-23T13:03:50.000Z</time>
      </trkpt>
      <trkpt lat="43.79979" lon="5.74765">
        <ele>387.20001220703</ele>
        <time>2020-12-23T13:03:54.000Z</time>
      </trkpt>
      <trkpt lat="43.79975" lon="5.7476">
        <ele>386.20001220703</ele>
        <time>2020-12-23T13:03:57.000Z</time>
      </trkpt>
      <trkpt lat="43.79971" lon="5.74762">
        <ele>384.39999389648</ele>
        <time>2020-12-23T13:03:59.000Z</time>
      </trkpt>
      <trkpt lat="43.79969" lon="5.74763">
        <ele>383.20001220703</ele>
        <time>2020-12-23T13:04:00.000Z</time>
      </trkpt>
      <trkpt lat="43.79967" lon="5.74767">
        <ele>381.60000610352</ele>
        <time>2020-12-23T13:04:02.000Z</time>
      </trkpt>
      <trkpt lat="43.79962" lon="5.74771">
        <ele>381</ele>
        <time>2020-12-23T13:04:04.000Z</time>
      </trkpt>
      <trkpt lat="43.79958" lon="5.74776">
        <ele>380.79998779297</ele>
        <time>2020-12-23T13:04:06.000Z</time>
      </trkpt>
      <trkpt lat="43.79948" lon="5.7479">
        <ele>380.79998779297</ele>
        <time>2020-12-23T13:04:11.000Z</time>
      </trkpt>
      <trkpt lat="43.79943" lon="5.74794">
        <ele>381.20001220703</ele>
        <time>2020-12-23T13:04:13.000Z</time>
      </trkpt>
      <trkpt lat="43.79938" lon="5.74795">
        <ele>381.79998779297</ele>
        <time>2020-12-23T13:04:15.000Z</time>
      </trkpt>
      <trkpt lat="43.79922" lon="5.74796">
        <ele>382.20001220703</ele>
        <time>2020-12-23T13:04:21.000Z</time>
      </trkpt>
      <trkpt lat="43.79905" lon="5.74795">
        <ele>382.20001220703</ele>
        <time>2020-12-23T13:04:26.000Z</time>
      </trkpt>
      <trkpt lat="43.79891" lon="5.74792">
        <ele>382.20001220703</ele>
        <time>2020-12-23T13:04:30.000Z</time>
      </trkpt>
      <trkpt lat="43.79886" lon="5.74792">
        <ele>382.20001220703</ele>
        <time>2020-12-23T13:04:31.000Z</time>
      </trkpt>
      <trkpt lat="43.79876" lon="5.74789">
        <ele>382.20001220703</ele>
        <time>2020-12-23T13:04:33.000Z</time>
      </trkpt>
      <trkpt lat="43.79868" lon="5.74785">
        <ele>381</ele>
        <time>2020-12-23T13:04:36.000Z</time>
      </trkpt>
      <trkpt lat="43.79867" lon="5.74784">
        <ele>380.79998779297</ele>
        <time>2020-12-23T13:04:37.000Z</time>
      </trkpt>
      <trkpt lat="43.79866" lon="5.74783">
        <ele>380.20001220703</ele>
        <time>2020-12-23T13:04:38.000Z</time>
      </trkpt>
      <trkpt lat="43.79866" lon="5.74782">
        <ele>379.39999389648</ele>
        <time>2020-12-23T13:04:39.000Z</time>
      </trkpt>
      <trkpt lat="43.79865" lon="5.74779">
        <ele>378.20001220703</ele>
        <time>2020-12-23T13:04:40.000Z</time>
      </trkpt>
      <trkpt lat="43.79865" lon="5.74776">
        <ele>377.39999389648</ele>
        <time>2020-12-23T13:04:41.000Z</time>
      </trkpt>
      <trkpt lat="43.79864" lon="5.74772">
        <ele>376.79998779297</ele>
        <time>2020-12-23T13:04:42.000Z</time>
      </trkpt>
      <trkpt lat="43.79861" lon="5.74766">
        <ele>376.39999389648</ele>
        <time>2020-12-23T13:04:44.000Z</time>
      </trkpt>
      <trkpt lat="43.79856" lon="5.74765">
        <ele>376</ele>
        <time>2020-12-23T13:04:46.000Z</time>
      </trkpt>
      <trkpt lat="43.79853" lon="5.74764">
        <ele>375.79998779297</ele>
        <time>2020-12-23T13:04:47.000Z</time>
      </trkpt>
      <trkpt lat="43.79846" lon="5.74764">
        <ele>374.79998779297</ele>
        <time>2020-12-23T13:04:49.000Z</time>
      </trkpt>
      <trkpt lat="43.7984" lon="5.74765">
        <ele>373.79998779297</ele>
        <time>2020-12-23T13:04:50.000Z</time>
      </trkpt>
      <trkpt lat="43.79835" lon="5.74767">
        <ele>372.60000610352</ele>
        <time>2020-12-23T13:04:51.000Z</time>
      </trkpt>
      <trkpt lat="43.79828" lon="5.74769">
        <ele>370.79998779297</ele>
        <time>2020-12-23T13:04:53.000Z</time>
      </trkpt>
      <trkpt lat="43.79824" lon="5.74771">
        <ele>369.79998779297</ele>
        <time>2020-12-23T13:04:54.000Z</time>
      </trkpt>
      <trkpt lat="43.79822" lon="5.74773">
        <ele>368.79998779297</ele>
        <time>2020-12-23T13:04:55.000Z</time>
      </trkpt>
      <trkpt lat="43.7982" lon="5.74774">
        <ele>368.20001220703</ele>
        <time>2020-12-23T13:04:56.000Z</time>
      </trkpt>
      <trkpt lat="43.7982" lon="5.74775">
        <ele>367.20001220703</ele>
        <time>2020-12-23T13:04:57.000Z</time>
      </trkpt>
      <trkpt lat="43.7982" lon="5.74775">
        <ele>366</ele>
        <time>2020-12-23T13:04:59.000Z</time>
      </trkpt>
      <trkpt lat="43.7982" lon="5.74775">
        <ele>365.79998779297</ele>
        <time>2020-12-23T13:05:01.000Z</time>
      </trkpt>
      <trkpt lat="43.79819" lon="5.74775">
        <ele>365.60000610352</ele>
        <time>2020-12-23T13:05:09.000Z</time>
      </trkpt>
      <trkpt lat="43.79819" lon="5.74777">
        <ele>365.60000610352</ele>
        <time>2020-12-23T13:05:10.000Z</time>
      </trkpt>
      <trkpt lat="43.79816" lon="5.74781">
        <ele>365.60000610352</ele>
        <time>2020-12-23T13:05:16.000Z</time>
      </trkpt>
      <trkpt lat="43.79814" lon="5.74782">
        <ele>366</ele>
        <time>2020-12-23T13:05:20.000Z</time>
      </trkpt>
      <trkpt lat="43.79809" lon="5.74784">
        <ele>366.39999389648</ele>
        <time>2020-12-23T13:05:22.000Z</time>
      </trkpt>
      <trkpt lat="43.798" lon="5.74794">
        <ele>366.79998779297</ele>
        <time>2020-12-23T13:05:27.000Z</time>
      </trkpt>
      <trkpt lat="43.79791" lon="5.74809">
        <ele>367</ele>
        <time>2020-12-23T13:05:32.000Z</time>
      </trkpt>
      <trkpt lat="43.79789" lon="5.74812">
        <ele>367.39999389648</ele>
        <time>2020-12-23T13:05:33.000Z</time>
      </trkpt>
      <trkpt lat="43.79782" lon="5.74817">
        <ele>368.79998779297</ele>
        <time>2020-12-23T13:05:36.000Z</time>
      </trkpt>
      <trkpt lat="43.7978" lon="5.74818">
        <ele>369</ele>
        <time>2020-12-23T13:05:37.000Z</time>
      </trkpt>
      <trkpt lat="43.79775" lon="5.74822">
        <ele>369.39999389648</ele>
        <time>2020-12-23T13:05:39.000Z</time>
      </trkpt>
      <trkpt lat="43.79773" lon="5.74829">
        <ele>369.79998779297</ele>
        <time>2020-12-23T13:05:41.000Z</time>
      </trkpt>
      <trkpt lat="43.79768" lon="5.74836">
        <ele>370.79998779297</ele>
        <time>2020-12-23T13:05:43.000Z</time>
      </trkpt>
      <trkpt lat="43.79761" lon="5.74842">
        <ele>371.60000610352</ele>
        <time>2020-12-23T13:05:45.000Z</time>
      </trkpt>
      <trkpt lat="43.79757" lon="5.74845">
        <ele>372</ele>
        <time>2020-12-23T13:05:46.000Z</time>
      </trkpt>
      <trkpt lat="43.79751" lon="5.74846">
        <ele>372.60000610352</ele>
        <time>2020-12-23T13:05:48.000Z</time>
      </trkpt>
      <trkpt lat="43.79748" lon="5.74843">
        <ele>372.60000610352</ele>
        <time>2020-12-23T13:05:49.000Z</time>
      </trkpt>
      <trkpt lat="43.79736" lon="5.74832">
        <ele>372.79998779297</ele>
        <time>2020-12-23T13:05:52.000Z</time>
      </trkpt>
      <trkpt lat="43.79733" lon="5.74827">
        <ele>372.79998779297</ele>
        <time>2020-12-23T13:05:53.000Z</time>
      </trkpt>
      <trkpt lat="43.79726" lon="5.74815">
        <ele>372.79998779297</ele>
        <time>2020-12-23T13:05:57.000Z</time>
      </trkpt>
      <trkpt lat="43.79722" lon="5.74809">
        <ele>372.39999389648</ele>
        <time>2020-12-23T13:05:59.000Z</time>
      </trkpt>
      <trkpt lat="43.79718" lon="5.74805">
        <ele>372</ele>
        <time>2020-12-23T13:06:00.000Z</time>
      </trkpt>
      <trkpt lat="43.79705" lon="5.74787">
        <ele>371.79998779297</ele>
        <time>2020-12-23T13:06:03.000Z</time>
      </trkpt>
      <trkpt lat="43.797" lon="5.74784">
        <ele>371.60000610352</ele>
        <time>2020-12-23T13:06:04.000Z</time>
      </trkpt>
      <trkpt lat="43.79686" lon="5.74788">
        <ele>371.39999389648</ele>
        <time>2020-12-23T13:06:07.000Z</time>
      </trkpt>
      <trkpt lat="43.79683" lon="5.74792">
        <ele>370.79998779297</ele>
        <time>2020-12-23T13:06:08.000Z</time>
      </trkpt>
      <trkpt lat="43.79681" lon="5.74795">
        <ele>369</ele>
        <time>2020-12-23T13:06:09.000Z</time>
      </trkpt>
      <trkpt lat="43.79675" lon="5.74802">
        <ele>367.39999389648</ele>
        <time>2020-12-23T13:06:11.000Z</time>
      </trkpt>
      <trkpt lat="43.79669" lon="5.7481">
        <ele>366.20001220703</ele>
        <time>2020-12-23T13:06:13.000Z</time>
      </trkpt>
      <trkpt lat="43.79656" lon="5.74832">
        <ele>365.60000610352</ele>
        <time>2020-12-23T13:06:18.000Z</time>
      </trkpt>
      <trkpt lat="43.7965" lon="5.74854">
        <ele>365.60000610352</ele>
        <time>2020-12-23T13:06:23.000Z</time>
      </trkpt>
      <trkpt lat="43.79646" lon="5.74866">
        <ele>365.60000610352</ele>
        <time>2020-12-23T13:06:27.000Z</time>
      </trkpt>
      <trkpt lat="43.79645" lon="5.74882">
        <ele>367.39999389648</ele>
        <time>2020-12-23T13:06:33.000Z</time>
      </trkpt>
      <trkpt lat="43.79643" lon="5.74896">
        <ele>368.39999389648</ele>
        <time>2020-12-23T13:06:37.000Z</time>
      </trkpt>
      <trkpt lat="43.79642" lon="5.749">
        <ele>368.60000610352</ele>
        <time>2020-12-23T13:06:38.000Z</time>
      </trkpt>
      <trkpt lat="43.79639" lon="5.74912">
        <ele>369.60000610352</ele>
        <time>2020-12-23T13:06:41.000Z</time>
      </trkpt>
      <trkpt lat="43.79636" lon="5.74922">
        <ele>369.79998779297</ele>
        <time>2020-12-23T13:06:44.000Z</time>
      </trkpt>
      <trkpt lat="43.79634" lon="5.7492">
        <ele>369.79998779297</ele>
        <time>2020-12-23T13:06:47.000Z</time>
      </trkpt>
      <trkpt lat="43.79634" lon="5.7492">
        <ele>369</ele>
        <time>2020-12-23T13:07:03.000Z</time>
      </trkpt>
      <trkpt lat="43.79634" lon="5.74918">
        <ele>369.20001220703</ele>
        <time>2020-12-23T13:07:17.000Z</time>
      </trkpt>
      <trkpt lat="43.79634" lon="5.74916">
        <ele>369.20001220703</ele>
        <time>2020-12-23T13:07:18.000Z</time>
      </trkpt>
      <trkpt lat="43.79633" lon="5.74907">
        <ele>369</ele>
        <time>2020-12-23T13:07:20.000Z</time>
      </trkpt>
      <trkpt lat="43.79625" lon="5.74875">
        <ele>369</ele>
        <time>2020-12-23T13:07:25.000Z</time>
      </trkpt>
      <trkpt lat="43.79621" lon="5.74864">
        <ele>368.39999389648</ele>
        <time>2020-12-23T13:07:28.000Z</time>
      </trkpt>
      <trkpt lat="43.7962" lon="5.74862">
        <ele>367.79998779297</ele>
        <time>2020-12-23T13:07:29.000Z</time>
      </trkpt>
      <trkpt lat="43.79618" lon="5.7486">
        <ele>367</ele>
        <time>2020-12-23T13:07:30.000Z</time>
      </trkpt>
      <trkpt lat="43.79616" lon="5.74856">
        <ele>364.20001220703</ele>
        <time>2020-12-23T13:07:32.000Z</time>
      </trkpt>
      <trkpt lat="43.79614" lon="5.74852">
        <ele>362.60000610352</ele>
        <time>2020-12-23T13:07:34.000Z</time>
      </trkpt>
      <trkpt lat="43.7961" lon="5.7485">
        <ele>361.60000610352</ele>
        <time>2020-12-23T13:07:36.000Z</time>
      </trkpt>
      <trkpt lat="43.79601" lon="5.74846">
        <ele>360.60000610352</ele>
        <time>2020-12-23T13:07:40.000Z</time>
      </trkpt>
      <trkpt lat="43.79598" lon="5.74844">
        <ele>360.39999389648</ele>
        <time>2020-12-23T13:07:41.000Z</time>
      </trkpt>
      <trkpt lat="43.79592" lon="5.74834">
        <ele>360</ele>
        <time>2020-12-23T13:07:45.000Z</time>
      </trkpt>
      <trkpt lat="43.79589" lon="5.74823">
        <ele>359.39999389648</ele>
        <time>2020-12-23T13:07:49.000Z</time>
      </trkpt>
      <trkpt lat="43.79589" lon="5.74817">
        <ele>358.79998779297</ele>
        <time>2020-12-23T13:07:51.000Z</time>
      </trkpt>
      <trkpt lat="43.7959" lon="5.7481">
        <ele>358.20001220703</ele>
        <time>2020-12-23T13:07:53.000Z</time>
      </trkpt>
      <trkpt lat="43.79591" lon="5.74801">
        <ele>357.60000610352</ele>
        <time>2020-12-23T13:07:55.000Z</time>
      </trkpt>
      <trkpt lat="43.7959" lon="5.74797">
        <ele>357.20001220703</ele>
        <time>2020-12-23T13:07:56.000Z</time>
      </trkpt>
      <trkpt lat="43.79589" lon="5.74795">
        <ele>357</ele>
        <time>2020-12-23T13:07:57.000Z</time>
      </trkpt>
      <trkpt lat="43.79588" lon="5.74793">
        <ele>356.60000610352</ele>
        <time>2020-12-23T13:07:58.000Z</time>
      </trkpt>
      <trkpt lat="43.79588" lon="5.74792">
        <ele>356</ele>
        <time>2020-12-23T13:08:02.000Z</time>
      </trkpt>
      <trkpt lat="43.79588" lon="5.74792">
        <ele>355</ele>
        <time>2020-12-23T13:08:05.000Z</time>
      </trkpt>
      <trkpt lat="43.79586" lon="5.74787">
        <ele>354.20001220703</ele>
        <time>2020-12-23T13:08:14.000Z</time>
      </trkpt>
      <trkpt lat="43.7958" lon="5.74782">
        <ele>354.20001220703</ele>
        <time>2020-12-23T13:08:18.000Z</time>
      </trkpt>
      <trkpt lat="43.79578" lon="5.74784">
        <ele>354.20001220703</ele>
        <time>2020-12-23T13:08:19.000Z</time>
      </trkpt>
      <trkpt lat="43.79574" lon="5.74785">
        <ele>354</ele>
        <time>2020-12-23T13:08:22.000Z</time>
      </trkpt>
      <trkpt lat="43.79575" lon="5.74782">
        <ele>353.79998779297</ele>
        <time>2020-12-23T13:08:24.000Z</time>
      </trkpt>
      <trkpt lat="43.79577" lon="5.74778">
        <ele>353.20001220703</ele>
        <time>2020-12-23T13:08:26.000Z</time>
      </trkpt>
      <trkpt lat="43.79577" lon="5.74769">
        <ele>352.60000610352</ele>
        <time>2020-12-23T13:08:28.000Z</time>
      </trkpt>
      <trkpt lat="43.79576" lon="5.74763">
        <ele>352.39999389648</ele>
        <time>2020-12-23T13:08:29.000Z</time>
      </trkpt>
      <trkpt lat="43.79572" lon="5.74752">
        <ele>352.20001220703</ele>
        <time>2020-12-23T13:08:31.000Z</time>
      </trkpt>
      <trkpt lat="43.79561" lon="5.74731">
        <ele>352.20001220703</ele>
        <time>2020-12-23T13:08:35.000Z</time>
      </trkpt>
      <trkpt lat="43.79552" lon="5.74716">
        <ele>351.39999389648</ele>
        <time>2020-12-23T13:08:38.000Z</time>
      </trkpt>
      <trkpt lat="43.79539" lon="5.74702">
        <ele>351</ele>
        <time>2020-12-23T13:08:42.000Z</time>
      </trkpt>
      <trkpt lat="43.79521" lon="5.74699">
        <ele>350.79998779297</ele>
        <time>2020-12-23T13:08:46.000Z</time>
      </trkpt>
      <trkpt lat="43.79516" lon="5.74701">
        <ele>350.60000610352</ele>
        <time>2020-12-23T13:08:47.000Z</time>
      </trkpt>
      <trkpt lat="43.79511" lon="5.74704">
        <ele>350.60000610352</ele>
        <time>2020-12-23T13:08:48.000Z</time>
      </trkpt>
      <trkpt lat="43.79489" lon="5.74716">
        <ele>350.60000610352</ele>
        <time>2020-12-23T13:08:52.000Z</time>
      </trkpt>
      <trkpt lat="43.79483" lon="5.74719">
        <ele>350.60000610352</ele>
        <time>2020-12-23T13:08:53.000Z</time>
      </trkpt>
      <trkpt lat="43.79476" lon="5.7472">
        <ele>350.39999389648</ele>
        <time>2020-12-23T13:08:54.000Z</time>
      </trkpt>
      <trkpt lat="43.79469" lon="5.74719">
        <ele>350</ele>
        <time>2020-12-23T13:08:55.000Z</time>
      </trkpt>
      <trkpt lat="43.7945" lon="5.74708">
        <ele>349.20001220703</ele>
        <time>2020-12-23T13:08:58.000Z</time>
      </trkpt>
      <trkpt lat="43.79444" lon="5.74705">
        <ele>349</ele>
        <time>2020-12-23T13:08:59.000Z</time>
      </trkpt>
      <trkpt lat="43.79432" lon="5.74703">
        <ele>348.20001220703</ele>
        <time>2020-12-23T13:09:01.000Z</time>
      </trkpt>
      <trkpt lat="43.79426" lon="5.74705">
        <ele>347.60000610352</ele>
        <time>2020-12-23T13:09:02.000Z</time>
      </trkpt>
      <trkpt lat="43.79421" lon="5.74707">
        <ele>347</ele>
        <time>2020-12-23T13:09:03.000Z</time>
      </trkpt>
      <trkpt lat="43.79406" lon="5.74719">
        <ele>346.60000610352</ele>
        <time>2020-12-23T13:09:06.000Z</time>
      </trkpt>
      <trkpt lat="43.79399" lon="5.74729">
        <ele>346.39999389648</ele>
        <time>2020-12-23T13:09:08.000Z</time>
      </trkpt>
      <trkpt lat="43.79387" lon="5.7475">
        <ele>346</ele>
        <time>2020-12-23T13:09:11.000Z</time>
      </trkpt>
      <trkpt lat="43.79374" lon="5.74771">
        <ele>345.79998779297</ele>
        <time>2020-12-23T13:09:14.000Z</time>
      </trkpt>
      <trkpt lat="43.79363" lon="5.74781">
        <ele>345.60000610352</ele>
        <time>2020-12-23T13:09:16.000Z</time>
      </trkpt>
      <trkpt lat="43.79351" lon="5.74783">
        <ele>345</ele>
        <time>2020-12-23T13:09:18.000Z</time>
      </trkpt>
      <trkpt lat="43.79346" lon="5.7478">
        <ele>344.39999389648</ele>
        <time>2020-12-23T13:09:19.000Z</time>
      </trkpt>
      <trkpt lat="43.79341" lon="5.74776">
        <ele>343.79998779297</ele>
        <time>2020-12-23T13:09:20.000Z</time>
      </trkpt>
      <trkpt lat="43.79338" lon="5.74771">
        <ele>342.60000610352</ele>
        <time>2020-12-23T13:09:21.000Z</time>
      </trkpt>
      <trkpt lat="43.79334" lon="5.74766">
        <ele>342</ele>
        <time>2020-12-23T13:09:22.000Z</time>
      </trkpt>
      <trkpt lat="43.79331" lon="5.74761">
        <ele>341.39999389648</ele>
        <time>2020-12-23T13:09:23.000Z</time>
      </trkpt>
      <trkpt lat="43.79321" lon="5.74743">
        <ele>340</ele>
        <time>2020-12-23T13:09:26.000Z</time>
      </trkpt>
      <trkpt lat="43.79314" lon="5.74732">
        <ele>339.60000610352</ele>
        <time>2020-12-23T13:09:28.000Z</time>
      </trkpt>
      <trkpt lat="43.79309" lon="5.74728">
        <ele>339.60000610352</ele>
        <time>2020-12-23T13:09:29.000Z</time>
      </trkpt>
      <trkpt lat="43.79292" lon="5.74715">
        <ele>338.60000610352</ele>
        <time>2020-12-23T13:09:32.000Z</time>
      </trkpt>
      <trkpt lat="43.79287" lon="5.74711">
        <ele>338.20001220703</ele>
        <time>2020-12-23T13:09:33.000Z</time>
      </trkpt>
      <trkpt lat="43.79281" lon="5.74708">
        <ele>337.79998779297</ele>
        <time>2020-12-23T13:09:34.000Z</time>
      </trkpt>
      <trkpt lat="43.79275" lon="5.74707">
        <ele>337.39999389648</ele>
        <time>2020-12-23T13:09:35.000Z</time>
      </trkpt>
      <trkpt lat="43.79259" lon="5.74704">
        <ele>336</ele>
        <time>2020-12-23T13:09:38.000Z</time>
      </trkpt>
      <trkpt lat="43.79255" lon="5.74705">
        <ele>335.39999389648</ele>
        <time>2020-12-23T13:09:39.000Z</time>
      </trkpt>
      <trkpt lat="43.7925" lon="5.74706">
        <ele>334.60000610352</ele>
        <time>2020-12-23T13:09:40.000Z</time>
      </trkpt>
      <trkpt lat="43.79244" lon="5.74715">
        <ele>333.39999389648</ele>
        <time>2020-12-23T13:09:42.000Z</time>
      </trkpt>
      <trkpt lat="43.7924" lon="5.74726">
        <ele>332.20001220703</ele>
        <time>2020-12-23T13:09:44.000Z</time>
      </trkpt>
      <trkpt lat="43.79235" lon="5.7474">
        <ele>330.60000610352</ele>
        <time>2020-12-23T13:09:47.000Z</time>
      </trkpt>
      <trkpt lat="43.79233" lon="5.74748">
        <ele>329.39999389648</ele>
        <time>2020-12-23T13:09:49.000Z</time>
      </trkpt>
      <trkpt lat="43.79231" lon="5.74752">
        <ele>328.79998779297</ele>
        <time>2020-12-23T13:09:51.000Z</time>
      </trkpt>
      <trkpt lat="43.79229" lon="5.74756">
        <ele>328.20001220703</ele>
        <time>2020-12-23T13:09:54.000Z</time>
      </trkpt>
      <trkpt lat="43.79229" lon="5.74758">
        <ele>327.79998779297</ele>
        <time>2020-12-23T13:09:57.000Z</time>
      </trkpt>
      <trkpt lat="43.79229" lon="5.74758">
        <ele>327.79998779297</ele>
        <time>2020-12-23T13:10:14.000Z</time>
      </trkpt>
      <trkpt lat="43.79228" lon="5.74758">
        <ele>327.60000610352</ele>
        <time>2020-12-23T13:10:24.000Z</time>
      </trkpt>
      <trkpt lat="43.79226" lon="5.74759">
        <ele>327.79998779297</ele>
        <time>2020-12-23T13:10:30.000Z</time>
      </trkpt>
      <trkpt lat="43.79224" lon="5.74761">
        <ele>327.60000610352</ele>
        <time>2020-12-23T13:10:32.000Z</time>
      </trkpt>
      <trkpt lat="43.79222" lon="5.74765">
        <ele>327.60000610352</ele>
        <time>2020-12-23T13:10:34.000Z</time>
      </trkpt>
      <trkpt lat="43.79218" lon="5.7477">
        <ele>327.39999389648</ele>
        <time>2020-12-23T13:10:39.000Z</time>
      </trkpt>
      <trkpt lat="43.79216" lon="5.74772">
        <ele>326.79998779297</ele>
        <time>2020-12-23T13:10:41.000Z</time>
      </trkpt>
      <trkpt lat="43.79215" lon="5.74774">
        <ele>325.39999389648</ele>
        <time>2020-12-23T13:10:44.000Z</time>
      </trkpt>
      <trkpt lat="43.79215" lon="5.74774">
        <ele>324.20001220703</ele>
        <time>2020-12-23T13:10:47.000Z</time>
      </trkpt>
      <trkpt lat="43.79214" lon="5.74776">
        <ele>324</ele>
        <time>2020-12-23T13:10:50.000Z</time>
      </trkpt>
      <trkpt lat="43.79214" lon="5.74778">
        <ele>323.79998779297</ele>
        <time>2020-12-23T13:10:56.000Z</time>
      </trkpt>
      <trkpt lat="43.79213" lon="5.74779">
        <ele>324</ele>
        <time>2020-12-23T13:11:01.000Z</time>
      </trkpt>
      <trkpt lat="43.79211" lon="5.7478">
        <ele>324</ele>
        <time>2020-12-23T13:11:03.000Z</time>
      </trkpt>
      <trkpt lat="43.79207" lon="5.7478">
        <ele>324</ele>
        <time>2020-12-23T13:11:06.000Z</time>
      </trkpt>
      <trkpt lat="43.79207" lon="5.74781">
        <ele>324.20001220703</ele>
        <time>2020-12-23T13:11:11.000Z</time>
      </trkpt>
      <trkpt lat="43.79208" lon="5.74782">
        <ele>325.20001220703</ele>
        <time>2020-12-23T13:11:21.000Z</time>
      </trkpt>
      <trkpt lat="43.79208" lon="5.74782">
        <ele>325.20001220703</ele>
        <time>2020-12-23T13:11:34.000Z</time>
      </trkpt>
      <trkpt lat="43.79202" lon="5.74782">
        <ele>325.20001220703</ele>
        <time>2020-12-23T13:11:38.000Z</time>
      </trkpt>
      <trkpt lat="43.79195" lon="5.74786">
        <ele>325.20001220703</ele>
        <time>2020-12-23T13:11:42.000Z</time>
      </trkpt>
      <trkpt lat="43.79193" lon="5.7479">
        <ele>325.20001220703</ele>
        <time>2020-12-23T13:11:44.000Z</time>
      </trkpt>
      <trkpt lat="43.7919" lon="5.74796">
        <ele>325.79998779297</ele>
        <time>2020-12-23T13:11:47.000Z</time>
      </trkpt>
      <trkpt lat="43.79189" lon="5.74797">
        <ele>326.39999389648</ele>
        <time>2020-12-23T13:11:48.000Z</time>
      </trkpt>
      <trkpt lat="43.79188" lon="5.74798">
        <ele>327</ele>
        <time>2020-12-23T13:11:49.000Z</time>
      </trkpt>
      <trkpt lat="43.79187" lon="5.74798">
        <ele>327.60000610352</ele>
        <time>2020-12-23T13:11:50.000Z</time>
      </trkpt>
      <trkpt lat="43.79187" lon="5.74799">
        <ele>328.60000610352</ele>
        <time>2020-12-23T13:11:52.000Z</time>
      </trkpt>
      <trkpt lat="43.79187" lon="5.74799">
        <ele>329.60000610352</ele>
        <time>2020-12-23T13:11:54.000Z</time>
      </trkpt>
      <trkpt lat="43.79187" lon="5.74799">
        <ele>330</ele>
        <time>2020-12-23T13:11:55.000Z</time>
      </trkpt>
      <trkpt lat="43.79184" lon="5.748">
        <ele>331</ele>
        <time>2020-12-23T13:11:59.000Z</time>
      </trkpt>
      <trkpt lat="43.79182" lon="5.74799">
        <ele>331</ele>
        <time>2020-12-23T13:12:00.000Z</time>
      </trkpt>
      <trkpt lat="43.79176" lon="5.74795">
        <ele>331.20001220703</ele>
        <time>2020-12-23T13:12:04.000Z</time>
      </trkpt>
      <trkpt lat="43.79164" lon="5.74792">
        <ele>331.79998779297</ele>
        <time>2020-12-23T13:12:10.000Z</time>
      </trkpt>
      <trkpt lat="43.79162" lon="5.74792">
        <ele>332.20001220703</ele>
        <time>2020-12-23T13:12:11.000Z</time>
      </trkpt>
      <trkpt lat="43.79154" lon="5.74794">
        <ele>333.39999389648</ele>
        <time>2020-12-23T13:12:16.000Z</time>
      </trkpt>
      <trkpt lat="43.79149" lon="5.74796">
        <ele>334.60000610352</ele>
        <time>2020-12-23T13:12:20.000Z</time>
      </trkpt>
      <trkpt lat="43.79148" lon="5.74796">
        <ele>335</ele>
        <time>2020-12-23T13:12:23.000Z</time>
      </trkpt>
      <trkpt lat="43.79148" lon="5.74796">
        <ele>335.60000610352</ele>
        <time>2020-12-23T13:12:29.000Z</time>
      </trkpt>
      <trkpt lat="43.79148" lon="5.74796">
        <ele>335.60000610352</ele>
        <time>2020-12-23T13:12:32.000Z</time>
      </trkpt>
      <trkpt lat="43.79148" lon="5.74796">
        <ele>335.60000610352</ele>
        <time>2020-12-23T13:12:47.000Z</time>
      </trkpt>
      <trkpt lat="43.79148" lon="5.74798">
        <ele>335.79998779297</ele>
        <time>2020-12-23T13:13:18.000Z</time>
      </trkpt>
      <trkpt lat="43.79141" lon="5.74802">
        <ele>335.79998779297</ele>
        <time>2020-12-23T13:13:22.000Z</time>
      </trkpt>
      <trkpt lat="43.79126" lon="5.7481">
        <ele>336</ele>
        <time>2020-12-23T13:13:29.000Z</time>
      </trkpt>
      <trkpt lat="43.79116" lon="5.74817">
        <ele>336</ele>
        <time>2020-12-23T13:13:33.000Z</time>
      </trkpt>
      <trkpt lat="43.79109" lon="5.74824">
        <ele>336</ele>
        <time>2020-12-23T13:13:37.000Z</time>
      </trkpt>
      <trkpt lat="43.79107" lon="5.74825">
        <ele>336</ele>
        <time>2020-12-23T13:13:38.000Z</time>
      </trkpt>
      <trkpt lat="43.79091" lon="5.74826">
        <ele>337.20001220703</ele>
        <time>2020-12-23T13:13:46.000Z</time>
      </trkpt>
      <trkpt lat="43.79088" lon="5.74824">
        <ele>338.39999389648</ele>
        <time>2020-12-23T13:13:48.000Z</time>
      </trkpt>
      <trkpt lat="43.79082" lon="5.74821">
        <ele>339.79998779297</ele>
        <time>2020-12-23T13:13:51.000Z</time>
      </trkpt>
      <trkpt lat="43.79076" lon="5.74818">
        <ele>341</ele>
        <time>2020-12-23T13:13:54.000Z</time>
      </trkpt>
      <trkpt lat="43.7907" lon="5.74815">
        <ele>343</ele>
        <time>2020-12-23T13:13:57.000Z</time>
      </trkpt>
      <trkpt lat="43.79066" lon="5.74813">
        <ele>344</ele>
        <time>2020-12-23T13:13:59.000Z</time>
      </trkpt>
      <trkpt lat="43.79059" lon="5.74811">
        <ele>345.39999389648</ele>
        <time>2020-12-23T13:14:02.000Z</time>
      </trkpt>
      <trkpt lat="43.79053" lon="5.74809">
        <ele>346.79998779297</ele>
        <time>2020-12-23T13:14:05.000Z</time>
      </trkpt>
      <trkpt lat="43.79047" lon="5.74805">
        <ele>348</ele>
        <time>2020-12-23T13:14:08.000Z</time>
      </trkpt>
      <trkpt lat="43.7904" lon="5.74801">
        <ele>349.20001220703</ele>
        <time>2020-12-23T13:14:11.000Z</time>
      </trkpt>
      <trkpt lat="43.79035" lon="5.74796">
        <ele>350.20001220703</ele>
        <time>2020-12-23T13:14:14.000Z</time>
      </trkpt>
      <trkpt lat="43.79029" lon="5.74793">
        <ele>351.39999389648</ele>
        <time>2020-12-23T13:14:17.000Z</time>
      </trkpt>
      <trkpt lat="43.79027" lon="5.74793">
        <ele>351.79998779297</ele>
        <time>2020-12-23T13:14:18.000Z</time>
      </trkpt>
      <trkpt lat="43.79023" lon="5.74792">
        <ele>352.60000610352</ele>
        <time>2020-12-23T13:14:20.000Z</time>
      </trkpt>
      <trkpt lat="43.79018" lon="5.74792">
        <ele>353.79998779297</ele>
        <time>2020-12-23T13:14:23.000Z</time>
      </trkpt>
      <trkpt lat="43.79013" lon="5.74794">
        <ele>354.79998779297</ele>
        <time>2020-12-23T13:14:27.000Z</time>
      </trkpt>
      <trkpt lat="43.79012" lon="5.74794">
        <ele>355</ele>
        <time>2020-12-23T13:14:28.000Z</time>
      </trkpt>
      <trkpt lat="43.79011" lon="5.74794">
        <ele>355.20001220703</ele>
        <time>2020-12-23T13:14:29.000Z</time>
      </trkpt>
      <trkpt lat="43.7901" lon="5.74791">
        <ele>355.60000610352</ele>
        <time>2020-12-23T13:14:31.000Z</time>
      </trkpt>
      <trkpt lat="43.79004" lon="5.74788">
        <ele>356</ele>
        <time>2020-12-23T13:14:35.000Z</time>
      </trkpt>
      <trkpt lat="43.79002" lon="5.74788">
        <ele>356.20001220703</ele>
        <time>2020-12-23T13:14:36.000Z</time>
      </trkpt>
      <trkpt lat="43.78991" lon="5.74787">
        <ele>357.39999389648</ele>
        <time>2020-12-23T13:14:41.000Z</time>
      </trkpt>
      <trkpt lat="43.78989" lon="5.74786">
        <ele>357.79998779297</ele>
        <time>2020-12-23T13:14:42.000Z</time>
      </trkpt>
      <trkpt lat="43.78985" lon="5.74784">
        <ele>358.60000610352</ele>
        <time>2020-12-23T13:14:44.000Z</time>
      </trkpt>
      <trkpt lat="43.78981" lon="5.74784">
        <ele>359.60000610352</ele>
        <time>2020-12-23T13:14:47.000Z</time>
      </trkpt>
      <trkpt lat="43.78979" lon="5.74784">
        <ele>360</ele>
        <time>2020-12-23T13:14:48.000Z</time>
      </trkpt>
      <trkpt lat="43.78974" lon="5.74783">
        <ele>361</ele>
        <time>2020-12-23T13:14:51.000Z</time>
      </trkpt>
      <trkpt lat="43.78971" lon="5.74784">
        <ele>362.39999389648</ele>
        <time>2020-12-23T13:14:53.000Z</time>
      </trkpt>
      <trkpt lat="43.78969" lon="5.74783">
        <ele>363</ele>
        <time>2020-12-23T13:14:54.000Z</time>
      </trkpt>
      <trkpt lat="43.78968" lon="5.74782">
        <ele>363.60000610352</ele>
        <time>2020-12-23T13:14:55.000Z</time>
      </trkpt>
      <trkpt lat="43.78967" lon="5.74778">
        <ele>364.60000610352</ele>
        <time>2020-12-23T13:14:57.000Z</time>
      </trkpt>
      <trkpt lat="43.78967" lon="5.74776">
        <ele>365</ele>
        <time>2020-12-23T13:14:58.000Z</time>
      </trkpt>
      <trkpt lat="43.78964" lon="5.74773">
        <ele>365.79998779297</ele>
        <time>2020-12-23T13:15:00.000Z</time>
      </trkpt>
      <trkpt lat="43.7896" lon="5.74773">
        <ele>366.60000610352</ele>
        <time>2020-12-23T13:15:02.000Z</time>
      </trkpt>
      <trkpt lat="43.78958" lon="5.74772">
        <ele>366.79998779297</ele>
        <time>2020-12-23T13:15:03.000Z</time>
      </trkpt>
      <trkpt lat="43.78947" lon="5.74771">
        <ele>368.20001220703</ele>
        <time>2020-12-23T13:15:08.000Z</time>
      </trkpt>
      <trkpt lat="43.78946" lon="5.7477">
        <ele>368.39999389648</ele>
        <time>2020-12-23T13:15:09.000Z</time>
      </trkpt>
      <trkpt lat="43.7894" lon="5.74768">
        <ele>369.39999389648</ele>
        <time>2020-12-23T13:15:12.000Z</time>
      </trkpt>
      <trkpt lat="43.78936" lon="5.74765">
        <ele>370.60000610352</ele>
        <time>2020-12-23T13:15:15.000Z</time>
      </trkpt>
      <trkpt lat="43.78932" lon="5.74764">
        <ele>371.60000610352</ele>
        <time>2020-12-23T13:15:18.000Z</time>
      </trkpt>
      <trkpt lat="43.78929" lon="5.74764">
        <ele>373.20001220703</ele>
        <time>2020-12-23T13:15:20.000Z</time>
      </trkpt>
      <trkpt lat="43.78927" lon="5.74763">
        <ele>373.60000610352</ele>
        <time>2020-12-23T13:15:21.000Z</time>
      </trkpt>
      <trkpt lat="43.78924" lon="5.74763">
        <ele>374.20001220703</ele>
        <time>2020-12-23T13:15:22.000Z</time>
      </trkpt>
      <trkpt lat="43.78921" lon="5.74762">
        <ele>375.20001220703</ele>
        <time>2020-12-23T13:15:24.000Z</time>
      </trkpt>
      <trkpt lat="43.78919" lon="5.74759">
        <ele>376.39999389648</ele>
        <time>2020-12-23T13:15:26.000Z</time>
      </trkpt>
      <trkpt lat="43.78916" lon="5.74755">
        <ele>377.60000610352</ele>
        <time>2020-12-23T13:15:28.000Z</time>
      </trkpt>
      <trkpt lat="43.78915" lon="5.74754">
        <ele>378</ele>
        <time>2020-12-23T13:15:29.000Z</time>
      </trkpt>
      <trkpt lat="43.78909" lon="5.74751">
        <ele>379</ele>
        <time>2020-12-23T13:15:32.000Z</time>
      </trkpt>
      <trkpt lat="43.78902" lon="5.74751">
        <ele>380</ele>
        <time>2020-12-23T13:15:35.000Z</time>
      </trkpt>
      <trkpt lat="43.78896" lon="5.74749">
        <ele>381</ele>
        <time>2020-12-23T13:15:38.000Z</time>
      </trkpt>
      <trkpt lat="43.78889" lon="5.74741">
        <ele>382.20001220703</ele>
        <time>2020-12-23T13:15:42.000Z</time>
      </trkpt>
      <trkpt lat="43.78887" lon="5.74739">
        <ele>382.39999389648</ele>
        <time>2020-12-23T13:15:43.000Z</time>
      </trkpt>
      <trkpt lat="43.78882" lon="5.74733">
        <ele>383.20001220703</ele>
        <time>2020-12-23T13:15:46.000Z</time>
      </trkpt>
      <trkpt lat="43.78876" lon="5.7473">
        <ele>384.20001220703</ele>
        <time>2020-12-23T13:15:49.000Z</time>
      </trkpt>
      <trkpt lat="43.78875" lon="5.74729">
        <ele>384.60000610352</ele>
        <time>2020-12-23T13:15:50.000Z</time>
      </trkpt>
      <trkpt lat="43.78871" lon="5.74725">
        <ele>385.79998779297</ele>
        <time>2020-12-23T13:15:53.000Z</time>
      </trkpt>
      <trkpt lat="43.7887" lon="5.74722">
        <ele>386.60000610352</ele>
        <time>2020-12-23T13:15:55.000Z</time>
      </trkpt>
      <trkpt lat="43.78869" lon="5.7472">
        <ele>387</ele>
        <time>2020-12-23T13:15:56.000Z</time>
      </trkpt>
      <trkpt lat="43.78865" lon="5.74715">
        <ele>388.20001220703</ele>
        <time>2020-12-23T13:16:00.000Z</time>
      </trkpt>
      <trkpt lat="43.78864" lon="5.74714">
        <ele>388.60000610352</ele>
        <time>2020-12-23T13:16:01.000Z</time>
      </trkpt>
      <trkpt lat="43.78861" lon="5.74713">
        <ele>389.39999389648</ele>
        <time>2020-12-23T13:16:04.000Z</time>
      </trkpt>
      <trkpt lat="43.78861" lon="5.74713">
        <ele>389.79998779297</ele>
        <time>2020-12-23T13:16:06.000Z</time>
      </trkpt>
      <trkpt lat="43.78862" lon="5.74713">
        <ele>390</ele>
        <time>2020-12-23T13:16:07.000Z</time>
      </trkpt>
      <trkpt lat="43.78861" lon="5.74713">
        <ele>390.39999389648</ele>
        <time>2020-12-23T13:16:10.000Z</time>
      </trkpt>
      <trkpt lat="43.78861" lon="5.74713">
        <ele>390.60000610352</ele>
        <time>2020-12-23T13:16:11.000Z</time>
      </trkpt>
      <trkpt lat="43.78861" lon="5.74712">
        <ele>390.79998779297</ele>
        <time>2020-12-23T13:16:16.000Z</time>
      </trkpt>
      <trkpt lat="43.7886" lon="5.74712">
        <ele>390.79998779297</ele>
        <time>2020-12-23T13:16:22.000Z</time>
      </trkpt>
      <trkpt lat="43.78857" lon="5.74712">
        <ele>390.79998779297</ele>
        <time>2020-12-23T13:16:24.000Z</time>
      </trkpt>
      <trkpt lat="43.78846" lon="5.7471">
        <ele>390.79998779297</ele>
        <time>2020-12-23T13:16:29.000Z</time>
      </trkpt>
      <trkpt lat="43.78839" lon="5.74714">
        <ele>391</ele>
        <time>2020-12-23T13:16:33.000Z</time>
      </trkpt>
      <trkpt lat="43.78838" lon="5.74716">
        <ele>391</ele>
        <time>2020-12-23T13:16:34.000Z</time>
      </trkpt>
      <trkpt lat="43.78839" lon="5.74726">
        <ele>391.20001220703</ele>
        <time>2020-12-23T13:16:37.000Z</time>
      </trkpt>
      <trkpt lat="43.78839" lon="5.74729">
        <ele>391.20001220703</ele>
        <time>2020-12-23T13:16:38.000Z</time>
      </trkpt>
      <trkpt lat="43.78839" lon="5.74736">
        <ele>391.39999389648</ele>
        <time>2020-12-23T13:16:40.000Z</time>
      </trkpt>
      <trkpt lat="43.78837" lon="5.7474">
        <ele>391.39999389648</ele>
        <time>2020-12-23T13:16:42.000Z</time>
      </trkpt>
      <trkpt lat="43.78834" lon="5.74743">
        <ele>391.60000610352</ele>
        <time>2020-12-23T13:16:44.000Z</time>
      </trkpt>
      <trkpt lat="43.78829" lon="5.74753">
        <ele>392</ele>
        <time>2020-12-23T13:16:48.000Z</time>
      </trkpt>
      <trkpt lat="43.7883" lon="5.74767">
        <ele>391.79998779297</ele>
        <time>2020-12-23T13:16:52.000Z</time>
      </trkpt>
      <trkpt lat="43.7883" lon="5.74769">
        <ele>391.79998779297</ele>
        <time>2020-12-23T13:16:53.000Z</time>
      </trkpt>
      <trkpt lat="43.78787" lon="5.74292">
        <ele>409.60000610352</ele>
        <time>2020-12-23T13:22:20.000Z</time>
      </trkpt>
      <trkpt lat="43.78787" lon="5.74291">
        <ele>410.39999389648</ele>
        <time>2020-12-23T13:22:23.000Z</time>
      </trkpt>
      <trkpt lat="43.78787" lon="5.7429">
        <ele>410.79998779297</ele>
        <time>2020-12-23T13:22:24.000Z</time>
      </trkpt>
      <trkpt lat="43.78787" lon="5.7429">
        <ele>411.79998779297</ele>
        <time>2020-12-23T13:22:28.000Z</time>
      </trkpt>
      <trkpt lat="43.78787" lon="5.74288">
        <ele>412</ele>
        <time>2020-12-23T13:22:32.000Z</time>
      </trkpt>
      <trkpt lat="43.78787" lon="5.74284">
        <ele>412</ele>
        <time>2020-12-23T13:22:40.000Z</time>
      </trkpt>
      <trkpt lat="43.78787" lon="5.74282">
        <ele>412.79998779297</ele>
        <time>2020-12-23T13:22:47.000Z</time>
      </trkpt>
      <trkpt lat="43.78787" lon="5.74282">
        <ele>412.79998779297</ele>
        <time>2020-12-23T13:22:48.000Z</time>
      </trkpt>
      <trkpt lat="43.78787" lon="5.74281">
        <ele>413</ele>
        <time>2020-12-23T13:22:55.000Z</time>
      </trkpt>
      <trkpt lat="43.78785" lon="5.74275">
        <ele>413.20001220703</ele>
        <time>2020-12-23T13:23:04.000Z</time>
      </trkpt>
      <trkpt lat="43.78781" lon="5.74259">
        <ele>413.39999389648</ele>
        <time>2020-12-23T13:23:10.000Z</time>
      </trkpt>
      <trkpt lat="43.78777" lon="5.74247">
        <ele>414</ele>
        <time>2020-12-23T13:23:14.000Z</time>
      </trkpt>
      <trkpt lat="43.78775" lon="5.74241">
        <ele>414.79998779297</ele>
        <time>2020-12-23T13:23:16.000Z</time>
      </trkpt>
      <trkpt lat="43.78774" lon="5.74238">
        <ele>415.39999389648</ele>
        <time>2020-12-23T13:23:17.000Z</time>
      </trkpt>
      <trkpt lat="43.78771" lon="5.7423">
        <ele>416.60000610352</ele>
        <time>2020-12-23T13:23:20.000Z</time>
      </trkpt>
      <trkpt lat="43.78768" lon="5.7422">
        <ele>417.39999389648</ele>
        <time>2020-12-23T13:23:23.000Z</time>
      </trkpt>
      <trkpt lat="43.78767" lon="5.74217">
        <ele>417.60000610352</ele>
        <time>2020-12-23T13:23:24.000Z</time>
      </trkpt>
      <trkpt lat="43.78765" lon="5.74208">
        <ele>418.79998779297</ele>
        <time>2020-12-23T13:23:27.000Z</time>
      </trkpt>
      <trkpt lat="43.78762" lon="5.74199">
        <ele>419.79998779297</ele>
        <time>2020-12-23T13:23:30.000Z</time>
      </trkpt>
      <trkpt lat="43.78762" lon="5.74196">
        <ele>420.60000610352</ele>
        <time>2020-12-23T13:23:31.000Z</time>
      </trkpt>
      <trkpt lat="43.78761" lon="5.74193">
        <ele>421</ele>
        <time>2020-12-23T13:23:32.000Z</time>
      </trkpt>
      <trkpt lat="43.78759" lon="5.74184">
        <ele>422.20001220703</ele>
        <time>2020-12-23T13:23:35.000Z</time>
      </trkpt>
      <trkpt lat="43.78757" lon="5.74176">
        <ele>423.39999389648</ele>
        <time>2020-12-23T13:23:38.000Z</time>
      </trkpt>
      <trkpt lat="43.78756" lon="5.7417">
        <ele>424.20001220703</ele>
        <time>2020-12-23T13:23:40.000Z</time>
      </trkpt>
      <trkpt lat="43.78755" lon="5.74167">
        <ele>424.60000610352</ele>
        <time>2020-12-23T13:23:41.000Z</time>
      </trkpt>
      <trkpt lat="43.78754" lon="5.74156">
        <ele>425.60000610352</ele>
        <time>2020-12-23T13:23:44.000Z</time>
      </trkpt>
      <trkpt lat="43.78755" lon="5.7415">
        <ele>426.39999389648</ele>
        <time>2020-12-23T13:23:46.000Z</time>
      </trkpt>
      <trkpt lat="43.78756" lon="5.74147">
        <ele>426.60000610352</ele>
        <time>2020-12-23T13:23:47.000Z</time>
      </trkpt>
      <trkpt lat="43.78755" lon="5.74138">
        <ele>427.60000610352</ele>
        <time>2020-12-23T13:23:50.000Z</time>
      </trkpt>
      <trkpt lat="43.78756" lon="5.74128">
        <ele>428.60000610352</ele>
        <time>2020-12-23T13:23:53.000Z</time>
      </trkpt>
      <trkpt lat="43.78758" lon="5.74114">
        <ele>430</ele>
        <time>2020-12-23T13:23:57.000Z</time>
      </trkpt>
      <trkpt lat="43.78757" lon="5.74104">
        <ele>431</ele>
        <time>2020-12-23T13:24:00.000Z</time>
      </trkpt>
      <trkpt lat="43.78756" lon="5.74094">
        <ele>431.79998779297</ele>
        <time>2020-12-23T13:24:03.000Z</time>
      </trkpt>
      <trkpt lat="43.78755" lon="5.74091">
        <ele>432.20001220703</ele>
        <time>2020-12-23T13:24:04.000Z</time>
      </trkpt>
      <trkpt lat="43.78748" lon="5.74076">
        <ele>433.20001220703</ele>
        <time>2020-12-23T13:24:09.000Z</time>
      </trkpt>
      <trkpt lat="43.78746" lon="5.74056">
        <ele>434.39999389648</ele>
        <time>2020-12-23T13:24:15.000Z</time>
      </trkpt>
      <trkpt lat="43.78746" lon="5.74052">
        <ele>434.39999389648</ele>
        <time>2020-12-23T13:24:16.000Z</time>
      </trkpt>
      <trkpt lat="43.7875" lon="5.74036">
        <ele>435.60000610352</ele>
        <time>2020-12-23T13:24:21.000Z</time>
      </trkpt>
      <trkpt lat="43.78751" lon="5.74026">
        <ele>436.39999389648</ele>
        <time>2020-12-23T13:24:24.000Z</time>
      </trkpt>
      <trkpt lat="43.78751" lon="5.74023">
        <ele>436.79998779297</ele>
        <time>2020-12-23T13:24:25.000Z</time>
      </trkpt>
      <trkpt lat="43.78751" lon="5.74009">
        <ele>438</ele>
        <time>2020-12-23T13:24:29.000Z</time>
      </trkpt>
      <trkpt lat="43.78749" lon="5.74004">
        <ele>438.60000610352</ele>
        <time>2020-12-23T13:24:31.000Z</time>
      </trkpt>
      <trkpt lat="43.78748" lon="5.73999">
        <ele>439.20001220703</ele>
        <time>2020-12-23T13:24:33.000Z</time>
      </trkpt>
      <trkpt lat="43.78743" lon="5.73989">
        <ele>440.39999389648</ele>
        <time>2020-12-23T13:24:37.000Z</time>
      </trkpt>
      <trkpt lat="43.78742" lon="5.73987">
        <ele>440.79998779297</ele>
        <time>2020-12-23T13:24:38.000Z</time>
      </trkpt>
      <trkpt lat="43.7874" lon="5.73986">
        <ele>441</ele>
        <time>2020-12-23T13:24:39.000Z</time>
      </trkpt>
      <trkpt lat="43.78735" lon="5.73986">
        <ele>441.60000610352</ele>
        <time>2020-12-23T13:24:41.000Z</time>
      </trkpt>
      <trkpt lat="43.78733" lon="5.73987">
        <ele>441.79998779297</ele>
        <time>2020-12-23T13:24:42.000Z</time>
      </trkpt>
      <trkpt lat="43.78731" lon="5.73988">
        <ele>442</ele>
        <time>2020-12-23T13:24:43.000Z</time>
      </trkpt>
      <trkpt lat="43.78726" lon="5.7399">
        <ele>442.79998779297</ele>
        <time>2020-12-23T13:24:45.000Z</time>
      </trkpt>
      <trkpt lat="43.78719" lon="5.73997">
        <ele>444</ele>
        <time>2020-12-23T13:24:49.000Z</time>
      </trkpt>
      <trkpt lat="43.78713" lon="5.74004">
        <ele>445.20001220703</ele>
        <time>2020-12-23T13:24:53.000Z</time>
      </trkpt>
      <trkpt lat="43.78711" lon="5.74005">
        <ele>445.79998779297</ele>
        <time>2020-12-23T13:24:54.000Z</time>
      </trkpt>
      <trkpt lat="43.78706" lon="5.74006">
        <ele>446.39999389648</ele>
        <time>2020-12-23T13:24:56.000Z</time>
      </trkpt>
      <trkpt lat="43.78699" lon="5.74008">
        <ele>447.79998779297</ele>
        <time>2020-12-23T13:24:59.000Z</time>
      </trkpt>
      <trkpt lat="43.78692" lon="5.74009">
        <ele>449.20001220703</ele>
        <time>2020-12-23T13:25:02.000Z</time>
      </trkpt>
      <trkpt lat="43.78685" lon="5.74008">
        <ele>450.20001220703</ele>
        <time>2020-12-23T13:25:05.000Z</time>
      </trkpt>
      <trkpt lat="43.78678" lon="5.74008">
        <ele>451.20001220703</ele>
        <time>2020-12-23T13:25:08.000Z</time>
      </trkpt>
      <trkpt lat="43.78676" lon="5.74009">
        <ele>451.39999389648</ele>
        <time>2020-12-23T13:25:09.000Z</time>
      </trkpt>
      <trkpt lat="43.78668" lon="5.7401">
        <ele>452.60000610352</ele>
        <time>2020-12-23T13:25:12.000Z</time>
      </trkpt>
      <trkpt lat="43.78658" lon="5.74012">
        <ele>453.39999389648</ele>
        <time>2020-12-23T13:25:15.000Z</time>
      </trkpt>
      <trkpt lat="43.78656" lon="5.74012">
        <ele>453.79998779297</ele>
        <time>2020-12-23T13:25:16.000Z</time>
      </trkpt>
      <trkpt lat="43.78646" lon="5.74014">
        <ele>455.20001220703</ele>
        <time>2020-12-23T13:25:20.000Z</time>
      </trkpt>
      <trkpt lat="43.78639" lon="5.74016">
        <ele>456.20001220703</ele>
        <time>2020-12-23T13:25:23.000Z</time>
      </trkpt>
      <trkpt lat="43.78626" lon="5.7402">
        <ele>457.20001220703</ele>
        <time>2020-12-23T13:25:28.000Z</time>
      </trkpt>
      <trkpt lat="43.78621" lon="5.74023">
        <ele>457.79998779297</ele>
        <time>2020-12-23T13:25:30.000Z</time>
      </trkpt>
      <trkpt lat="43.78613" lon="5.74026">
        <ele>458.60000610352</ele>
        <time>2020-12-23T13:25:33.000Z</time>
      </trkpt>
      <trkpt lat="43.78603" lon="5.74028">
        <ele>459.79998779297</ele>
        <time>2020-12-23T13:25:37.000Z</time>
      </trkpt>
      <trkpt lat="43.78592" lon="5.74029">
        <ele>461</ele>
        <time>2020-12-23T13:25:41.000Z</time>
      </trkpt>
      <trkpt lat="43.78581" lon="5.74031">
        <ele>462</ele>
        <time>2020-12-23T13:25:45.000Z</time>
      </trkpt>
      <trkpt lat="43.78578" lon="5.74031">
        <ele>462.39999389648</ele>
        <time>2020-12-23T13:25:46.000Z</time>
      </trkpt>
      <trkpt lat="43.78569" lon="5.74033">
        <ele>463.39999389648</ele>
        <time>2020-12-23T13:25:49.000Z</time>
      </trkpt>
      <trkpt lat="43.78564" lon="5.74034">
        <ele>463.79998779297</ele>
        <time>2020-12-23T13:25:51.000Z</time>
      </trkpt>
      <trkpt lat="43.78558" lon="5.74035">
        <ele>464.39999389648</ele>
        <time>2020-12-23T13:25:53.000Z</time>
      </trkpt>
      <trkpt lat="43.78549" lon="5.74037">
        <ele>465.20001220703</ele>
        <time>2020-12-23T13:25:56.000Z</time>
      </trkpt>
      <trkpt lat="43.78543" lon="5.74037">
        <ele>465.60000610352</ele>
        <time>2020-12-23T13:25:58.000Z</time>
      </trkpt>
      <trkpt lat="43.78535" lon="5.74035">
        <ele>466</ele>
        <time>2020-12-23T13:26:01.000Z</time>
      </trkpt>
      <trkpt lat="43.78526" lon="5.74033">
        <ele>466.79998779297</ele>
        <time>2020-12-23T13:26:06.000Z</time>
      </trkpt>
      <trkpt lat="43.78525" lon="5.74033">
        <ele>466.79998779297</ele>
        <time>2020-12-23T13:26:07.000Z</time>
      </trkpt>
      <trkpt lat="43.78523" lon="5.74033">
        <ele>467.60000610352</ele>
        <time>2020-12-23T13:26:13.000Z</time>
      </trkpt>
      <trkpt lat="43.78523" lon="5.74033">
        <ele>467.79998779297</ele>
        <time>2020-12-23T13:26:14.000Z</time>
      </trkpt>
      <trkpt lat="43.78523" lon="5.74033">
        <ele>468</ele>
        <time>2020-12-23T13:26:24.000Z</time>
      </trkpt>
      <trkpt lat="43.78523" lon="5.74033">
        <ele>468.20001220703</ele>
        <time>2020-12-23T13:26:30.000Z</time>
      </trkpt>
      <trkpt lat="43.78523" lon="5.74033">
        <ele>468.20001220703</ele>
        <time>2020-12-23T13:26:40.000Z</time>
      </trkpt>
      <trkpt lat="43.78523" lon="5.74033">
        <ele>468.20001220703</ele>
        <time>2020-12-23T13:26:51.000Z</time>
      </trkpt>
      <trkpt lat="43.78523" lon="5.74032">
        <ele>468.20001220703</ele>
        <time>2020-12-23T13:27:02.000Z</time>
      </trkpt>
      <trkpt lat="43.78523" lon="5.74032">
        <ele>468.39999389648</ele>
        <time>2020-12-23T13:27:21.000Z</time>
      </trkpt>
      <trkpt lat="43.78523" lon="5.74032">
        <ele>468.20001220703</ele>
        <time>2020-12-23T13:27:33.000Z</time>
      </trkpt>
      <trkpt lat="43.78522" lon="5.74033">
        <ele>468.20001220703</ele>
        <time>2020-12-23T13:27:52.000Z</time>
      </trkpt>
      <trkpt lat="43.78518" lon="5.74036">
        <ele>468.20001220703</ele>
        <time>2020-12-23T13:27:59.000Z</time>
      </trkpt>
      <trkpt lat="43.78509" lon="5.7406">
        <ele>468.20001220703</ele>
        <time>2020-12-23T13:28:05.000Z</time>
      </trkpt>
      <trkpt lat="43.78508" lon="5.74064">
        <ele>468</ele>
        <time>2020-12-23T13:28:08.000Z</time>
      </trkpt>
      <trkpt lat="43.78507" lon="5.74065">
        <ele>467.60000610352</ele>
        <time>2020-12-23T13:28:17.000Z</time>
      </trkpt>
      <trkpt lat="43.78505" lon="5.74066">
        <ele>467.60000610352</ele>
        <time>2020-12-23T13:28:18.000Z</time>
      </trkpt>
      <trkpt lat="43.78496" lon="5.74079">
        <ele>467.60000610352</ele>
        <time>2020-12-23T13:28:22.000Z</time>
      </trkpt>
      <trkpt lat="43.78489" lon="5.74092">
        <ele>467.60000610352</ele>
        <time>2020-12-23T13:28:26.000Z</time>
      </trkpt>
      <trkpt lat="43.78486" lon="5.74097">
        <ele>467.39999389648</ele>
        <time>2020-12-23T13:28:28.000Z</time>
      </trkpt>
      <trkpt lat="43.78481" lon="5.74107">
        <ele>467.39999389648</ele>
        <time>2020-12-23T13:28:32.000Z</time>
      </trkpt>
      <trkpt lat="43.78475" lon="5.74119">
        <ele>467.20001220703</ele>
        <time>2020-12-23T13:28:36.000Z</time>
      </trkpt>
      <trkpt lat="43.78472" lon="5.74125">
        <ele>467.20001220703</ele>
        <time>2020-12-23T13:28:38.000Z</time>
      </trkpt>
      <trkpt lat="43.78465" lon="5.74145">
        <ele>467.39999389648</ele>
        <time>2020-12-23T13:28:44.000Z</time>
      </trkpt>
      <trkpt lat="43.78464" lon="5.7417">
        <ele>467.60000610352</ele>
        <time>2020-12-23T13:28:51.000Z</time>
      </trkpt>
      <trkpt lat="43.78459" lon="5.74195">
        <ele>468.60000610352</ele>
        <time>2020-12-23T13:28:59.000Z</time>
      </trkpt>
      <trkpt lat="43.78456" lon="5.74211">
        <ele>469.60000610352</ele>
        <time>2020-12-23T13:29:04.000Z</time>
      </trkpt>
      <trkpt lat="43.78455" lon="5.74223">
        <ele>470.39999389648</ele>
        <time>2020-12-23T13:29:08.000Z</time>
      </trkpt>
      <trkpt lat="43.78454" lon="5.7423">
        <ele>470.60000610352</ele>
        <time>2020-12-23T13:29:10.000Z</time>
      </trkpt>
      <trkpt lat="43.78452" lon="5.74243">
        <ele>471.79998779297</ele>
        <time>2020-12-23T13:29:14.000Z</time>
      </trkpt>
      <trkpt lat="43.78451" lon="5.74255">
        <ele>473</ele>
        <time>2020-12-23T13:29:18.000Z</time>
      </trkpt>
      <trkpt lat="43.78449" lon="5.74264">
        <ele>474.20001220703</ele>
        <time>2020-12-23T13:29:21.000Z</time>
      </trkpt>
      <trkpt lat="43.78448" lon="5.74278">
        <ele>475.20001220703</ele>
        <time>2020-12-23T13:29:25.000Z</time>
      </trkpt>
      <trkpt lat="43.78447" lon="5.74286">
        <ele>476</ele>
        <time>2020-12-23T13:29:27.000Z</time>
      </trkpt>
      <trkpt lat="43.78446" lon="5.74292">
        <ele>476.60000610352</ele>
        <time>2020-12-23T13:29:29.000Z</time>
      </trkpt>
      <trkpt lat="43.78443" lon="5.74309">
        <ele>476.79998779297</ele>
        <time>2020-12-23T13:29:34.000Z</time>
      </trkpt>
      <trkpt lat="43.78439" lon="5.7433">
        <ele>477.39999389648</ele>
        <time>2020-12-23T13:29:42.000Z</time>
      </trkpt>
      <trkpt lat="43.78438" lon="5.74333">
        <ele>477.60000610352</ele>
        <time>2020-12-23T13:29:43.000Z</time>
      </trkpt>
      <trkpt lat="43.78436" lon="5.74342">
        <ele>478.60000610352</ele>
        <time>2020-12-23T13:29:46.000Z</time>
      </trkpt>
      <trkpt lat="43.78433" lon="5.74346">
        <ele>479.20001220703</ele>
        <time>2020-12-23T13:29:48.000Z</time>
      </trkpt>
      <trkpt lat="43.78429" lon="5.74348">
        <ele>479.79998779297</ele>
        <time>2020-12-23T13:29:50.000Z</time>
      </trkpt>
      <trkpt lat="43.78425" lon="5.74355">
        <ele>480.60000610352</ele>
        <time>2020-12-23T13:29:54.000Z</time>
      </trkpt>
      <trkpt lat="43.78427" lon="5.74358">
        <ele>481.20001220703</ele>
        <time>2020-12-23T13:29:56.000Z</time>
      </trkpt>
      <trkpt lat="43.78432" lon="5.74361">
        <ele>481.60000610352</ele>
        <time>2020-12-23T13:29:58.000Z</time>
      </trkpt>
      <trkpt lat="43.78434" lon="5.74369">
        <ele>482.60000610352</ele>
        <time>2020-12-23T13:30:02.000Z</time>
      </trkpt>
      <trkpt lat="43.78433" lon="5.74374">
        <ele>483</ele>
        <time>2020-12-23T13:30:04.000Z</time>
      </trkpt>
      <trkpt lat="43.78429" lon="5.74386">
        <ele>483.79998779297</ele>
        <time>2020-12-23T13:30:08.000Z</time>
      </trkpt>
      <trkpt lat="43.78427" lon="5.74381">
        <ele>484.39999389648</ele>
        <time>2020-12-23T13:30:11.000Z</time>
      </trkpt>
      <trkpt lat="43.78422" lon="5.74374">
        <ele>485</ele>
        <time>2020-12-23T13:30:14.000Z</time>
      </trkpt>
      <trkpt lat="43.78417" lon="5.74373">
        <ele>485.20001220703</ele>
        <time>2020-12-23T13:30:16.000Z</time>
      </trkpt>
      <trkpt lat="43.7841" lon="5.74372">
        <ele>486.20001220703</ele>
        <time>2020-12-23T13:30:19.000Z</time>
      </trkpt>
      <trkpt lat="43.78402" lon="5.74371">
        <ele>486.79998779297</ele>
        <time>2020-12-23T13:30:22.000Z</time>
      </trkpt>
      <trkpt lat="43.78401" lon="5.74375">
        <ele>487</ele>
        <time>2020-12-23T13:30:24.000Z</time>
      </trkpt>
      <trkpt lat="43.78403" lon="5.74377">
        <ele>487.20001220703</ele>
        <time>2020-12-23T13:30:25.000Z</time>
      </trkpt>
      <trkpt lat="43.78405" lon="5.74378">
        <ele>487.39999389648</ele>
        <time>2020-12-23T13:30:26.000Z</time>
      </trkpt>
      <trkpt lat="43.78409" lon="5.74381">
        <ele>487.60000610352</ele>
        <time>2020-12-23T13:30:28.000Z</time>
      </trkpt>
      <trkpt lat="43.78411" lon="5.74389">
        <ele>488.20001220703</ele>
        <time>2020-12-23T13:30:32.000Z</time>
      </trkpt>
      <trkpt lat="43.7841" lon="5.74391">
        <ele>488.39999389648</ele>
        <time>2020-12-23T13:30:33.000Z</time>
      </trkpt>
      <trkpt lat="43.78402" lon="5.74392">
        <ele>489.20001220703</ele>
        <time>2020-12-23T13:30:37.000Z</time>
      </trkpt>
      <trkpt lat="43.78399" lon="5.74393">
        <ele>489.60000610352</ele>
        <time>2020-12-23T13:30:38.000Z</time>
      </trkpt>
      <trkpt lat="43.78392" lon="5.74394">
        <ele>490.60000610352</ele>
        <time>2020-12-23T13:30:41.000Z</time>
      </trkpt>
      <trkpt lat="43.7839" lon="5.74395">
        <ele>490.79998779297</ele>
        <time>2020-12-23T13:30:42.000Z</time>
      </trkpt>
      <trkpt lat="43.78389" lon="5.74401">
        <ele>491.60000610352</ele>
        <time>2020-12-23T13:30:45.000Z</time>
      </trkpt>
      <trkpt lat="43.7839" lon="5.74403">
        <ele>491.79998779297</ele>
        <time>2020-12-23T13:30:46.000Z</time>
      </trkpt>
      <trkpt lat="43.78395" lon="5.74413">
        <ele>492.79998779297</ele>
        <time>2020-12-23T13:30:50.000Z</time>
      </trkpt>
      <trkpt lat="43.78395" lon="5.74421">
        <ele>493.79998779297</ele>
        <time>2020-12-23T13:30:53.000Z</time>
      </trkpt>
      <trkpt lat="43.78394" lon="5.74422">
        <ele>494</ele>
        <time>2020-12-23T13:30:54.000Z</time>
      </trkpt>
      <trkpt lat="43.7839" lon="5.74415">
        <ele>494.60000610352</ele>
        <time>2020-12-23T13:30:57.000Z</time>
      </trkpt>
      <trkpt lat="43.78386" lon="5.74407">
        <ele>495</ele>
        <time>2020-12-23T13:30:59.000Z</time>
      </trkpt>
      <trkpt lat="43.78379" lon="5.74404">
        <ele>495.39999389648</ele>
        <time>2020-12-23T13:31:01.000Z</time>
      </trkpt>
      <trkpt lat="43.78369" lon="5.74406">
        <ele>495.79998779297</ele>
        <time>2020-12-23T13:31:04.000Z</time>
      </trkpt>
      <trkpt lat="43.78363" lon="5.74408">
        <ele>496</ele>
        <time>2020-12-23T13:31:06.000Z</time>
      </trkpt>
      <trkpt lat="43.7836" lon="5.74408">
        <ele>496</ele>
        <time>2020-12-23T13:31:07.000Z</time>
      </trkpt>
      <trkpt lat="43.78358" lon="5.74405">
        <ele>496</ele>
        <time>2020-12-23T13:31:08.000Z</time>
      </trkpt>
      <trkpt lat="43.78358" lon="5.74403">
        <ele>496.20001220703</ele>
        <time>2020-12-23T13:31:09.000Z</time>
      </trkpt>
      <trkpt lat="43.78351" lon="5.74392">
        <ele>496.60000610352</ele>
        <time>2020-12-23T13:31:14.000Z</time>
      </trkpt>
      <trkpt lat="43.78341" lon="5.74375">
        <ele>497</ele>
        <time>2020-12-23T13:31:19.000Z</time>
      </trkpt>
      <trkpt lat="43.78338" lon="5.74372">
        <ele>497.20001220703</ele>
        <time>2020-12-23T13:31:20.000Z</time>
      </trkpt>
      <trkpt lat="43.7833" lon="5.74369">
        <ele>497.60000610352</ele>
        <time>2020-12-23T13:31:23.000Z</time>
      </trkpt>
      <trkpt lat="43.78327" lon="5.74375">
        <ele>497.79998779297</ele>
        <time>2020-12-23T13:31:26.000Z</time>
      </trkpt>
      <trkpt lat="43.7833" lon="5.74379">
        <ele>498</ele>
        <time>2020-12-23T13:31:28.000Z</time>
      </trkpt>
      <trkpt lat="43.78334" lon="5.74383">
        <ele>498</ele>
        <time>2020-12-23T13:31:30.000Z</time>
      </trkpt>
      <trkpt lat="43.78336" lon="5.74386">
        <ele>498.20001220703</ele>
        <time>2020-12-23T13:31:31.000Z</time>
      </trkpt>
      <trkpt lat="43.78339" lon="5.74395">
        <ele>499.20001220703</ele>
        <time>2020-12-23T13:31:34.000Z</time>
      </trkpt>
      <trkpt lat="43.7834" lon="5.74398">
        <ele>499.60000610352</ele>
        <time>2020-12-23T13:31:35.000Z</time>
      </trkpt>
      <trkpt lat="43.78342" lon="5.74407">
        <ele>500.39999389648</ele>
        <time>2020-12-23T13:31:38.000Z</time>
      </trkpt>
      <trkpt lat="43.78345" lon="5.7442">
        <ele>501</ele>
        <time>2020-12-23T13:31:42.000Z</time>
      </trkpt>
      <trkpt lat="43.78345" lon="5.74423">
        <ele>501.20001220703</ele>
        <time>2020-12-23T13:31:43.000Z</time>
      </trkpt>
      <trkpt lat="43.78344" lon="5.74424">
        <ele>501.39999389648</ele>
        <time>2020-12-23T13:31:44.000Z</time>
      </trkpt>
      <trkpt lat="43.78342" lon="5.74425">
        <ele>501.79998779297</ele>
        <time>2020-12-23T13:31:45.000Z</time>
      </trkpt>
      <trkpt lat="43.78339" lon="5.74415">
        <ele>502.60000610352</ele>
        <time>2020-12-23T13:31:48.000Z</time>
      </trkpt>
      <trkpt lat="43.78335" lon="5.74408">
        <ele>502.79998779297</ele>
        <time>2020-12-23T13:31:50.000Z</time>
      </trkpt>
      <trkpt lat="43.78331" lon="5.74397">
        <ele>503.79998779297</ele>
        <time>2020-12-23T13:31:53.000Z</time>
      </trkpt>
      <trkpt lat="43.78327" lon="5.74392">
        <ele>504.20001220703</ele>
        <time>2020-12-23T13:31:55.000Z</time>
      </trkpt>
      <trkpt lat="43.78325" lon="5.74392">
        <ele>504.39999389648</ele>
        <time>2020-12-23T13:31:56.000Z</time>
      </trkpt>
      <trkpt lat="43.78328" lon="5.744">
        <ele>504.79998779297</ele>
        <time>2020-12-23T13:32:00.000Z</time>
      </trkpt>
      <trkpt lat="43.7833" lon="5.74408">
        <ele>504.79998779297</ele>
        <time>2020-12-23T13:32:03.000Z</time>
      </trkpt>
      <trkpt lat="43.78332" lon="5.74421">
        <ele>505</ele>
        <time>2020-12-23T13:32:07.000Z</time>
      </trkpt>
      <trkpt lat="43.78336" lon="5.74435">
        <ele>506.20001220703</ele>
        <time>2020-12-23T13:32:11.000Z</time>
      </trkpt>
      <trkpt lat="43.78336" lon="5.74439">
        <ele>506.39999389648</ele>
        <time>2020-12-23T13:32:12.000Z</time>
      </trkpt>
      <trkpt lat="43.78336" lon="5.74447">
        <ele>507.20001220703</ele>
        <time>2020-12-23T13:32:14.000Z</time>
      </trkpt>
      <trkpt lat="43.78335" lon="5.74449">
        <ele>507.39999389648</ele>
        <time>2020-12-23T13:32:15.000Z</time>
      </trkpt>
      <trkpt lat="43.7833" lon="5.74441">
        <ele>508.20001220703</ele>
        <time>2020-12-23T13:32:19.000Z</time>
      </trkpt>
      <trkpt lat="43.78327" lon="5.74437">
        <ele>508.60000610352</ele>
        <time>2020-12-23T13:32:21.000Z</time>
      </trkpt>
      <trkpt lat="43.7832" lon="5.74433">
        <ele>509.39999389648</ele>
        <time>2020-12-23T13:32:24.000Z</time>
      </trkpt>
      <trkpt lat="43.78319" lon="5.74431">
        <ele>509.60000610352</ele>
        <time>2020-12-23T13:32:25.000Z</time>
      </trkpt>
      <trkpt lat="43.78315" lon="5.74422">
        <ele>510.39999389648</ele>
        <time>2020-12-23T13:32:28.000Z</time>
      </trkpt>
      <trkpt lat="43.78313" lon="5.74419">
        <ele>510.60000610352</ele>
        <time>2020-12-23T13:32:29.000Z</time>
      </trkpt>
      <trkpt lat="43.78304" lon="5.7441">
        <ele>511.60000610352</ele>
        <time>2020-12-23T13:32:33.000Z</time>
      </trkpt>
      <trkpt lat="43.78301" lon="5.74409">
        <ele>512</ele>
        <time>2020-12-23T13:32:34.000Z</time>
      </trkpt>
      <trkpt lat="43.78299" lon="5.7441">
        <ele>512.20001220703</ele>
        <time>2020-12-23T13:32:35.000Z</time>
      </trkpt>
      <trkpt lat="43.78295" lon="5.74417">
        <ele>512.40002441406</ele>
        <time>2020-12-23T13:32:38.000Z</time>
      </trkpt>
      <trkpt lat="43.78294" lon="5.7442">
        <ele>512.59997558594</ele>
        <time>2020-12-23T13:32:39.000Z</time>
      </trkpt>
      <trkpt lat="43.78293" lon="5.74423">
        <ele>512.59997558594</ele>
        <time>2020-12-23T13:32:40.000Z</time>
      </trkpt>
      <trkpt lat="43.78283" lon="5.7443">
        <ele>513.59997558594</ele>
        <time>2020-12-23T13:32:44.000Z</time>
      </trkpt>
      <trkpt lat="43.7828" lon="5.74431">
        <ele>513.79998779297</ele>
        <time>2020-12-23T13:32:45.000Z</time>
      </trkpt>
      <trkpt lat="43.7827" lon="5.74439">
        <ele>514.79998779297</ele>
        <time>2020-12-23T13:32:50.000Z</time>
      </trkpt>
      <trkpt lat="43.78259" lon="5.74444">
        <ele>515.40002441406</ele>
        <time>2020-12-23T13:32:54.000Z</time>
      </trkpt>
      <trkpt lat="43.7824" lon="5.74446">
        <ele>515.79998779297</ele>
        <time>2020-12-23T13:32:58.000Z</time>
      </trkpt>
      <trkpt lat="43.78228" lon="5.74445">
        <ele>516.20001220703</ele>
        <time>2020-12-23T13:33:02.000Z</time>
      </trkpt>
      <trkpt lat="43.78226" lon="5.74444">
        <ele>516.40002441406</ele>
        <time>2020-12-23T13:33:03.000Z</time>
      </trkpt>
      <trkpt lat="43.78217" lon="5.74434">
        <ele>516.40002441406</ele>
        <time>2020-12-23T13:33:07.000Z</time>
      </trkpt>
      <trkpt lat="43.7821" lon="5.74427">
        <ele>516</ele>
        <time>2020-12-23T13:33:11.000Z</time>
      </trkpt>
      <trkpt lat="43.78201" lon="5.74413">
        <ele>515.59997558594</ele>
        <time>2020-12-23T13:33:16.000Z</time>
      </trkpt>
      <trkpt lat="43.782" lon="5.74407">
        <ele>515.40002441406</ele>
        <time>2020-12-23T13:33:17.000Z</time>
      </trkpt>
      <trkpt lat="43.78193" lon="5.7439">
        <ele>515.20001220703</ele>
        <time>2020-12-23T13:33:20.000Z</time>
      </trkpt>
      <trkpt lat="43.78189" lon="5.7437">
        <ele>514.79998779297</ele>
        <time>2020-12-23T13:33:23.000Z</time>
      </trkpt>
      <trkpt lat="43.78188" lon="5.74363">
        <ele>514.40002441406</ele>
        <time>2020-12-23T13:33:24.000Z</time>
      </trkpt>
      <trkpt lat="43.78187" lon="5.74357">
        <ele>514</ele>
        <time>2020-12-23T13:33:25.000Z</time>
      </trkpt>
      <trkpt lat="43.78188" lon="5.74345">
        <ele>512.79998779297</ele>
        <time>2020-12-23T13:33:27.000Z</time>
      </trkpt>
      <trkpt lat="43.78185" lon="5.74336">
        <ele>512</ele>
        <time>2020-12-23T13:33:29.000Z</time>
      </trkpt>
      <trkpt lat="43.78184" lon="5.74332">
        <ele>511.79998779297</ele>
        <time>2020-12-23T13:33:30.000Z</time>
      </trkpt>
      <trkpt lat="43.78183" lon="5.74328">
        <ele>511.39999389648</ele>
        <time>2020-12-23T13:33:31.000Z</time>
      </trkpt>
      <trkpt lat="43.78182" lon="5.74314">
        <ele>510.60000610352</ele>
        <time>2020-12-23T13:33:34.000Z</time>
      </trkpt>
      <trkpt lat="43.78181" lon="5.7431">
        <ele>510.20001220703</ele>
        <time>2020-12-23T13:33:35.000Z</time>
      </trkpt>
      <trkpt lat="43.78175" lon="5.74297">
        <ele>509.39999389648</ele>
        <time>2020-12-23T13:33:39.000Z</time>
      </trkpt>
      <trkpt lat="43.78167" lon="5.74287">
        <ele>509.39999389648</ele>
        <time>2020-12-23T13:33:42.000Z</time>
      </trkpt>
      <trkpt lat="43.78163" lon="5.74283">
        <ele>509.39999389648</ele>
        <time>2020-12-23T13:33:43.000Z</time>
      </trkpt>
      <trkpt lat="43.78155" lon="5.74277">
        <ele>509.20001220703</ele>
        <time>2020-12-23T13:33:45.000Z</time>
      </trkpt>
      <trkpt lat="43.7815" lon="5.74275">
        <ele>509.20001220703</ele>
        <time>2020-12-23T13:33:46.000Z</time>
      </trkpt>
      <trkpt lat="43.78139" lon="5.74273">
        <ele>509.20001220703</ele>
        <time>2020-12-23T13:33:48.000Z</time>
      </trkpt>
      <trkpt lat="43.78135" lon="5.74272">
        <ele>509</ele>
        <time>2020-12-23T13:33:49.000Z</time>
      </trkpt>
      <trkpt lat="43.78125" lon="5.7427">
        <ele>508.20001220703</ele>
        <time>2020-12-23T13:33:51.000Z</time>
      </trkpt>
      <trkpt lat="43.7812" lon="5.7427">
        <ele>507.79998779297</ele>
        <time>2020-12-23T13:33:52.000Z</time>
      </trkpt>
      <trkpt lat="43.78115" lon="5.74271">
        <ele>507.39999389648</ele>
        <time>2020-12-23T13:33:53.000Z</time>
      </trkpt>
      <trkpt lat="43.7811" lon="5.74273">
        <ele>506.79998779297</ele>
        <time>2020-12-23T13:33:54.000Z</time>
      </trkpt>
      <trkpt lat="43.78106" lon="5.74277">
        <ele>506.39999389648</ele>
        <time>2020-12-23T13:33:55.000Z</time>
      </trkpt>
      <trkpt lat="43.78104" lon="5.7428">
        <ele>505.79998779297</ele>
        <time>2020-12-23T13:33:56.000Z</time>
      </trkpt>
      <trkpt lat="43.78098" lon="5.74284">
        <ele>505</ele>
        <time>2020-12-23T13:33:58.000Z</time>
      </trkpt>
      <trkpt lat="43.78096" lon="5.74283">
        <ele>504.60000610352</ele>
        <time>2020-12-23T13:33:59.000Z</time>
      </trkpt>
      <trkpt lat="43.7809" lon="5.74277">
        <ele>503.20001220703</ele>
        <time>2020-12-23T13:34:01.000Z</time>
      </trkpt>
      <trkpt lat="43.78082" lon="5.74274">
        <ele>502.60000610352</ele>
        <time>2020-12-23T13:34:03.000Z</time>
      </trkpt>
      <trkpt lat="43.78074" lon="5.74271">
        <ele>502.39999389648</ele>
        <time>2020-12-23T13:34:05.000Z</time>
      </trkpt>
      <trkpt lat="43.78069" lon="5.74271">
        <ele>502.20001220703</ele>
        <time>2020-12-23T13:34:06.000Z</time>
      </trkpt>
      <trkpt lat="43.78057" lon="5.74272">
        <ele>501.79998779297</ele>
        <time>2020-12-23T13:34:09.000Z</time>
      </trkpt>
      <trkpt lat="43.78051" lon="5.74275">
        <ele>501.20001220703</ele>
        <time>2020-12-23T13:34:11.000Z</time>
      </trkpt>
      <trkpt lat="43.78041" lon="5.7428">
        <ele>500.20001220703</ele>
        <time>2020-12-23T13:34:14.000Z</time>
      </trkpt>
      <trkpt lat="43.78039" lon="5.74282">
        <ele>499.79998779297</ele>
        <time>2020-12-23T13:34:15.000Z</time>
      </trkpt>
      <trkpt lat="43.78031" lon="5.74293">
        <ele>499.60000610352</ele>
        <time>2020-12-23T13:34:19.000Z</time>
      </trkpt>
      <trkpt lat="43.78024" lon="5.74308">
        <ele>499.60000610352</ele>
        <time>2020-12-23T13:34:23.000Z</time>
      </trkpt>
      <trkpt lat="43.78022" lon="5.7431">
        <ele>499.60000610352</ele>
        <time>2020-12-23T13:34:24.000Z</time>
      </trkpt>
      <trkpt lat="43.78019" lon="5.74308">
        <ele>499.60000610352</ele>
        <time>2020-12-23T13:34:26.000Z</time>
      </trkpt>
      <trkpt lat="43.78017" lon="5.74304">
        <ele>499.60000610352</ele>
        <time>2020-12-23T13:34:28.000Z</time>
      </trkpt>
      <trkpt lat="43.78015" lon="5.74301">
        <ele>499.60000610352</ele>
        <time>2020-12-23T13:34:31.000Z</time>
      </trkpt>
      <trkpt lat="43.78015" lon="5.74301">
        <ele>499.79998779297</ele>
        <time>2020-12-23T13:34:47.000Z</time>
      </trkpt>
      <trkpt lat="43.78015" lon="5.74301">
        <ele>500</ele>
        <time>2020-12-23T13:35:09.000Z</time>
      </trkpt>
      <trkpt lat="43.78014" lon="5.74299">
        <ele>500</ele>
        <time>2020-12-23T13:35:21.000Z</time>
      </trkpt>
      <trkpt lat="43.78011" lon="5.74298">
        <ele>500.20001220703</ele>
        <time>2020-12-23T13:35:26.000Z</time>
      </trkpt>
      <trkpt lat="43.78011" lon="5.74297">
        <ele>500.60000610352</ele>
        <time>2020-12-23T13:35:34.000Z</time>
      </trkpt>
      <trkpt lat="43.7801" lon="5.74297">
        <ele>500.60000610352</ele>
        <time>2020-12-23T13:35:39.000Z</time>
      </trkpt>
      <trkpt lat="43.78003" lon="5.74286">
        <ele>500.60000610352</ele>
        <time>2020-12-23T13:35:43.000Z</time>
      </trkpt>
      <trkpt lat="43.78002" lon="5.74282">
        <ele>500.60000610352</ele>
        <time>2020-12-23T13:35:44.000Z</time>
      </trkpt>
      <trkpt lat="43.78003" lon="5.74273">
        <ele>500.60000610352</ele>
        <time>2020-12-23T13:35:46.000Z</time>
      </trkpt>
      <trkpt lat="43.78004" lon="5.74255">
        <ele>500.39999389648</ele>
        <time>2020-12-23T13:35:49.000Z</time>
      </trkpt>
      <trkpt lat="43.78003" lon="5.74243">
        <ele>500.20001220703</ele>
        <time>2020-12-23T13:35:51.000Z</time>
      </trkpt>
      <trkpt lat="43.77998" lon="5.74222">
        <ele>499.39999389648</ele>
        <time>2020-12-23T13:35:55.000Z</time>
      </trkpt>
      <trkpt lat="43.77998" lon="5.74218">
        <ele>498.79998779297</ele>
        <time>2020-12-23T13:35:56.000Z</time>
      </trkpt>
      <trkpt lat="43.77997" lon="5.74214">
        <ele>498</ele>
        <time>2020-12-23T13:35:57.000Z</time>
      </trkpt>
      <trkpt lat="43.77997" lon="5.74201">
        <ele>496.79998779297</ele>
        <time>2020-12-23T13:36:00.000Z</time>
      </trkpt>
      <trkpt lat="43.77997" lon="5.74195">
        <ele>496.39999389648</ele>
        <time>2020-12-23T13:36:01.000Z</time>
      </trkpt>
      <trkpt lat="43.77996" lon="5.74183">
        <ele>496.20001220703</ele>
        <time>2020-12-23T13:36:03.000Z</time>
      </trkpt>
      <trkpt lat="43.77998" lon="5.74168">
        <ele>496</ele>
        <time>2020-12-23T13:36:05.000Z</time>
      </trkpt>
      <trkpt lat="43.77999" lon="5.74151">
        <ele>495.79998779297</ele>
        <time>2020-12-23T13:36:07.000Z</time>
      </trkpt>
      <trkpt lat="43.78001" lon="5.7414">
        <ele>495.39999389648</ele>
        <time>2020-12-23T13:36:09.000Z</time>
      </trkpt>
      <trkpt lat="43.78003" lon="5.74124">
        <ele>494.39999389648</ele>
        <time>2020-12-23T13:36:12.000Z</time>
      </trkpt>
      <trkpt lat="43.78004" lon="5.74117">
        <ele>493.20001220703</ele>
        <time>2020-12-23T13:36:14.000Z</time>
      </trkpt>
      <trkpt lat="43.78005" lon="5.74098">
        <ele>492.39999389648</ele>
        <time>2020-12-23T13:36:19.000Z</time>
      </trkpt>
      <trkpt lat="43.78008" lon="5.74089">
        <ele>492.20001220703</ele>
        <time>2020-12-23T13:36:21.000Z</time>
      </trkpt>
      <trkpt lat="43.78014" lon="5.7407">
        <ele>492.39999389648</ele>
        <time>2020-12-23T13:36:25.000Z</time>
      </trkpt>
      <trkpt lat="43.78022" lon="5.74052">
        <ele>492.39999389648</ele>
        <time>2020-12-23T13:36:29.000Z</time>
      </trkpt>
      <trkpt lat="43.78025" lon="5.74036">
        <ele>492.39999389648</ele>
        <time>2020-12-23T13:36:32.000Z</time>
      </trkpt>
      <trkpt lat="43.78024" lon="5.74033">
        <ele>492.39999389648</ele>
        <time>2020-12-23T13:36:33.000Z</time>
      </trkpt>
      <trkpt lat="43.78025" lon="5.74022">
        <ele>492.39999389648</ele>
        <time>2020-12-23T13:36:36.000Z</time>
      </trkpt>
      <trkpt lat="43.78024" lon="5.73997">
        <ele>492.60000610352</ele>
        <time>2020-12-23T13:36:43.000Z</time>
      </trkpt>
      <trkpt lat="43.78025" lon="5.73984">
        <ele>493.20001220703</ele>
        <time>2020-12-23T13:36:47.000Z</time>
      </trkpt>
      <trkpt lat="43.78024" lon="5.73982">
        <ele>493.60000610352</ele>
        <time>2020-12-23T13:36:48.000Z</time>
      </trkpt>
      <trkpt lat="43.7802" lon="5.73977">
        <ele>494.20001220703</ele>
        <time>2020-12-23T13:36:50.000Z</time>
      </trkpt>
      <trkpt lat="43.78018" lon="5.73976">
        <ele>494.79998779297</ele>
        <time>2020-12-23T13:36:51.000Z</time>
      </trkpt>
      <trkpt lat="43.78016" lon="5.73976">
        <ele>495.20001220703</ele>
        <time>2020-12-23T13:36:52.000Z</time>
      </trkpt>
      <trkpt lat="43.78007" lon="5.73977">
        <ele>495.20001220703</ele>
        <time>2020-12-23T13:36:55.000Z</time>
      </trkpt>
      <trkpt lat="43.78003" lon="5.73977">
        <ele>495.20001220703</ele>
        <time>2020-12-23T13:36:56.000Z</time>
      </trkpt>
      <trkpt lat="43.77993" lon="5.73983">
        <ele>495.20001220703</ele>
        <time>2020-12-23T13:36:59.000Z</time>
      </trkpt>
      <trkpt lat="43.77974" lon="5.73988">
        <ele>494.39999389648</ele>
        <time>2020-12-23T13:37:04.000Z</time>
      </trkpt>
      <trkpt lat="43.77969" lon="5.73987">
        <ele>494.20001220703</ele>
        <time>2020-12-23T13:37:05.000Z</time>
      </trkpt>
      <trkpt lat="43.77954" lon="5.73989">
        <ele>494</ele>
        <time>2020-12-23T13:37:08.000Z</time>
      </trkpt>
      <trkpt lat="43.77949" lon="5.73989">
        <ele>494</ele>
        <time>2020-12-23T13:37:09.000Z</time>
      </trkpt>
      <trkpt lat="43.77945" lon="5.73988">
        <ele>493.79998779297</ele>
        <time>2020-12-23T13:37:10.000Z</time>
      </trkpt>
      <trkpt lat="43.77937" lon="5.7399">
        <ele>493.60000610352</ele>
        <time>2020-12-23T13:37:12.000Z</time>
      </trkpt>
      <trkpt lat="43.77935" lon="5.73993">
        <ele>493.39999389648</ele>
        <time>2020-12-23T13:37:13.000Z</time>
      </trkpt>
      <trkpt lat="43.77929" lon="5.73995">
        <ele>492.39999389648</ele>
        <time>2020-12-23T13:37:15.000Z</time>
      </trkpt>
      <trkpt lat="43.77925" lon="5.73995">
        <ele>492</ele>
        <time>2020-12-23T13:37:16.000Z</time>
      </trkpt>
      <trkpt lat="43.77915" lon="5.73997">
        <ele>491</ele>
        <time>2020-12-23T13:37:18.000Z</time>
      </trkpt>
      <trkpt lat="43.77906" lon="5.73998">
        <ele>489.79998779297</ele>
        <time>2020-12-23T13:37:20.000Z</time>
      </trkpt>
      <trkpt lat="43.779" lon="5.73998">
        <ele>489.39999389648</ele>
        <time>2020-12-23T13:37:22.000Z</time>
      </trkpt>
      <trkpt lat="43.77898" lon="5.73995">
        <ele>489.39999389648</ele>
        <time>2020-12-23T13:37:23.000Z</time>
      </trkpt>
      <trkpt lat="43.77895" lon="5.73988">
        <ele>488.79998779297</ele>
        <time>2020-12-23T13:37:25.000Z</time>
      </trkpt>
      <trkpt lat="43.77889" lon="5.73978">
        <ele>488.20001220703</ele>
        <time>2020-12-23T13:37:27.000Z</time>
      </trkpt>
      <trkpt lat="43.77886" lon="5.73973">
        <ele>488</ele>
        <time>2020-12-23T13:37:28.000Z</time>
      </trkpt>
      <trkpt lat="43.77877" lon="5.73965">
        <ele>487.60000610352</ele>
        <time>2020-12-23T13:37:31.000Z</time>
      </trkpt>
      <trkpt lat="43.77874" lon="5.73963">
        <ele>487.39999389648</ele>
        <time>2020-12-23T13:37:32.000Z</time>
      </trkpt>
      <trkpt lat="43.77865" lon="5.73956">
        <ele>487.20001220703</ele>
        <time>2020-12-23T13:37:35.000Z</time>
      </trkpt>
      <trkpt lat="43.77861" lon="5.73951">
        <ele>486.20001220703</ele>
        <time>2020-12-23T13:37:37.000Z</time>
      </trkpt>
      <trkpt lat="43.77855" lon="5.73948">
        <ele>485.20001220703</ele>
        <time>2020-12-23T13:37:39.000Z</time>
      </trkpt>
      <trkpt lat="43.77846" lon="5.7395">
        <ele>484.39999389648</ele>
        <time>2020-12-23T13:37:42.000Z</time>
      </trkpt>
      <trkpt lat="43.77845" lon="5.73951">
        <ele>484.20001220703</ele>
        <time>2020-12-23T13:37:43.000Z</time>
      </trkpt>
      <trkpt lat="43.77841" lon="5.73958">
        <ele>483.39999389648</ele>
        <time>2020-12-23T13:37:47.000Z</time>
      </trkpt>
      <trkpt lat="43.77838" lon="5.7396">
        <ele>482.79998779297</ele>
        <time>2020-12-23T13:37:48.000Z</time>
      </trkpt>
      <trkpt lat="43.7783" lon="5.73967">
        <ele>482.20001220703</ele>
        <time>2020-12-23T13:37:51.000Z</time>
      </trkpt>
      <trkpt lat="43.77824" lon="5.73974">
        <ele>481.79998779297</ele>
        <time>2020-12-23T13:37:54.000Z</time>
      </trkpt>
      <trkpt lat="43.77822" lon="5.73976">
        <ele>481.60000610352</ele>
        <time>2020-12-23T13:37:55.000Z</time>
      </trkpt>
      <trkpt lat="43.7781" lon="5.73986">
        <ele>481.20001220703</ele>
        <time>2020-12-23T13:38:01.000Z</time>
      </trkpt>
      <trkpt lat="43.77803" lon="5.73991">
        <ele>481.20001220703</ele>
        <time>2020-12-23T13:38:06.000Z</time>
      </trkpt>
      <trkpt lat="43.77794" lon="5.73994">
        <ele>481.39999389648</ele>
        <time>2020-12-23T13:38:10.000Z</time>
      </trkpt>
      <trkpt lat="43.7778" lon="5.73993">
        <ele>481.79998779297</ele>
        <time>2020-12-23T13:38:15.000Z</time>
      </trkpt>
      <trkpt lat="43.77764" lon="5.73992">
        <ele>482.20001220703</ele>
        <time>2020-12-23T13:38:21.000Z</time>
      </trkpt>
      <trkpt lat="43.77753" lon="5.73995">
        <ele>482.60000610352</ele>
        <time>2020-12-23T13:38:26.000Z</time>
      </trkpt>
      <trkpt lat="43.7775" lon="5.73997">
        <ele>482.79998779297</ele>
        <time>2020-12-23T13:38:27.000Z</time>
      </trkpt>
      <trkpt lat="43.7774" lon="5.74008">
        <ele>483</ele>
        <time>2020-12-23T13:38:30.000Z</time>
      </trkpt>
      <trkpt lat="43.77723" lon="5.74022">
        <ele>483</ele>
        <time>2020-12-23T13:38:34.000Z</time>
      </trkpt>
      <trkpt lat="43.77712" lon="5.74035">
        <ele>482.60000610352</ele>
        <time>2020-12-23T13:38:38.000Z</time>
      </trkpt>
      <trkpt lat="43.77707" lon="5.7404">
        <ele>481</ele>
        <time>2020-12-23T13:38:40.000Z</time>
      </trkpt>
      <trkpt lat="43.77705" lon="5.7404">
        <ele>480</ele>
        <time>2020-12-23T13:38:41.000Z</time>
      </trkpt>
      <trkpt lat="43.77702" lon="5.7404">
        <ele>478.60000610352</ele>
        <time>2020-12-23T13:38:42.000Z</time>
      </trkpt>
      <trkpt lat="43.77696" lon="5.74041">
        <ele>477.60000610352</ele>
        <time>2020-12-23T13:38:44.000Z</time>
      </trkpt>
      <trkpt lat="43.7769" lon="5.74043">
        <ele>477.20001220703</ele>
        <time>2020-12-23T13:38:46.000Z</time>
      </trkpt>
      <trkpt lat="43.77687" lon="5.74044">
        <ele>477</ele>
        <time>2020-12-23T13:38:47.000Z</time>
      </trkpt>
      <trkpt lat="43.77668" lon="5.74041">
        <ele>476.60000610352</ele>
        <time>2020-12-23T13:38:52.000Z</time>
      </trkpt>
      <trkpt lat="43.77663" lon="5.7404">
        <ele>476.60000610352</ele>
        <time>2020-12-23T13:38:53.000Z</time>
      </trkpt>
      <trkpt lat="43.77653" lon="5.74042">
        <ele>476.39999389648</ele>
        <time>2020-12-23T13:38:55.000Z</time>
      </trkpt>
      <trkpt lat="43.77644" lon="5.74044">
        <ele>476.39999389648</ele>
        <time>2020-12-23T13:38:57.000Z</time>
      </trkpt>
      <trkpt lat="43.77629" lon="5.74045">
        <ele>476</ele>
        <time>2020-12-23T13:39:00.000Z</time>
      </trkpt>
      <trkpt lat="43.77616" lon="5.74046">
        <ele>475.20001220703</ele>
        <time>2020-12-23T13:39:02.000Z</time>
      </trkpt>
      <trkpt lat="43.77609" lon="5.74044">
        <ele>474.79998779297</ele>
        <time>2020-12-23T13:39:03.000Z</time>
      </trkpt>
      <trkpt lat="43.77603" lon="5.74042">
        <ele>474.39999389648</ele>
        <time>2020-12-23T13:39:04.000Z</time>
      </trkpt>
      <trkpt lat="43.77592" lon="5.74034">
        <ele>474</ele>
        <time>2020-12-23T13:39:06.000Z</time>
      </trkpt>
      <trkpt lat="43.77582" lon="5.74028">
        <ele>473.39999389648</ele>
        <time>2020-12-23T13:39:08.000Z</time>
      </trkpt>
      <trkpt lat="43.77577" lon="5.74027">
        <ele>472.20001220703</ele>
        <time>2020-12-23T13:39:09.000Z</time>
      </trkpt>
      <trkpt lat="43.7757" lon="5.7403">
        <ele>470.39999389648</ele>
        <time>2020-12-23T13:39:11.000Z</time>
      </trkpt>
      <trkpt lat="43.77565" lon="5.74034">
        <ele>469</ele>
        <time>2020-12-23T13:39:13.000Z</time>
      </trkpt>
      <trkpt lat="43.77558" lon="5.74043">
        <ele>468.20001220703</ele>
        <time>2020-12-23T13:39:15.000Z</time>
      </trkpt>
      <trkpt lat="43.77555" lon="5.7405">
        <ele>468</ele>
        <time>2020-12-23T13:39:16.000Z</time>
      </trkpt>
      <trkpt lat="43.77552" lon="5.74056">
        <ele>468</ele>
        <time>2020-12-23T13:39:17.000Z</time>
      </trkpt>
      <trkpt lat="43.77549" lon="5.74067">
        <ele>467.79998779297</ele>
        <time>2020-12-23T13:39:19.000Z</time>
      </trkpt>
      <trkpt lat="43.7755" lon="5.74073">
        <ele>467.60000610352</ele>
        <time>2020-12-23T13:39:21.000Z</time>
      </trkpt>
      <trkpt lat="43.77552" lon="5.74078">
        <ele>467.20001220703</ele>
        <time>2020-12-23T13:39:23.000Z</time>
      </trkpt>
      <trkpt lat="43.7755" lon="5.74095">
        <ele>467</ele>
        <time>2020-12-23T13:39:28.000Z</time>
      </trkpt>
      <trkpt lat="43.77551" lon="5.74112">
        <ele>467.60000610352</ele>
        <time>2020-12-23T13:39:34.000Z</time>
      </trkpt>
      <trkpt lat="43.7755" lon="5.74119">
        <ele>468.79998779297</ele>
        <time>2020-12-23T13:39:37.000Z</time>
      </trkpt>
      <trkpt lat="43.77549" lon="5.74122">
        <ele>469</ele>
        <time>2020-12-23T13:39:38.000Z</time>
      </trkpt>
      <trkpt lat="43.77548" lon="5.74124">
        <ele>469.39999389648</ele>
        <time>2020-12-23T13:39:39.000Z</time>
      </trkpt>
      <trkpt lat="43.77544" lon="5.7413">
        <ele>470.20001220703</ele>
        <time>2020-12-23T13:39:41.000Z</time>
      </trkpt>
      <trkpt lat="43.77539" lon="5.74137">
        <ele>471</ele>
        <time>2020-12-23T13:39:43.000Z</time>
      </trkpt>
      <trkpt lat="43.77536" lon="5.74139">
        <ele>471.39999389648</ele>
        <time>2020-12-23T13:39:44.000Z</time>
      </trkpt>
      <trkpt lat="43.77522" lon="5.74145">
        <ele>471.60000610352</ele>
        <time>2020-12-23T13:39:47.000Z</time>
      </trkpt>
      <trkpt lat="43.77496" lon="5.74156">
        <ele>471.60000610352</ele>
        <time>2020-12-23T13:39:51.000Z</time>
      </trkpt>
      <trkpt lat="43.7749" lon="5.7416">
        <ele>471.60000610352</ele>
        <time>2020-12-23T13:39:52.000Z</time>
      </trkpt>
      <trkpt lat="43.77475" lon="5.74171">
        <ele>470.79998779297</ele>
        <time>2020-12-23T13:39:55.000Z</time>
      </trkpt>
      <trkpt lat="43.77471" lon="5.74174">
        <ele>469.79998779297</ele>
        <time>2020-12-23T13:39:56.000Z</time>
      </trkpt>
      <trkpt lat="43.77463" lon="5.74177">
        <ele>467.79998779297</ele>
        <time>2020-12-23T13:39:58.000Z</time>
      </trkpt>
      <trkpt lat="43.77458" lon="5.74178">
        <ele>467</ele>
        <time>2020-12-23T13:39:59.000Z</time>
      </trkpt>
      <trkpt lat="43.77454" lon="5.74178">
        <ele>466.20001220703</ele>
        <time>2020-12-23T13:40:00.000Z</time>
      </trkpt>
      <trkpt lat="43.77445" lon="5.7418">
        <ele>465</ele>
        <time>2020-12-23T13:40:02.000Z</time>
      </trkpt>
      <trkpt lat="43.77441" lon="5.7418">
        <ele>464.60000610352</ele>
        <time>2020-12-23T13:40:03.000Z</time>
      </trkpt>
      <trkpt lat="43.77437" lon="5.74179">
        <ele>463.79998779297</ele>
        <time>2020-12-23T13:40:04.000Z</time>
      </trkpt>
      <trkpt lat="43.7742" lon="5.74177">
        <ele>462.60000610352</ele>
        <time>2020-12-23T13:40:07.000Z</time>
      </trkpt>
      <trkpt lat="43.77404" lon="5.74177">
        <ele>461.20001220703</ele>
        <time>2020-12-23T13:40:10.000Z</time>
      </trkpt>
      <trkpt lat="43.774" lon="5.74175">
        <ele>461</ele>
        <time>2020-12-23T13:40:11.000Z</time>
      </trkpt>
      <trkpt lat="43.77391" lon="5.74173">
        <ele>459.60000610352</ele>
        <time>2020-12-23T13:40:13.000Z</time>
      </trkpt>
      <trkpt lat="43.77383" lon="5.74168">
        <ele>457.79998779297</ele>
        <time>2020-12-23T13:40:15.000Z</time>
      </trkpt>
      <trkpt lat="43.77379" lon="5.74166">
        <ele>457.39999389648</ele>
        <time>2020-12-23T13:40:16.000Z</time>
      </trkpt>
      <trkpt lat="43.7737" lon="5.74164">
        <ele>456.79998779297</ele>
        <time>2020-12-23T13:40:18.000Z</time>
      </trkpt>
      <trkpt lat="43.77362" lon="5.74166">
        <ele>456.39999389648</ele>
        <time>2020-12-23T13:40:20.000Z</time>
      </trkpt>
      <trkpt lat="43.77356" lon="5.74169">
        <ele>456.20001220703</ele>
        <time>2020-12-23T13:40:22.000Z</time>
      </trkpt>
      <trkpt lat="43.77353" lon="5.74171">
        <ele>455.60000610352</ele>
        <time>2020-12-23T13:40:24.000Z</time>
      </trkpt>
      <trkpt lat="43.77352" lon="5.74171">
        <ele>454.60000610352</ele>
        <time>2020-12-23T13:40:28.000Z</time>
      </trkpt>
      <trkpt lat="43.77352" lon="5.74171">
        <ele>454.39999389648</ele>
        <time>2020-12-23T13:40:30.000Z</time>
      </trkpt>
      <trkpt lat="43.77352" lon="5.74171">
        <ele>454</ele>
        <time>2020-12-23T13:40:39.000Z</time>
      </trkpt>
      <trkpt lat="43.77351" lon="5.74171">
        <ele>454</ele>
        <time>2020-12-23T13:40:41.000Z</time>
      </trkpt>
      <trkpt lat="43.77347" lon="5.74171">
        <ele>454</ele>
        <time>2020-12-23T13:40:43.000Z</time>
      </trkpt>
      <trkpt lat="43.77347" lon="5.74172">
        <ele>453.79998779297</ele>
        <time>2020-12-23T13:40:47.000Z</time>
      </trkpt>
      <trkpt lat="43.77346" lon="5.74173">
        <ele>453.60000610352</ele>
        <time>2020-12-23T13:40:51.000Z</time>
      </trkpt>
      <trkpt lat="43.77344" lon="5.74177">
        <ele>453.39999389648</ele>
        <time>2020-12-23T13:40:53.000Z</time>
      </trkpt>
      <trkpt lat="43.77335" lon="5.742">
        <ele>453</ele>
        <time>2020-12-23T13:40:59.000Z</time>
      </trkpt>
      <trkpt lat="43.77335" lon="5.74219">
        <ele>452.60000610352</ele>
        <time>2020-12-23T13:41:03.000Z</time>
      </trkpt>
      <trkpt lat="43.77341" lon="5.74233">
        <ele>451.79998779297</ele>
        <time>2020-12-23T13:41:06.000Z</time>
      </trkpt>
      <trkpt lat="43.77343" lon="5.74237">
        <ele>451.60000610352</ele>
        <time>2020-12-23T13:41:07.000Z</time>
      </trkpt>
      <trkpt lat="43.77345" lon="5.74246">
        <ele>450.39999389648</ele>
        <time>2020-12-23T13:41:09.000Z</time>
      </trkpt>
      <trkpt lat="43.77347" lon="5.74255">
        <ele>449.20001220703</ele>
        <time>2020-12-23T13:41:11.000Z</time>
      </trkpt>
      <trkpt lat="43.77347" lon="5.7426">
        <ele>448.60000610352</ele>
        <time>2020-12-23T13:41:12.000Z</time>
      </trkpt>
      <trkpt lat="43.77348" lon="5.74265">
        <ele>448.20001220703</ele>
        <time>2020-12-23T13:41:13.000Z</time>
      </trkpt>
      <trkpt lat="43.77354" lon="5.74294">
        <ele>447.60000610352</ele>
        <time>2020-12-23T13:41:20.000Z</time>
      </trkpt>
      <trkpt lat="43.77365" lon="5.74308">
        <ele>447.60000610352</ele>
        <time>2020-12-23T13:41:25.000Z</time>
      </trkpt>
      <trkpt lat="43.77388" lon="5.74309">
        <ele>447.60000610352</ele>
        <time>2020-12-23T13:41:31.000Z</time>
      </trkpt>
      <trkpt lat="43.77409" lon="5.74306">
        <ele>447.60000610352</ele>
        <time>2020-12-23T13:41:38.000Z</time>
      </trkpt>
      <trkpt lat="43.7743" lon="5.74306">
        <ele>448</ele>
        <time>2020-12-23T13:41:45.000Z</time>
      </trkpt>
      <trkpt lat="43.77448" lon="5.74306">
        <ele>448.20001220703</ele>
        <time>2020-12-23T13:41:51.000Z</time>
      </trkpt>
      <trkpt lat="43.77481" lon="5.74307">
        <ele>449</ele>
        <time>2020-12-23T13:42:01.000Z</time>
      </trkpt>
      <trkpt lat="43.77493" lon="5.74308">
        <ele>449.20001220703</ele>
        <time>2020-12-23T13:42:06.000Z</time>
      </trkpt>
      <trkpt lat="43.77497" lon="5.74308">
        <ele>449.39999389648</ele>
        <time>2020-12-23T13:42:08.000Z</time>
      </trkpt>
      <trkpt lat="43.7751" lon="5.74309">
        <ele>449.79998779297</ele>
        <time>2020-12-23T13:42:12.000Z</time>
      </trkpt>
      <trkpt lat="43.77535" lon="5.7431">
        <ele>450.20001220703</ele>
        <time>2020-12-23T13:42:20.000Z</time>
      </trkpt>
      <trkpt lat="43.77538" lon="5.7431">
        <ele>450.39999389648</ele>
        <time>2020-12-23T13:42:21.000Z</time>
      </trkpt>
      <trkpt lat="43.77558" lon="5.74311">
        <ele>451.20001220703</ele>
        <time>2020-12-23T13:42:27.000Z</time>
      </trkpt>
      <trkpt lat="43.77579" lon="5.74308">
        <ele>451.20001220703</ele>
        <time>2020-12-23T13:42:33.000Z</time>
      </trkpt>
      <trkpt lat="43.77586" lon="5.74309">
        <ele>451.39999389648</ele>
        <time>2020-12-23T13:42:35.000Z</time>
      </trkpt>
      <trkpt lat="43.77589" lon="5.74312">
        <ele>451.39999389648</ele>
        <time>2020-12-23T13:42:36.000Z</time>
      </trkpt>
      <trkpt lat="43.77591" lon="5.7432">
        <ele>451.79998779297</ele>
        <time>2020-12-23T13:42:38.000Z</time>
      </trkpt>
      <trkpt lat="43.77583" lon="5.74338">
        <ele>452.20001220703</ele>
        <time>2020-12-23T13:42:42.000Z</time>
      </trkpt>
      <trkpt lat="43.7758" lon="5.74343">
        <ele>452.20001220703</ele>
        <time>2020-12-23T13:42:43.000Z</time>
      </trkpt>
      <trkpt lat="43.77574" lon="5.74351">
        <ele>452.20001220703</ele>
        <time>2020-12-23T13:42:45.000Z</time>
      </trkpt>
      <trkpt lat="43.77562" lon="5.74364">
        <ele>452.20001220703</ele>
        <time>2020-12-23T13:42:48.000Z</time>
      </trkpt>
      <trkpt lat="43.7753" lon="5.74395">
        <ele>451</ele>
        <time>2020-12-23T13:42:55.000Z</time>
      </trkpt>
      <trkpt lat="43.77515" lon="5.74409">
        <ele>449.79998779297</ele>
        <time>2020-12-23T13:42:58.000Z</time>
      </trkpt>
      <trkpt lat="43.77494" lon="5.74428">
        <ele>448.60000610352</ele>
        <time>2020-12-23T13:43:02.000Z</time>
      </trkpt>
      <trkpt lat="43.77489" lon="5.74433">
        <ele>448.39999389648</ele>
        <time>2020-12-23T13:43:03.000Z</time>
      </trkpt>
      <trkpt lat="43.77479" lon="5.74442">
        <ele>447.39999389648</ele>
        <time>2020-12-23T13:43:05.000Z</time>
      </trkpt>
      <trkpt lat="43.77459" lon="5.7446">
        <ele>446.39999389648</ele>
        <time>2020-12-23T13:43:09.000Z</time>
      </trkpt>
      <trkpt lat="43.77455" lon="5.74464">
        <ele>446.20001220703</ele>
        <time>2020-12-23T13:43:10.000Z</time>
      </trkpt>
      <trkpt lat="43.77451" lon="5.74469">
        <ele>445.79998779297</ele>
        <time>2020-12-23T13:43:11.000Z</time>
      </trkpt>
      <trkpt lat="43.77436" lon="5.74482">
        <ele>444.79998779297</ele>
        <time>2020-12-23T13:43:16.000Z</time>
      </trkpt>
      <trkpt lat="43.77435" lon="5.74482">
        <ele>444.20001220703</ele>
        <time>2020-12-23T13:43:23.000Z</time>
      </trkpt>
      <trkpt lat="43.77435" lon="5.74482">
        <ele>444.20001220703</ele>
        <time>2020-12-23T13:43:39.000Z</time>
      </trkpt>
      <trkpt lat="43.77435" lon="5.74482">
        <ele>444.39999389648</ele>
        <time>2020-12-23T13:43:50.000Z</time>
      </trkpt>
      <trkpt lat="43.77436" lon="5.74483">
        <ele>444.60000610352</ele>
        <time>2020-12-23T13:44:02.000Z</time>
      </trkpt>
      <trkpt lat="43.77443" lon="5.74478">
        <ele>444.60000610352</ele>
        <time>2020-12-23T13:44:07.000Z</time>
      </trkpt>
      <trkpt lat="43.77445" lon="5.74476">
        <ele>444.60000610352</ele>
        <time>2020-12-23T13:44:08.000Z</time>
      </trkpt>
      <trkpt lat="43.77457" lon="5.74464">
        <ele>444.60000610352</ele>
        <time>2020-12-23T13:44:14.000Z</time>
      </trkpt>
      <trkpt lat="43.77461" lon="5.74461">
        <ele>444.79998779297</ele>
        <time>2020-12-23T13:44:20.000Z</time>
      </trkpt>
      <trkpt lat="43.77461" lon="5.7446">
        <ele>445.20001220703</ele>
        <time>2020-12-23T13:44:33.000Z</time>
      </trkpt>
      <trkpt lat="43.77461" lon="5.74458">
        <ele>445.20001220703</ele>
        <time>2020-12-23T13:44:34.000Z</time>
      </trkpt>
      <trkpt lat="43.7747" lon="5.74449">
        <ele>445.20001220703</ele>
        <time>2020-12-23T13:44:40.000Z</time>
      </trkpt>
      <trkpt lat="43.77472" lon="5.74448">
        <ele>445.20001220703</ele>
        <time>2020-12-23T13:44:43.000Z</time>
      </trkpt>
      <trkpt lat="43.77472" lon="5.74449">
        <ele>445.20001220703</ele>
        <time>2020-12-23T13:44:44.000Z</time>
      </trkpt>
      <trkpt lat="43.77469" lon="5.7445">
        <ele>445.39999389648</ele>
        <time>2020-12-23T13:44:50.000Z</time>
      </trkpt>
      <trkpt lat="43.77462" lon="5.74456">
        <ele>445.39999389648</ele>
        <time>2020-12-23T13:44:55.000Z</time>
      </trkpt>
      <trkpt lat="43.77461" lon="5.74456">
        <ele>445.39999389648</ele>
        <time>2020-12-23T13:44:56.000Z</time>
      </trkpt>
      <trkpt lat="43.77461" lon="5.74457">
        <ele>445.20001220703</ele>
        <time>2020-12-23T13:45:04.000Z</time>
      </trkpt>
      <trkpt lat="43.77459" lon="5.7446">
        <ele>445.20001220703</ele>
        <time>2020-12-23T13:45:10.000Z</time>
      </trkpt>
      <trkpt lat="43.77459" lon="5.74461">
        <ele>445.20001220703</ele>
        <time>2020-12-23T13:45:11.000Z</time>
      </trkpt>
      <trkpt lat="43.77459" lon="5.74461">
        <ele>445.20001220703</ele>
        <time>2020-12-23T13:45:15.000Z</time>
      </trkpt>
      <trkpt lat="43.77459" lon="5.74462">
        <ele>445</ele>
        <time>2020-12-23T13:45:20.000Z</time>
      </trkpt>
      <trkpt lat="43.77461" lon="5.74462">
        <ele>445</ele>
        <time>2020-12-23T13:45:24.000Z</time>
      </trkpt>
      <trkpt lat="43.77465" lon="5.7446">
        <ele>445</ele>
        <time>2020-12-23T13:45:26.000Z</time>
      </trkpt>
      <trkpt lat="43.77472" lon="5.74458">
        <ele>445</ele>
        <time>2020-12-23T13:45:30.000Z</time>
      </trkpt>
      <trkpt lat="43.77475" lon="5.74455">
        <ele>445.20001220703</ele>
        <time>2020-12-23T13:45:32.000Z</time>
      </trkpt>
      <trkpt lat="43.77479" lon="5.74451">
        <ele>446</ele>
        <time>2020-12-23T13:45:34.000Z</time>
      </trkpt>
      <trkpt lat="43.77482" lon="5.74449">
        <ele>446.20001220703</ele>
        <time>2020-12-23T13:45:35.000Z</time>
      </trkpt>
      <trkpt lat="43.77489" lon="5.74444">
        <ele>447</ele>
        <time>2020-12-23T13:45:38.000Z</time>
      </trkpt>
      <trkpt lat="43.77496" lon="5.74437">
        <ele>447.79998779297</ele>
        <time>2020-12-23T13:45:41.000Z</time>
      </trkpt>
      <trkpt lat="43.77498" lon="5.74436">
        <ele>448</ele>
        <time>2020-12-23T13:45:42.000Z</time>
      </trkpt>
      <trkpt lat="43.77502" lon="5.74435">
        <ele>448.60000610352</ele>
        <time>2020-12-23T13:45:44.000Z</time>
      </trkpt>
      <trkpt lat="43.77504" lon="5.74433">
        <ele>448.79998779297</ele>
        <time>2020-12-23T13:45:45.000Z</time>
      </trkpt>
      <trkpt lat="43.77511" lon="5.74427">
        <ele>449</ele>
        <time>2020-12-23T13:45:49.000Z</time>
      </trkpt>
      <trkpt lat="43.77513" lon="5.74428">
        <ele>449</ele>
        <time>2020-12-23T13:45:50.000Z</time>
      </trkpt>
      <trkpt lat="43.77515" lon="5.74428">
        <ele>449.39999389648</ele>
        <time>2020-12-23T13:45:51.000Z</time>
      </trkpt>
      <trkpt lat="43.77518" lon="5.74429">
        <ele>450</ele>
        <time>2020-12-23T13:45:53.000Z</time>
      </trkpt>
      <trkpt lat="43.77521" lon="5.74427">
        <ele>450.60000610352</ele>
        <time>2020-12-23T13:45:55.000Z</time>
      </trkpt>
      <trkpt lat="43.77523" lon="5.74425">
        <ele>450.79998779297</ele>
        <time>2020-12-23T13:45:56.000Z</time>
      </trkpt>
      <trkpt lat="43.77525" lon="5.74422">
        <ele>451</ele>
        <time>2020-12-23T13:45:58.000Z</time>
      </trkpt>
      <trkpt lat="43.77526" lon="5.74422">
        <ele>451.79998779297</ele>
        <time>2020-12-23T13:46:00.000Z</time>
      </trkpt>
      <trkpt lat="43.77526" lon="5.74422">
        <ele>452.20001220703</ele>
        <time>2020-12-23T13:46:01.000Z</time>
      </trkpt>
      <trkpt lat="43.77526" lon="5.74421">
        <ele>453</ele>
        <time>2020-12-23T13:46:03.000Z</time>
      </trkpt>
      <trkpt lat="43.77526" lon="5.74421">
        <ele>454</ele>
        <time>2020-12-23T13:46:08.000Z</time>
      </trkpt>
      <trkpt lat="43.77526" lon="5.74421">
        <ele>454.20001220703</ele>
        <time>2020-12-23T13:46:19.000Z</time>
      </trkpt>
      <trkpt lat="43.77526" lon="5.74421">
        <ele>454.39999389648</ele>
        <time>2020-12-23T13:46:39.000Z</time>
      </trkpt>
      <trkpt lat="43.77531" lon="5.74417">
        <ele>454.39999389648</ele>
        <time>2020-12-23T13:46:46.000Z</time>
      </trkpt>
      <trkpt lat="43.77538" lon="5.74407">
        <ele>454.39999389648</ele>
        <time>2020-12-23T13:46:51.000Z</time>
      </trkpt>
      <trkpt lat="43.77544" lon="5.74406">
        <ele>454.39999389648</ele>
        <time>2020-12-23T13:46:56.000Z</time>
      </trkpt>
      <trkpt lat="43.77546" lon="5.74404">
        <ele>454.39999389648</ele>
        <time>2020-12-23T13:46:57.000Z</time>
      </trkpt>
      <trkpt lat="43.77554" lon="5.7439">
        <ele>455</ele>
        <time>2020-12-23T13:47:01.000Z</time>
      </trkpt>
      <trkpt lat="43.77557" lon="5.74385">
        <ele>455</ele>
        <time>2020-12-23T13:47:02.000Z</time>
      </trkpt>
      <trkpt lat="43.77562" lon="5.74377">
        <ele>455</ele>
        <time>2020-12-23T13:47:05.000Z</time>
      </trkpt>
      <trkpt lat="43.77563" lon="5.74375">
        <ele>454.79998779297</ele>
        <time>2020-12-23T13:47:11.000Z</time>
      </trkpt>
      <trkpt lat="43.77573" lon="5.7437">
        <ele>454.60000610352</ele>
        <time>2020-12-23T13:47:16.000Z</time>
      </trkpt>
      <trkpt lat="43.77583" lon="5.74364">
        <ele>454.60000610352</ele>
        <time>2020-12-23T13:47:21.000Z</time>
      </trkpt>
      <trkpt lat="43.77585" lon="5.74358">
        <ele>455.60000610352</ele>
        <time>2020-12-23T13:47:24.000Z</time>
      </trkpt>
      <trkpt lat="43.77588" lon="5.74352">
        <ele>456</ele>
        <time>2020-12-23T13:47:26.000Z</time>
      </trkpt>
      <trkpt lat="43.77591" lon="5.74346">
        <ele>456.79998779297</ele>
        <time>2020-12-23T13:47:28.000Z</time>
      </trkpt>
      <trkpt lat="43.77593" lon="5.74343">
        <ele>457.39999389648</ele>
        <time>2020-12-23T13:47:29.000Z</time>
      </trkpt>
      <trkpt lat="43.77603" lon="5.74326">
        <ele>458</ele>
        <time>2020-12-23T13:47:34.000Z</time>
      </trkpt>
      <trkpt lat="43.77608" lon="5.74316">
        <ele>458</ele>
        <time>2020-12-23T13:47:37.000Z</time>
      </trkpt>
      <trkpt lat="43.77615" lon="5.7431">
        <ele>458</ele>
        <time>2020-12-23T13:47:41.000Z</time>
      </trkpt>
      <trkpt lat="43.77617" lon="5.74308">
        <ele>458</ele>
        <time>2020-12-23T13:47:42.000Z</time>
      </trkpt>
      <trkpt lat="43.77625" lon="5.74304">
        <ele>458</ele>
        <time>2020-12-23T13:47:47.000Z</time>
      </trkpt>
      <trkpt lat="43.77626" lon="5.74299">
        <ele>458.20001220703</ele>
        <time>2020-12-23T13:47:50.000Z</time>
      </trkpt>
      <trkpt lat="43.77623" lon="5.74296">
        <ele>458.60000610352</ele>
        <time>2020-12-23T13:47:52.000Z</time>
      </trkpt>
      <trkpt lat="43.77618" lon="5.74292">
        <ele>458.79998779297</ele>
        <time>2020-12-23T13:47:55.000Z</time>
      </trkpt>
      <trkpt lat="43.77609" lon="5.74289">
        <ele>459</ele>
        <time>2020-12-23T13:47:59.000Z</time>
      </trkpt>
      <trkpt lat="43.77604" lon="5.74286">
        <ele>459.39999389648</ele>
        <time>2020-12-23T13:48:02.000Z</time>
      </trkpt>
      <trkpt lat="43.77603" lon="5.74285">
        <ele>459.60000610352</ele>
        <time>2020-12-23T13:48:03.000Z</time>
      </trkpt>
      <trkpt lat="43.77601" lon="5.74285">
        <ele>459.79998779297</ele>
        <time>2020-12-23T13:48:04.000Z</time>
      </trkpt>
      <trkpt lat="43.77592" lon="5.74285">
        <ele>460.39999389648</ele>
        <time>2020-12-23T13:48:08.000Z</time>
      </trkpt>
      <trkpt lat="43.77587" lon="5.74285">
        <ele>461</ele>
        <time>2020-12-23T13:48:10.000Z</time>
      </trkpt>
      <trkpt lat="43.77583" lon="5.74284">
        <ele>461.39999389648</ele>
        <time>2020-12-23T13:48:12.000Z</time>
      </trkpt>
      <trkpt lat="43.77575" lon="5.74282">
        <ele>462.20001220703</ele>
        <time>2020-12-23T13:48:15.000Z</time>
      </trkpt>
      <trkpt lat="43.77572" lon="5.74281">
        <ele>462.39999389648</ele>
        <time>2020-12-23T13:48:16.000Z</time>
      </trkpt>
      <trkpt lat="43.7756" lon="5.7428">
        <ele>462.79998779297</ele>
        <time>2020-12-23T13:48:19.000Z</time>
      </trkpt>
      <trkpt lat="43.77553" lon="5.74279">
        <ele>462.79998779297</ele>
        <time>2020-12-23T13:48:21.000Z</time>
      </trkpt>
      <trkpt lat="43.77543" lon="5.74277">
        <ele>463.39999389648</ele>
        <time>2020-12-23T13:48:25.000Z</time>
      </trkpt>
      <trkpt lat="43.77527" lon="5.74274">
        <ele>464</ele>
        <time>2020-12-23T13:48:31.000Z</time>
      </trkpt>
      <trkpt lat="43.77513" lon="5.74276">
        <ele>464</ele>
        <time>2020-12-23T13:48:35.000Z</time>
      </trkpt>
      <trkpt lat="43.77489" lon="5.7428">
        <ele>463.79998779297</ele>
        <time>2020-12-23T13:48:40.000Z</time>
      </trkpt>
      <trkpt lat="43.77478" lon="5.74276">
        <ele>463.39999389648</ele>
        <time>2020-12-23T13:48:43.000Z</time>
      </trkpt>
      <trkpt lat="43.77476" lon="5.74275">
        <ele>463</ele>
        <time>2020-12-23T13:48:44.000Z</time>
      </trkpt>
      <trkpt lat="43.77471" lon="5.74274">
        <ele>461.39999389648</ele>
        <time>2020-12-23T13:48:46.000Z</time>
      </trkpt>
      <trkpt lat="43.77463" lon="5.74271">
        <ele>460.79998779297</ele>
        <time>2020-12-23T13:48:50.000Z</time>
      </trkpt>
      <trkpt lat="43.77451" lon="5.74268">
        <ele>460.79998779297</ele>
        <time>2020-12-23T13:48:55.000Z</time>
      </trkpt>
      <trkpt lat="43.77436" lon="5.74265">
        <ele>462</ele>
        <time>2020-12-23T13:49:01.000Z</time>
      </trkpt>
      <trkpt lat="43.7743" lon="5.74267">
        <ele>462.39999389648</ele>
        <time>2020-12-23T13:49:03.000Z</time>
      </trkpt>
      <trkpt lat="43.77422" lon="5.7427">
        <ele>463</ele>
        <time>2020-12-23T13:49:05.000Z</time>
      </trkpt>
      <trkpt lat="43.77416" lon="5.74271">
        <ele>463.20001220703</ele>
        <time>2020-12-23T13:49:06.000Z</time>
      </trkpt>
      <trkpt lat="43.77411" lon="5.74273">
        <ele>463.39999389648</ele>
        <time>2020-12-23T13:49:07.000Z</time>
      </trkpt>
      <trkpt lat="43.77395" lon="5.74277">
        <ele>463.39999389648</ele>
        <time>2020-12-23T13:49:10.000Z</time>
      </trkpt>
      <trkpt lat="43.77387" lon="5.7428">
        <ele>463.39999389648</ele>
        <time>2020-12-23T13:49:12.000Z</time>
      </trkpt>
      <trkpt lat="43.77374" lon="5.74277">
        <ele>462</ele>
        <time>2020-12-23T13:49:15.000Z</time>
      </trkpt>
      <trkpt lat="43.77369" lon="5.74268">
        <ele>460.79998779297</ele>
        <time>2020-12-23T13:49:18.000Z</time>
      </trkpt>
      <trkpt lat="43.77369" lon="5.74258">
        <ele>459.39999389648</ele>
        <time>2020-12-23T13:49:21.000Z</time>
      </trkpt>
      <trkpt lat="43.77368" lon="5.74254">
        <ele>458.79998779297</ele>
        <time>2020-12-23T13:49:22.000Z</time>
      </trkpt>
      <trkpt lat="43.77367" lon="5.7425">
        <ele>458.20001220703</ele>
        <time>2020-12-23T13:49:23.000Z</time>
      </trkpt>
      <trkpt lat="43.77363" lon="5.74233">
        <ele>458</ele>
        <time>2020-12-23T13:49:26.000Z</time>
      </trkpt>
      <trkpt lat="43.77363" lon="5.74226">
        <ele>457.79998779297</ele>
        <time>2020-12-23T13:49:27.000Z</time>
      </trkpt>
      <trkpt lat="43.77363" lon="5.74213">
        <ele>457.60000610352</ele>
        <time>2020-12-23T13:49:30.000Z</time>
      </trkpt>
      <trkpt lat="43.77364" lon="5.74208">
        <ele>457.39999389648</ele>
        <time>2020-12-23T13:49:32.000Z</time>
      </trkpt>
      <trkpt lat="43.77364" lon="5.74205">
        <ele>457.39999389648</ele>
        <time>2020-12-23T13:49:33.000Z</time>
      </trkpt>
      <trkpt lat="43.77363" lon="5.742">
        <ele>457.39999389648</ele>
        <time>2020-12-23T13:49:35.000Z</time>
      </trkpt>
      <trkpt lat="43.7736" lon="5.74196">
        <ele>457.39999389648</ele>
        <time>2020-12-23T13:49:37.000Z</time>
      </trkpt>
      <trkpt lat="43.77358" lon="5.74194">
        <ele>457.39999389648</ele>
        <time>2020-12-23T13:49:38.000Z</time>
      </trkpt>
      <trkpt lat="43.77358" lon="5.74192">
        <ele>457.39999389648</ele>
        <time>2020-12-23T13:49:39.000Z</time>
      </trkpt>
      <trkpt lat="43.77361" lon="5.74186">
        <ele>457.39999389648</ele>
        <time>2020-12-23T13:49:43.000Z</time>
      </trkpt>
      <trkpt lat="43.77366" lon="5.74192">
        <ele>457.60000610352</ele>
        <time>2020-12-23T13:49:47.000Z</time>
      </trkpt>
      <trkpt lat="43.77369" lon="5.74198">
        <ele>457.79998779297</ele>
        <time>2020-12-23T13:49:49.000Z</time>
      </trkpt>
      <trkpt lat="43.77372" lon="5.74213">
        <ele>458.20001220703</ele>
        <time>2020-12-23T13:49:53.000Z</time>
      </trkpt>
      <trkpt lat="43.77373" lon="5.74222">
        <ele>458.60000610352</ele>
        <time>2020-12-23T13:49:56.000Z</time>
      </trkpt>
      <trkpt lat="43.77376" lon="5.74235">
        <ele>459.20001220703</ele>
        <time>2020-12-23T13:50:00.000Z</time>
      </trkpt>
      <trkpt lat="43.77378" lon="5.74244">
        <ele>459.39999389648</ele>
        <time>2020-12-23T13:50:03.000Z</time>
      </trkpt>
      <trkpt lat="43.7738" lon="5.7425">
        <ele>459.79998779297</ele>
        <time>2020-12-23T13:50:05.000Z</time>
      </trkpt>
      <trkpt lat="43.77383" lon="5.74259">
        <ele>460.20001220703</ele>
        <time>2020-12-23T13:50:08.000Z</time>
      </trkpt>
      <trkpt lat="43.77384" lon="5.74262">
        <ele>460.39999389648</ele>
        <time>2020-12-23T13:50:09.000Z</time>
      </trkpt>
      <trkpt lat="43.77388" lon="5.74267">
        <ele>460.79998779297</ele>
        <time>2020-12-23T13:50:11.000Z</time>
      </trkpt>
      <trkpt lat="43.77391" lon="5.74265">
        <ele>462</ele>
        <time>2020-12-23T13:50:15.000Z</time>
      </trkpt>
      <trkpt lat="43.7739" lon="5.74263">
        <ele>462.20001220703</ele>
        <time>2020-12-23T13:50:16.000Z</time>
      </trkpt>
      <trkpt lat="43.77386" lon="5.74251">
        <ele>462.60000610352</ele>
        <time>2020-12-23T13:50:20.000Z</time>
      </trkpt>
      <trkpt lat="43.77386" lon="5.74248">
        <ele>462.79998779297</ele>
        <time>2020-12-23T13:50:21.000Z</time>
      </trkpt>
      <trkpt lat="43.77385" lon="5.74242">
        <ele>463.79998779297</ele>
        <time>2020-12-23T13:50:23.000Z</time>
      </trkpt>
      <trkpt lat="43.77386" lon="5.74234">
        <ele>464.39999389648</ele>
        <time>2020-12-23T13:50:26.000Z</time>
      </trkpt>
      <trkpt lat="43.77388" lon="5.74216">
        <ele>464.79998779297</ele>
        <time>2020-12-23T13:50:31.000Z</time>
      </trkpt>
      <trkpt lat="43.77392" lon="5.74204">
        <ele>465</ele>
        <time>2020-12-23T13:50:35.000Z</time>
      </trkpt>
      <trkpt lat="43.77394" lon="5.74203">
        <ele>465</ele>
        <time>2020-12-23T13:50:36.000Z</time>
      </trkpt>
      <trkpt lat="43.77398" lon="5.74208">
        <ele>465.60000610352</ele>
        <time>2020-12-23T13:50:40.000Z</time>
      </trkpt>
      <trkpt lat="43.77396" lon="5.7422">
        <ele>465.79998779297</ele>
        <time>2020-12-23T13:50:44.000Z</time>
      </trkpt>
      <trkpt lat="43.77396" lon="5.74228">
        <ele>466</ele>
        <time>2020-12-23T13:50:46.000Z</time>
      </trkpt>
      <trkpt lat="43.77395" lon="5.74238">
        <ele>467</ele>
        <time>2020-12-23T13:50:49.000Z</time>
      </trkpt>
      <trkpt lat="43.77396" lon="5.7424">
        <ele>467.20001220703</ele>
        <time>2020-12-23T13:50:50.000Z</time>
      </trkpt>
      <trkpt lat="43.77402" lon="5.7425">
        <ele>467.79998779297</ele>
        <time>2020-12-23T13:50:54.000Z</time>
      </trkpt>
      <trkpt lat="43.77404" lon="5.74248">
        <ele>468</ele>
        <time>2020-12-23T13:50:57.000Z</time>
      </trkpt>
      <trkpt lat="43.77404" lon="5.7424">
        <ele>468.20001220703</ele>
        <time>2020-12-23T13:51:00.000Z</time>
      </trkpt>
      <trkpt lat="43.77404" lon="5.74235">
        <ele>468.39999389648</ele>
        <time>2020-12-23T13:51:02.000Z</time>
      </trkpt>
      <trkpt lat="43.77404" lon="5.74232">
        <ele>468.79998779297</ele>
        <time>2020-12-23T13:51:03.000Z</time>
      </trkpt>
      <trkpt lat="43.77408" lon="5.74224">
        <ele>469.39999389648</ele>
        <time>2020-12-23T13:51:06.000Z</time>
      </trkpt>
      <trkpt lat="43.77413" lon="5.74221">
        <ele>470</ele>
        <time>2020-12-23T13:51:08.000Z</time>
      </trkpt>
      <trkpt lat="43.77417" lon="5.74221">
        <ele>470.60000610352</ele>
        <time>2020-12-23T13:51:10.000Z</time>
      </trkpt>
      <trkpt lat="43.77422" lon="5.74221">
        <ele>471</ele>
        <time>2020-12-23T13:51:12.000Z</time>
      </trkpt>
      <trkpt lat="43.77425" lon="5.7422">
        <ele>471.39999389648</ele>
        <time>2020-12-23T13:51:13.000Z</time>
      </trkpt>
      <trkpt lat="43.77434" lon="5.74219">
        <ele>471.79998779297</ele>
        <time>2020-12-23T13:51:17.000Z</time>
      </trkpt>
      <trkpt lat="43.77435" lon="5.7422">
        <ele>471.79998779297</ele>
        <time>2020-12-23T13:51:18.000Z</time>
      </trkpt>
      <trkpt lat="43.77439" lon="5.74221">
        <ele>472</ele>
        <time>2020-12-23T13:51:20.000Z</time>
      </trkpt>
      <trkpt lat="43.77439" lon="5.74224">
        <ele>472.39999389648</ele>
        <time>2020-12-23T13:51:22.000Z</time>
      </trkpt>
      <trkpt lat="43.77432" lon="5.74224">
        <ele>473</ele>
        <time>2020-12-23T13:51:25.000Z</time>
      </trkpt>
      <trkpt lat="43.77428" lon="5.74225">
        <ele>473.20001220703</ele>
        <time>2020-12-23T13:51:26.000Z</time>
      </trkpt>
      <trkpt lat="43.77421" lon="5.74232">
        <ele>474</ele>
        <time>2020-12-23T13:51:29.000Z</time>
      </trkpt>
      <trkpt lat="43.77424" lon="5.74235">
        <ele>474.60000610352</ele>
        <time>2020-12-23T13:51:32.000Z</time>
      </trkpt>
      <trkpt lat="43.77433" lon="5.74236">
        <ele>474.60000610352</ele>
        <time>2020-12-23T13:51:37.000Z</time>
      </trkpt>
      <trkpt lat="43.77445" lon="5.7423">
        <ele>474.79998779297</ele>
        <time>2020-12-23T13:51:44.000Z</time>
      </trkpt>
      <trkpt lat="43.77448" lon="5.74231">
        <ele>475.39999389648</ele>
        <time>2020-12-23T13:51:47.000Z</time>
      </trkpt>
      <trkpt lat="43.77448" lon="5.74231">
        <ele>476</ele>
        <time>2020-12-23T13:51:49.000Z</time>
      </trkpt>
      <trkpt lat="43.77448" lon="5.74232">
        <ele>476.60000610352</ele>
        <time>2020-12-23T13:51:51.000Z</time>
      </trkpt>
      <trkpt lat="43.77453" lon="5.74234">
        <ele>477.20001220703</ele>
        <time>2020-12-23T13:51:53.000Z</time>
      </trkpt>
      <trkpt lat="43.77463" lon="5.74228">
        <ele>477.60000610352</ele>
        <time>2020-12-23T13:51:57.000Z</time>
      </trkpt>
      <trkpt lat="43.77468" lon="5.74226">
        <ele>477.60000610352</ele>
        <time>2020-12-23T13:51:59.000Z</time>
      </trkpt>
      <trkpt lat="43.77473" lon="5.74227">
        <ele>477.79998779297</ele>
        <time>2020-12-23T13:52:01.000Z</time>
      </trkpt>
      <trkpt lat="43.7748" lon="5.74226">
        <ele>478</ele>
        <time>2020-12-23T13:52:04.000Z</time>
      </trkpt>
      <trkpt lat="43.77482" lon="5.74225">
        <ele>478</ele>
        <time>2020-12-23T13:52:05.000Z</time>
      </trkpt>
      <trkpt lat="43.77494" lon="5.74222">
        <ele>478.79998779297</ele>
        <time>2020-12-23T13:52:11.000Z</time>
      </trkpt>
      <trkpt lat="43.77497" lon="5.74223">
        <ele>479</ele>
        <time>2020-12-23T13:52:13.000Z</time>
      </trkpt>
      <trkpt lat="43.775" lon="5.74223">
        <ele>479.20001220703</ele>
        <time>2020-12-23T13:52:15.000Z</time>
      </trkpt>
      <trkpt lat="43.77502" lon="5.74221">
        <ele>479.39999389648</ele>
        <time>2020-12-23T13:52:16.000Z</time>
      </trkpt>
      <trkpt lat="43.77507" lon="5.7422">
        <ele>480</ele>
        <time>2020-12-23T13:52:19.000Z</time>
      </trkpt>
      <trkpt lat="43.77509" lon="5.74217">
        <ele>480.79998779297</ele>
        <time>2020-12-23T13:52:21.000Z</time>
      </trkpt>
      <trkpt lat="43.77509" lon="5.74215">
        <ele>481.20001220703</ele>
        <time>2020-12-23T13:52:22.000Z</time>
      </trkpt>
      <trkpt lat="43.77512" lon="5.74212">
        <ele>483</ele>
        <time>2020-12-23T13:52:25.000Z</time>
      </trkpt>
      <trkpt lat="43.77516" lon="5.74214">
        <ele>483.79998779297</ele>
        <time>2020-12-23T13:52:27.000Z</time>
      </trkpt>
      <trkpt lat="43.77521" lon="5.74215">
        <ele>484.39999389648</ele>
        <time>2020-12-23T13:52:29.000Z</time>
      </trkpt>
      <trkpt lat="43.77528" lon="5.74215">
        <ele>485.60000610352</ele>
        <time>2020-12-23T13:52:32.000Z</time>
      </trkpt>
      <trkpt lat="43.77535" lon="5.74215">
        <ele>486.20001220703</ele>
        <time>2020-12-23T13:52:35.000Z</time>
      </trkpt>
      <trkpt lat="43.77547" lon="5.74216">
        <ele>486.60000610352</ele>
        <time>2020-12-23T13:52:42.000Z</time>
      </trkpt>
      <trkpt lat="43.77549" lon="5.74215">
        <ele>486.79998779297</ele>
        <time>2020-12-23T13:52:43.000Z</time>
      </trkpt>
      <trkpt lat="43.77558" lon="5.74214">
        <ele>487.20001220703</ele>
        <time>2020-12-23T13:52:49.000Z</time>
      </trkpt>
      <trkpt lat="43.7756" lon="5.74213">
        <ele>487.39999389648</ele>
        <time>2020-12-23T13:52:50.000Z</time>
      </trkpt>
      <trkpt lat="43.7756" lon="5.74212">
        <ele>487.60000610352</ele>
        <time>2020-12-23T13:52:51.000Z</time>
      </trkpt>
      <trkpt lat="43.77559" lon="5.7421">
        <ele>488.79998779297</ele>
        <time>2020-12-23T13:52:53.000Z</time>
      </trkpt>
      <trkpt lat="43.77557" lon="5.74209">
        <ele>489</ele>
        <time>2020-12-23T13:52:54.000Z</time>
      </trkpt>
      <trkpt lat="43.77554" lon="5.74208">
        <ele>489</ele>
        <time>2020-12-23T13:52:55.000Z</time>
      </trkpt>
      <trkpt lat="43.7755" lon="5.74207">
        <ele>489</ele>
        <time>2020-12-23T13:52:57.000Z</time>
      </trkpt>
      <trkpt lat="43.77545" lon="5.74205">
        <ele>490</ele>
        <time>2020-12-23T13:53:00.000Z</time>
      </trkpt>
      <trkpt lat="43.77543" lon="5.74202">
        <ele>490.60000610352</ele>
        <time>2020-12-23T13:53:02.000Z</time>
      </trkpt>
      <trkpt lat="43.77543" lon="5.74199">
        <ele>491.20001220703</ele>
        <time>2020-12-23T13:53:04.000Z</time>
      </trkpt>
      <trkpt lat="43.77546" lon="5.74198">
        <ele>491.60000610352</ele>
        <time>2020-12-23T13:53:06.000Z</time>
      </trkpt>
      <trkpt lat="43.77553" lon="5.74197">
        <ele>492.20001220703</ele>
        <time>2020-12-23T13:53:10.000Z</time>
      </trkpt>
      <trkpt lat="43.77556" lon="5.74193">
        <ele>492.20001220703</ele>
        <time>2020-12-23T13:53:12.000Z</time>
      </trkpt>
      <trkpt lat="43.77561" lon="5.74191">
        <ele>492.79998779297</ele>
        <time>2020-12-23T13:53:16.000Z</time>
      </trkpt>
      <trkpt lat="43.77565" lon="5.74192">
        <ele>493.39999389648</ele>
        <time>2020-12-23T13:53:18.000Z</time>
      </trkpt>
      <trkpt lat="43.77568" lon="5.74193">
        <ele>494.79998779297</ele>
        <time>2020-12-23T13:53:20.000Z</time>
      </trkpt>
      <trkpt lat="43.77573" lon="5.74192">
        <ele>495.60000610352</ele>
        <time>2020-12-23T13:53:23.000Z</time>
      </trkpt>
      <trkpt lat="43.77574" lon="5.74192">
        <ele>495.79998779297</ele>
        <time>2020-12-23T13:53:24.000Z</time>
      </trkpt>
      <trkpt lat="43.77577" lon="5.74192">
        <ele>496.20001220703</ele>
        <time>2020-12-23T13:53:26.000Z</time>
      </trkpt>
      <trkpt lat="43.77579" lon="5.74187">
        <ele>497</ele>
        <time>2020-12-23T13:53:29.000Z</time>
      </trkpt>
      <trkpt lat="43.7758" lon="5.74183">
        <ele>497.60000610352</ele>
        <time>2020-12-23T13:53:31.000Z</time>
      </trkpt>
      <trkpt lat="43.7758" lon="5.74181">
        <ele>497.60000610352</ele>
        <time>2020-12-23T13:53:32.000Z</time>
      </trkpt>
      <trkpt lat="43.77583" lon="5.74175">
        <ele>497.79998779297</ele>
        <time>2020-12-23T13:53:35.000Z</time>
      </trkpt>
      <trkpt lat="43.77586" lon="5.7417">
        <ele>498.20001220703</ele>
        <time>2020-12-23T13:53:38.000Z</time>
      </trkpt>
      <trkpt lat="43.77589" lon="5.74163">
        <ele>499.20001220703</ele>
        <time>2020-12-23T13:53:42.000Z</time>
      </trkpt>
      <trkpt lat="43.7759" lon="5.74161">
        <ele>499.39999389648</ele>
        <time>2020-12-23T13:53:43.000Z</time>
      </trkpt>
      <trkpt lat="43.77596" lon="5.74151">
        <ele>500.20001220703</ele>
        <time>2020-12-23T13:53:48.000Z</time>
      </trkpt>
      <trkpt lat="43.77603" lon="5.74145">
        <ele>500.60000610352</ele>
        <time>2020-12-23T13:53:51.000Z</time>
      </trkpt>
      <trkpt lat="43.77606" lon="5.74145">
        <ele>501.20001220703</ele>
        <time>2020-12-23T13:53:53.000Z</time>
      </trkpt>
      <trkpt lat="43.77611" lon="5.74148">
        <ele>501.79998779297</ele>
        <time>2020-12-23T13:53:56.000Z</time>
      </trkpt>
      <trkpt lat="43.77618" lon="5.7415">
        <ele>502</ele>
        <time>2020-12-23T13:53:59.000Z</time>
      </trkpt>
      <trkpt lat="43.77625" lon="5.74149">
        <ele>502.60000610352</ele>
        <time>2020-12-23T13:54:03.000Z</time>
      </trkpt>
      <trkpt lat="43.77626" lon="5.7415">
        <ele>503</ele>
        <time>2020-12-23T13:54:04.000Z</time>
      </trkpt>
      <trkpt lat="43.77633" lon="5.74153">
        <ele>504.20001220703</ele>
        <time>2020-12-23T13:54:08.000Z</time>
      </trkpt>
      <trkpt lat="43.77634" lon="5.74154">
        <ele>504.39999389648</ele>
        <time>2020-12-23T13:54:09.000Z</time>
      </trkpt>
      <trkpt lat="43.77635" lon="5.74157">
        <ele>504.39999389648</ele>
        <time>2020-12-23T13:54:10.000Z</time>
      </trkpt>
      <trkpt lat="43.77641" lon="5.74165">
        <ele>505.60000610352</ele>
        <time>2020-12-23T13:54:14.000Z</time>
      </trkpt>
      <trkpt lat="43.77643" lon="5.74165">
        <ele>506.60000610352</ele>
        <time>2020-12-23T13:54:15.000Z</time>
      </trkpt>
      <trkpt lat="43.77648" lon="5.74162">
        <ele>507.79998779297</ele>
        <time>2020-12-23T13:54:18.000Z</time>
      </trkpt>
      <trkpt lat="43.77663" lon="5.74159">
        <ele>508.39999389648</ele>
        <time>2020-12-23T13:54:24.000Z</time>
      </trkpt>
      <trkpt lat="43.77665" lon="5.74159">
        <ele>508.60000610352</ele>
        <time>2020-12-23T13:54:25.000Z</time>
      </trkpt>
      <trkpt lat="43.77667" lon="5.74159">
        <ele>508.79998779297</ele>
        <time>2020-12-23T13:54:26.000Z</time>
      </trkpt>
      <trkpt lat="43.77676" lon="5.74155">
        <ele>509.20001220703</ele>
        <time>2020-12-23T13:54:30.000Z</time>
      </trkpt>
      <trkpt lat="43.7768" lon="5.74153">
        <ele>509.60000610352</ele>
        <time>2020-12-23T13:54:32.000Z</time>
      </trkpt>
      <trkpt lat="43.77689" lon="5.74154">
        <ele>509.79998779297</ele>
        <time>2020-12-23T13:54:35.000Z</time>
      </trkpt>
      <trkpt lat="43.77701" lon="5.74151">
        <ele>510.20001220703</ele>
        <time>2020-12-23T13:54:40.000Z</time>
      </trkpt>
      <trkpt lat="43.77714" lon="5.74144">
        <ele>510.60000610352</ele>
        <time>2020-12-23T13:54:46.000Z</time>
      </trkpt>
      <trkpt lat="43.77724" lon="5.74142">
        <ele>511.20001220703</ele>
        <time>2020-12-23T13:54:49.000Z</time>
      </trkpt>
      <trkpt lat="43.77731" lon="5.74139">
        <ele>512</ele>
        <time>2020-12-23T13:54:52.000Z</time>
      </trkpt>
      <trkpt lat="43.77733" lon="5.74137">
        <ele>512.20001220703</ele>
        <time>2020-12-23T13:54:53.000Z</time>
      </trkpt>
      <trkpt lat="43.77747" lon="5.74131">
        <ele>512.79998779297</ele>
        <time>2020-12-23T13:54:59.000Z</time>
      </trkpt>
      <trkpt lat="43.77757" lon="5.74134">
        <ele>513.20001220703</ele>
        <time>2020-12-23T13:55:04.000Z</time>
      </trkpt>
      <trkpt lat="43.77759" lon="5.74135">
        <ele>513.40002441406</ele>
        <time>2020-12-23T13:55:05.000Z</time>
      </trkpt>
      <trkpt lat="43.77771" lon="5.74142">
        <ele>514.40002441406</ele>
        <time>2020-12-23T13:55:11.000Z</time>
      </trkpt>
      <trkpt lat="43.77773" lon="5.74143">
        <ele>514.79998779297</ele>
        <time>2020-12-23T13:55:12.000Z</time>
      </trkpt>
      <trkpt lat="43.77782" lon="5.74142">
        <ele>515.40002441406</ele>
        <time>2020-12-23T13:55:16.000Z</time>
      </trkpt>
      <trkpt lat="43.77786" lon="5.7414">
        <ele>515.79998779297</ele>
        <time>2020-12-23T13:55:18.000Z</time>
      </trkpt>
      <trkpt lat="43.77797" lon="5.74131">
        <ele>516.79998779297</ele>
        <time>2020-12-23T13:55:24.000Z</time>
      </trkpt>
      <trkpt lat="43.77808" lon="5.74127">
        <ele>518</ele>
        <time>2020-12-23T13:55:29.000Z</time>
      </trkpt>
      <trkpt lat="43.7781" lon="5.74136">
        <ele>519.20001220703</ele>
        <time>2020-12-23T13:55:33.000Z</time>
      </trkpt>
      <trkpt lat="43.77809" lon="5.7414">
        <ele>519.20001220703</ele>
        <time>2020-12-23T13:55:34.000Z</time>
      </trkpt>
      <trkpt lat="43.77809" lon="5.74152">
        <ele>520.20001220703</ele>
        <time>2020-12-23T13:55:38.000Z</time>
      </trkpt>
      <trkpt lat="43.77812" lon="5.74156">
        <ele>520.40002441406</ele>
        <time>2020-12-23T13:55:40.000Z</time>
      </trkpt>
      <trkpt lat="43.77817" lon="5.7416">
        <ele>520.59997558594</ele>
        <time>2020-12-23T13:55:43.000Z</time>
      </trkpt>
      <trkpt lat="43.77828" lon="5.74174">
        <ele>521.20001220703</ele>
        <time>2020-12-23T13:55:49.000Z</time>
      </trkpt>
      <trkpt lat="43.7783" lon="5.74176">
        <ele>521.59997558594</ele>
        <time>2020-12-23T13:55:50.000Z</time>
      </trkpt>
      <trkpt lat="43.77836" lon="5.7418">
        <ele>522.59997558594</ele>
        <time>2020-12-23T13:55:53.000Z</time>
      </trkpt>
      <trkpt lat="43.77838" lon="5.7418">
        <ele>522.79998779297</ele>
        <time>2020-12-23T13:55:54.000Z</time>
      </trkpt>
      <trkpt lat="43.77852" lon="5.74189">
        <ele>523.79998779297</ele>
        <time>2020-12-23T13:56:01.000Z</time>
      </trkpt>
      <trkpt lat="43.77854" lon="5.7419">
        <ele>523.79998779297</ele>
        <time>2020-12-23T13:56:02.000Z</time>
      </trkpt>
      <trkpt lat="43.77862" lon="5.74188">
        <ele>524.79998779297</ele>
        <time>2020-12-23T13:56:06.000Z</time>
      </trkpt>
      <trkpt lat="43.77868" lon="5.7419">
        <ele>525.59997558594</ele>
        <time>2020-12-23T13:56:09.000Z</time>
      </trkpt>
      <trkpt lat="43.7787" lon="5.74192">
        <ele>526</ele>
        <time>2020-12-23T13:56:10.000Z</time>
      </trkpt>
      <trkpt lat="43.7788" lon="5.7419">
        <ele>527</ele>
        <time>2020-12-23T13:56:14.000Z</time>
      </trkpt>
      <trkpt lat="43.77883" lon="5.74188">
        <ele>527.20001220703</ele>
        <time>2020-12-23T13:56:15.000Z</time>
      </trkpt>
      <trkpt lat="43.77895" lon="5.74186">
        <ele>527.40002441406</ele>
        <time>2020-12-23T13:56:20.000Z</time>
      </trkpt>
      <trkpt lat="43.7791" lon="5.74192">
        <ele>528</ele>
        <time>2020-12-23T13:56:26.000Z</time>
      </trkpt>
      <trkpt lat="43.77912" lon="5.74194">
        <ele>528</ele>
        <time>2020-12-23T13:56:27.000Z</time>
      </trkpt>
      <trkpt lat="43.77914" lon="5.74197">
        <ele>528.20001220703</ele>
        <time>2020-12-23T13:56:28.000Z</time>
      </trkpt>
      <trkpt lat="43.77914" lon="5.74202">
        <ele>528.59997558594</ele>
        <time>2020-12-23T13:56:30.000Z</time>
      </trkpt>
      <trkpt lat="43.7791" lon="5.74209">
        <ele>528.79998779297</ele>
        <time>2020-12-23T13:56:33.000Z</time>
      </trkpt>
      <trkpt lat="43.77908" lon="5.74212">
        <ele>528.79998779297</ele>
        <time>2020-12-23T13:56:34.000Z</time>
      </trkpt>
      <trkpt lat="43.77902" lon="5.74229">
        <ele>529.40002441406</ele>
        <time>2020-12-23T13:56:39.000Z</time>
      </trkpt>
      <trkpt lat="43.77902" lon="5.74232">
        <ele>529.79998779297</ele>
        <time>2020-12-23T13:56:43.000Z</time>
      </trkpt>
      <trkpt lat="43.77902" lon="5.74232">
        <ele>530.20001220703</ele>
        <time>2020-12-23T13:56:56.000Z</time>
      </trkpt>
      <trkpt lat="43.77902" lon="5.74232">
        <ele>530.20001220703</ele>
        <time>2020-12-23T13:57:14.000Z</time>
      </trkpt>
      <trkpt lat="43.77902" lon="5.74232">
        <ele>530.40002441406</ele>
        <time>2020-12-23T13:57:41.000Z</time>
      </trkpt>
      <trkpt lat="43.77902" lon="5.74232">
        <ele>530.40002441406</ele>
        <time>2020-12-23T13:57:42.000Z</time>
      </trkpt>
      <trkpt lat="43.77902" lon="5.74232">
        <ele>530.59997558594</ele>
        <time>2020-12-23T13:57:44.000Z</time>
      </trkpt>
      <trkpt lat="43.77902" lon="5.74232">
        <ele>530.20001220703</ele>
        <time>2020-12-23T13:58:01.000Z</time>
      </trkpt>
      <trkpt lat="43.77903" lon="5.74233">
        <ele>530.40002441406</ele>
        <time>2020-12-23T13:58:15.000Z</time>
      </trkpt>
      <trkpt lat="43.77903" lon="5.74238">
        <ele>530.40002441406</ele>
        <time>2020-12-23T13:58:19.000Z</time>
      </trkpt>
      <trkpt lat="43.77902" lon="5.74245">
        <ele>530.40002441406</ele>
        <time>2020-12-23T13:58:21.000Z</time>
      </trkpt>
      <trkpt lat="43.77909" lon="5.7426">
        <ele>530.40002441406</ele>
        <time>2020-12-23T13:58:26.000Z</time>
      </trkpt>
      <trkpt lat="43.77915" lon="5.74283">
        <ele>530.40002441406</ele>
        <time>2020-12-23T13:58:32.000Z</time>
      </trkpt>
      <trkpt lat="43.77921" lon="5.74301">
        <ele>531</ele>
        <time>2020-12-23T13:58:38.000Z</time>
      </trkpt>
      <trkpt lat="43.77922" lon="5.74304">
        <ele>531</ele>
        <time>2020-12-23T13:58:39.000Z</time>
      </trkpt>
      <trkpt lat="43.77927" lon="5.74316">
        <ele>531.20001220703</ele>
        <time>2020-12-23T13:58:43.000Z</time>
      </trkpt>
      <trkpt lat="43.77927" lon="5.74318">
        <ele>531.20001220703</ele>
        <time>2020-12-23T13:58:44.000Z</time>
      </trkpt>
      <trkpt lat="43.77922" lon="5.74321">
        <ele>531.20001220703</ele>
        <time>2020-12-23T13:58:48.000Z</time>
      </trkpt>
      <trkpt lat="43.77923" lon="5.74331">
        <ele>531.40002441406</ele>
        <time>2020-12-23T13:58:52.000Z</time>
      </trkpt>
      <trkpt lat="43.77925" lon="5.7434">
        <ele>531.59997558594</ele>
        <time>2020-12-23T13:58:55.000Z</time>
      </trkpt>
      <trkpt lat="43.77929" lon="5.74352">
        <ele>532.20001220703</ele>
        <time>2020-12-23T13:58:59.000Z</time>
      </trkpt>
      <trkpt lat="43.77936" lon="5.74367">
        <ele>533</ele>
        <time>2020-12-23T13:59:05.000Z</time>
      </trkpt>
      <trkpt lat="43.77936" lon="5.7437">
        <ele>533.20001220703</ele>
        <time>2020-12-23T13:59:06.000Z</time>
      </trkpt>
      <trkpt lat="43.77935" lon="5.74372">
        <ele>533.40002441406</ele>
        <time>2020-12-23T13:59:07.000Z</time>
      </trkpt>
      <trkpt lat="43.77931" lon="5.74373">
        <ele>533.79998779297</ele>
        <time>2020-12-23T13:59:09.000Z</time>
      </trkpt>
      <trkpt lat="43.77925" lon="5.74371">
        <ele>534.59997558594</ele>
        <time>2020-12-23T13:59:12.000Z</time>
      </trkpt>
      <trkpt lat="43.7792" lon="5.74368">
        <ele>535.20001220703</ele>
        <time>2020-12-23T13:59:14.000Z</time>
      </trkpt>
      <trkpt lat="43.77915" lon="5.74368">
        <ele>536</ele>
        <time>2020-12-23T13:59:16.000Z</time>
      </trkpt>
      <trkpt lat="43.7791" lon="5.7437">
        <ele>536.59997558594</ele>
        <time>2020-12-23T13:59:18.000Z</time>
      </trkpt>
      <trkpt lat="43.77907" lon="5.74371">
        <ele>537</ele>
        <time>2020-12-23T13:59:19.000Z</time>
      </trkpt>
      <trkpt lat="43.77904" lon="5.74373">
        <ele>537</ele>
        <time>2020-12-23T13:59:20.000Z</time>
      </trkpt>
      <trkpt lat="43.77893" lon="5.74378">
        <ele>537.40002441406</ele>
        <time>2020-12-23T13:59:25.000Z</time>
      </trkpt>
      <trkpt lat="43.77889" lon="5.7438">
        <ele>537.59997558594</ele>
        <time>2020-12-23T13:59:27.000Z</time>
      </trkpt>
      <trkpt lat="43.7789" lon="5.74383">
        <ele>537.59997558594</ele>
        <time>2020-12-23T13:59:29.000Z</time>
      </trkpt>
      <trkpt lat="43.77898" lon="5.74382">
        <ele>538</ele>
        <time>2020-12-23T13:59:33.000Z</time>
      </trkpt>
      <trkpt lat="43.77902" lon="5.74382">
        <ele>538.20001220703</ele>
        <time>2020-12-23T13:59:35.000Z</time>
      </trkpt>
      <trkpt lat="43.7791" lon="5.74381">
        <ele>539.40002441406</ele>
        <time>2020-12-23T13:59:39.000Z</time>
      </trkpt>
      <trkpt lat="43.77912" lon="5.74381">
        <ele>539.40002441406</ele>
        <time>2020-12-23T13:59:40.000Z</time>
      </trkpt>
      <trkpt lat="43.77923" lon="5.74383">
        <ele>540</ele>
        <time>2020-12-23T13:59:44.000Z</time>
      </trkpt>
      <trkpt lat="43.77927" lon="5.74386">
        <ele>540.40002441406</ele>
        <time>2020-12-23T13:59:46.000Z</time>
      </trkpt>
      <trkpt lat="43.77929" lon="5.74387">
        <ele>540.40002441406</ele>
        <time>2020-12-23T13:59:47.000Z</time>
      </trkpt>
      <trkpt lat="43.7794" lon="5.74395">
        <ele>541.40002441406</ele>
        <time>2020-12-23T13:59:52.000Z</time>
      </trkpt>
      <trkpt lat="43.77937" lon="5.74398">
        <ele>541.59997558594</ele>
        <time>2020-12-23T13:59:55.000Z</time>
      </trkpt>
      <trkpt lat="43.77936" lon="5.74397">
        <ele>541.79998779297</ele>
        <time>2020-12-23T13:59:56.000Z</time>
      </trkpt>
      <trkpt lat="43.77925" lon="5.74393">
        <ele>541.79998779297</ele>
        <time>2020-12-23T14:00:00.000Z</time>
      </trkpt>
      <trkpt lat="43.77915" lon="5.74394">
        <ele>542.79998779297</ele>
        <time>2020-12-23T14:00:04.000Z</time>
      </trkpt>
      <trkpt lat="43.77917" lon="5.744">
        <ele>543.20001220703</ele>
        <time>2020-12-23T14:00:07.000Z</time>
      </trkpt>
      <trkpt lat="43.77925" lon="5.74404">
        <ele>543.59997558594</ele>
        <time>2020-12-23T14:00:11.000Z</time>
      </trkpt>
      <trkpt lat="43.77929" lon="5.74405">
        <ele>544</ele>
        <time>2020-12-23T14:00:13.000Z</time>
      </trkpt>
      <trkpt lat="43.77931" lon="5.74407">
        <ele>544.20001220703</ele>
        <time>2020-12-23T14:00:14.000Z</time>
      </trkpt>
      <trkpt lat="43.77935" lon="5.74412">
        <ele>545.20001220703</ele>
        <time>2020-12-23T14:00:17.000Z</time>
      </trkpt>
      <trkpt lat="43.77938" lon="5.74417">
        <ele>545.79998779297</ele>
        <time>2020-12-23T14:00:19.000Z</time>
      </trkpt>
      <trkpt lat="43.77935" lon="5.74425">
        <ele>546.20001220703</ele>
        <time>2020-12-23T14:00:22.000Z</time>
      </trkpt>
      <trkpt lat="43.77936" lon="5.74428">
        <ele>546.40002441406</ele>
        <time>2020-12-23T14:00:23.000Z</time>
      </trkpt>
      <trkpt lat="43.77936" lon="5.74436">
        <ele>547.59997558594</ele>
        <time>2020-12-23T14:00:26.000Z</time>
      </trkpt>
      <trkpt lat="43.77934" lon="5.74438">
        <ele>547.79998779297</ele>
        <time>2020-12-23T14:00:27.000Z</time>
      </trkpt>
      <trkpt lat="43.77933" lon="5.74439">
        <ele>548.20001220703</ele>
        <time>2020-12-23T14:00:28.000Z</time>
      </trkpt>
      <trkpt lat="43.77931" lon="5.74441">
        <ele>548.59997558594</ele>
        <time>2020-12-23T14:00:30.000Z</time>
      </trkpt>
      <trkpt lat="43.7793" lon="5.74441">
        <ele>548.59997558594</ele>
        <time>2020-12-23T14:00:32.000Z</time>
      </trkpt>
      <trkpt lat="43.7793" lon="5.74441">
        <ele>548.79998779297</ele>
        <time>2020-12-23T14:00:44.000Z</time>
      </trkpt>
      <trkpt lat="43.77929" lon="5.74442">
        <ele>549</ele>
        <time>2020-12-23T14:00:55.000Z</time>
      </trkpt>
      <trkpt lat="43.77921" lon="5.74449">
        <ele>549</ele>
        <time>2020-12-23T14:00:58.000Z</time>
      </trkpt>
      <trkpt lat="43.77898" lon="5.74463">
        <ele>548.79998779297</ele>
        <time>2020-12-23T14:01:03.000Z</time>
      </trkpt>
      <trkpt lat="43.77872" lon="5.74474">
        <ele>547.40002441406</ele>
        <time>2020-12-23T14:01:07.000Z</time>
      </trkpt>
      <trkpt lat="43.77865" lon="5.74475">
        <ele>547</ele>
        <time>2020-12-23T14:01:08.000Z</time>
      </trkpt>
      <trkpt lat="43.77851" lon="5.74476">
        <ele>546</ele>
        <time>2020-12-23T14:01:10.000Z</time>
      </trkpt>
      <trkpt lat="43.77837" lon="5.74476">
        <ele>544.59997558594</ele>
        <time>2020-12-23T14:01:12.000Z</time>
      </trkpt>
      <trkpt lat="43.77831" lon="5.74474">
        <ele>543.20001220703</ele>
        <time>2020-12-23T14:01:13.000Z</time>
      </trkpt>
      <trkpt lat="43.77822" lon="5.74468">
        <ele>542.20001220703</ele>
        <time>2020-12-23T14:01:15.000Z</time>
      </trkpt>
      <trkpt lat="43.77819" lon="5.74466">
        <ele>541.79998779297</ele>
        <time>2020-12-23T14:01:16.000Z</time>
      </trkpt>
      <trkpt lat="43.77814" lon="5.74461">
        <ele>540.79998779297</ele>
        <time>2020-12-23T14:01:19.000Z</time>
      </trkpt>
      <trkpt lat="43.77806" lon="5.74457">
        <ele>540</ele>
        <time>2020-12-23T14:01:23.000Z</time>
      </trkpt>
      <trkpt lat="43.77803" lon="5.74455">
        <ele>539.59997558594</ele>
        <time>2020-12-23T14:01:25.000Z</time>
      </trkpt>
      <trkpt lat="43.77801" lon="5.74454">
        <ele>539.40002441406</ele>
        <time>2020-12-23T14:01:27.000Z</time>
      </trkpt>
      <trkpt lat="43.77796" lon="5.74449">
        <ele>538.79998779297</ele>
        <time>2020-12-23T14:01:30.000Z</time>
      </trkpt>
      <trkpt lat="43.77796" lon="5.74447">
        <ele>538.40002441406</ele>
        <time>2020-12-23T14:01:31.000Z</time>
      </trkpt>
      <trkpt lat="43.77794" lon="5.7444">
        <ele>537.40002441406</ele>
        <time>2020-12-23T14:01:33.000Z</time>
      </trkpt>
      <trkpt lat="43.77792" lon="5.74437">
        <ele>537</ele>
        <time>2020-12-23T14:01:34.000Z</time>
      </trkpt>
      <trkpt lat="43.7778" lon="5.74442">
        <ele>536.20001220703</ele>
        <time>2020-12-23T14:01:37.000Z</time>
      </trkpt>
      <trkpt lat="43.77772" lon="5.74443">
        <ele>534.79998779297</ele>
        <time>2020-12-23T14:01:40.000Z</time>
      </trkpt>
      <trkpt lat="43.77764" lon="5.74442">
        <ele>534.40002441406</ele>
        <time>2020-12-23T14:01:43.000Z</time>
      </trkpt>
      <trkpt lat="43.77759" lon="5.74447">
        <ele>533.20001220703</ele>
        <time>2020-12-23T14:01:45.000Z</time>
      </trkpt>
      <trkpt lat="43.77756" lon="5.74449">
        <ele>532.20001220703</ele>
        <time>2020-12-23T14:01:46.000Z</time>
      </trkpt>
      <trkpt lat="43.77753" lon="5.74448">
        <ele>531.59997558594</ele>
        <time>2020-12-23T14:01:47.000Z</time>
      </trkpt>
      <trkpt lat="43.77747" lon="5.74447">
        <ele>531</ele>
        <time>2020-12-23T14:01:49.000Z</time>
      </trkpt>
      <trkpt lat="43.77743" lon="5.74449">
        <ele>530.40002441406</ele>
        <time>2020-12-23T14:01:50.000Z</time>
      </trkpt>
      <trkpt lat="43.77735" lon="5.74455">
        <ele>529.40002441406</ele>
        <time>2020-12-23T14:01:52.000Z</time>
      </trkpt>
      <trkpt lat="43.7773" lon="5.74457">
        <ele>528.79998779297</ele>
        <time>2020-12-23T14:01:53.000Z</time>
      </trkpt>
      <trkpt lat="43.77726" lon="5.74457">
        <ele>527.79998779297</ele>
        <time>2020-12-23T14:01:54.000Z</time>
      </trkpt>
      <trkpt lat="43.7772" lon="5.74455">
        <ele>526.59997558594</ele>
        <time>2020-12-23T14:01:56.000Z</time>
      </trkpt>
      <trkpt lat="43.77708" lon="5.7446">
        <ele>525.59997558594</ele>
        <time>2020-12-23T14:01:59.000Z</time>
      </trkpt>
      <trkpt lat="43.77703" lon="5.74462">
        <ele>525</ele>
        <time>2020-12-23T14:02:00.000Z</time>
      </trkpt>
      <trkpt lat="43.77695" lon="5.74461">
        <ele>523.40002441406</ele>
        <time>2020-12-23T14:02:02.000Z</time>
      </trkpt>
      <trkpt lat="43.77692" lon="5.7446">
        <ele>522.79998779297</ele>
        <time>2020-12-23T14:02:03.000Z</time>
      </trkpt>
      <trkpt lat="43.77687" lon="5.74458">
        <ele>522.20001220703</ele>
        <time>2020-12-23T14:02:05.000Z</time>
      </trkpt>
      <trkpt lat="43.77679" lon="5.74462">
        <ele>520.79998779297</ele>
        <time>2020-12-23T14:02:07.000Z</time>
      </trkpt>
      <trkpt lat="43.77673" lon="5.74473">
        <ele>519.79998779297</ele>
        <time>2020-12-23T14:02:09.000Z</time>
      </trkpt>
      <trkpt lat="43.77667" lon="5.7448">
        <ele>519.20001220703</ele>
        <time>2020-12-23T14:02:11.000Z</time>
      </trkpt>
      <trkpt lat="43.77657" lon="5.74481">
        <ele>518.40002441406</ele>
        <time>2020-12-23T14:02:14.000Z</time>
      </trkpt>
      <trkpt lat="43.7765" lon="5.74479">
        <ele>517</ele>
        <time>2020-12-23T14:02:16.000Z</time>
      </trkpt>
      <trkpt lat="43.77646" lon="5.7448">
        <ele>516</ele>
        <time>2020-12-23T14:02:17.000Z</time>
      </trkpt>
      <trkpt lat="43.77643" lon="5.74483">
        <ele>515.20001220703</ele>
        <time>2020-12-23T14:02:18.000Z</time>
      </trkpt>
      <trkpt lat="43.77641" lon="5.74487">
        <ele>514.20001220703</ele>
        <time>2020-12-23T14:02:19.000Z</time>
      </trkpt>
      <trkpt lat="43.7764" lon="5.74493">
        <ele>513.20001220703</ele>
        <time>2020-12-23T14:02:20.000Z</time>
      </trkpt>
      <trkpt lat="43.77636" lon="5.74502">
        <ele>511.79998779297</ele>
        <time>2020-12-23T14:02:22.000Z</time>
      </trkpt>
      <trkpt lat="43.77633" lon="5.74505">
        <ele>511.60000610352</ele>
        <time>2020-12-23T14:02:23.000Z</time>
      </trkpt>
      <trkpt lat="43.77626" lon="5.74506">
        <ele>510.60000610352</ele>
        <time>2020-12-23T14:02:25.000Z</time>
      </trkpt>
      <trkpt lat="43.77622" lon="5.74505">
        <ele>509.79998779297</ele>
        <time>2020-12-23T14:02:26.000Z</time>
      </trkpt>
      <trkpt lat="43.77619" lon="5.74502">
        <ele>509.20001220703</ele>
        <time>2020-12-23T14:02:27.000Z</time>
      </trkpt>
      <trkpt lat="43.77616" lon="5.74496">
        <ele>507.79998779297</ele>
        <time>2020-12-23T14:02:29.000Z</time>
      </trkpt>
      <trkpt lat="43.77614" lon="5.74493">
        <ele>506.79998779297</ele>
        <time>2020-12-23T14:02:30.000Z</time>
      </trkpt>
      <trkpt lat="43.77611" lon="5.74493">
        <ele>506</ele>
        <time>2020-12-23T14:02:31.000Z</time>
      </trkpt>
      <trkpt lat="43.77607" lon="5.74497">
        <ele>504.60000610352</ele>
        <time>2020-12-23T14:02:33.000Z</time>
      </trkpt>
      <trkpt lat="43.77603" lon="5.74501">
        <ele>503.79998779297</ele>
        <time>2020-12-23T14:02:35.000Z</time>
      </trkpt>
      <trkpt lat="43.77601" lon="5.74502">
        <ele>503.60000610352</ele>
        <time>2020-12-23T14:02:36.000Z</time>
      </trkpt>
      <trkpt lat="43.77596" lon="5.74504">
        <ele>503</ele>
        <time>2020-12-23T14:02:38.000Z</time>
      </trkpt>
      <trkpt lat="43.77593" lon="5.74511">
        <ele>502.60000610352</ele>
        <time>2020-12-23T14:02:41.000Z</time>
      </trkpt>
      <trkpt lat="43.77594" lon="5.74514">
        <ele>502.60000610352</ele>
        <time>2020-12-23T14:02:42.000Z</time>
      </trkpt>
      <trkpt lat="43.77594" lon="5.74516">
        <ele>502.39999389648</ele>
        <time>2020-12-23T14:02:43.000Z</time>
      </trkpt>
      <trkpt lat="43.7759" lon="5.7452">
        <ele>502</ele>
        <time>2020-12-23T14:02:45.000Z</time>
      </trkpt>
      <trkpt lat="43.77583" lon="5.74519">
        <ele>501.20001220703</ele>
        <time>2020-12-23T14:02:47.000Z</time>
      </trkpt>
      <trkpt lat="43.7758" lon="5.74517">
        <ele>501</ele>
        <time>2020-12-23T14:02:48.000Z</time>
      </trkpt>
      <trkpt lat="43.77576" lon="5.74513">
        <ele>500.39999389648</ele>
        <time>2020-12-23T14:02:50.000Z</time>
      </trkpt>
      <trkpt lat="43.77574" lon="5.74515">
        <ele>500.20001220703</ele>
        <time>2020-12-23T14:02:51.000Z</time>
      </trkpt>
      <trkpt lat="43.77573" lon="5.74522">
        <ele>499.20001220703</ele>
        <time>2020-12-23T14:02:53.000Z</time>
      </trkpt>
      <trkpt lat="43.77573" lon="5.7453">
        <ele>497.79998779297</ele>
        <time>2020-12-23T14:02:55.000Z</time>
      </trkpt>
      <trkpt lat="43.77571" lon="5.74533">
        <ele>497</ele>
        <time>2020-12-23T14:02:56.000Z</time>
      </trkpt>
      <trkpt lat="43.77569" lon="5.74534">
        <ele>496.60000610352</ele>
        <time>2020-12-23T14:02:57.000Z</time>
      </trkpt>
      <trkpt lat="43.77566" lon="5.74534">
        <ele>496.20001220703</ele>
        <time>2020-12-23T14:02:58.000Z</time>
      </trkpt>
      <trkpt lat="43.7756" lon="5.74531">
        <ele>495.39999389648</ele>
        <time>2020-12-23T14:03:00.000Z</time>
      </trkpt>
      <trkpt lat="43.77557" lon="5.74528">
        <ele>494.39999389648</ele>
        <time>2020-12-23T14:03:02.000Z</time>
      </trkpt>
      <trkpt lat="43.77557" lon="5.74528">
        <ele>494</ele>
        <time>2020-12-23T14:03:03.000Z</time>
      </trkpt>
      <trkpt lat="43.77557" lon="5.74528">
        <ele>492.60000610352</ele>
        <time>2020-12-23T14:03:05.000Z</time>
      </trkpt>
      <trkpt lat="43.77557" lon="5.74528">
        <ele>491.39999389648</ele>
        <time>2020-12-23T14:03:07.000Z</time>
      </trkpt>
      <trkpt lat="43.77556" lon="5.74528">
        <ele>490.79998779297</ele>
        <time>2020-12-23T14:03:09.000Z</time>
      </trkpt>
      <trkpt lat="43.77553" lon="5.74529">
        <ele>490.60000610352</ele>
        <time>2020-12-23T14:03:11.000Z</time>
      </trkpt>
      <trkpt lat="43.77548" lon="5.74532">
        <ele>490.60000610352</ele>
        <time>2020-12-23T14:03:13.000Z</time>
      </trkpt>
      <trkpt lat="43.77542" lon="5.74538">
        <ele>490.39999389648</ele>
        <time>2020-12-23T14:03:15.000Z</time>
      </trkpt>
      <trkpt lat="43.77538" lon="5.74545">
        <ele>490.39999389648</ele>
        <time>2020-12-23T14:03:17.000Z</time>
      </trkpt>
      <trkpt lat="43.77531" lon="5.74546">
        <ele>490.39999389648</ele>
        <time>2020-12-23T14:03:19.000Z</time>
      </trkpt>
      <trkpt lat="43.77526" lon="5.74542">
        <ele>489.79998779297</ele>
        <time>2020-12-23T14:03:22.000Z</time>
      </trkpt>
      <trkpt lat="43.77524" lon="5.74542">
        <ele>489.60000610352</ele>
        <time>2020-12-23T14:03:23.000Z</time>
      </trkpt>
      <trkpt lat="43.7752" lon="5.74548">
        <ele>488.20001220703</ele>
        <time>2020-12-23T14:03:25.000Z</time>
      </trkpt>
      <trkpt lat="43.7752" lon="5.74556">
        <ele>486.79998779297</ele>
        <time>2020-12-23T14:03:27.000Z</time>
      </trkpt>
      <trkpt lat="43.77519" lon="5.74559">
        <ele>486.20001220703</ele>
        <time>2020-12-23T14:03:28.000Z</time>
      </trkpt>
      <trkpt lat="43.77513" lon="5.74561">
        <ele>485.79998779297</ele>
        <time>2020-12-23T14:03:30.000Z</time>
      </trkpt>
      <trkpt lat="43.77509" lon="5.74559">
        <ele>485.39999389648</ele>
        <time>2020-12-23T14:03:31.000Z</time>
      </trkpt>
      <trkpt lat="43.77501" lon="5.74551">
        <ele>484.39999389648</ele>
        <time>2020-12-23T14:03:33.000Z</time>
      </trkpt>
      <trkpt lat="43.77493" lon="5.74546">
        <ele>483.20001220703</ele>
        <time>2020-12-23T14:03:35.000Z</time>
      </trkpt>
      <trkpt lat="43.77485" lon="5.74551">
        <ele>481.79998779297</ele>
        <time>2020-12-23T14:03:37.000Z</time>
      </trkpt>
      <trkpt lat="43.77481" lon="5.74551">
        <ele>480.79998779297</ele>
        <time>2020-12-23T14:03:38.000Z</time>
      </trkpt>
      <trkpt lat="43.77478" lon="5.74551">
        <ele>480</ele>
        <time>2020-12-23T14:03:39.000Z</time>
      </trkpt>
      <trkpt lat="43.7747" lon="5.74549">
        <ele>479.20001220703</ele>
        <time>2020-12-23T14:03:42.000Z</time>
      </trkpt>
      <trkpt lat="43.77468" lon="5.74552">
        <ele>479</ele>
        <time>2020-12-23T14:03:43.000Z</time>
      </trkpt>
      <trkpt lat="43.77464" lon="5.74557">
        <ele>478.39999389648</ele>
        <time>2020-12-23T14:03:45.000Z</time>
      </trkpt>
      <trkpt lat="43.77462" lon="5.74557">
        <ele>477.79998779297</ele>
        <time>2020-12-23T14:03:46.000Z</time>
      </trkpt>
      <trkpt lat="43.77457" lon="5.74554">
        <ele>477</ele>
        <time>2020-12-23T14:03:48.000Z</time>
      </trkpt>
      <trkpt lat="43.77455" lon="5.74555">
        <ele>476.39999389648</ele>
        <time>2020-12-23T14:03:49.000Z</time>
      </trkpt>
      <trkpt lat="43.77454" lon="5.74555">
        <ele>475.60000610352</ele>
        <time>2020-12-23T14:03:50.000Z</time>
      </trkpt>
      <trkpt lat="43.77454" lon="5.74555">
        <ele>474.39999389648</ele>
        <time>2020-12-23T14:03:52.000Z</time>
      </trkpt>
      <trkpt lat="43.77453" lon="5.74556">
        <ele>474</ele>
        <time>2020-12-23T14:03:53.000Z</time>
      </trkpt>
      <trkpt lat="43.77451" lon="5.7456">
        <ele>473.20001220703</ele>
        <time>2020-12-23T14:03:55.000Z</time>
      </trkpt>
      <trkpt lat="43.77446" lon="5.74561">
        <ele>472</ele>
        <time>2020-12-23T14:03:57.000Z</time>
      </trkpt>
      <trkpt lat="43.77441" lon="5.74561">
        <ele>471</ele>
        <time>2020-12-23T14:03:59.000Z</time>
      </trkpt>
      <trkpt lat="43.77435" lon="5.74564">
        <ele>470.60000610352</ele>
        <time>2020-12-23T14:04:01.000Z</time>
      </trkpt>
      <trkpt lat="43.77429" lon="5.74565">
        <ele>470.39999389648</ele>
        <time>2020-12-23T14:04:03.000Z</time>
      </trkpt>
      <trkpt lat="43.77423" lon="5.74567">
        <ele>469.79998779297</ele>
        <time>2020-12-23T14:04:05.000Z</time>
      </trkpt>
      <trkpt lat="43.77419" lon="5.74569">
        <ele>469.79998779297</ele>
        <time>2020-12-23T14:04:06.000Z</time>
      </trkpt>
      <trkpt lat="43.77407" lon="5.7458">
        <ele>469</ele>
        <time>2020-12-23T14:04:10.000Z</time>
      </trkpt>
      <trkpt lat="43.77407" lon="5.74584">
        <ele>468.79998779297</ele>
        <time>2020-12-23T14:04:11.000Z</time>
      </trkpt>
      <trkpt lat="43.77414" lon="5.74592">
        <ele>467.60000610352</ele>
        <time>2020-12-23T14:04:14.000Z</time>
      </trkpt>
      <trkpt lat="43.77421" lon="5.74599">
        <ele>466</ele>
        <time>2020-12-23T14:04:16.000Z</time>
      </trkpt>
      <trkpt lat="43.77425" lon="5.746">
        <ele>465</ele>
        <time>2020-12-23T14:04:17.000Z</time>
      </trkpt>
      <trkpt lat="43.77428" lon="5.74601">
        <ele>464</ele>
        <time>2020-12-23T14:04:18.000Z</time>
      </trkpt>
      <trkpt lat="43.77434" lon="5.74602">
        <ele>463</ele>
        <time>2020-12-23T14:04:20.000Z</time>
      </trkpt>
      <trkpt lat="43.77436" lon="5.74602">
        <ele>462.39999389648</ele>
        <time>2020-12-23T14:04:21.000Z</time>
      </trkpt>
      <trkpt lat="43.77442" lon="5.74604">
        <ele>461.79998779297</ele>
        <time>2020-12-23T14:04:23.000Z</time>
      </trkpt>
      <trkpt lat="43.77449" lon="5.74609">
        <ele>460.39999389648</ele>
        <time>2020-12-23T14:04:25.000Z</time>
      </trkpt>
      <trkpt lat="43.77453" lon="5.74611">
        <ele>460.20001220703</ele>
        <time>2020-12-23T14:04:26.000Z</time>
      </trkpt>
      <trkpt lat="43.77457" lon="5.74614">
        <ele>460</ele>
        <time>2020-12-23T14:04:27.000Z</time>
      </trkpt>
      <trkpt lat="43.77466" lon="5.74619">
        <ele>459.79998779297</ele>
        <time>2020-12-23T14:04:29.000Z</time>
      </trkpt>
      <trkpt lat="43.7747" lon="5.74622">
        <ele>459.60000610352</ele>
        <time>2020-12-23T14:04:30.000Z</time>
      </trkpt>
      <trkpt lat="43.77473" lon="5.74625">
        <ele>459.20001220703</ele>
        <time>2020-12-23T14:04:31.000Z</time>
      </trkpt>
      <trkpt lat="43.7748" lon="5.7463">
        <ele>458.20001220703</ele>
        <time>2020-12-23T14:04:33.000Z</time>
      </trkpt>
      <trkpt lat="43.77483" lon="5.74633">
        <ele>457.60000610352</ele>
        <time>2020-12-23T14:04:34.000Z</time>
      </trkpt>
      <trkpt lat="43.77487" lon="5.74635">
        <ele>456.79998779297</ele>
        <time>2020-12-23T14:04:35.000Z</time>
      </trkpt>
      <trkpt lat="43.77494" lon="5.74639">
        <ele>455.79998779297</ele>
        <time>2020-12-23T14:04:37.000Z</time>
      </trkpt>
      <trkpt lat="43.77504" lon="5.74647">
        <ele>455.20001220703</ele>
        <time>2020-12-23T14:04:40.000Z</time>
      </trkpt>
      <trkpt lat="43.77507" lon="5.74651">
        <ele>455.20001220703</ele>
        <time>2020-12-23T14:04:41.000Z</time>
      </trkpt>
      <trkpt lat="43.77519" lon="5.74658">
        <ele>454.60000610352</ele>
        <time>2020-12-23T14:04:44.000Z</time>
      </trkpt>
      <trkpt lat="43.77537" lon="5.74663">
        <ele>453.39999389648</ele>
        <time>2020-12-23T14:04:48.000Z</time>
      </trkpt>
      <trkpt lat="43.7754" lon="5.74666">
        <ele>453</ele>
        <time>2020-12-23T14:04:49.000Z</time>
      </trkpt>
      <trkpt lat="43.77541" lon="5.74672">
        <ele>452</ele>
        <time>2020-12-23T14:04:51.000Z</time>
      </trkpt>
      <trkpt lat="43.77539" lon="5.74674">
        <ele>451.60000610352</ele>
        <time>2020-12-23T14:04:52.000Z</time>
      </trkpt>
      <trkpt lat="43.77536" lon="5.74677">
        <ele>450.79998779297</ele>
        <time>2020-12-23T14:04:53.000Z</time>
      </trkpt>
      <trkpt lat="43.77527" lon="5.74686">
        <ele>450.20001220703</ele>
        <time>2020-12-23T14:04:57.000Z</time>
      </trkpt>
      <trkpt lat="43.77524" lon="5.74693">
        <ele>450</ele>
        <time>2020-12-23T14:05:00.000Z</time>
      </trkpt>
      <trkpt lat="43.77517" lon="5.74702">
        <ele>449.79998779297</ele>
        <time>2020-12-23T14:05:04.000Z</time>
      </trkpt>
      <trkpt lat="43.77511" lon="5.74708">
        <ele>449.60000610352</ele>
        <time>2020-12-23T14:05:06.000Z</time>
      </trkpt>
      <trkpt lat="43.77507" lon="5.74711">
        <ele>449.60000610352</ele>
        <time>2020-12-23T14:05:07.000Z</time>
      </trkpt>
      <trkpt lat="43.77499" lon="5.74717">
        <ele>449.39999389648</ele>
        <time>2020-12-23T14:05:09.000Z</time>
      </trkpt>
      <trkpt lat="43.7749" lon="5.74726">
        <ele>449.20001220703</ele>
        <time>2020-12-23T14:05:11.000Z</time>
      </trkpt>
      <trkpt lat="43.77485" lon="5.74731">
        <ele>449.20001220703</ele>
        <time>2020-12-23T14:05:12.000Z</time>
      </trkpt>
      <trkpt lat="43.77481" lon="5.74734">
        <ele>449.20001220703</ele>
        <time>2020-12-23T14:05:13.000Z</time>
      </trkpt>
      <trkpt lat="43.77464" lon="5.74749">
        <ele>448.20001220703</ele>
        <time>2020-12-23T14:05:17.000Z</time>
      </trkpt>
      <trkpt lat="43.7746" lon="5.74753">
        <ele>447.60000610352</ele>
        <time>2020-12-23T14:05:18.000Z</time>
      </trkpt>
      <trkpt lat="43.77456" lon="5.74756">
        <ele>446.79998779297</ele>
        <time>2020-12-23T14:05:20.000Z</time>
      </trkpt>
      <trkpt lat="43.77446" lon="5.74762">
        <ele>445.60000610352</ele>
        <time>2020-12-23T14:05:23.000Z</time>
      </trkpt>
      <trkpt lat="43.77438" lon="5.74773">
        <ele>444.79998779297</ele>
        <time>2020-12-23T14:05:26.000Z</time>
      </trkpt>
      <trkpt lat="43.77438" lon="5.74779">
        <ele>444.79998779297</ele>
        <time>2020-12-23T14:05:29.000Z</time>
      </trkpt>
      <trkpt lat="43.77437" lon="5.7478">
        <ele>444.60000610352</ele>
        <time>2020-12-23T14:05:30.000Z</time>
      </trkpt>
      <trkpt lat="43.77436" lon="5.74781">
        <ele>444.60000610352</ele>
        <time>2020-12-23T14:05:31.000Z</time>
      </trkpt>
      <trkpt lat="43.77426" lon="5.74791">
        <ele>444.79998779297</ele>
        <time>2020-12-23T14:05:36.000Z</time>
      </trkpt>
      <trkpt lat="43.77417" lon="5.74808">
        <ele>445.20001220703</ele>
        <time>2020-12-23T14:05:42.000Z</time>
      </trkpt>
      <trkpt lat="43.77408" lon="5.74819">
        <ele>445.20001220703</ele>
        <time>2020-12-23T14:05:45.000Z</time>
      </trkpt>
      <trkpt lat="43.77404" lon="5.74829">
        <ele>445.20001220703</ele>
        <time>2020-12-23T14:05:47.000Z</time>
      </trkpt>
      <trkpt lat="43.77399" lon="5.74838">
        <ele>445</ele>
        <time>2020-12-23T14:05:49.000Z</time>
      </trkpt>
      <trkpt lat="43.77395" lon="5.74845">
        <ele>444.79998779297</ele>
        <time>2020-12-23T14:05:51.000Z</time>
      </trkpt>
      <trkpt lat="43.77395" lon="5.74849">
        <ele>444.60000610352</ele>
        <time>2020-12-23T14:05:52.000Z</time>
      </trkpt>
      <trkpt lat="43.77398" lon="5.74855">
        <ele>443.39999389648</ele>
        <time>2020-12-23T14:05:54.000Z</time>
      </trkpt>
      <trkpt lat="43.77399" lon="5.74857">
        <ele>443</ele>
        <time>2020-12-23T14:05:55.000Z</time>
      </trkpt>
      <trkpt lat="43.77403" lon="5.74861">
        <ele>442</ele>
        <time>2020-12-23T14:05:57.000Z</time>
      </trkpt>
      <trkpt lat="43.77404" lon="5.74862">
        <ele>441.39999389648</ele>
        <time>2020-12-23T14:05:58.000Z</time>
      </trkpt>
      <trkpt lat="43.7741" lon="5.74864">
        <ele>441</ele>
        <time>2020-12-23T14:06:01.000Z</time>
      </trkpt>
      <trkpt lat="43.77411" lon="5.74865">
        <ele>440.79998779297</ele>
        <time>2020-12-23T14:06:02.000Z</time>
      </trkpt>
      <trkpt lat="43.77413" lon="5.74876">
        <ele>440.79998779297</ele>
        <time>2020-12-23T14:06:05.000Z</time>
      </trkpt>
      <trkpt lat="43.77415" lon="5.74895">
        <ele>441.39999389648</ele>
        <time>2020-12-23T14:06:10.000Z</time>
      </trkpt>
      <trkpt lat="43.77416" lon="5.74915">
        <ele>442</ele>
        <time>2020-12-23T14:06:14.000Z</time>
      </trkpt>
      <trkpt lat="43.77417" lon="5.74921">
        <ele>442</ele>
        <time>2020-12-23T14:06:15.000Z</time>
      </trkpt>
      <trkpt lat="43.77422" lon="5.74933">
        <ele>442</ele>
        <time>2020-12-23T14:06:18.000Z</time>
      </trkpt>
      <trkpt lat="43.77428" lon="5.7494">
        <ele>441.79998779297</ele>
        <time>2020-12-23T14:06:21.000Z</time>
      </trkpt>
      <trkpt lat="43.77423" lon="5.74942">
        <ele>441.39999389648</ele>
        <time>2020-12-23T14:06:24.000Z</time>
      </trkpt>
      <trkpt lat="43.77419" lon="5.74941">
        <ele>440.79998779297</ele>
        <time>2020-12-23T14:06:26.000Z</time>
      </trkpt>
      <trkpt lat="43.77409" lon="5.74939">
        <ele>439.79998779297</ele>
        <time>2020-12-23T14:06:30.000Z</time>
      </trkpt>
      <trkpt lat="43.77402" lon="5.74935">
        <ele>438.79998779297</ele>
        <time>2020-12-23T14:06:33.000Z</time>
      </trkpt>
      <trkpt lat="43.774" lon="5.74936">
        <ele>438.60000610352</ele>
        <time>2020-12-23T14:06:34.000Z</time>
      </trkpt>
      <trkpt lat="43.77402" lon="5.74952">
        <ele>437.79998779297</ele>
        <time>2020-12-23T14:06:38.000Z</time>
      </trkpt>
      <trkpt lat="43.77401" lon="5.74958">
        <ele>437.39999389648</ele>
        <time>2020-12-23T14:06:39.000Z</time>
      </trkpt>
      <trkpt lat="43.77396" lon="5.74968">
        <ele>436.20001220703</ele>
        <time>2020-12-23T14:06:42.000Z</time>
      </trkpt>
      <trkpt lat="43.7739" lon="5.74968">
        <ele>434.60000610352</ele>
        <time>2020-12-23T14:06:44.000Z</time>
      </trkpt>
      <trkpt lat="43.77386" lon="5.74972">
        <ele>434</ele>
        <time>2020-12-23T14:06:46.000Z</time>
      </trkpt>
      <trkpt lat="43.77382" lon="5.74977">
        <ele>433.20001220703</ele>
        <time>2020-12-23T14:06:48.000Z</time>
      </trkpt>
      <trkpt lat="43.77377" lon="5.7498">
        <ele>432.39999389648</ele>
        <time>2020-12-23T14:06:50.000Z</time>
      </trkpt>
      <trkpt lat="43.77375" lon="5.74979">
        <ele>432</ele>
        <time>2020-12-23T14:06:51.000Z</time>
      </trkpt>
      <trkpt lat="43.77375" lon="5.7497">
        <ele>431.39999389648</ele>
        <time>2020-12-23T14:06:53.000Z</time>
      </trkpt>
      <trkpt lat="43.77377" lon="5.74966">
        <ele>431.20001220703</ele>
        <time>2020-12-23T14:06:54.000Z</time>
      </trkpt>
      <trkpt lat="43.77378" lon="5.7496">
        <ele>431.20001220703</ele>
        <time>2020-12-23T14:06:55.000Z</time>
      </trkpt>
      <trkpt lat="43.77379" lon="5.74954">
        <ele>431</ele>
        <time>2020-12-23T14:06:56.000Z</time>
      </trkpt>
      <trkpt lat="43.77381" lon="5.7495">
        <ele>430.79998779297</ele>
        <time>2020-12-23T14:06:57.000Z</time>
      </trkpt>
      <trkpt lat="43.77384" lon="5.74939">
        <ele>430</ele>
        <time>2020-12-23T14:07:01.000Z</time>
      </trkpt>
      <trkpt lat="43.77382" lon="5.74939">
        <ele>429.60000610352</ele>
        <time>2020-12-23T14:07:02.000Z</time>
      </trkpt>
      <trkpt lat="43.77377" lon="5.74944">
        <ele>428.79998779297</ele>
        <time>2020-12-23T14:07:04.000Z</time>
      </trkpt>
      <trkpt lat="43.77373" lon="5.74947">
        <ele>428.60000610352</ele>
        <time>2020-12-23T14:07:05.000Z</time>
      </trkpt>
      <trkpt lat="43.77368" lon="5.7495">
        <ele>428.39999389648</ele>
        <time>2020-12-23T14:07:06.000Z</time>
      </trkpt>
      <trkpt lat="43.77363" lon="5.74954">
        <ele>428.20001220703</ele>
        <time>2020-12-23T14:07:07.000Z</time>
      </trkpt>
      <trkpt lat="43.77354" lon="5.74963">
        <ele>428</ele>
        <time>2020-12-23T14:07:09.000Z</time>
      </trkpt>
      <trkpt lat="43.77349" lon="5.74973">
        <ele>427.60000610352</ele>
        <time>2020-12-23T14:07:11.000Z</time>
      </trkpt>
      <trkpt lat="43.77348" lon="5.74976">
        <ele>427.20001220703</ele>
        <time>2020-12-23T14:07:12.000Z</time>
      </trkpt>
      <trkpt lat="43.7735" lon="5.74984">
        <ele>426</ele>
        <time>2020-12-23T14:07:14.000Z</time>
      </trkpt>
      <trkpt lat="43.77355" lon="5.74997">
        <ele>425.20001220703</ele>
        <time>2020-12-23T14:07:17.000Z</time>
      </trkpt>
      <trkpt lat="43.77356" lon="5.75004">
        <ele>425</ele>
        <time>2020-12-23T14:07:19.000Z</time>
      </trkpt>
      <trkpt lat="43.77363" lon="5.75026">
        <ele>424.39999389648</ele>
        <time>2020-12-23T14:07:25.000Z</time>
      </trkpt>
      <trkpt lat="43.77364" lon="5.75042">
        <ele>424.39999389648</ele>
        <time>2020-12-23T14:07:28.000Z</time>
      </trkpt>
      <trkpt lat="43.77364" lon="5.75055">
        <ele>424.39999389648</ele>
        <time>2020-12-23T14:07:30.000Z</time>
      </trkpt>
      <trkpt lat="43.77366" lon="5.75087">
        <ele>423.79998779297</ele>
        <time>2020-12-23T14:07:35.000Z</time>
      </trkpt>
      <trkpt lat="43.77367" lon="5.75098">
        <ele>423.20001220703</ele>
        <time>2020-12-23T14:07:37.000Z</time>
      </trkpt>
      <trkpt lat="43.77368" lon="5.75104">
        <ele>422.60000610352</ele>
        <time>2020-12-23T14:07:38.000Z</time>
      </trkpt>
      <trkpt lat="43.77368" lon="5.75116">
        <ele>422</ele>
        <time>2020-12-23T14:07:40.000Z</time>
      </trkpt>
      <trkpt lat="43.77365" lon="5.75127">
        <ele>421.39999389648</ele>
        <time>2020-12-23T14:07:42.000Z</time>
      </trkpt>
      <trkpt lat="43.77355" lon="5.75142">
        <ele>420.39999389648</ele>
        <time>2020-12-23T14:07:45.000Z</time>
      </trkpt>
      <trkpt lat="43.77349" lon="5.75146">
        <ele>420</ele>
        <time>2020-12-23T14:07:46.000Z</time>
      </trkpt>
      <trkpt lat="43.77332" lon="5.75152">
        <ele>419.20001220703</ele>
        <time>2020-12-23T14:07:49.000Z</time>
      </trkpt>
      <trkpt lat="43.77326" lon="5.75152">
        <ele>418.79998779297</ele>
        <time>2020-12-23T14:07:50.000Z</time>
      </trkpt>
      <trkpt lat="43.77312" lon="5.75152">
        <ele>418</ele>
        <time>2020-12-23T14:07:52.000Z</time>
      </trkpt>
      <trkpt lat="43.77287" lon="5.75151">
        <ele>416.60000610352</ele>
        <time>2020-12-23T14:07:55.000Z</time>
      </trkpt>
      <trkpt lat="43.77271" lon="5.75152">
        <ele>415.60000610352</ele>
        <time>2020-12-23T14:07:57.000Z</time>
      </trkpt>
      <trkpt lat="43.77254" lon="5.75156">
        <ele>414.60000610352</ele>
        <time>2020-12-23T14:07:59.000Z</time>
      </trkpt>
      <trkpt lat="43.77245" lon="5.75159">
        <ele>414.20001220703</ele>
        <time>2020-12-23T14:08:00.000Z</time>
      </trkpt>
      <trkpt lat="43.77227" lon="5.75165">
        <ele>412.79998779297</ele>
        <time>2020-12-23T14:08:02.000Z</time>
      </trkpt>
      <trkpt lat="43.77207" lon="5.7517">
        <ele>411.39999389648</ele>
        <time>2020-12-23T14:08:04.000Z</time>
      </trkpt>
      <trkpt lat="43.77197" lon="5.75172">
        <ele>410.60000610352</ele>
        <time>2020-12-23T14:08:05.000Z</time>
      </trkpt>
      <trkpt lat="43.77178" lon="5.75174">
        <ele>409</ele>
        <time>2020-12-23T14:08:07.000Z</time>
      </trkpt>
      <trkpt lat="43.77159" lon="5.75178">
        <ele>407.39999389648</ele>
        <time>2020-12-23T14:08:09.000Z</time>
      </trkpt>
      <trkpt lat="43.77151" lon="5.7518">
        <ele>406.39999389648</ele>
        <time>2020-12-23T14:08:10.000Z</time>
      </trkpt>
      <trkpt lat="43.77141" lon="5.75181">
        <ele>405.39999389648</ele>
        <time>2020-12-23T14:08:11.000Z</time>
      </trkpt>
      <trkpt lat="43.77123" lon="5.75186">
        <ele>403.60000610352</ele>
        <time>2020-12-23T14:08:13.000Z</time>
      </trkpt>
      <trkpt lat="43.77104" lon="5.7519">
        <ele>401.79998779297</ele>
        <time>2020-12-23T14:08:15.000Z</time>
      </trkpt>
      <trkpt lat="43.77094" lon="5.75191">
        <ele>401.20001220703</ele>
        <time>2020-12-23T14:08:16.000Z</time>
      </trkpt>
      <trkpt lat="43.77085" lon="5.75192">
        <ele>400.60000610352</ele>
        <time>2020-12-23T14:08:17.000Z</time>
      </trkpt>
      <trkpt lat="43.7707" lon="5.75193">
        <ele>399.20001220703</ele>
        <time>2020-12-23T14:08:19.000Z</time>
      </trkpt>
      <trkpt lat="43.77062" lon="5.752">
        <ele>397.39999389648</ele>
        <time>2020-12-23T14:08:21.000Z</time>
      </trkpt>
      <trkpt lat="43.77061" lon="5.75205">
        <ele>396.39999389648</ele>
        <time>2020-12-23T14:08:22.000Z</time>
      </trkpt>
      <trkpt lat="43.77066" lon="5.75213">
        <ele>394.60000610352</ele>
        <time>2020-12-23T14:08:24.000Z</time>
      </trkpt>
      <trkpt lat="43.77074" lon="5.75216">
        <ele>393.39999389648</ele>
        <time>2020-12-23T14:08:26.000Z</time>
      </trkpt>
      <trkpt lat="43.77083" lon="5.75218">
        <ele>392.20001220703</ele>
        <time>2020-12-23T14:08:28.000Z</time>
      </trkpt>
      <trkpt lat="43.77094" lon="5.7522">
        <ele>391.20001220703</ele>
        <time>2020-12-23T14:08:30.000Z</time>
      </trkpt>
      <trkpt lat="43.77107" lon="5.75223">
        <ele>389.79998779297</ele>
        <time>2020-12-23T14:08:32.000Z</time>
      </trkpt>
      <trkpt lat="43.77113" lon="5.75225">
        <ele>389.20001220703</ele>
        <time>2020-12-23T14:08:33.000Z</time>
      </trkpt>
      <trkpt lat="43.77125" lon="5.75231">
        <ele>388.20001220703</ele>
        <time>2020-12-23T14:08:35.000Z</time>
      </trkpt>
      <trkpt lat="43.77144" lon="5.75244">
        <ele>387.20001220703</ele>
        <time>2020-12-23T14:08:38.000Z</time>
      </trkpt>
      <trkpt lat="43.77151" lon="5.75248">
        <ele>386.79998779297</ele>
        <time>2020-12-23T14:08:39.000Z</time>
      </trkpt>
      <trkpt lat="43.7717" lon="5.75262">
        <ele>385.79998779297</ele>
        <time>2020-12-23T14:08:42.000Z</time>
      </trkpt>
      <trkpt lat="43.7719" lon="5.75278">
        <ele>384.39999389648</ele>
        <time>2020-12-23T14:08:45.000Z</time>
      </trkpt>
      <trkpt lat="43.77213" lon="5.75304">
        <ele>383.20001220703</ele>
        <time>2020-12-23T14:08:49.000Z</time>
      </trkpt>
      <trkpt lat="43.77219" lon="5.75311">
        <ele>382.79998779297</ele>
        <time>2020-12-23T14:08:50.000Z</time>
      </trkpt>
      <trkpt lat="43.77225" lon="5.75316">
        <ele>382.20001220703</ele>
        <time>2020-12-23T14:08:51.000Z</time>
      </trkpt>
      <trkpt lat="43.77239" lon="5.7532">
        <ele>381.20001220703</ele>
        <time>2020-12-23T14:08:53.000Z</time>
      </trkpt>
      <trkpt lat="43.77246" lon="5.75319">
        <ele>380.79998779297</ele>
        <time>2020-12-23T14:08:54.000Z</time>
      </trkpt>
      <trkpt lat="43.77261" lon="5.75314">
        <ele>380</ele>
        <time>2020-12-23T14:08:56.000Z</time>
      </trkpt>
      <trkpt lat="43.77269" lon="5.75311">
        <ele>379.39999389648</ele>
        <time>2020-12-23T14:08:57.000Z</time>
      </trkpt>
      <trkpt lat="43.77277" lon="5.7531">
        <ele>379</ele>
        <time>2020-12-23T14:08:58.000Z</time>
      </trkpt>
      <trkpt lat="43.77293" lon="5.75311">
        <ele>377.60000610352</ele>
        <time>2020-12-23T14:09:00.000Z</time>
      </trkpt>
      <trkpt lat="43.77305" lon="5.75315">
        <ele>376.39999389648</ele>
        <time>2020-12-23T14:09:02.000Z</time>
      </trkpt>
      <trkpt lat="43.77309" lon="5.75318">
        <ele>375.60000610352</ele>
        <time>2020-12-23T14:09:03.000Z</time>
      </trkpt>
      <trkpt lat="43.77311" lon="5.75322">
        <ele>374.79998779297</ele>
        <time>2020-12-23T14:09:04.000Z</time>
      </trkpt>
      <trkpt lat="43.77311" lon="5.75332">
        <ele>373.39999389648</ele>
        <time>2020-12-23T14:09:06.000Z</time>
      </trkpt>
      <trkpt lat="43.77303" lon="5.75348">
        <ele>372.60000610352</ele>
        <time>2020-12-23T14:09:09.000Z</time>
      </trkpt>
      <trkpt lat="43.77294" lon="5.75352">
        <ele>372.20001220703</ele>
        <time>2020-12-23T14:09:11.000Z</time>
      </trkpt>
      <trkpt lat="43.77283" lon="5.75356">
        <ele>371.79998779297</ele>
        <time>2020-12-23T14:09:13.000Z</time>
      </trkpt>
      <trkpt lat="43.77277" lon="5.75358">
        <ele>371.20001220703</ele>
        <time>2020-12-23T14:09:14.000Z</time>
      </trkpt>
      <trkpt lat="43.77272" lon="5.7536">
        <ele>370.39999389648</ele>
        <time>2020-12-23T14:09:15.000Z</time>
      </trkpt>
      <trkpt lat="43.77266" lon="5.75364">
        <ele>369.60000610352</ele>
        <time>2020-12-23T14:09:16.000Z</time>
      </trkpt>
      <trkpt lat="43.77256" lon="5.75375">
        <ele>368.39999389648</ele>
        <time>2020-12-23T14:09:18.000Z</time>
      </trkpt>
      <trkpt lat="43.77241" lon="5.75412">
        <ele>366.79998779297</ele>
        <time>2020-12-23T14:09:22.000Z</time>
      </trkpt>
      <trkpt lat="43.77238" lon="5.75424">
        <ele>366.39999389648</ele>
        <time>2020-12-23T14:09:23.000Z</time>
      </trkpt>
      <trkpt lat="43.77232" lon="5.75462">
        <ele>365.79998779297</ele>
        <time>2020-12-23T14:09:26.000Z</time>
      </trkpt>
      <trkpt lat="43.77231" lon="5.75484">
        <ele>364</ele>
        <time>2020-12-23T14:09:28.000Z</time>
      </trkpt>
      <trkpt lat="43.77231" lon="5.75494">
        <ele>363.39999389648</ele>
        <time>2020-12-23T14:09:29.000Z</time>
      </trkpt>
      <trkpt lat="43.77232" lon="5.75504">
        <ele>362.39999389648</ele>
        <time>2020-12-23T14:09:30.000Z</time>
      </trkpt>
      <trkpt lat="43.77232" lon="5.75514">
        <ele>361.39999389648</ele>
        <time>2020-12-23T14:09:31.000Z</time>
      </trkpt>
      <trkpt lat="43.77231" lon="5.75524">
        <ele>360.20001220703</ele>
        <time>2020-12-23T14:09:32.000Z</time>
      </trkpt>
      <trkpt lat="43.77229" lon="5.7554">
        <ele>358.60000610352</ele>
        <time>2020-12-23T14:09:34.000Z</time>
      </trkpt>
      <trkpt lat="43.77226" lon="5.75554">
        <ele>357</ele>
        <time>2020-12-23T14:09:36.000Z</time>
      </trkpt>
      <trkpt lat="43.77225" lon="5.7557">
        <ele>355.60000610352</ele>
        <time>2020-12-23T14:09:38.000Z</time>
      </trkpt>
      <trkpt lat="43.77229" lon="5.75585">
        <ele>354.39999389648</ele>
        <time>2020-12-23T14:09:40.000Z</time>
      </trkpt>
      <trkpt lat="43.77232" lon="5.75591">
        <ele>354</ele>
        <time>2020-12-23T14:09:41.000Z</time>
      </trkpt>
      <trkpt lat="43.77241" lon="5.75601">
        <ele>353.20001220703</ele>
        <time>2020-12-23T14:09:43.000Z</time>
      </trkpt>
      <trkpt lat="43.77253" lon="5.7561">
        <ele>352.20001220703</ele>
        <time>2020-12-23T14:09:45.000Z</time>
      </trkpt>
      <trkpt lat="43.77259" lon="5.75615">
        <ele>351.60000610352</ele>
        <time>2020-12-23T14:09:46.000Z</time>
      </trkpt>
      <trkpt lat="43.77282" lon="5.75634">
        <ele>350.60000610352</ele>
        <time>2020-12-23T14:09:50.000Z</time>
      </trkpt>
      <trkpt lat="43.77297" lon="5.7565">
        <ele>349</ele>
        <time>2020-12-23T14:09:53.000Z</time>
      </trkpt>
      <trkpt lat="43.77302" lon="5.75655">
        <ele>348</ele>
        <time>2020-12-23T14:09:54.000Z</time>
      </trkpt>
      <trkpt lat="43.77315" lon="5.7567">
        <ele>347.20001220703</ele>
        <time>2020-12-23T14:09:57.000Z</time>
      </trkpt>
      <trkpt lat="43.77335" lon="5.75697">
        <ele>347</ele>
        <time>2020-12-23T14:10:03.000Z</time>
      </trkpt>
      <trkpt lat="43.7735" lon="5.75722">
        <ele>347</ele>
        <time>2020-12-23T14:10:09.000Z</time>
      </trkpt>
      <trkpt lat="43.7738" lon="5.75768">
        <ele>347.60000610352</ele>
        <time>2020-12-23T14:10:19.000Z</time>
      </trkpt>
      <trkpt lat="43.77404" lon="5.75804">
        <ele>348</ele>
        <time>2020-12-23T14:10:27.000Z</time>
      </trkpt>
      <trkpt lat="43.77417" lon="5.75823">
        <ele>348.60000610352</ele>
        <time>2020-12-23T14:10:31.000Z</time>
      </trkpt>
      <trkpt lat="43.77424" lon="5.75831">
        <ele>349</ele>
        <time>2020-12-23T14:10:33.000Z</time>
      </trkpt>
      <trkpt lat="43.77428" lon="5.75836">
        <ele>349</ele>
        <time>2020-12-23T14:10:34.000Z</time>
      </trkpt>
      <trkpt lat="43.77455" lon="5.75864">
        <ele>349.20001220703</ele>
        <time>2020-12-23T14:10:41.000Z</time>
      </trkpt>
      <trkpt lat="43.77485" lon="5.75889">
        <ele>349.20001220703</ele>
        <time>2020-12-23T14:10:48.000Z</time>
      </trkpt>
      <trkpt lat="43.77508" lon="5.7591">
        <ele>349.39999389648</ele>
        <time>2020-12-23T14:10:54.000Z</time>
      </trkpt>
      <trkpt lat="43.77521" lon="5.75921">
        <ele>350</ele>
        <time>2020-12-23T14:10:58.000Z</time>
      </trkpt>
      <trkpt lat="43.77525" lon="5.75925">
        <ele>350.20001220703</ele>
        <time>2020-12-23T14:10:59.000Z</time>
      </trkpt>
      <trkpt lat="43.77553" lon="5.75948">
        <ele>351</ele>
        <time>2020-12-23T14:11:05.000Z</time>
      </trkpt>
      <trkpt lat="43.77558" lon="5.75952">
        <ele>351</ele>
        <time>2020-12-23T14:11:06.000Z</time>
      </trkpt>
      <trkpt lat="43.77577" lon="5.75971">
        <ele>351</ele>
        <time>2020-12-23T14:11:11.000Z</time>
      </trkpt>
      <trkpt lat="43.77596" lon="5.75995">
        <ele>351</ele>
        <time>2020-12-23T14:11:16.000Z</time>
      </trkpt>
      <trkpt lat="43.77599" lon="5.76">
        <ele>351</ele>
        <time>2020-12-23T14:11:17.000Z</time>
      </trkpt>
      <trkpt lat="43.77612" lon="5.76023">
        <ele>351.20001220703</ele>
        <time>2020-12-23T14:11:22.000Z</time>
      </trkpt>
      <trkpt lat="43.77627" lon="5.76046">
        <ele>351.39999389648</ele>
        <time>2020-12-23T14:11:27.000Z</time>
      </trkpt>
      <trkpt lat="43.77653" lon="5.76078">
        <ele>351.60000610352</ele>
        <time>2020-12-23T14:11:33.000Z</time>
      </trkpt>
      <trkpt lat="43.77684" lon="5.76113">
        <ele>351</ele>
        <time>2020-12-23T14:11:40.000Z</time>
      </trkpt>
      <trkpt lat="43.77703" lon="5.76131">
        <ele>350</ele>
        <time>2020-12-23T14:11:44.000Z</time>
      </trkpt>
      <trkpt lat="43.77718" lon="5.76143">
        <ele>349.79998779297</ele>
        <time>2020-12-23T14:11:47.000Z</time>
      </trkpt>
      <trkpt lat="43.77732" lon="5.76155">
        <ele>348.79998779297</ele>
        <time>2020-12-23T14:11:50.000Z</time>
      </trkpt>
      <trkpt lat="43.77753" lon="5.76174">
        <ele>348</ele>
        <time>2020-12-23T14:11:54.000Z</time>
      </trkpt>
      <trkpt lat="43.77757" lon="5.7618">
        <ele>347.79998779297</ele>
        <time>2020-12-23T14:11:55.000Z</time>
      </trkpt>
      <trkpt lat="43.77782" lon="5.76205">
        <ele>346.79998779297</ele>
        <time>2020-12-23T14:12:00.000Z</time>
      </trkpt>
      <trkpt lat="43.778" lon="5.76218">
        <ele>345.60000610352</ele>
        <time>2020-12-23T14:12:03.000Z</time>
      </trkpt>
      <trkpt lat="43.77818" lon="5.76228">
        <ele>345</ele>
        <time>2020-12-23T14:12:06.000Z</time>
      </trkpt>
      <trkpt lat="43.7783" lon="5.76234">
        <ele>344.60000610352</ele>
        <time>2020-12-23T14:12:08.000Z</time>
      </trkpt>
      <trkpt lat="43.77847" lon="5.76242">
        <ele>343.60000610352</ele>
        <time>2020-12-23T14:12:11.000Z</time>
      </trkpt>
      <trkpt lat="43.77864" lon="5.76251">
        <ele>342.79998779297</ele>
        <time>2020-12-23T14:12:14.000Z</time>
      </trkpt>
      <trkpt lat="43.77878" lon="5.76259">
        <ele>342.60000610352</ele>
        <time>2020-12-23T14:12:17.000Z</time>
      </trkpt>
      <trkpt lat="43.77896" lon="5.7627">
        <ele>342.20001220703</ele>
        <time>2020-12-23T14:12:21.000Z</time>
      </trkpt>
      <trkpt lat="43.77925" lon="5.76282">
        <ele>342</ele>
        <time>2020-12-23T14:12:27.000Z</time>
      </trkpt>
      <trkpt lat="43.77959" lon="5.76287">
        <ele>342</ele>
        <time>2020-12-23T14:12:34.000Z</time>
      </trkpt>
      <trkpt lat="43.77999" lon="5.76291">
        <ele>342.39999389648</ele>
        <time>2020-12-23T14:12:42.000Z</time>
      </trkpt>
      <trkpt lat="43.78031" lon="5.76289">
        <ele>342.60000610352</ele>
        <time>2020-12-23T14:12:48.000Z</time>
      </trkpt>
      <trkpt lat="43.7806" lon="5.76286">
        <ele>342.60000610352</ele>
        <time>2020-12-23T14:12:54.000Z</time>
      </trkpt>
      <trkpt lat="43.78094" lon="5.7628">
        <ele>342.79998779297</ele>
        <time>2020-12-23T14:13:01.000Z</time>
      </trkpt>
      <trkpt lat="43.78125" lon="5.76271">
        <ele>343</ele>
        <time>2020-12-23T14:13:08.000Z</time>
      </trkpt>
      <trkpt lat="43.78158" lon="5.76259">
        <ele>343.39999389648</ele>
        <time>2020-12-23T14:13:16.000Z</time>
      </trkpt>
      <trkpt lat="43.78189" lon="5.76249">
        <ele>343.39999389648</ele>
        <time>2020-12-23T14:13:23.000Z</time>
      </trkpt>
      <trkpt lat="43.7822" lon="5.76236">
        <ele>342.79998779297</ele>
        <time>2020-12-23T14:13:28.000Z</time>
      </trkpt>
      <trkpt lat="43.78251" lon="5.76224">
        <ele>341.60000610352</ele>
        <time>2020-12-23T14:13:32.000Z</time>
      </trkpt>
      <trkpt lat="43.78267" lon="5.76218">
        <ele>340</ele>
        <time>2020-12-23T14:13:34.000Z</time>
      </trkpt>
      <trkpt lat="43.78282" lon="5.76213">
        <ele>337.60000610352</ele>
        <time>2020-12-23T14:13:36.000Z</time>
      </trkpt>
      <trkpt lat="43.7829" lon="5.7621">
        <ele>336.39999389648</ele>
        <time>2020-12-23T14:13:37.000Z</time>
      </trkpt>
      <trkpt lat="43.78297" lon="5.76207">
        <ele>335.20001220703</ele>
        <time>2020-12-23T14:13:38.000Z</time>
      </trkpt>
      <trkpt lat="43.78303" lon="5.76204">
        <ele>333.79998779297</ele>
        <time>2020-12-23T14:13:39.000Z</time>
      </trkpt>
      <trkpt lat="43.78309" lon="5.762">
        <ele>332.79998779297</ele>
        <time>2020-12-23T14:13:40.000Z</time>
      </trkpt>
      <trkpt lat="43.78315" lon="5.76195">
        <ele>332.60000610352</ele>
        <time>2020-12-23T14:13:41.000Z</time>
      </trkpt>
      <trkpt lat="43.78346" lon="5.76171">
        <ele>331.60000610352</ele>
        <time>2020-12-23T14:13:46.000Z</time>
      </trkpt>
      <trkpt lat="43.78359" lon="5.76163">
        <ele>331.39999389648</ele>
        <time>2020-12-23T14:13:48.000Z</time>
      </trkpt>
      <trkpt lat="43.78366" lon="5.7616">
        <ele>331.20001220703</ele>
        <time>2020-12-23T14:13:49.000Z</time>
      </trkpt>
      <trkpt lat="43.78375" lon="5.7616">
        <ele>331</ele>
        <time>2020-12-23T14:13:50.000Z</time>
      </trkpt>
      <trkpt lat="43.78401" lon="5.76168">
        <ele>330.39999389648</ele>
        <time>2020-12-23T14:13:53.000Z</time>
      </trkpt>
      <trkpt lat="43.78409" lon="5.76172">
        <ele>329.79998779297</ele>
        <time>2020-12-23T14:13:54.000Z</time>
      </trkpt>
      <trkpt lat="43.78426" lon="5.7618">
        <ele>328.79998779297</ele>
        <time>2020-12-23T14:13:56.000Z</time>
      </trkpt>
      <trkpt lat="43.78441" lon="5.76188">
        <ele>327.20001220703</ele>
        <time>2020-12-23T14:13:58.000Z</time>
      </trkpt>
      <trkpt lat="43.78448" lon="5.76191">
        <ele>325.79998779297</ele>
        <time>2020-12-23T14:13:59.000Z</time>
      </trkpt>
      <trkpt lat="43.78454" lon="5.76194">
        <ele>325</ele>
        <time>2020-12-23T14:14:00.000Z</time>
      </trkpt>
      <trkpt lat="43.7846" lon="5.76197">
        <ele>324.20001220703</ele>
        <time>2020-12-23T14:14:01.000Z</time>
      </trkpt>
      <trkpt lat="43.78485" lon="5.76207">
        <ele>323.60000610352</ele>
        <time>2020-12-23T14:14:05.000Z</time>
      </trkpt>
      <trkpt lat="43.7849" lon="5.76211">
        <ele>323.39999389648</ele>
        <time>2020-12-23T14:14:06.000Z</time>
      </trkpt>
      <trkpt lat="43.78496" lon="5.76226">
        <ele>323.39999389648</ele>
        <time>2020-12-23T14:14:08.000Z</time>
      </trkpt>
      <trkpt lat="43.78498" lon="5.76242">
        <ele>323.20001220703</ele>
        <time>2020-12-23T14:14:10.000Z</time>
      </trkpt>
      <trkpt lat="43.78499" lon="5.7625">
        <ele>323.20001220703</ele>
        <time>2020-12-23T14:14:11.000Z</time>
      </trkpt>
      <trkpt lat="43.78501" lon="5.76265">
        <ele>322.79998779297</ele>
        <time>2020-12-23T14:14:13.000Z</time>
      </trkpt>
      <trkpt lat="43.7851" lon="5.76327">
        <ele>322.39999389648</ele>
        <time>2020-12-23T14:14:22.000Z</time>
      </trkpt>
      <trkpt lat="43.78513" lon="5.76341">
        <ele>322.39999389648</ele>
        <time>2020-12-23T14:14:24.000Z</time>
      </trkpt>
      <trkpt lat="43.78516" lon="5.76359">
        <ele>322.39999389648</ele>
        <time>2020-12-23T14:14:27.000Z</time>
      </trkpt>
      <trkpt lat="43.78516" lon="5.76368">
        <ele>322.39999389648</ele>
        <time>2020-12-23T14:14:29.000Z</time>
      </trkpt>
      <trkpt lat="43.78514" lon="5.76371">
        <ele>322.39999389648</ele>
        <time>2020-12-23T14:14:30.000Z</time>
      </trkpt>
      <trkpt lat="43.7851" lon="5.76373">
        <ele>322.20001220703</ele>
        <time>2020-12-23T14:14:32.000Z</time>
      </trkpt>
      <trkpt lat="43.78508" lon="5.76371">
        <ele>322.20001220703</ele>
        <time>2020-12-23T14:14:33.000Z</time>
      </trkpt>
      <trkpt lat="43.78505" lon="5.76361">
        <ele>322</ele>
        <time>2020-12-23T14:14:37.000Z</time>
      </trkpt>
      <trkpt lat="43.78504" lon="5.7636">
        <ele>322</ele>
        <time>2020-12-23T14:14:42.000Z</time>
      </trkpt>
      <trkpt lat="43.78503" lon="5.7636">
        <ele>321.39999389648</ele>
        <time>2020-12-23T14:15:53.000Z</time>
      </trkpt>
      <trkpt lat="43.78503" lon="5.7636">
        <ele>321.39999389648</ele>
        <time>2020-12-23T14:15:55.000Z</time>
      </trkpt>
      <trkpt lat="43.78503" lon="5.7636">
        <ele>321.39999389648</ele>
        <time>2020-12-23T14:16:00.000Z</time>
      </trkpt>
    </trkseg>
  </trk>
</gpx>